<?xml version="1.0" encoding="UTF-8" standalone="no" ?>
<gpx xmlns="http://www.topografix.com/GPX/1/1" creator="MapSource 6.15.3" version="1.1" xmlns:xsi="http://www.w3.org/2001/XMLSchema-instance" xsi:schemaLocation="http://www.topografix.com/GPX/1/1 http://www.topografix.com/GPX/1/1/gpx.xsd">

  <metadata>
    <link href="http://www.garmin.com">
      <text>Garmin International</text>
    </link>
    <time>2009-05-07T06:47:31Z</time>
    <bounds maxlat="45.6787600" maxlon="9.0256460" minlat="45.5404610" minlon="8.6650380"/>
  </metadata>

  <wpt lat="45.6668750" lon="8.6779850">
    <ele>185.5664063</ele>
    <time>2009-05-04T07:00:56Z</time>
    <name>CHIUSE</name>
    <cmt>Canale</cmt>
    <desc>Canale</desc>
    <sym>Flag, Blue</sym>
    <extensions>
      <gpxx:WaypointExtension xmlns:gpxx="http://www.garmin.com/xmlschemas/GpxExtensions/v3">
        <gpxx:DisplayMode>SymbolAndName</gpxx:DisplayMode>
      </gpxx:WaypointExtension>
    </extensions>
  </wpt>

  <wpt lat="45.5707500" lon="9.0254167">
    <ele>217.0000000</ele>
    <time>2009-05-07T06:43:09Z</time>
    <name>PARTENZA/ARRIVO</name>
    <cmt>Piazzale Alcide de Gasperi e Via Magenta</cmt>
    <desc>Piazzale Alcide de Gasperi e Via Magenta</desc>
    <sym>Bike Trail</sym>
    <extensions>
      <gpxx:WaypointExtension xmlns:gpxx="http://www.garmin.com/xmlschemas/GpxExtensions/v3">
        <gpxx:DisplayMode>SymbolAndName</gpxx:DisplayMode>
      </gpxx:WaypointExtension>
    </extensions>
  </wpt>

  <wpt lat="45.6764240" lon="8.6650380">
    <ele>201.0000000</ele>
    <time>2009-05-04T07:02:11Z</time>
    <name>RISTORANTE/PUNTO DI RITORNO</name>
    <cmt>Boschi Misti</cmt>
    <desc>Boschi Misti</desc>
    <sym>Restaurant</sym>
    <extensions>
      <gpxx:WaypointExtension xmlns:gpxx="http://www.garmin.com/xmlschemas/GpxExtensions/v3">
        <gpxx:DisplayMode>SymbolAndName</gpxx:DisplayMode>
      </gpxx:WaypointExtension>
    </extensions>
  </wpt>

  <wpt lat="45.5830260" lon="8.7079020">
    <ele>186.0000000</ele>
    <time>2009-05-04T06:59:31Z</time>
    <name>TORNAVENTO</name>
    <cmt>Tessuto Urbano Discontinuo</cmt>
    <desc>Tessuto Urbano Discontinuo</desc>
    <sym>Bar</sym>
    <extensions>
      <gpxx:WaypointExtension xmlns:gpxx="http://www.garmin.com/xmlschemas/GpxExtensions/v3">
        <gpxx:DisplayMode>SymbolAndName</gpxx:DisplayMode>
      </gpxx:WaypointExtension>
    </extensions>
  </wpt>

  <trk>
    <name>03 MAG 2009</name>
    <extensions>
      <gpxx:TrackExtension xmlns:gpxx="http://www.garmin.com/xmlschemas/GpxExtensions/v3">
        <gpxx:DisplayColor>White</gpxx:DisplayColor>
      </gpxx:TrackExtension>
    </extensions>
    <trkseg>
      <trkpt lat="45.5707570" lon="9.0254210">
        <ele>180.3800000</ele>
        <time>2009-05-03T07:41:31Z</time>
      </trkpt>
      <trkpt lat="45.5707970" lon="9.0253610">
        <ele>180.8700000</ele>
        <time>2009-05-03T07:41:47Z</time>
      </trkpt>
      <trkpt lat="45.5708050" lon="9.0253220">
        <ele>180.8700000</ele>
        <time>2009-05-03T07:41:49Z</time>
      </trkpt>
      <trkpt lat="45.5707020" lon="9.0251270">
        <ele>180.8700000</ele>
        <time>2009-05-03T07:41:54Z</time>
      </trkpt>
      <trkpt lat="45.5705080" lon="9.0246470">
        <ele>180.8700000</ele>
        <time>2009-05-03T07:42:05Z</time>
      </trkpt>
      <trkpt lat="45.5704550" lon="9.0242020">
        <ele>180.8700000</ele>
        <time>2009-05-03T07:42:16Z</time>
      </trkpt>
      <trkpt lat="45.5703530" lon="9.0238710">
        <ele>180.8700000</ele>
        <time>2009-05-03T07:42:24Z</time>
      </trkpt>
      <trkpt lat="45.5702310" lon="9.0235390">
        <ele>181.3500000</ele>
        <time>2009-05-03T07:42:33Z</time>
      </trkpt>
      <trkpt lat="45.5700300" lon="9.0230290">
        <ele>182.3100000</ele>
        <time>2009-05-03T07:42:44Z</time>
      </trkpt>
      <trkpt lat="45.5699450" lon="9.0227860">
        <ele>182.3100000</ele>
        <time>2009-05-03T07:42:49Z</time>
      </trkpt>
      <trkpt lat="45.5697030" lon="9.0222870">
        <ele>182.7900000</ele>
        <time>2009-05-03T07:43:01Z</time>
      </trkpt>
      <trkpt lat="45.5692740" lon="9.0220310">
        <ele>182.3100000</ele>
        <time>2009-05-03T07:43:12Z</time>
      </trkpt>
      <trkpt lat="45.5689290" lon="9.0218810">
        <ele>182.3100000</ele>
        <time>2009-05-03T07:43:23Z</time>
      </trkpt>
      <trkpt lat="45.5687630" lon="9.0218000">
        <ele>181.8300000</ele>
        <time>2009-05-03T07:43:27Z</time>
      </trkpt>
      <trkpt lat="45.5687310" lon="9.0217300">
        <ele>182.3100000</ele>
        <time>2009-05-03T07:43:28Z</time>
      </trkpt>
      <trkpt lat="45.5686670" lon="9.0217260">
        <ele>182.3100000</ele>
        <time>2009-05-03T07:43:29Z</time>
      </trkpt>
      <trkpt lat="45.5680660" lon="9.0212260">
        <ele>181.8300000</ele>
        <time>2009-05-03T07:43:43Z</time>
      </trkpt>
      <trkpt lat="45.5675910" lon="9.0207910">
        <ele>181.8300000</ele>
        <time>2009-05-03T07:43:56Z</time>
      </trkpt>
      <trkpt lat="45.5672130" lon="9.0204710">
        <ele>181.8300000</ele>
        <time>2009-05-03T07:44:08Z</time>
      </trkpt>
      <trkpt lat="45.5668380" lon="9.0200490">
        <ele>181.3500000</ele>
        <time>2009-05-03T07:44:20Z</time>
      </trkpt>
      <trkpt lat="45.5664110" lon="9.0195400">
        <ele>181.8300000</ele>
        <time>2009-05-03T07:44:34Z</time>
      </trkpt>
      <trkpt lat="45.5660440" lon="9.0190560">
        <ele>181.3500000</ele>
        <time>2009-05-03T07:44:46Z</time>
      </trkpt>
      <trkpt lat="45.5657350" lon="9.0185240">
        <ele>181.8300000</ele>
        <time>2009-05-03T07:44:57Z</time>
      </trkpt>
      <trkpt lat="45.5653560" lon="9.0178640">
        <ele>181.3500000</ele>
        <time>2009-05-03T07:45:10Z</time>
      </trkpt>
      <trkpt lat="45.5651190" lon="9.0174210">
        <ele>181.3500000</ele>
        <time>2009-05-03T07:45:20Z</time>
      </trkpt>
      <trkpt lat="45.5647940" lon="9.0167040">
        <ele>181.3500000</ele>
        <time>2009-05-03T07:45:34Z</time>
      </trkpt>
      <trkpt lat="45.5646220" lon="9.0162710">
        <ele>181.3500000</ele>
        <time>2009-05-03T07:45:43Z</time>
      </trkpt>
      <trkpt lat="45.5643830" lon="9.0156790">
        <ele>181.3500000</ele>
        <time>2009-05-03T07:45:55Z</time>
      </trkpt>
      <trkpt lat="45.5641360" lon="9.0148440">
        <ele>181.3500000</ele>
        <time>2009-05-03T07:46:09Z</time>
      </trkpt>
      <trkpt lat="45.5639380" lon="9.0140050">
        <ele>181.8300000</ele>
        <time>2009-05-03T07:46:24Z</time>
      </trkpt>
      <trkpt lat="45.5637870" lon="9.0132940">
        <ele>181.8300000</ele>
        <time>2009-05-03T07:46:38Z</time>
      </trkpt>
      <trkpt lat="45.5636060" lon="9.0123130">
        <ele>181.3500000</ele>
        <time>2009-05-03T07:46:54Z</time>
      </trkpt>
      <trkpt lat="45.5634170" lon="9.0116250">
        <ele>182.7900000</ele>
        <time>2009-05-03T07:47:07Z</time>
      </trkpt>
      <trkpt lat="45.5633230" lon="9.0110370">
        <ele>181.8300000</ele>
        <time>2009-05-03T07:47:17Z</time>
      </trkpt>
      <trkpt lat="45.5633350" lon="9.0109610">
        <ele>181.8300000</ele>
        <time>2009-05-03T07:47:18Z</time>
      </trkpt>
      <trkpt lat="45.5633410" lon="9.0108980">
        <ele>181.8300000</ele>
        <time>2009-05-03T07:47:19Z</time>
      </trkpt>
      <trkpt lat="45.5633360" lon="9.0108120">
        <ele>181.8300000</ele>
        <time>2009-05-03T07:47:20Z</time>
      </trkpt>
      <trkpt lat="45.5633310" lon="9.0107210">
        <ele>181.8300000</ele>
        <time>2009-05-03T07:47:21Z</time>
      </trkpt>
      <trkpt lat="45.5631900" lon="9.0097550">
        <ele>181.3500000</ele>
        <time>2009-05-03T07:47:35Z</time>
      </trkpt>
      <trkpt lat="45.5630250" lon="9.0088620">
        <ele>181.3500000</ele>
        <time>2009-05-03T07:47:49Z</time>
      </trkpt>
      <trkpt lat="45.5629030" lon="9.0081150">
        <ele>181.3500000</ele>
        <time>2009-05-03T07:48:02Z</time>
      </trkpt>
      <trkpt lat="45.5627240" lon="9.0070940">
        <ele>181.3500000</ele>
        <time>2009-05-03T07:48:18Z</time>
      </trkpt>
      <trkpt lat="45.5625770" lon="9.0062400">
        <ele>181.3500000</ele>
        <time>2009-05-03T07:48:32Z</time>
      </trkpt>
      <trkpt lat="45.5624250" lon="9.0053690">
        <ele>181.3500000</ele>
        <time>2009-05-03T07:48:45Z</time>
      </trkpt>
      <trkpt lat="45.5624060" lon="9.0052320">
        <ele>180.8700000</ele>
        <time>2009-05-03T07:48:47Z</time>
      </trkpt>
      <trkpt lat="45.5622080" lon="9.0040850">
        <ele>181.3500000</ele>
        <time>2009-05-03T07:49:01Z</time>
      </trkpt>
      <trkpt lat="45.5620550" lon="9.0030920">
        <ele>180.8700000</ele>
        <time>2009-05-03T07:49:14Z</time>
      </trkpt>
      <trkpt lat="45.5618850" lon="9.0021580">
        <ele>181.3500000</ele>
        <time>2009-05-03T07:49:29Z</time>
      </trkpt>
      <trkpt lat="45.5617510" lon="9.0012500">
        <ele>180.8700000</ele>
        <time>2009-05-03T07:49:43Z</time>
      </trkpt>
      <trkpt lat="45.5615840" lon="9.0002540">
        <ele>180.8700000</ele>
        <time>2009-05-03T07:49:58Z</time>
      </trkpt>
      <trkpt lat="45.5614260" lon="8.9995940">
        <ele>181.8300000</ele>
        <time>2009-05-03T07:50:10Z</time>
      </trkpt>
      <trkpt lat="45.5613450" lon="8.9992870">
        <ele>182.7900000</ele>
        <time>2009-05-03T07:50:20Z</time>
      </trkpt>
      <trkpt lat="45.5613390" lon="8.9989540">
        <ele>181.8300000</ele>
        <time>2009-05-03T07:50:27Z</time>
      </trkpt>
      <trkpt lat="45.5613160" lon="8.9986870">
        <ele>181.3500000</ele>
        <time>2009-05-03T07:50:31Z</time>
      </trkpt>
      <trkpt lat="45.5611840" lon="8.9978520">
        <ele>180.8700000</ele>
        <time>2009-05-03T07:50:45Z</time>
      </trkpt>
      <trkpt lat="45.5611050" lon="8.9974020">
        <ele>180.8700000</ele>
        <time>2009-05-03T07:50:56Z</time>
      </trkpt>
      <trkpt lat="45.5609950" lon="8.9966690">
        <ele>180.8700000</ele>
        <time>2009-05-03T07:51:08Z</time>
      </trkpt>
      <trkpt lat="45.5608290" lon="8.9957200">
        <ele>180.8700000</ele>
        <time>2009-05-03T07:51:23Z</time>
      </trkpt>
      <trkpt lat="45.5607070" lon="8.9949680">
        <ele>180.8700000</ele>
        <time>2009-05-03T07:51:35Z</time>
      </trkpt>
      <trkpt lat="45.5606060" lon="8.9943490">
        <ele>180.8700000</ele>
        <time>2009-05-03T07:51:46Z</time>
      </trkpt>
      <trkpt lat="45.5605750" lon="8.9940860">
        <ele>180.8700000</ele>
        <time>2009-05-03T07:51:50Z</time>
      </trkpt>
      <trkpt lat="45.5604280" lon="8.9932240">
        <ele>181.3500000</ele>
        <time>2009-05-03T07:52:02Z</time>
      </trkpt>
      <trkpt lat="45.5602960" lon="8.9923960">
        <ele>181.3500000</ele>
        <time>2009-05-03T07:52:15Z</time>
      </trkpt>
      <trkpt lat="45.5602050" lon="8.9918110">
        <ele>181.3500000</ele>
        <time>2009-05-03T07:52:24Z</time>
      </trkpt>
      <trkpt lat="45.5600050" lon="8.9907230">
        <ele>181.3500000</ele>
        <time>2009-05-03T07:52:40Z</time>
      </trkpt>
      <trkpt lat="45.5598450" lon="8.9897310">
        <ele>181.8300000</ele>
        <time>2009-05-03T07:52:56Z</time>
      </trkpt>
      <trkpt lat="45.5597790" lon="8.9893440">
        <ele>181.8300000</ele>
        <time>2009-05-03T07:53:02Z</time>
      </trkpt>
      <trkpt lat="45.5596520" lon="8.9885880">
        <ele>181.8300000</ele>
        <time>2009-05-03T07:53:13Z</time>
      </trkpt>
      <trkpt lat="45.5595560" lon="8.9879730">
        <ele>181.8300000</ele>
        <time>2009-05-03T07:53:22Z</time>
      </trkpt>
      <trkpt lat="45.5593910" lon="8.9870010">
        <ele>181.3500000</ele>
        <time>2009-05-03T07:53:36Z</time>
      </trkpt>
      <trkpt lat="45.5592330" lon="8.9860330">
        <ele>181.3500000</ele>
        <time>2009-05-03T07:53:50Z</time>
      </trkpt>
      <trkpt lat="45.5591470" lon="8.9855570">
        <ele>181.3500000</ele>
        <time>2009-05-03T07:53:57Z</time>
      </trkpt>
      <trkpt lat="45.5591330" lon="8.9854920">
        <ele>181.3500000</ele>
        <time>2009-05-03T07:53:58Z</time>
      </trkpt>
      <trkpt lat="45.5589830" lon="8.9845410">
        <ele>181.3500000</ele>
        <time>2009-05-03T07:54:12Z</time>
      </trkpt>
      <trkpt lat="45.5589660" lon="8.9844090">
        <ele>181.3500000</ele>
        <time>2009-05-03T07:54:14Z</time>
      </trkpt>
      <trkpt lat="45.5589540" lon="8.9843440">
        <ele>181.8300000</ele>
        <time>2009-05-03T07:54:15Z</time>
      </trkpt>
      <trkpt lat="45.5587710" lon="8.9833490">
        <ele>181.8300000</ele>
        <time>2009-05-03T07:54:29Z</time>
      </trkpt>
      <trkpt lat="45.5586360" lon="8.9824420">
        <ele>181.8300000</ele>
        <time>2009-05-03T07:54:42Z</time>
      </trkpt>
      <trkpt lat="45.5584600" lon="8.9814720">
        <ele>181.8300000</ele>
        <time>2009-05-03T07:54:56Z</time>
      </trkpt>
      <trkpt lat="45.5584420" lon="8.9813250">
        <ele>181.8300000</ele>
        <time>2009-05-03T07:54:58Z</time>
      </trkpt>
      <trkpt lat="45.5584310" lon="8.9812610">
        <ele>181.8300000</ele>
        <time>2009-05-03T07:54:59Z</time>
      </trkpt>
      <trkpt lat="45.5584210" lon="8.9811940">
        <ele>181.8300000</ele>
        <time>2009-05-03T07:55:00Z</time>
      </trkpt>
      <trkpt lat="45.5582790" lon="8.9803330">
        <ele>181.8300000</ele>
        <time>2009-05-03T07:55:13Z</time>
      </trkpt>
      <trkpt lat="45.5581480" lon="8.9795810">
        <ele>181.8300000</ele>
        <time>2009-05-03T07:55:24Z</time>
      </trkpt>
      <trkpt lat="45.5580400" lon="8.9791980">
        <ele>183.2700000</ele>
        <time>2009-05-03T07:55:34Z</time>
      </trkpt>
      <trkpt lat="45.5579880" lon="8.9789500">
        <ele>183.2700000</ele>
        <time>2009-05-03T07:55:43Z</time>
      </trkpt>
      <trkpt lat="45.5579840" lon="8.9788820">
        <ele>182.3100000</ele>
        <time>2009-05-03T07:55:44Z</time>
      </trkpt>
      <trkpt lat="45.5579820" lon="8.9787950">
        <ele>182.3100000</ele>
        <time>2009-05-03T07:55:45Z</time>
      </trkpt>
      <trkpt lat="45.5579930" lon="8.9787180">
        <ele>181.8300000</ele>
        <time>2009-05-03T07:55:46Z</time>
      </trkpt>
      <trkpt lat="45.5580050" lon="8.9786160">
        <ele>181.8300000</ele>
        <time>2009-05-03T07:55:47Z</time>
      </trkpt>
      <trkpt lat="45.5582330" lon="8.9774740">
        <ele>181.8300000</ele>
        <time>2009-05-03T07:55:59Z</time>
      </trkpt>
      <trkpt lat="45.5585240" lon="8.9763620">
        <ele>181.8300000</ele>
        <time>2009-05-03T07:56:12Z</time>
      </trkpt>
      <trkpt lat="45.5586420" lon="8.9759530">
        <ele>181.3500000</ele>
        <time>2009-05-03T07:56:18Z</time>
      </trkpt>
      <trkpt lat="45.5587300" lon="8.9756780">
        <ele>181.8300000</ele>
        <time>2009-05-03T07:56:22Z</time>
      </trkpt>
      <trkpt lat="45.5587660" lon="8.9755330">
        <ele>181.3500000</ele>
        <time>2009-05-03T07:56:24Z</time>
      </trkpt>
      <trkpt lat="45.5589950" lon="8.9747440">
        <ele>181.3500000</ele>
        <time>2009-05-03T07:56:37Z</time>
      </trkpt>
      <trkpt lat="45.5591150" lon="8.9742500">
        <ele>181.3500000</ele>
        <time>2009-05-03T07:56:45Z</time>
      </trkpt>
      <trkpt lat="45.5593850" lon="8.9732590">
        <ele>181.3500000</ele>
        <time>2009-05-03T07:57:01Z</time>
      </trkpt>
      <trkpt lat="45.5594460" lon="8.9730710">
        <ele>180.8700000</ele>
        <time>2009-05-03T07:57:04Z</time>
      </trkpt>
      <trkpt lat="45.5599040" lon="8.9723520">
        <ele>181.3500000</ele>
        <time>2009-05-03T07:57:18Z</time>
      </trkpt>
      <trkpt lat="45.5601930" lon="8.9719750">
        <ele>181.3500000</ele>
        <time>2009-05-03T07:57:26Z</time>
      </trkpt>
      <trkpt lat="45.5606040" lon="8.9714620">
        <ele>181.3500000</ele>
        <time>2009-05-03T07:57:37Z</time>
      </trkpt>
      <trkpt lat="45.5608090" lon="8.9711780">
        <ele>180.8700000</ele>
        <time>2009-05-03T07:57:43Z</time>
      </trkpt>
      <trkpt lat="45.5608310" lon="8.9711270">
        <ele>181.3500000</ele>
        <time>2009-05-03T07:57:44Z</time>
      </trkpt>
      <trkpt lat="45.5608510" lon="8.9710690">
        <ele>180.8700000</ele>
        <time>2009-05-03T07:57:45Z</time>
      </trkpt>
      <trkpt lat="45.5608600" lon="8.9710050">
        <ele>180.8700000</ele>
        <time>2009-05-03T07:57:46Z</time>
      </trkpt>
      <trkpt lat="45.5608630" lon="8.9709420">
        <ele>180.3800000</ele>
        <time>2009-05-03T07:57:47Z</time>
      </trkpt>
      <trkpt lat="45.5608600" lon="8.9708730">
        <ele>180.3800000</ele>
        <time>2009-05-03T07:57:48Z</time>
      </trkpt>
      <trkpt lat="45.5608610" lon="8.9708230">
        <ele>180.8700000</ele>
        <time>2009-05-03T07:57:49Z</time>
      </trkpt>
      <trkpt lat="45.5608630" lon="8.9707840">
        <ele>180.8700000</ele>
        <time>2009-05-03T07:57:50Z</time>
      </trkpt>
      <trkpt lat="45.5608600" lon="8.9707330">
        <ele>180.8700000</ele>
        <time>2009-05-03T07:57:54Z</time>
      </trkpt>
      <trkpt lat="45.5607170" lon="8.9706690">
        <ele>180.3800000</ele>
        <time>2009-05-03T07:58:01Z</time>
      </trkpt>
      <trkpt lat="45.5606660" lon="8.9705120">
        <ele>179.4200000</ele>
        <time>2009-05-03T07:58:04Z</time>
      </trkpt>
      <trkpt lat="45.5606820" lon="8.9704400">
        <ele>178.9400000</ele>
        <time>2009-05-03T07:58:05Z</time>
      </trkpt>
      <trkpt lat="45.5607170" lon="8.9703900">
        <ele>178.9400000</ele>
        <time>2009-05-03T07:58:06Z</time>
      </trkpt>
      <trkpt lat="45.5607950" lon="8.9702990">
        <ele>178.9400000</ele>
        <time>2009-05-03T07:58:08Z</time>
      </trkpt>
      <trkpt lat="45.5609940" lon="8.9699920">
        <ele>178.9400000</ele>
        <time>2009-05-03T07:58:14Z</time>
      </trkpt>
      <trkpt lat="45.5612560" lon="8.9696360">
        <ele>178.9400000</ele>
        <time>2009-05-03T07:58:22Z</time>
      </trkpt>
      <trkpt lat="45.5613620" lon="8.9694930">
        <ele>179.4200000</ele>
        <time>2009-05-03T07:58:25Z</time>
      </trkpt>
      <trkpt lat="45.5614840" lon="8.9692810">
        <ele>179.4200000</ele>
        <time>2009-05-03T07:58:29Z</time>
      </trkpt>
      <trkpt lat="45.5616720" lon="8.9688450">
        <ele>179.4200000</ele>
        <time>2009-05-03T07:58:36Z</time>
      </trkpt>
      <trkpt lat="45.5616960" lon="8.9687820">
        <ele>179.4200000</ele>
        <time>2009-05-03T07:58:37Z</time>
      </trkpt>
      <trkpt lat="45.5617400" lon="8.9686770">
        <ele>179.4200000</ele>
        <time>2009-05-03T07:58:39Z</time>
      </trkpt>
      <trkpt lat="45.5617630" lon="8.9686210">
        <ele>179.9000000</ele>
        <time>2009-05-03T07:58:40Z</time>
      </trkpt>
      <trkpt lat="45.5617860" lon="8.9685780">
        <ele>180.3800000</ele>
        <time>2009-05-03T07:58:41Z</time>
      </trkpt>
      <trkpt lat="45.5618040" lon="8.9685310">
        <ele>180.8700000</ele>
        <time>2009-05-03T07:58:42Z</time>
      </trkpt>
      <trkpt lat="45.5618140" lon="8.9684750">
        <ele>180.8700000</ele>
        <time>2009-05-03T07:58:43Z</time>
      </trkpt>
      <trkpt lat="45.5618320" lon="8.9684260">
        <ele>180.8700000</ele>
        <time>2009-05-03T07:58:44Z</time>
      </trkpt>
      <trkpt lat="45.5618230" lon="8.9683620">
        <ele>181.3500000</ele>
        <time>2009-05-03T07:58:45Z</time>
      </trkpt>
      <trkpt lat="45.5618130" lon="8.9683010">
        <ele>180.8700000</ele>
        <time>2009-05-03T07:58:46Z</time>
      </trkpt>
      <trkpt lat="45.5618080" lon="8.9682400">
        <ele>180.8700000</ele>
        <time>2009-05-03T07:58:47Z</time>
      </trkpt>
      <trkpt lat="45.5617890" lon="8.9681830">
        <ele>180.8700000</ele>
        <time>2009-05-03T07:58:48Z</time>
      </trkpt>
      <trkpt lat="45.5614640" lon="8.9673020">
        <ele>180.8700000</ele>
        <time>2009-05-03T07:59:02Z</time>
      </trkpt>
      <trkpt lat="45.5612170" lon="8.9665820">
        <ele>180.8700000</ele>
        <time>2009-05-03T07:59:13Z</time>
      </trkpt>
      <trkpt lat="45.5611920" lon="8.9665190">
        <ele>180.8700000</ele>
        <time>2009-05-03T07:59:14Z</time>
      </trkpt>
      <trkpt lat="45.5611690" lon="8.9664530">
        <ele>180.8700000</ele>
        <time>2009-05-03T07:59:15Z</time>
      </trkpt>
      <trkpt lat="45.5608570" lon="8.9655940">
        <ele>180.3800000</ele>
        <time>2009-05-03T07:59:27Z</time>
      </trkpt>
      <trkpt lat="45.5605840" lon="8.9648640">
        <ele>180.3800000</ele>
        <time>2009-05-03T07:59:38Z</time>
      </trkpt>
      <trkpt lat="45.5602940" lon="8.9640350">
        <ele>180.3800000</ele>
        <time>2009-05-03T07:59:52Z</time>
      </trkpt>
      <trkpt lat="45.5599380" lon="8.9632410">
        <ele>180.8700000</ele>
        <time>2009-05-03T08:00:05Z</time>
      </trkpt>
      <trkpt lat="45.5597780" lon="8.9628320">
        <ele>181.8300000</ele>
        <time>2009-05-03T08:00:14Z</time>
      </trkpt>
      <trkpt lat="45.5597300" lon="8.9626240">
        <ele>180.3800000</ele>
        <time>2009-05-03T08:00:17Z</time>
      </trkpt>
      <trkpt lat="45.5594760" lon="8.9618660">
        <ele>180.3800000</ele>
        <time>2009-05-03T08:00:28Z</time>
      </trkpt>
      <trkpt lat="45.5591340" lon="8.9610180">
        <ele>180.8700000</ele>
        <time>2009-05-03T08:00:41Z</time>
      </trkpt>
      <trkpt lat="45.5586380" lon="8.9599590">
        <ele>180.3800000</ele>
        <time>2009-05-03T08:00:57Z</time>
      </trkpt>
      <trkpt lat="45.5582850" lon="8.9592560">
        <ele>180.3800000</ele>
        <time>2009-05-03T08:01:09Z</time>
      </trkpt>
      <trkpt lat="45.5578310" lon="8.9584850">
        <ele>180.3800000</ele>
        <time>2009-05-03T08:01:22Z</time>
      </trkpt>
      <trkpt lat="45.5573000" lon="8.9576630">
        <ele>180.3800000</ele>
        <time>2009-05-03T08:01:37Z</time>
      </trkpt>
      <trkpt lat="45.5567690" lon="8.9569080">
        <ele>180.8700000</ele>
        <time>2009-05-03T08:01:51Z</time>
      </trkpt>
      <trkpt lat="45.5565220" lon="8.9566250">
        <ele>181.3500000</ele>
        <time>2009-05-03T08:01:57Z</time>
      </trkpt>
      <trkpt lat="45.5562830" lon="8.9562690">
        <ele>181.3500000</ele>
        <time>2009-05-03T08:02:06Z</time>
      </trkpt>
      <trkpt lat="45.5562140" lon="8.9561800">
        <ele>180.8700000</ele>
        <time>2009-05-03T08:02:08Z</time>
      </trkpt>
      <trkpt lat="45.5555680" lon="8.9554650">
        <ele>180.8700000</ele>
        <time>2009-05-03T08:02:22Z</time>
      </trkpt>
      <trkpt lat="45.5548480" lon="8.9546650">
        <ele>180.8700000</ele>
        <time>2009-05-03T08:02:38Z</time>
      </trkpt>
      <trkpt lat="45.5546130" lon="8.9544020">
        <ele>180.8700000</ele>
        <time>2009-05-03T08:02:43Z</time>
      </trkpt>
      <trkpt lat="45.5539900" lon="8.9537110">
        <ele>181.3500000</ele>
        <time>2009-05-03T08:02:58Z</time>
      </trkpt>
      <trkpt lat="45.5538690" lon="8.9536020">
        <ele>181.3500000</ele>
        <time>2009-05-03T08:03:01Z</time>
      </trkpt>
      <trkpt lat="45.5538260" lon="8.9535830">
        <ele>181.3500000</ele>
        <time>2009-05-03T08:03:02Z</time>
      </trkpt>
      <trkpt lat="45.5537840" lon="8.9535580">
        <ele>181.3500000</ele>
        <time>2009-05-03T08:03:03Z</time>
      </trkpt>
      <trkpt lat="45.5537500" lon="8.9535330">
        <ele>181.3500000</ele>
        <time>2009-05-03T08:03:04Z</time>
      </trkpt>
      <trkpt lat="45.5537190" lon="8.9535010">
        <ele>181.3500000</ele>
        <time>2009-05-03T08:03:05Z</time>
      </trkpt>
      <trkpt lat="45.5537000" lon="8.9534700">
        <ele>181.8300000</ele>
        <time>2009-05-03T08:03:06Z</time>
      </trkpt>
      <trkpt lat="45.5536850" lon="8.9534470">
        <ele>181.8300000</ele>
        <time>2009-05-03T08:03:07Z</time>
      </trkpt>
      <trkpt lat="45.5536810" lon="8.9534300">
        <ele>181.8300000</ele>
        <time>2009-05-03T08:03:08Z</time>
      </trkpt>
      <trkpt lat="45.5536830" lon="8.9534180">
        <ele>181.8300000</ele>
        <time>2009-05-03T08:03:09Z</time>
      </trkpt>
      <trkpt lat="45.5536730" lon="8.9534090">
        <ele>181.8300000</ele>
        <time>2009-05-03T08:03:10Z</time>
      </trkpt>
      <trkpt lat="45.5536550" lon="8.9533980">
        <ele>181.8300000</ele>
        <time>2009-05-03T08:03:11Z</time>
      </trkpt>
      <trkpt lat="45.5536300" lon="8.9533860">
        <ele>181.8300000</ele>
        <time>2009-05-03T08:03:12Z</time>
      </trkpt>
      <trkpt lat="45.5536090" lon="8.9533590">
        <ele>181.8300000</ele>
        <time>2009-05-03T08:03:13Z</time>
      </trkpt>
      <trkpt lat="45.5535850" lon="8.9533110">
        <ele>181.8300000</ele>
        <time>2009-05-03T08:03:14Z</time>
      </trkpt>
      <trkpt lat="45.5535600" lon="8.9532680">
        <ele>181.8300000</ele>
        <time>2009-05-03T08:03:15Z</time>
      </trkpt>
      <trkpt lat="45.5535260" lon="8.9532230">
        <ele>181.8300000</ele>
        <time>2009-05-03T08:03:16Z</time>
      </trkpt>
      <trkpt lat="45.5532530" lon="8.9528840">
        <ele>180.8700000</ele>
        <time>2009-05-03T08:03:23Z</time>
      </trkpt>
      <trkpt lat="45.5525310" lon="8.9520880">
        <ele>180.8700000</ele>
        <time>2009-05-03T08:03:39Z</time>
      </trkpt>
      <trkpt lat="45.5519340" lon="8.9515390">
        <ele>180.8700000</ele>
        <time>2009-05-03T08:04:50Z</time>
      </trkpt>
      <trkpt lat="45.5519310" lon="8.9516130">
        <ele>180.8700000</ele>
        <time>2009-05-03T08:04:51Z</time>
      </trkpt>
      <trkpt lat="45.5519060" lon="8.9516720">
        <ele>180.3800000</ele>
        <time>2009-05-03T08:04:52Z</time>
      </trkpt>
      <trkpt lat="45.5518690" lon="8.9517140">
        <ele>180.8700000</ele>
        <time>2009-05-03T08:04:53Z</time>
      </trkpt>
      <trkpt lat="45.5518290" lon="8.9517500">
        <ele>180.3800000</ele>
        <time>2009-05-03T08:04:54Z</time>
      </trkpt>
      <trkpt lat="45.5513020" lon="8.9522540">
        <ele>179.9000000</ele>
        <time>2009-05-03T08:05:03Z</time>
      </trkpt>
      <trkpt lat="45.5510320" lon="8.9525800">
        <ele>179.4200000</ele>
        <time>2009-05-03T08:05:08Z</time>
      </trkpt>
      <trkpt lat="45.5503720" lon="8.9533420">
        <ele>179.4200000</ele>
        <time>2009-05-03T08:05:20Z</time>
      </trkpt>
      <trkpt lat="45.5499350" lon="8.9538010">
        <ele>178.4600000</ele>
        <time>2009-05-03T08:05:31Z</time>
      </trkpt>
      <trkpt lat="45.5498960" lon="8.9538210">
        <ele>178.4600000</ele>
        <time>2009-05-03T08:05:32Z</time>
      </trkpt>
      <trkpt lat="45.5498590" lon="8.9538220">
        <ele>178.4600000</ele>
        <time>2009-05-03T08:05:33Z</time>
      </trkpt>
      <trkpt lat="45.5498350" lon="8.9537990">
        <ele>178.4600000</ele>
        <time>2009-05-03T08:05:34Z</time>
      </trkpt>
      <trkpt lat="45.5498040" lon="8.9537850">
        <ele>178.4600000</ele>
        <time>2009-05-03T08:05:35Z</time>
      </trkpt>
      <trkpt lat="45.5497750" lon="8.9537680">
        <ele>177.9800000</ele>
        <time>2009-05-03T08:05:36Z</time>
      </trkpt>
      <trkpt lat="45.5497470" lon="8.9537360">
        <ele>177.9800000</ele>
        <time>2009-05-03T08:05:37Z</time>
      </trkpt>
      <trkpt lat="45.5497190" lon="8.9536950">
        <ele>177.9800000</ele>
        <time>2009-05-03T08:05:38Z</time>
      </trkpt>
      <trkpt lat="45.5496910" lon="8.9536460">
        <ele>177.9800000</ele>
        <time>2009-05-03T08:05:39Z</time>
      </trkpt>
      <trkpt lat="45.5493780" lon="8.9530300">
        <ele>177.9800000</ele>
        <time>2009-05-03T08:05:48Z</time>
      </trkpt>
      <trkpt lat="45.5493380" lon="8.9529600">
        <ele>177.9800000</ele>
        <time>2009-05-03T08:05:49Z</time>
      </trkpt>
      <trkpt lat="45.5489720" lon="8.9524000">
        <ele>177.0200000</ele>
        <time>2009-05-03T08:05:57Z</time>
      </trkpt>
      <trkpt lat="45.5489360" lon="8.9523440">
        <ele>177.5000000</ele>
        <time>2009-05-03T08:05:58Z</time>
      </trkpt>
      <trkpt lat="45.5485700" lon="8.9518690">
        <ele>180.3800000</ele>
        <time>2009-05-03T08:06:08Z</time>
      </trkpt>
      <trkpt lat="45.5482980" lon="8.9514540">
        <ele>181.3500000</ele>
        <time>2009-05-03T08:06:17Z</time>
      </trkpt>
      <trkpt lat="45.5482710" lon="8.9513890">
        <ele>181.8300000</ele>
        <time>2009-05-03T08:06:18Z</time>
      </trkpt>
      <trkpt lat="45.5482570" lon="8.9513390">
        <ele>181.8300000</ele>
        <time>2009-05-03T08:06:19Z</time>
      </trkpt>
      <trkpt lat="45.5481000" lon="8.9505710">
        <ele>181.8300000</ele>
        <time>2009-05-03T08:06:32Z</time>
      </trkpt>
      <trkpt lat="45.5479680" lon="8.9499370">
        <ele>182.3100000</ele>
        <time>2009-05-03T08:06:42Z</time>
      </trkpt>
      <trkpt lat="45.5479360" lon="8.9499140">
        <ele>182.7900000</ele>
        <time>2009-05-03T08:06:43Z</time>
      </trkpt>
      <trkpt lat="45.5478910" lon="8.9498870">
        <ele>182.3100000</ele>
        <time>2009-05-03T08:06:44Z</time>
      </trkpt>
      <trkpt lat="45.5478430" lon="8.9498720">
        <ele>182.3100000</ele>
        <time>2009-05-03T08:06:45Z</time>
      </trkpt>
      <trkpt lat="45.5477930" lon="8.9498550">
        <ele>182.3100000</ele>
        <time>2009-05-03T08:06:46Z</time>
      </trkpt>
      <trkpt lat="45.5476540" lon="8.9497990">
        <ele>182.3100000</ele>
        <time>2009-05-03T08:06:49Z</time>
      </trkpt>
      <trkpt lat="45.5476090" lon="8.9497860">
        <ele>182.3100000</ele>
        <time>2009-05-03T08:06:50Z</time>
      </trkpt>
      <trkpt lat="45.5475660" lon="8.9497680">
        <ele>181.8300000</ele>
        <time>2009-05-03T08:06:51Z</time>
      </trkpt>
      <trkpt lat="45.5475280" lon="8.9497520">
        <ele>181.8300000</ele>
        <time>2009-05-03T08:06:52Z</time>
      </trkpt>
      <trkpt lat="45.5474920" lon="8.9497400">
        <ele>181.8300000</ele>
        <time>2009-05-03T08:06:53Z</time>
      </trkpt>
      <trkpt lat="45.5472970" lon="8.9496640">
        <ele>181.8300000</ele>
        <time>2009-05-03T08:07:04Z</time>
      </trkpt>
      <trkpt lat="45.5470930" lon="8.9496930">
        <ele>181.8300000</ele>
        <time>2009-05-03T08:07:38Z</time>
      </trkpt>
      <trkpt lat="45.5470160" lon="8.9496880">
        <ele>181.8300000</ele>
        <time>2009-05-03T08:07:50Z</time>
      </trkpt>
      <trkpt lat="45.5470120" lon="8.9496900">
        <ele>181.8300000</ele>
        <time>2009-05-03T08:08:40Z</time>
      </trkpt>
      <trkpt lat="45.5469810" lon="8.9496900">
        <ele>181.3500000</ele>
        <time>2009-05-03T08:10:00Z</time>
      </trkpt>
      <trkpt lat="45.5469430" lon="8.9496810">
        <ele>181.3500000</ele>
        <time>2009-05-03T08:13:08Z</time>
      </trkpt>
      <trkpt lat="45.5465500" lon="8.9497660">
        <ele>180.3800000</ele>
        <time>2009-05-03T08:13:21Z</time>
      </trkpt>
      <trkpt lat="45.5461970" lon="8.9498600">
        <ele>179.9000000</ele>
        <time>2009-05-03T08:13:31Z</time>
      </trkpt>
      <trkpt lat="45.5456440" lon="8.9497060">
        <ele>180.3800000</ele>
        <time>2009-05-03T08:13:55Z</time>
      </trkpt>
      <trkpt lat="45.5456400" lon="8.9496990">
        <ele>180.3800000</ele>
        <time>2009-05-03T08:14:14Z</time>
      </trkpt>
      <trkpt lat="45.5453230" lon="8.9495720">
        <ele>180.3800000</ele>
        <time>2009-05-03T08:14:21Z</time>
      </trkpt>
      <trkpt lat="45.5452250" lon="8.9495250">
        <ele>180.8700000</ele>
        <time>2009-05-03T08:14:23Z</time>
      </trkpt>
      <trkpt lat="45.5451690" lon="8.9494880">
        <ele>180.8700000</ele>
        <time>2009-05-03T08:14:24Z</time>
      </trkpt>
      <trkpt lat="45.5446910" lon="8.9491200">
        <ele>180.3800000</ele>
        <time>2009-05-03T08:14:35Z</time>
      </trkpt>
      <trkpt lat="45.5442310" lon="8.9484460">
        <ele>180.3800000</ele>
        <time>2009-05-03T08:14:47Z</time>
      </trkpt>
      <trkpt lat="45.5439050" lon="8.9477300">
        <ele>180.3800000</ele>
        <time>2009-05-03T08:15:00Z</time>
      </trkpt>
      <trkpt lat="45.5438790" lon="8.9476150">
        <ele>180.3800000</ele>
        <time>2009-05-03T08:15:02Z</time>
      </trkpt>
      <trkpt lat="45.5437380" lon="8.9470260">
        <ele>180.3800000</ele>
        <time>2009-05-03T08:15:10Z</time>
      </trkpt>
      <trkpt lat="45.5437300" lon="8.9469620">
        <ele>180.3800000</ele>
        <time>2009-05-03T08:15:11Z</time>
      </trkpt>
      <trkpt lat="45.5437210" lon="8.9469000">
        <ele>180.8700000</ele>
        <time>2009-05-03T08:15:12Z</time>
      </trkpt>
      <trkpt lat="45.5437110" lon="8.9468510">
        <ele>180.3800000</ele>
        <time>2009-05-03T08:15:13Z</time>
      </trkpt>
      <trkpt lat="45.5437010" lon="8.9467880">
        <ele>180.3800000</ele>
        <time>2009-05-03T08:15:14Z</time>
      </trkpt>
      <trkpt lat="45.5435630" lon="8.9457830">
        <ele>179.9000000</ele>
        <time>2009-05-03T08:15:28Z</time>
      </trkpt>
      <trkpt lat="45.5434430" lon="8.9449910">
        <ele>179.9000000</ele>
        <time>2009-05-03T08:15:39Z</time>
      </trkpt>
      <trkpt lat="45.5434230" lon="8.9447350">
        <ele>179.9000000</ele>
        <time>2009-05-03T08:15:43Z</time>
      </trkpt>
      <trkpt lat="45.5434100" lon="8.9446670">
        <ele>179.9000000</ele>
        <time>2009-05-03T08:15:44Z</time>
      </trkpt>
      <trkpt lat="45.5433970" lon="8.9445300">
        <ele>179.9000000</ele>
        <time>2009-05-03T08:15:46Z</time>
      </trkpt>
      <trkpt lat="45.5433870" lon="8.9444520">
        <ele>179.9000000</ele>
        <time>2009-05-03T08:15:47Z</time>
      </trkpt>
      <trkpt lat="45.5433810" lon="8.9443800">
        <ele>179.9000000</ele>
        <time>2009-05-03T08:15:48Z</time>
      </trkpt>
      <trkpt lat="45.5433210" lon="8.9439680">
        <ele>179.9000000</ele>
        <time>2009-05-03T08:15:54Z</time>
      </trkpt>
      <trkpt lat="45.5432870" lon="8.9437410">
        <ele>179.9000000</ele>
        <time>2009-05-03T08:15:57Z</time>
      </trkpt>
      <trkpt lat="45.5431710" lon="8.9428330">
        <ele>179.9000000</ele>
        <time>2009-05-03T08:16:10Z</time>
      </trkpt>
      <trkpt lat="45.5431480" lon="8.9426200">
        <ele>179.9000000</ele>
        <time>2009-05-03T08:16:13Z</time>
      </trkpt>
      <trkpt lat="45.5430260" lon="8.9417930">
        <ele>179.9000000</ele>
        <time>2009-05-03T08:16:24Z</time>
      </trkpt>
      <trkpt lat="45.5428700" lon="8.9406660">
        <ele>179.4200000</ele>
        <time>2009-05-03T08:16:39Z</time>
      </trkpt>
      <trkpt lat="45.5428130" lon="8.9401590">
        <ele>179.4200000</ele>
        <time>2009-05-03T08:16:46Z</time>
      </trkpt>
      <trkpt lat="45.5426770" lon="8.9392810">
        <ele>179.4200000</ele>
        <time>2009-05-03T08:16:58Z</time>
      </trkpt>
      <trkpt lat="45.5425860" lon="8.9385980">
        <ele>179.4200000</ele>
        <time>2009-05-03T08:17:09Z</time>
      </trkpt>
      <trkpt lat="45.5425530" lon="8.9384560">
        <ele>179.4200000</ele>
        <time>2009-05-03T08:17:11Z</time>
      </trkpt>
      <trkpt lat="45.5425330" lon="8.9384060">
        <ele>179.4200000</ele>
        <time>2009-05-03T08:17:12Z</time>
      </trkpt>
      <trkpt lat="45.5424830" lon="8.9382230">
        <ele>180.8700000</ele>
        <time>2009-05-03T08:17:17Z</time>
      </trkpt>
      <trkpt lat="45.5424720" lon="8.9381870">
        <ele>181.3500000</ele>
        <time>2009-05-03T08:17:18Z</time>
      </trkpt>
      <trkpt lat="45.5424580" lon="8.9381070">
        <ele>181.8300000</ele>
        <time>2009-05-03T08:17:21Z</time>
      </trkpt>
      <trkpt lat="45.5424630" lon="8.9380630">
        <ele>181.3500000</ele>
        <time>2009-05-03T08:17:22Z</time>
      </trkpt>
      <trkpt lat="45.5424830" lon="8.9379350">
        <ele>180.3800000</ele>
        <time>2009-05-03T08:17:24Z</time>
      </trkpt>
      <trkpt lat="45.5424860" lon="8.9378570">
        <ele>179.4200000</ele>
        <time>2009-05-03T08:17:25Z</time>
      </trkpt>
      <trkpt lat="45.5424830" lon="8.9377630">
        <ele>179.4200000</ele>
        <time>2009-05-03T08:17:26Z</time>
      </trkpt>
      <trkpt lat="45.5424760" lon="8.9376790">
        <ele>179.4200000</ele>
        <time>2009-05-03T08:17:27Z</time>
      </trkpt>
      <trkpt lat="45.5424750" lon="8.9376050">
        <ele>179.4200000</ele>
        <time>2009-05-03T08:17:28Z</time>
      </trkpt>
      <trkpt lat="45.5423930" lon="8.9369230">
        <ele>178.9400000</ele>
        <time>2009-05-03T08:17:36Z</time>
      </trkpt>
      <trkpt lat="45.5422830" lon="8.9360880">
        <ele>178.9400000</ele>
        <time>2009-05-03T08:17:46Z</time>
      </trkpt>
      <trkpt lat="45.5421470" lon="8.9351050">
        <ele>179.4200000</ele>
        <time>2009-05-03T08:17:59Z</time>
      </trkpt>
      <trkpt lat="45.5419620" lon="8.9339070">
        <ele>178.9400000</ele>
        <time>2009-05-03T08:18:14Z</time>
      </trkpt>
      <trkpt lat="45.5418580" lon="8.9328180">
        <ele>178.9400000</ele>
        <time>2009-05-03T08:18:28Z</time>
      </trkpt>
      <trkpt lat="45.5418520" lon="8.9317520">
        <ele>178.9400000</ele>
        <time>2009-05-03T08:18:42Z</time>
      </trkpt>
      <trkpt lat="45.5418740" lon="8.9306910">
        <ele>178.9400000</ele>
        <time>2009-05-03T08:18:57Z</time>
      </trkpt>
      <trkpt lat="45.5418990" lon="8.9296870">
        <ele>178.9400000</ele>
        <time>2009-05-03T08:19:11Z</time>
      </trkpt>
      <trkpt lat="45.5419310" lon="8.9285970">
        <ele>178.9400000</ele>
        <time>2009-05-03T08:19:26Z</time>
      </trkpt>
      <trkpt lat="45.5419400" lon="8.9273800">
        <ele>178.9400000</ele>
        <time>2009-05-03T08:19:42Z</time>
      </trkpt>
      <trkpt lat="45.5419070" lon="8.9262910">
        <ele>178.9400000</ele>
        <time>2009-05-03T08:19:56Z</time>
      </trkpt>
      <trkpt lat="45.5419110" lon="8.9254590">
        <ele>178.9400000</ele>
        <time>2009-05-03T08:20:08Z</time>
      </trkpt>
      <trkpt lat="45.5419010" lon="8.9250400">
        <ele>179.4200000</ele>
        <time>2009-05-03T08:20:14Z</time>
      </trkpt>
      <trkpt lat="45.5418880" lon="8.9249600">
        <ele>178.9400000</ele>
        <time>2009-05-03T08:20:15Z</time>
      </trkpt>
      <trkpt lat="45.5418700" lon="8.9248740">
        <ele>178.9400000</ele>
        <time>2009-05-03T08:20:16Z</time>
      </trkpt>
      <trkpt lat="45.5418490" lon="8.9248110">
        <ele>178.9400000</ele>
        <time>2009-05-03T08:20:17Z</time>
      </trkpt>
      <trkpt lat="45.5418290" lon="8.9247560">
        <ele>178.9400000</ele>
        <time>2009-05-03T08:20:18Z</time>
      </trkpt>
      <trkpt lat="45.5418080" lon="8.9247220">
        <ele>179.4200000</ele>
        <time>2009-05-03T08:20:19Z</time>
      </trkpt>
      <trkpt lat="45.5417890" lon="8.9247070">
        <ele>179.9000000</ele>
        <time>2009-05-03T08:20:20Z</time>
      </trkpt>
      <trkpt lat="45.5417710" lon="8.9246860">
        <ele>179.9000000</ele>
        <time>2009-05-03T08:20:21Z</time>
      </trkpt>
      <trkpt lat="45.5417620" lon="8.9246640">
        <ele>179.9000000</ele>
        <time>2009-05-03T08:20:22Z</time>
      </trkpt>
      <trkpt lat="45.5417610" lon="8.9246340">
        <ele>179.9000000</ele>
        <time>2009-05-03T08:20:23Z</time>
      </trkpt>
      <trkpt lat="45.5417640" lon="8.9246040">
        <ele>179.9000000</ele>
        <time>2009-05-03T08:20:24Z</time>
      </trkpt>
      <trkpt lat="45.5417720" lon="8.9245600">
        <ele>179.9000000</ele>
        <time>2009-05-03T08:20:25Z</time>
      </trkpt>
      <trkpt lat="45.5417900" lon="8.9245180">
        <ele>179.9000000</ele>
        <time>2009-05-03T08:20:26Z</time>
      </trkpt>
      <trkpt lat="45.5418240" lon="8.9244040">
        <ele>178.9400000</ele>
        <time>2009-05-03T08:20:28Z</time>
      </trkpt>
      <trkpt lat="45.5418390" lon="8.9243390">
        <ele>178.4600000</ele>
        <time>2009-05-03T08:20:29Z</time>
      </trkpt>
      <trkpt lat="45.5418410" lon="8.9242640">
        <ele>178.4600000</ele>
        <time>2009-05-03T08:20:30Z</time>
      </trkpt>
      <trkpt lat="45.5418310" lon="8.9232190">
        <ele>178.4600000</ele>
        <time>2009-05-03T08:20:45Z</time>
      </trkpt>
      <trkpt lat="45.5418180" lon="8.9223080">
        <ele>178.4600000</ele>
        <time>2009-05-03T08:20:59Z</time>
      </trkpt>
      <trkpt lat="45.5417770" lon="8.9213860">
        <ele>178.9400000</ele>
        <time>2009-05-03T08:21:13Z</time>
      </trkpt>
      <trkpt lat="45.5417730" lon="8.9213070">
        <ele>178.9400000</ele>
        <time>2009-05-03T08:21:14Z</time>
      </trkpt>
      <trkpt lat="45.5417760" lon="8.9211800">
        <ele>178.4600000</ele>
        <time>2009-05-03T08:21:16Z</time>
      </trkpt>
      <trkpt lat="45.5417780" lon="8.9210440">
        <ele>178.9400000</ele>
        <time>2009-05-03T08:21:18Z</time>
      </trkpt>
      <trkpt lat="45.5417650" lon="8.9200080">
        <ele>178.4600000</ele>
        <time>2009-05-03T08:21:33Z</time>
      </trkpt>
      <trkpt lat="45.5418100" lon="8.9188680">
        <ele>178.4600000</ele>
        <time>2009-05-03T08:21:50Z</time>
      </trkpt>
      <trkpt lat="45.5418850" lon="8.9178600">
        <ele>178.9400000</ele>
        <time>2009-05-03T08:22:04Z</time>
      </trkpt>
      <trkpt lat="45.5420290" lon="8.9169480">
        <ele>178.4600000</ele>
        <time>2009-05-03T08:22:18Z</time>
      </trkpt>
      <trkpt lat="45.5420620" lon="8.9166750">
        <ele>178.9400000</ele>
        <time>2009-05-03T08:22:22Z</time>
      </trkpt>
      <trkpt lat="45.5422190" lon="8.9158140">
        <ele>178.9400000</ele>
        <time>2009-05-03T08:22:35Z</time>
      </trkpt>
      <trkpt lat="45.5424070" lon="8.9149630">
        <ele>178.4600000</ele>
        <time>2009-05-03T08:22:48Z</time>
      </trkpt>
      <trkpt lat="45.5426240" lon="8.9138660">
        <ele>178.4600000</ele>
        <time>2009-05-03T08:23:05Z</time>
      </trkpt>
      <trkpt lat="45.5426790" lon="8.9134270">
        <ele>178.9400000</ele>
        <time>2009-05-03T08:23:12Z</time>
      </trkpt>
      <trkpt lat="45.5426890" lon="8.9133690">
        <ele>178.9400000</ele>
        <time>2009-05-03T08:23:13Z</time>
      </trkpt>
      <trkpt lat="45.5427030" lon="8.9133100">
        <ele>178.9400000</ele>
        <time>2009-05-03T08:23:14Z</time>
      </trkpt>
      <trkpt lat="45.5427080" lon="8.9131850">
        <ele>178.9400000</ele>
        <time>2009-05-03T08:23:16Z</time>
      </trkpt>
      <trkpt lat="45.5426990" lon="8.9129860">
        <ele>178.9400000</ele>
        <time>2009-05-03T08:23:19Z</time>
      </trkpt>
      <trkpt lat="45.5426080" lon="8.9120850">
        <ele>178.9400000</ele>
        <time>2009-05-03T08:23:32Z</time>
      </trkpt>
      <trkpt lat="45.5425920" lon="8.9120220">
        <ele>178.9400000</ele>
        <time>2009-05-03T08:23:33Z</time>
      </trkpt>
      <trkpt lat="45.5425800" lon="8.9119570">
        <ele>178.9400000</ele>
        <time>2009-05-03T08:23:34Z</time>
      </trkpt>
      <trkpt lat="45.5424110" lon="8.9112890">
        <ele>178.9400000</ele>
        <time>2009-05-03T08:23:45Z</time>
      </trkpt>
      <trkpt lat="45.5423630" lon="8.9111480">
        <ele>178.9400000</ele>
        <time>2009-05-03T08:23:47Z</time>
      </trkpt>
      <trkpt lat="45.5420920" lon="8.9103280">
        <ele>178.9400000</ele>
        <time>2009-05-03T08:23:59Z</time>
      </trkpt>
      <trkpt lat="45.5418750" lon="8.9096300">
        <ele>178.9400000</ele>
        <time>2009-05-03T08:24:10Z</time>
      </trkpt>
      <trkpt lat="45.5417270" lon="8.9091140">
        <ele>178.9400000</ele>
        <time>2009-05-03T08:24:19Z</time>
      </trkpt>
      <trkpt lat="45.5415060" lon="8.9084490">
        <ele>179.4200000</ele>
        <time>2009-05-03T08:24:29Z</time>
      </trkpt>
      <trkpt lat="45.5412430" lon="8.9076500">
        <ele>178.9400000</ele>
        <time>2009-05-03T08:24:41Z</time>
      </trkpt>
      <trkpt lat="45.5412250" lon="8.9075910">
        <ele>179.4200000</ele>
        <time>2009-05-03T08:24:42Z</time>
      </trkpt>
      <trkpt lat="45.5409200" lon="8.9066470">
        <ele>179.4200000</ele>
        <time>2009-05-03T08:24:56Z</time>
      </trkpt>
      <trkpt lat="45.5406880" lon="8.9056740">
        <ele>178.9400000</ele>
        <time>2009-05-03T08:25:10Z</time>
      </trkpt>
      <trkpt lat="45.5405560" lon="8.9046750">
        <ele>178.9400000</ele>
        <time>2009-05-03T08:25:24Z</time>
      </trkpt>
      <trkpt lat="45.5405550" lon="8.9046030">
        <ele>178.9400000</ele>
        <time>2009-05-03T08:25:25Z</time>
      </trkpt>
      <trkpt lat="45.5405160" lon="8.9035610">
        <ele>178.9400000</ele>
        <time>2009-05-03T08:25:39Z</time>
      </trkpt>
      <trkpt lat="45.5405700" lon="8.9025330">
        <ele>178.9400000</ele>
        <time>2009-05-03T08:25:53Z</time>
      </trkpt>
      <trkpt lat="45.5406090" lon="8.9020610">
        <ele>179.4200000</ele>
        <time>2009-05-03T08:26:00Z</time>
      </trkpt>
      <trkpt lat="45.5406820" lon="8.9013580">
        <ele>179.4200000</ele>
        <time>2009-05-03T08:26:11Z</time>
      </trkpt>
      <trkpt lat="45.5407670" lon="8.9003430">
        <ele>179.4200000</ele>
        <time>2009-05-03T08:26:25Z</time>
      </trkpt>
      <trkpt lat="45.5408540" lon="8.8993970">
        <ele>179.4200000</ele>
        <time>2009-05-03T08:26:38Z</time>
      </trkpt>
      <trkpt lat="45.5408640" lon="8.8993180">
        <ele>178.9400000</ele>
        <time>2009-05-03T08:26:39Z</time>
      </trkpt>
      <trkpt lat="45.5409700" lon="8.8982290">
        <ele>178.9400000</ele>
        <time>2009-05-03T08:26:55Z</time>
      </trkpt>
      <trkpt lat="45.5410080" lon="8.8978530">
        <ele>177.5000000</ele>
        <time>2009-05-03T08:27:01Z</time>
      </trkpt>
      <trkpt lat="45.5410290" lon="8.8977050">
        <ele>177.9800000</ele>
        <time>2009-05-03T08:27:03Z</time>
      </trkpt>
      <trkpt lat="45.5410570" lon="8.8975410">
        <ele>177.5000000</ele>
        <time>2009-05-03T08:27:05Z</time>
      </trkpt>
      <trkpt lat="45.5411620" lon="8.8971130">
        <ele>179.4200000</ele>
        <time>2009-05-03T08:27:13Z</time>
      </trkpt>
      <trkpt lat="45.5413350" lon="8.8962000">
        <ele>179.4200000</ele>
        <time>2009-05-03T08:27:28Z</time>
      </trkpt>
      <trkpt lat="45.5415130" lon="8.8952230">
        <ele>179.4200000</ele>
        <time>2009-05-03T08:27:43Z</time>
      </trkpt>
      <trkpt lat="45.5415280" lon="8.8951550">
        <ele>179.4200000</ele>
        <time>2009-05-03T08:27:44Z</time>
      </trkpt>
      <trkpt lat="45.5415380" lon="8.8950920">
        <ele>179.4200000</ele>
        <time>2009-05-03T08:27:45Z</time>
      </trkpt>
      <trkpt lat="45.5415660" lon="8.8949600">
        <ele>179.4200000</ele>
        <time>2009-05-03T08:27:47Z</time>
      </trkpt>
      <trkpt lat="45.5417970" lon="8.8938140">
        <ele>179.9000000</ele>
        <time>2009-05-03T08:28:04Z</time>
      </trkpt>
      <trkpt lat="45.5419180" lon="8.8931790">
        <ele>179.9000000</ele>
        <time>2009-05-03T08:28:13Z</time>
      </trkpt>
      <trkpt lat="45.5420820" lon="8.8920710">
        <ele>179.9000000</ele>
        <time>2009-05-03T08:28:29Z</time>
      </trkpt>
      <trkpt lat="45.5421080" lon="8.8918120">
        <ele>179.4200000</ele>
        <time>2009-05-03T08:28:33Z</time>
      </trkpt>
      <trkpt lat="45.5421070" lon="8.8917430">
        <ele>179.4200000</ele>
        <time>2009-05-03T08:28:34Z</time>
      </trkpt>
      <trkpt lat="45.5421090" lon="8.8916790">
        <ele>179.4200000</ele>
        <time>2009-05-03T08:28:35Z</time>
      </trkpt>
      <trkpt lat="45.5420970" lon="8.8908950">
        <ele>179.4200000</ele>
        <time>2009-05-03T08:28:47Z</time>
      </trkpt>
      <trkpt lat="45.5419570" lon="8.8902160">
        <ele>180.3800000</ele>
        <time>2009-05-03T08:28:59Z</time>
      </trkpt>
      <trkpt lat="45.5418640" lon="8.8900740">
        <ele>181.3500000</ele>
        <time>2009-05-03T08:29:04Z</time>
      </trkpt>
      <trkpt lat="45.5418650" lon="8.8900480">
        <ele>181.3500000</ele>
        <time>2009-05-03T08:29:05Z</time>
      </trkpt>
      <trkpt lat="45.5418670" lon="8.8900160">
        <ele>181.8300000</ele>
        <time>2009-05-03T08:29:06Z</time>
      </trkpt>
      <trkpt lat="45.5418710" lon="8.8899790">
        <ele>181.8300000</ele>
        <time>2009-05-03T08:29:07Z</time>
      </trkpt>
      <trkpt lat="45.5418910" lon="8.8897610">
        <ele>180.8700000</ele>
        <time>2009-05-03T08:29:11Z</time>
      </trkpt>
      <trkpt lat="45.5418930" lon="8.8896790">
        <ele>180.8700000</ele>
        <time>2009-05-03T08:29:12Z</time>
      </trkpt>
      <trkpt lat="45.5418970" lon="8.8896070">
        <ele>180.8700000</ele>
        <time>2009-05-03T08:29:13Z</time>
      </trkpt>
      <trkpt lat="45.5418860" lon="8.8895310">
        <ele>180.3800000</ele>
        <time>2009-05-03T08:29:14Z</time>
      </trkpt>
      <trkpt lat="45.5418710" lon="8.8894580">
        <ele>180.3800000</ele>
        <time>2009-05-03T08:29:15Z</time>
      </trkpt>
      <trkpt lat="45.5418580" lon="8.8893760">
        <ele>179.9000000</ele>
        <time>2009-05-03T08:29:16Z</time>
      </trkpt>
      <trkpt lat="45.5418440" lon="8.8893040">
        <ele>179.9000000</ele>
        <time>2009-05-03T08:29:17Z</time>
      </trkpt>
      <trkpt lat="45.5418340" lon="8.8892420">
        <ele>179.9000000</ele>
        <time>2009-05-03T08:29:18Z</time>
      </trkpt>
      <trkpt lat="45.5418220" lon="8.8891800">
        <ele>179.9000000</ele>
        <time>2009-05-03T08:29:19Z</time>
      </trkpt>
      <trkpt lat="45.5416390" lon="8.8881930">
        <ele>179.9000000</ele>
        <time>2009-05-03T08:29:33Z</time>
      </trkpt>
      <trkpt lat="45.5414830" lon="8.8871770">
        <ele>179.4200000</ele>
        <time>2009-05-03T08:29:47Z</time>
      </trkpt>
      <trkpt lat="45.5414680" lon="8.8871100">
        <ele>179.9000000</ele>
        <time>2009-05-03T08:29:48Z</time>
      </trkpt>
      <trkpt lat="45.5413190" lon="8.8861620">
        <ele>179.9000000</ele>
        <time>2009-05-03T08:30:01Z</time>
      </trkpt>
      <trkpt lat="45.5412860" lon="8.8858190">
        <ele>179.9000000</ele>
        <time>2009-05-03T08:30:06Z</time>
      </trkpt>
      <trkpt lat="45.5412750" lon="8.8857430">
        <ele>179.9000000</ele>
        <time>2009-05-03T08:30:07Z</time>
      </trkpt>
      <trkpt lat="45.5412150" lon="8.8849250">
        <ele>180.3800000</ele>
        <time>2009-05-03T08:30:19Z</time>
      </trkpt>
      <trkpt lat="45.5411900" lon="8.8844130">
        <ele>179.9000000</ele>
        <time>2009-05-03T08:30:26Z</time>
      </trkpt>
      <trkpt lat="45.5411810" lon="8.8835700">
        <ele>180.3800000</ele>
        <time>2009-05-03T08:30:38Z</time>
      </trkpt>
      <trkpt lat="45.5411730" lon="8.8833980">
        <ele>180.3800000</ele>
        <time>2009-05-03T08:30:40Z</time>
      </trkpt>
      <trkpt lat="45.5411970" lon="8.8828630">
        <ele>179.9000000</ele>
        <time>2009-05-03T08:30:48Z</time>
      </trkpt>
      <trkpt lat="45.5412080" lon="8.8827370">
        <ele>179.9000000</ele>
        <time>2009-05-03T08:30:50Z</time>
      </trkpt>
      <trkpt lat="45.5412110" lon="8.8826760">
        <ele>179.9000000</ele>
        <time>2009-05-03T08:30:51Z</time>
      </trkpt>
      <trkpt lat="45.5412500" lon="8.8821530">
        <ele>180.3800000</ele>
        <time>2009-05-03T08:31:03Z</time>
      </trkpt>
      <trkpt lat="45.5413080" lon="8.8815480">
        <ele>179.9000000</ele>
        <time>2009-05-03T08:31:15Z</time>
      </trkpt>
      <trkpt lat="45.5413550" lon="8.8808080">
        <ele>179.9000000</ele>
        <time>2009-05-03T08:31:27Z</time>
      </trkpt>
      <trkpt lat="45.5413890" lon="8.8803730">
        <ele>179.9000000</ele>
        <time>2009-05-03T08:31:34Z</time>
      </trkpt>
      <trkpt lat="45.5413940" lon="8.8803080">
        <ele>179.9000000</ele>
        <time>2009-05-03T08:31:35Z</time>
      </trkpt>
      <trkpt lat="45.5414420" lon="8.8794600">
        <ele>179.9000000</ele>
        <time>2009-05-03T08:31:47Z</time>
      </trkpt>
      <trkpt lat="45.5414480" lon="8.8793860">
        <ele>179.9000000</ele>
        <time>2009-05-03T08:31:48Z</time>
      </trkpt>
      <trkpt lat="45.5414540" lon="8.8793230">
        <ele>179.9000000</ele>
        <time>2009-05-03T08:31:49Z</time>
      </trkpt>
      <trkpt lat="45.5415060" lon="8.8786120">
        <ele>180.3800000</ele>
        <time>2009-05-03T08:32:00Z</time>
      </trkpt>
      <trkpt lat="45.5415240" lon="8.8781080">
        <ele>181.8300000</ele>
        <time>2009-05-03T08:32:11Z</time>
      </trkpt>
      <trkpt lat="45.5415050" lon="8.8780270">
        <ele>182.3100000</ele>
        <time>2009-05-03T08:32:14Z</time>
      </trkpt>
      <trkpt lat="45.5415060" lon="8.8780000">
        <ele>182.3100000</ele>
        <time>2009-05-03T08:32:15Z</time>
      </trkpt>
      <trkpt lat="45.5414980" lon="8.8779560">
        <ele>182.3100000</ele>
        <time>2009-05-03T08:32:16Z</time>
      </trkpt>
      <trkpt lat="45.5414990" lon="8.8779090">
        <ele>182.3100000</ele>
        <time>2009-05-03T08:32:17Z</time>
      </trkpt>
      <trkpt lat="45.5415050" lon="8.8778280">
        <ele>181.3500000</ele>
        <time>2009-05-03T08:32:18Z</time>
      </trkpt>
      <trkpt lat="45.5415420" lon="8.8775730">
        <ele>180.8700000</ele>
        <time>2009-05-03T08:32:21Z</time>
      </trkpt>
      <trkpt lat="45.5415480" lon="8.8774880">
        <ele>180.3800000</ele>
        <time>2009-05-03T08:32:22Z</time>
      </trkpt>
      <trkpt lat="45.5415560" lon="8.8774150">
        <ele>180.3800000</ele>
        <time>2009-05-03T08:32:23Z</time>
      </trkpt>
      <trkpt lat="45.5416170" lon="8.8765010">
        <ele>180.3800000</ele>
        <time>2009-05-03T08:32:38Z</time>
      </trkpt>
      <trkpt lat="45.5416450" lon="8.8757160">
        <ele>180.3800000</ele>
        <time>2009-05-03T08:32:52Z</time>
      </trkpt>
      <trkpt lat="45.5416680" lon="8.8747510">
        <ele>180.3800000</ele>
        <time>2009-05-03T08:33:08Z</time>
      </trkpt>
      <trkpt lat="45.5416530" lon="8.8739230">
        <ele>180.3800000</ele>
        <time>2009-05-03T08:33:21Z</time>
      </trkpt>
      <trkpt lat="45.5416290" lon="8.8728290">
        <ele>180.3800000</ele>
        <time>2009-05-03T08:33:38Z</time>
      </trkpt>
      <trkpt lat="45.5415910" lon="8.8719970">
        <ele>180.3800000</ele>
        <time>2009-05-03T08:33:50Z</time>
      </trkpt>
      <trkpt lat="45.5415460" lon="8.8710840">
        <ele>180.3800000</ele>
        <time>2009-05-03T08:34:03Z</time>
      </trkpt>
      <trkpt lat="45.5415010" lon="8.8702680">
        <ele>180.8700000</ele>
        <time>2009-05-03T08:34:15Z</time>
      </trkpt>
      <trkpt lat="45.5414870" lon="8.8701860">
        <ele>180.8700000</ele>
        <time>2009-05-03T08:34:16Z</time>
      </trkpt>
      <trkpt lat="45.5414190" lon="8.8698680">
        <ele>179.4200000</ele>
        <time>2009-05-03T08:34:20Z</time>
      </trkpt>
      <trkpt lat="45.5414180" lon="8.8697780">
        <ele>179.9000000</ele>
        <time>2009-05-03T08:34:21Z</time>
      </trkpt>
      <trkpt lat="45.5414100" lon="8.8695450">
        <ele>180.3800000</ele>
        <time>2009-05-03T08:34:24Z</time>
      </trkpt>
      <trkpt lat="45.5413230" lon="8.8685650">
        <ele>180.3800000</ele>
        <time>2009-05-03T08:34:35Z</time>
      </trkpt>
      <trkpt lat="45.5412350" lon="8.8676650">
        <ele>180.3800000</ele>
        <time>2009-05-03T08:34:47Z</time>
      </trkpt>
      <trkpt lat="45.5411310" lon="8.8667900">
        <ele>180.3800000</ele>
        <time>2009-05-03T08:34:58Z</time>
      </trkpt>
      <trkpt lat="45.5410010" lon="8.8656320">
        <ele>180.3800000</ele>
        <time>2009-05-03T08:35:12Z</time>
      </trkpt>
      <trkpt lat="45.5408620" lon="8.8644820">
        <ele>180.8700000</ele>
        <time>2009-05-03T08:35:25Z</time>
      </trkpt>
      <trkpt lat="45.5407350" lon="8.8632750">
        <ele>180.8700000</ele>
        <time>2009-05-03T08:35:37Z</time>
      </trkpt>
      <trkpt lat="45.5406070" lon="8.8621050">
        <ele>180.8700000</ele>
        <time>2009-05-03T08:35:49Z</time>
      </trkpt>
      <trkpt lat="45.5405280" lon="8.8611790">
        <ele>180.3800000</ele>
        <time>2009-05-03T08:35:59Z</time>
      </trkpt>
      <trkpt lat="45.5404960" lon="8.8600170">
        <ele>180.8700000</ele>
        <time>2009-05-03T08:36:11Z</time>
      </trkpt>
      <trkpt lat="45.5405410" lon="8.8586010">
        <ele>181.3500000</ele>
        <time>2009-05-03T08:36:26Z</time>
      </trkpt>
      <trkpt lat="45.5406780" lon="8.8572990">
        <ele>181.3500000</ele>
        <time>2009-05-03T08:36:40Z</time>
      </trkpt>
      <trkpt lat="45.5409790" lon="8.8558890">
        <ele>181.3500000</ele>
        <time>2009-05-03T08:36:56Z</time>
      </trkpt>
      <trkpt lat="45.5413170" lon="8.8546280">
        <ele>181.3500000</ele>
        <time>2009-05-03T08:37:11Z</time>
      </trkpt>
      <trkpt lat="45.5416750" lon="8.8535530">
        <ele>181.8300000</ele>
        <time>2009-05-03T08:37:25Z</time>
      </trkpt>
      <trkpt lat="45.5416910" lon="8.8534880">
        <ele>182.3100000</ele>
        <time>2009-05-03T08:37:26Z</time>
      </trkpt>
      <trkpt lat="45.5417890" lon="8.8533290">
        <ele>183.2700000</ele>
        <time>2009-05-03T08:37:30Z</time>
      </trkpt>
      <trkpt lat="45.5418260" lon="8.8533410">
        <ele>183.7500000</ele>
        <time>2009-05-03T08:37:31Z</time>
      </trkpt>
      <trkpt lat="45.5418620" lon="8.8533700">
        <ele>183.7500000</ele>
        <time>2009-05-03T08:37:32Z</time>
      </trkpt>
      <trkpt lat="45.5420610" lon="8.8535000">
        <ele>183.7500000</ele>
        <time>2009-05-03T08:37:37Z</time>
      </trkpt>
      <trkpt lat="45.5421130" lon="8.8534810">
        <ele>183.7500000</ele>
        <time>2009-05-03T08:37:38Z</time>
      </trkpt>
      <trkpt lat="45.5421610" lon="8.8534470">
        <ele>183.7500000</ele>
        <time>2009-05-03T08:37:39Z</time>
      </trkpt>
      <trkpt lat="45.5422000" lon="8.8534030">
        <ele>183.7500000</ele>
        <time>2009-05-03T08:37:40Z</time>
      </trkpt>
      <trkpt lat="45.5422250" lon="8.8533450">
        <ele>183.7500000</ele>
        <time>2009-05-03T08:37:41Z</time>
      </trkpt>
      <trkpt lat="45.5422470" lon="8.8532700">
        <ele>183.7500000</ele>
        <time>2009-05-03T08:37:42Z</time>
      </trkpt>
      <trkpt lat="45.5422730" lon="8.8531920">
        <ele>183.2700000</ele>
        <time>2009-05-03T08:37:43Z</time>
      </trkpt>
      <trkpt lat="45.5422880" lon="8.8531130">
        <ele>183.2700000</ele>
        <time>2009-05-03T08:37:44Z</time>
      </trkpt>
      <trkpt lat="45.5422990" lon="8.8530320">
        <ele>183.2700000</ele>
        <time>2009-05-03T08:37:45Z</time>
      </trkpt>
      <trkpt lat="45.5426190" lon="8.8519620">
        <ele>181.3500000</ele>
        <time>2009-05-03T08:37:58Z</time>
      </trkpt>
      <trkpt lat="45.5427060" lon="8.8517430">
        <ele>181.3500000</ele>
        <time>2009-05-03T08:38:01Z</time>
      </trkpt>
      <trkpt lat="45.5428900" lon="8.8511660">
        <ele>182.3100000</ele>
        <time>2009-05-03T08:38:12Z</time>
      </trkpt>
      <trkpt lat="45.5429110" lon="8.8510650">
        <ele>182.3100000</ele>
        <time>2009-05-03T08:38:15Z</time>
      </trkpt>
      <trkpt lat="45.5429110" lon="8.8510430">
        <ele>182.3100000</ele>
        <time>2009-05-03T08:38:16Z</time>
      </trkpt>
      <trkpt lat="45.5429110" lon="8.8510240">
        <ele>182.3100000</ele>
        <time>2009-05-03T08:38:17Z</time>
      </trkpt>
      <trkpt lat="45.5429400" lon="8.8509410">
        <ele>182.3100000</ele>
        <time>2009-05-03T08:38:34Z</time>
      </trkpt>
      <trkpt lat="45.5430340" lon="8.8506630">
        <ele>182.3100000</ele>
        <time>2009-05-03T08:38:48Z</time>
      </trkpt>
      <trkpt lat="45.5431910" lon="8.8502590">
        <ele>182.7900000</ele>
        <time>2009-05-03T08:39:00Z</time>
      </trkpt>
      <trkpt lat="45.5433700" lon="8.8495400">
        <ele>182.7900000</ele>
        <time>2009-05-03T08:39:17Z</time>
      </trkpt>
      <trkpt lat="45.5434420" lon="8.8487590">
        <ele>182.7900000</ele>
        <time>2009-05-03T08:39:31Z</time>
      </trkpt>
      <trkpt lat="45.5434580" lon="8.8484170">
        <ele>182.7900000</ele>
        <time>2009-05-03T08:39:36Z</time>
      </trkpt>
      <trkpt lat="45.5434570" lon="8.8482920">
        <ele>182.7900000</ele>
        <time>2009-05-03T08:39:38Z</time>
      </trkpt>
      <trkpt lat="45.5434630" lon="8.8482250">
        <ele>182.7900000</ele>
        <time>2009-05-03T08:39:39Z</time>
      </trkpt>
      <trkpt lat="45.5435560" lon="8.8474670">
        <ele>182.7900000</ele>
        <time>2009-05-03T08:39:51Z</time>
      </trkpt>
      <trkpt lat="45.5435730" lon="8.8473390">
        <ele>182.7900000</ele>
        <time>2009-05-03T08:39:53Z</time>
      </trkpt>
      <trkpt lat="45.5435840" lon="8.8472770">
        <ele>182.7900000</ele>
        <time>2009-05-03T08:39:54Z</time>
      </trkpt>
      <trkpt lat="45.5436160" lon="8.8467530">
        <ele>182.3100000</ele>
        <time>2009-05-03T08:40:06Z</time>
      </trkpt>
      <trkpt lat="45.5436170" lon="8.8465550">
        <ele>182.7900000</ele>
        <time>2009-05-03T08:42:02Z</time>
      </trkpt>
      <trkpt lat="45.5436170" lon="8.8465270">
        <ele>182.7900000</ele>
        <time>2009-05-03T08:42:03Z</time>
      </trkpt>
      <trkpt lat="45.5436270" lon="8.8460840">
        <ele>183.7500000</ele>
        <time>2009-05-03T08:42:12Z</time>
      </trkpt>
      <trkpt lat="45.5436300" lon="8.8460230">
        <ele>183.7500000</ele>
        <time>2009-05-03T08:42:13Z</time>
      </trkpt>
      <trkpt lat="45.5436320" lon="8.8459620">
        <ele>183.7500000</ele>
        <time>2009-05-03T08:42:14Z</time>
      </trkpt>
      <trkpt lat="45.5436300" lon="8.8459030">
        <ele>184.2300000</ele>
        <time>2009-05-03T08:42:15Z</time>
      </trkpt>
      <trkpt lat="45.5436150" lon="8.8458600">
        <ele>183.7500000</ele>
        <time>2009-05-03T08:42:16Z</time>
      </trkpt>
      <trkpt lat="45.5435900" lon="8.8458350">
        <ele>184.2300000</ele>
        <time>2009-05-03T08:42:17Z</time>
      </trkpt>
      <trkpt lat="45.5435590" lon="8.8458160">
        <ele>184.2300000</ele>
        <time>2009-05-03T08:42:18Z</time>
      </trkpt>
      <trkpt lat="45.5435300" lon="8.8458090">
        <ele>184.2300000</ele>
        <time>2009-05-03T08:42:19Z</time>
      </trkpt>
      <trkpt lat="45.5435030" lon="8.8458120">
        <ele>184.2300000</ele>
        <time>2009-05-03T08:42:20Z</time>
      </trkpt>
      <trkpt lat="45.5434690" lon="8.8458340">
        <ele>184.2300000</ele>
        <time>2009-05-03T08:42:21Z</time>
      </trkpt>
      <trkpt lat="45.5432880" lon="8.8458710">
        <ele>184.2300000</ele>
        <time>2009-05-03T08:42:28Z</time>
      </trkpt>
      <trkpt lat="45.5432850" lon="8.8458330">
        <ele>183.7500000</ele>
        <time>2009-05-03T08:42:29Z</time>
      </trkpt>
      <trkpt lat="45.5432940" lon="8.8457940">
        <ele>183.7500000</ele>
        <time>2009-05-03T08:42:30Z</time>
      </trkpt>
      <trkpt lat="45.5433090" lon="8.8457420">
        <ele>183.2700000</ele>
        <time>2009-05-03T08:42:31Z</time>
      </trkpt>
      <trkpt lat="45.5433160" lon="8.8456910">
        <ele>182.7900000</ele>
        <time>2009-05-03T08:42:32Z</time>
      </trkpt>
      <trkpt lat="45.5433220" lon="8.8456250">
        <ele>182.7900000</ele>
        <time>2009-05-03T08:42:33Z</time>
      </trkpt>
      <trkpt lat="45.5433200" lon="8.8455490">
        <ele>182.3100000</ele>
        <time>2009-05-03T08:42:34Z</time>
      </trkpt>
      <trkpt lat="45.5433160" lon="8.8454670">
        <ele>182.3100000</ele>
        <time>2009-05-03T08:42:35Z</time>
      </trkpt>
      <trkpt lat="45.5432960" lon="8.8452430">
        <ele>182.3100000</ele>
        <time>2009-05-03T08:42:38Z</time>
      </trkpt>
      <trkpt lat="45.5432990" lon="8.8451550">
        <ele>182.7900000</ele>
        <time>2009-05-03T08:42:39Z</time>
      </trkpt>
      <trkpt lat="45.5432850" lon="8.8450910">
        <ele>182.7900000</ele>
        <time>2009-05-03T08:42:40Z</time>
      </trkpt>
      <trkpt lat="45.5430850" lon="8.8444500">
        <ele>182.7900000</ele>
        <time>2009-05-03T08:42:48Z</time>
      </trkpt>
      <trkpt lat="45.5430380" lon="8.8443730">
        <ele>182.7900000</ele>
        <time>2009-05-03T08:42:49Z</time>
      </trkpt>
      <trkpt lat="45.5426490" lon="8.8433680">
        <ele>183.2700000</ele>
        <time>2009-05-03T08:43:04Z</time>
      </trkpt>
      <trkpt lat="45.5423330" lon="8.8425760">
        <ele>182.7900000</ele>
        <time>2009-05-03T08:43:16Z</time>
      </trkpt>
      <trkpt lat="45.5419910" lon="8.8417290">
        <ele>182.7900000</ele>
        <time>2009-05-03T08:43:28Z</time>
      </trkpt>
      <trkpt lat="45.5416210" lon="8.8407360">
        <ele>182.3100000</ele>
        <time>2009-05-03T08:43:41Z</time>
      </trkpt>
      <trkpt lat="45.5415380" lon="8.8404940">
        <ele>182.3100000</ele>
        <time>2009-05-03T08:43:44Z</time>
      </trkpt>
      <trkpt lat="45.5415210" lon="8.8404130">
        <ele>182.7900000</ele>
        <time>2009-05-03T08:43:45Z</time>
      </trkpt>
      <trkpt lat="45.5414390" lon="8.8393900">
        <ele>182.7900000</ele>
        <time>2009-05-03T08:43:57Z</time>
      </trkpt>
      <trkpt lat="45.5415400" lon="8.8379560">
        <ele>182.7900000</ele>
        <time>2009-05-03T08:44:13Z</time>
      </trkpt>
      <trkpt lat="45.5416380" lon="8.8366900">
        <ele>182.7900000</ele>
        <time>2009-05-03T08:44:28Z</time>
      </trkpt>
      <trkpt lat="45.5417080" lon="8.8361150">
        <ele>182.3100000</ele>
        <time>2009-05-03T08:44:39Z</time>
      </trkpt>
      <trkpt lat="45.5417080" lon="8.8361120">
        <ele>182.7900000</ele>
        <time>2009-05-03T08:44:46Z</time>
      </trkpt>
      <trkpt lat="45.5417160" lon="8.8360940">
        <ele>182.7900000</ele>
        <time>2009-05-03T08:44:47Z</time>
      </trkpt>
      <trkpt lat="45.5417230" lon="8.8360720">
        <ele>182.7900000</ele>
        <time>2009-05-03T08:44:48Z</time>
      </trkpt>
      <trkpt lat="45.5417300" lon="8.8360400">
        <ele>182.7900000</ele>
        <time>2009-05-03T08:44:49Z</time>
      </trkpt>
      <trkpt lat="45.5417360" lon="8.8360050">
        <ele>182.7900000</ele>
        <time>2009-05-03T08:44:50Z</time>
      </trkpt>
      <trkpt lat="45.5417420" lon="8.8359640">
        <ele>182.7900000</ele>
        <time>2009-05-03T08:44:51Z</time>
      </trkpt>
      <trkpt lat="45.5419020" lon="8.8352230">
        <ele>182.7900000</ele>
        <time>2009-05-03T08:45:04Z</time>
      </trkpt>
      <trkpt lat="45.5421820" lon="8.8342870">
        <ele>182.7900000</ele>
        <time>2009-05-03T08:45:18Z</time>
      </trkpt>
      <trkpt lat="45.5424310" lon="8.8336640">
        <ele>182.7900000</ele>
        <time>2009-05-03T08:45:27Z</time>
      </trkpt>
      <trkpt lat="45.5429630" lon="8.8325750">
        <ele>182.7900000</ele>
        <time>2009-05-03T08:45:43Z</time>
      </trkpt>
      <trkpt lat="45.5431740" lon="8.8321760">
        <ele>182.7900000</ele>
        <time>2009-05-03T08:45:49Z</time>
      </trkpt>
      <trkpt lat="45.5436930" lon="8.8312040">
        <ele>182.7900000</ele>
        <time>2009-05-03T08:46:02Z</time>
      </trkpt>
      <trkpt lat="45.5441850" lon="8.8301530">
        <ele>182.7900000</ele>
        <time>2009-05-03T08:46:15Z</time>
      </trkpt>
      <trkpt lat="45.5445820" lon="8.8290870">
        <ele>182.7900000</ele>
        <time>2009-05-03T08:46:28Z</time>
      </trkpt>
      <trkpt lat="45.5448710" lon="8.8280910">
        <ele>182.7900000</ele>
        <time>2009-05-03T08:46:40Z</time>
      </trkpt>
      <trkpt lat="45.5452980" lon="8.8266140">
        <ele>182.7900000</ele>
        <time>2009-05-03T08:46:58Z</time>
      </trkpt>
      <trkpt lat="45.5457130" lon="8.8251770">
        <ele>183.2700000</ele>
        <time>2009-05-03T08:47:16Z</time>
      </trkpt>
      <trkpt lat="45.5461020" lon="8.8237750">
        <ele>183.7500000</ele>
        <time>2009-05-03T08:47:33Z</time>
      </trkpt>
      <trkpt lat="45.5463240" lon="8.8229180">
        <ele>183.2700000</ele>
        <time>2009-05-03T08:47:43Z</time>
      </trkpt>
      <trkpt lat="45.5463320" lon="8.8228260">
        <ele>183.2700000</ele>
        <time>2009-05-03T08:47:44Z</time>
      </trkpt>
      <trkpt lat="45.5463840" lon="8.8225300">
        <ele>181.8300000</ele>
        <time>2009-05-03T08:47:47Z</time>
      </trkpt>
      <trkpt lat="45.5464160" lon="8.8224360">
        <ele>182.3100000</ele>
        <time>2009-05-03T08:47:48Z</time>
      </trkpt>
      <trkpt lat="45.5464560" lon="8.8223450">
        <ele>182.7900000</ele>
        <time>2009-05-03T08:47:49Z</time>
      </trkpt>
      <trkpt lat="45.5465010" lon="8.8222770">
        <ele>183.2700000</ele>
        <time>2009-05-03T08:47:50Z</time>
      </trkpt>
      <trkpt lat="45.5465360" lon="8.8222060">
        <ele>183.2700000</ele>
        <time>2009-05-03T08:47:51Z</time>
      </trkpt>
      <trkpt lat="45.5465610" lon="8.8221260">
        <ele>183.2700000</ele>
        <time>2009-05-03T08:47:52Z</time>
      </trkpt>
      <trkpt lat="45.5469480" lon="8.8207550">
        <ele>183.7500000</ele>
        <time>2009-05-03T08:48:07Z</time>
      </trkpt>
      <trkpt lat="45.5473270" lon="8.8193070">
        <ele>183.7500000</ele>
        <time>2009-05-03T08:48:23Z</time>
      </trkpt>
      <trkpt lat="45.5476030" lon="8.8183220">
        <ele>183.7500000</ele>
        <time>2009-05-03T08:48:36Z</time>
      </trkpt>
      <trkpt lat="45.5478950" lon="8.8173650">
        <ele>184.2300000</ele>
        <time>2009-05-03T08:48:48Z</time>
      </trkpt>
      <trkpt lat="45.5482300" lon="8.8161990">
        <ele>183.7500000</ele>
        <time>2009-05-03T08:49:03Z</time>
      </trkpt>
      <trkpt lat="45.5483310" lon="8.8158250">
        <ele>183.7500000</ele>
        <time>2009-05-03T08:49:08Z</time>
      </trkpt>
      <trkpt lat="45.5483540" lon="8.8157470">
        <ele>183.7500000</ele>
        <time>2009-05-03T08:49:09Z</time>
      </trkpt>
      <trkpt lat="45.5484580" lon="8.8151510">
        <ele>183.7500000</ele>
        <time>2009-05-03T08:49:17Z</time>
      </trkpt>
      <trkpt lat="45.5484400" lon="8.8146750">
        <ele>185.1900000</ele>
        <time>2009-05-03T08:49:27Z</time>
      </trkpt>
      <trkpt lat="45.5484680" lon="8.8145870">
        <ele>184.7100000</ele>
        <time>2009-05-03T08:49:29Z</time>
      </trkpt>
      <trkpt lat="45.5484840" lon="8.8145220">
        <ele>184.7100000</ele>
        <time>2009-05-03T08:49:30Z</time>
      </trkpt>
      <trkpt lat="45.5484930" lon="8.8144400">
        <ele>184.2300000</ele>
        <time>2009-05-03T08:49:31Z</time>
      </trkpt>
      <trkpt lat="45.5485010" lon="8.8143670">
        <ele>183.7500000</ele>
        <time>2009-05-03T08:49:32Z</time>
      </trkpt>
      <trkpt lat="45.5485030" lon="8.8142860">
        <ele>183.7500000</ele>
        <time>2009-05-03T08:49:33Z</time>
      </trkpt>
      <trkpt lat="45.5485040" lon="8.8142050">
        <ele>183.7500000</ele>
        <time>2009-05-03T08:49:34Z</time>
      </trkpt>
      <trkpt lat="45.5483530" lon="8.8131380">
        <ele>183.7500000</ele>
        <time>2009-05-03T08:49:46Z</time>
      </trkpt>
      <trkpt lat="45.5481750" lon="8.8120000">
        <ele>183.7500000</ele>
        <time>2009-05-03T08:50:01Z</time>
      </trkpt>
      <trkpt lat="45.5481170" lon="8.8117120">
        <ele>184.2300000</ele>
        <time>2009-05-03T08:50:05Z</time>
      </trkpt>
      <trkpt lat="45.5479700" lon="8.8107310">
        <ele>184.2300000</ele>
        <time>2009-05-03T08:50:19Z</time>
      </trkpt>
      <trkpt lat="45.5479600" lon="8.8106650">
        <ele>184.2300000</ele>
        <time>2009-05-03T08:50:20Z</time>
      </trkpt>
      <trkpt lat="45.5479500" lon="8.8105920">
        <ele>184.2300000</ele>
        <time>2009-05-03T08:50:21Z</time>
      </trkpt>
      <trkpt lat="45.5477930" lon="8.8095700">
        <ele>184.2300000</ele>
        <time>2009-05-03T08:50:34Z</time>
      </trkpt>
      <trkpt lat="45.5476740" lon="8.8083590">
        <ele>183.7500000</ele>
        <time>2009-05-03T08:50:48Z</time>
      </trkpt>
      <trkpt lat="45.5475960" lon="8.8069230">
        <ele>183.7500000</ele>
        <time>2009-05-03T08:51:05Z</time>
      </trkpt>
      <trkpt lat="45.5475990" lon="8.8057060">
        <ele>183.2700000</ele>
        <time>2009-05-03T08:51:19Z</time>
      </trkpt>
      <trkpt lat="45.5476710" lon="8.8043840">
        <ele>183.7500000</ele>
        <time>2009-05-03T08:51:34Z</time>
      </trkpt>
      <trkpt lat="45.5477730" lon="8.8033620">
        <ele>183.7500000</ele>
        <time>2009-05-03T08:51:46Z</time>
      </trkpt>
      <trkpt lat="45.5479870" lon="8.8019680">
        <ele>183.7500000</ele>
        <time>2009-05-03T08:52:02Z</time>
      </trkpt>
      <trkpt lat="45.5480270" lon="8.8018000">
        <ele>184.2300000</ele>
        <time>2009-05-03T08:52:04Z</time>
      </trkpt>
      <trkpt lat="45.5483550" lon="8.8002490">
        <ele>184.2300000</ele>
        <time>2009-05-03T08:52:22Z</time>
      </trkpt>
      <trkpt lat="45.5487230" lon="8.7988640">
        <ele>184.2300000</ele>
        <time>2009-05-03T08:52:36Z</time>
      </trkpt>
      <trkpt lat="45.5491220" lon="8.7974310">
        <ele>184.2300000</ele>
        <time>2009-05-03T08:52:50Z</time>
      </trkpt>
      <trkpt lat="45.5495240" lon="8.7959880">
        <ele>184.7100000</ele>
        <time>2009-05-03T08:53:03Z</time>
      </trkpt>
      <trkpt lat="45.5498750" lon="8.7947270">
        <ele>184.7100000</ele>
        <time>2009-05-03T08:53:16Z</time>
      </trkpt>
      <trkpt lat="45.5500520" lon="8.7940500">
        <ele>184.7100000</ele>
        <time>2009-05-03T08:53:25Z</time>
      </trkpt>
      <trkpt lat="45.5500920" lon="8.7938620">
        <ele>183.7500000</ele>
        <time>2009-05-03T08:53:28Z</time>
      </trkpt>
      <trkpt lat="45.5503860" lon="8.7928940">
        <ele>184.7100000</ele>
        <time>2009-05-03T08:53:39Z</time>
      </trkpt>
      <trkpt lat="45.5507560" lon="8.7915440">
        <ele>184.7100000</ele>
        <time>2009-05-03T08:53:55Z</time>
      </trkpt>
      <trkpt lat="45.5511340" lon="8.7902300">
        <ele>184.2300000</ele>
        <time>2009-05-03T08:54:11Z</time>
      </trkpt>
      <trkpt lat="45.5515170" lon="8.7888150">
        <ele>184.2300000</ele>
        <time>2009-05-03T08:54:28Z</time>
      </trkpt>
      <trkpt lat="45.5518760" lon="8.7875590">
        <ele>184.2300000</ele>
        <time>2009-05-03T08:54:43Z</time>
      </trkpt>
      <trkpt lat="45.5524220" lon="8.7864720">
        <ele>184.7100000</ele>
        <time>2009-05-03T08:54:58Z</time>
      </trkpt>
      <trkpt lat="45.5529020" lon="8.7858150">
        <ele>185.6700000</ele>
        <time>2009-05-03T08:55:10Z</time>
      </trkpt>
      <trkpt lat="45.5529610" lon="8.7857460">
        <ele>185.6700000</ele>
        <time>2009-05-03T08:55:12Z</time>
      </trkpt>
      <trkpt lat="45.5530690" lon="8.7856530">
        <ele>185.1900000</ele>
        <time>2009-05-03T08:55:14Z</time>
      </trkpt>
      <trkpt lat="45.5536410" lon="8.7849440">
        <ele>184.7100000</ele>
        <time>2009-05-03T08:55:26Z</time>
      </trkpt>
      <trkpt lat="45.5538240" lon="8.7847360">
        <ele>185.6700000</ele>
        <time>2009-05-03T08:55:35Z</time>
      </trkpt>
      <trkpt lat="45.5540430" lon="8.7843760">
        <ele>184.7100000</ele>
        <time>2009-05-03T08:55:46Z</time>
      </trkpt>
      <trkpt lat="45.5543140" lon="8.7837230">
        <ele>184.7100000</ele>
        <time>2009-05-03T08:56:01Z</time>
      </trkpt>
      <trkpt lat="45.5544150" lon="8.7831120">
        <ele>185.6700000</ele>
        <time>2009-05-03T08:56:14Z</time>
      </trkpt>
      <trkpt lat="45.5544400" lon="8.7829610">
        <ele>186.6300000</ele>
        <time>2009-05-03T08:56:24Z</time>
      </trkpt>
      <trkpt lat="45.5544580" lon="8.7829670">
        <ele>186.1500000</ele>
        <time>2009-05-03T08:56:25Z</time>
      </trkpt>
      <trkpt lat="45.5544820" lon="8.7829780">
        <ele>186.6300000</ele>
        <time>2009-05-03T08:56:26Z</time>
      </trkpt>
      <trkpt lat="45.5547950" lon="8.7830590">
        <ele>186.6300000</ele>
        <time>2009-05-03T08:56:37Z</time>
      </trkpt>
      <trkpt lat="45.5548030" lon="8.7830120">
        <ele>186.1500000</ele>
        <time>2009-05-03T08:56:38Z</time>
      </trkpt>
      <trkpt lat="45.5548090" lon="8.7829470">
        <ele>186.1500000</ele>
        <time>2009-05-03T08:56:39Z</time>
      </trkpt>
      <trkpt lat="45.5548000" lon="8.7827280">
        <ele>185.1900000</ele>
        <time>2009-05-03T08:56:42Z</time>
      </trkpt>
      <trkpt lat="45.5548110" lon="8.7823640">
        <ele>184.7100000</ele>
        <time>2009-05-03T08:56:47Z</time>
      </trkpt>
      <trkpt lat="45.5547960" lon="8.7819790">
        <ele>184.7100000</ele>
        <time>2009-05-03T08:56:52Z</time>
      </trkpt>
      <trkpt lat="45.5547830" lon="8.7817510">
        <ele>184.7100000</ele>
        <time>2009-05-03T08:56:55Z</time>
      </trkpt>
      <trkpt lat="45.5547070" lon="8.7806240">
        <ele>185.1900000</ele>
        <time>2009-05-03T08:57:09Z</time>
      </trkpt>
      <trkpt lat="45.5547010" lon="8.7804830">
        <ele>185.1900000</ele>
        <time>2009-05-03T08:57:11Z</time>
      </trkpt>
      <trkpt lat="45.5546910" lon="8.7799570">
        <ele>185.6700000</ele>
        <time>2009-05-03T08:57:18Z</time>
      </trkpt>
      <trkpt lat="45.5546570" lon="8.7788620">
        <ele>185.6700000</ele>
        <time>2009-05-03T08:57:32Z</time>
      </trkpt>
      <trkpt lat="45.5546050" lon="8.7785980">
        <ele>185.1900000</ele>
        <time>2009-05-03T08:57:35Z</time>
      </trkpt>
      <trkpt lat="45.5545800" lon="8.7777920">
        <ele>185.6700000</ele>
        <time>2009-05-03T08:57:45Z</time>
      </trkpt>
      <trkpt lat="45.5545780" lon="8.7776370">
        <ele>185.1900000</ele>
        <time>2009-05-03T08:57:47Z</time>
      </trkpt>
      <trkpt lat="45.5545710" lon="8.7775060">
        <ele>185.1900000</ele>
        <time>2009-05-03T08:57:49Z</time>
      </trkpt>
      <trkpt lat="45.5545270" lon="8.7772560">
        <ele>186.1500000</ele>
        <time>2009-05-03T08:57:54Z</time>
      </trkpt>
      <trkpt lat="45.5544730" lon="8.7772650">
        <ele>186.6300000</ele>
        <time>2009-05-03T08:57:58Z</time>
      </trkpt>
      <trkpt lat="45.5544560" lon="8.7772710">
        <ele>186.6300000</ele>
        <time>2009-05-03T08:57:59Z</time>
      </trkpt>
      <trkpt lat="45.5544250" lon="8.7772780">
        <ele>186.6300000</ele>
        <time>2009-05-03T08:58:00Z</time>
      </trkpt>
      <trkpt lat="45.5542900" lon="8.7772990">
        <ele>186.6300000</ele>
        <time>2009-05-03T08:58:05Z</time>
      </trkpt>
      <trkpt lat="45.5542760" lon="8.7772600">
        <ele>186.1500000</ele>
        <time>2009-05-03T08:58:06Z</time>
      </trkpt>
      <trkpt lat="45.5542640" lon="8.7772010">
        <ele>185.6700000</ele>
        <time>2009-05-03T08:58:07Z</time>
      </trkpt>
      <trkpt lat="45.5542560" lon="8.7771340">
        <ele>185.1900000</ele>
        <time>2009-05-03T08:58:08Z</time>
      </trkpt>
      <trkpt lat="45.5542500" lon="8.7770630">
        <ele>185.1900000</ele>
        <time>2009-05-03T08:58:09Z</time>
      </trkpt>
      <trkpt lat="45.5542420" lon="8.7769920">
        <ele>185.1900000</ele>
        <time>2009-05-03T08:58:10Z</time>
      </trkpt>
      <trkpt lat="45.5542290" lon="8.7769200">
        <ele>185.1900000</ele>
        <time>2009-05-03T08:58:11Z</time>
      </trkpt>
      <trkpt lat="45.5542140" lon="8.7768510">
        <ele>185.1900000</ele>
        <time>2009-05-03T08:58:12Z</time>
      </trkpt>
      <trkpt lat="45.5541920" lon="8.7767170">
        <ele>185.1900000</ele>
        <time>2009-05-03T08:58:14Z</time>
      </trkpt>
      <trkpt lat="45.5541590" lon="8.7764560">
        <ele>185.6700000</ele>
        <time>2009-05-03T08:58:18Z</time>
      </trkpt>
      <trkpt lat="45.5540770" lon="8.7760200">
        <ele>185.1900000</ele>
        <time>2009-05-03T08:58:24Z</time>
      </trkpt>
      <trkpt lat="45.5540030" lon="8.7757060">
        <ele>185.1900000</ele>
        <time>2009-05-03T08:58:28Z</time>
      </trkpt>
      <trkpt lat="45.5536640" lon="8.7747510">
        <ele>185.1900000</ele>
        <time>2009-05-03T08:58:40Z</time>
      </trkpt>
      <trkpt lat="45.5535310" lon="8.7744090">
        <ele>187.1100000</ele>
        <time>2009-05-03T08:58:49Z</time>
      </trkpt>
      <trkpt lat="45.5535230" lon="8.7742870">
        <ele>187.1100000</ele>
        <time>2009-05-03T08:58:53Z</time>
      </trkpt>
      <trkpt lat="45.5533080" lon="8.7736210">
        <ele>185.6700000</ele>
        <time>2009-05-03T08:59:04Z</time>
      </trkpt>
      <trkpt lat="45.5532740" lon="8.7734820">
        <ele>185.6700000</ele>
        <time>2009-05-03T08:59:06Z</time>
      </trkpt>
      <trkpt lat="45.5530850" lon="8.7727110">
        <ele>185.1900000</ele>
        <time>2009-05-03T08:59:17Z</time>
      </trkpt>
      <trkpt lat="45.5530670" lon="8.7726470">
        <ele>185.6700000</ele>
        <time>2009-05-03T08:59:18Z</time>
      </trkpt>
      <trkpt lat="45.5527620" lon="8.7715870">
        <ele>185.1900000</ele>
        <time>2009-05-03T08:59:33Z</time>
      </trkpt>
      <trkpt lat="45.5525020" lon="8.7707730">
        <ele>184.7100000</ele>
        <time>2009-05-03T08:59:46Z</time>
      </trkpt>
      <trkpt lat="45.5524700" lon="8.7706590">
        <ele>185.1900000</ele>
        <time>2009-05-03T08:59:49Z</time>
      </trkpt>
      <trkpt lat="45.5524640" lon="8.7705130">
        <ele>185.1900000</ele>
        <time>2009-05-03T08:59:51Z</time>
      </trkpt>
      <trkpt lat="45.5521560" lon="8.7694660">
        <ele>185.6700000</ele>
        <time>2009-05-03T09:00:06Z</time>
      </trkpt>
      <trkpt lat="45.5518340" lon="8.7683770">
        <ele>185.6700000</ele>
        <time>2009-05-03T09:00:21Z</time>
      </trkpt>
      <trkpt lat="45.5515090" lon="8.7673110">
        <ele>185.6700000</ele>
        <time>2009-05-03T09:00:36Z</time>
      </trkpt>
      <trkpt lat="45.5512520" lon="8.7664160">
        <ele>185.6700000</ele>
        <time>2009-05-03T09:00:49Z</time>
      </trkpt>
      <trkpt lat="45.5508390" lon="8.7649820">
        <ele>185.6700000</ele>
        <time>2009-05-03T09:01:07Z</time>
      </trkpt>
      <trkpt lat="45.5505590" lon="8.7640410">
        <ele>185.6700000</ele>
        <time>2009-05-03T09:01:19Z</time>
      </trkpt>
      <trkpt lat="45.5503550" lon="8.7629560">
        <ele>185.6700000</ele>
        <time>2009-05-03T09:01:33Z</time>
      </trkpt>
      <trkpt lat="45.5502970" lon="8.7616570">
        <ele>186.1500000</ele>
        <time>2009-05-03T09:01:48Z</time>
      </trkpt>
      <trkpt lat="45.5503730" lon="8.7604050">
        <ele>185.6700000</ele>
        <time>2009-05-03T09:02:03Z</time>
      </trkpt>
      <trkpt lat="45.5504120" lon="8.7599120">
        <ele>186.1500000</ele>
        <time>2009-05-03T09:02:09Z</time>
      </trkpt>
      <trkpt lat="45.5504410" lon="8.7592820">
        <ele>185.6700000</ele>
        <time>2009-05-03T09:02:17Z</time>
      </trkpt>
      <trkpt lat="45.5505070" lon="8.7578990">
        <ele>185.6700000</ele>
        <time>2009-05-03T09:02:35Z</time>
      </trkpt>
      <trkpt lat="45.5505730" lon="8.7567050">
        <ele>186.1500000</ele>
        <time>2009-05-03T09:02:50Z</time>
      </trkpt>
      <trkpt lat="45.5506410" lon="8.7553480">
        <ele>186.1500000</ele>
        <time>2009-05-03T09:03:07Z</time>
      </trkpt>
      <trkpt lat="45.5507220" lon="8.7538610">
        <ele>186.1500000</ele>
        <time>2009-05-03T09:03:26Z</time>
      </trkpt>
      <trkpt lat="45.5508100" lon="8.7523980">
        <ele>186.1500000</ele>
        <time>2009-05-03T09:03:44Z</time>
      </trkpt>
      <trkpt lat="45.5508680" lon="8.7510670">
        <ele>186.1500000</ele>
        <time>2009-05-03T09:04:00Z</time>
      </trkpt>
      <trkpt lat="45.5509540" lon="8.7494670">
        <ele>186.1500000</ele>
        <time>2009-05-03T09:04:19Z</time>
      </trkpt>
      <trkpt lat="45.5510280" lon="8.7480450">
        <ele>186.1500000</ele>
        <time>2009-05-03T09:04:37Z</time>
      </trkpt>
      <trkpt lat="45.5510840" lon="8.7468830">
        <ele>186.1500000</ele>
        <time>2009-05-03T09:04:52Z</time>
      </trkpt>
      <trkpt lat="45.5510280" lon="8.7465250">
        <ele>187.1100000</ele>
        <time>2009-05-03T09:04:57Z</time>
      </trkpt>
      <trkpt lat="45.5510550" lon="8.7463720">
        <ele>187.5900000</ele>
        <time>2009-05-03T09:05:00Z</time>
      </trkpt>
      <trkpt lat="45.5510640" lon="8.7463110">
        <ele>187.5900000</ele>
        <time>2009-05-03T09:05:01Z</time>
      </trkpt>
      <trkpt lat="45.5511950" lon="8.7450710">
        <ele>186.6300000</ele>
        <time>2009-05-03T09:05:16Z</time>
      </trkpt>
      <trkpt lat="45.5512660" lon="8.7435730">
        <ele>186.6300000</ele>
        <time>2009-05-03T09:05:34Z</time>
      </trkpt>
      <trkpt lat="45.5514360" lon="8.7420900">
        <ele>186.6300000</ele>
        <time>2009-05-03T09:05:52Z</time>
      </trkpt>
      <trkpt lat="45.5517420" lon="8.7407840">
        <ele>187.1100000</ele>
        <time>2009-05-03T09:06:09Z</time>
      </trkpt>
      <trkpt lat="45.5521540" lon="8.7395160">
        <ele>186.6300000</ele>
        <time>2009-05-03T09:06:26Z</time>
      </trkpt>
      <trkpt lat="45.5525880" lon="8.7385150">
        <ele>186.6300000</ele>
        <time>2009-05-03T09:06:40Z</time>
      </trkpt>
      <trkpt lat="45.5531480" lon="8.7375070">
        <ele>186.1500000</ele>
        <time>2009-05-03T09:06:55Z</time>
      </trkpt>
      <trkpt lat="45.5535400" lon="8.7368020">
        <ele>186.6300000</ele>
        <time>2009-05-03T09:07:06Z</time>
      </trkpt>
      <trkpt lat="45.5537570" lon="8.7364180">
        <ele>187.1100000</ele>
        <time>2009-05-03T09:07:15Z</time>
      </trkpt>
      <trkpt lat="45.5538770" lon="8.7363040">
        <ele>186.6300000</ele>
        <time>2009-05-03T09:07:18Z</time>
      </trkpt>
      <trkpt lat="45.5544830" lon="8.7353490">
        <ele>186.6300000</ele>
        <time>2009-05-03T09:07:34Z</time>
      </trkpt>
      <trkpt lat="45.5551290" lon="8.7343030">
        <ele>186.6300000</ele>
        <time>2009-05-03T09:07:52Z</time>
      </trkpt>
      <trkpt lat="45.5557820" lon="8.7332830">
        <ele>186.6300000</ele>
        <time>2009-05-03T09:08:09Z</time>
      </trkpt>
      <trkpt lat="45.5562930" lon="8.7323850">
        <ele>187.5900000</ele>
        <time>2009-05-03T09:08:24Z</time>
      </trkpt>
      <trkpt lat="45.5563060" lon="8.7323270">
        <ele>187.5900000</ele>
        <time>2009-05-03T09:08:25Z</time>
      </trkpt>
      <trkpt lat="45.5563030" lon="8.7322830">
        <ele>188.0800000</ele>
        <time>2009-05-03T09:08:26Z</time>
      </trkpt>
      <trkpt lat="45.5563100" lon="8.7322430">
        <ele>188.0800000</ele>
        <time>2009-05-03T09:08:27Z</time>
      </trkpt>
      <trkpt lat="45.5564420" lon="8.7321290">
        <ele>187.1100000</ele>
        <time>2009-05-03T09:08:32Z</time>
      </trkpt>
      <trkpt lat="45.5564780" lon="8.7320890">
        <ele>187.1100000</ele>
        <time>2009-05-03T09:08:33Z</time>
      </trkpt>
      <trkpt lat="45.5565150" lon="8.7320430">
        <ele>187.1100000</ele>
        <time>2009-05-03T09:08:34Z</time>
      </trkpt>
      <trkpt lat="45.5570600" lon="8.7311990">
        <ele>187.1100000</ele>
        <time>2009-05-03T09:08:49Z</time>
      </trkpt>
      <trkpt lat="45.5574460" lon="8.7306070">
        <ele>187.1100000</ele>
        <time>2009-05-03T09:08:59Z</time>
      </trkpt>
      <trkpt lat="45.5579810" lon="8.7297820">
        <ele>187.1100000</ele>
        <time>2009-05-03T09:09:13Z</time>
      </trkpt>
      <trkpt lat="45.5585870" lon="8.7287940">
        <ele>187.1100000</ele>
        <time>2009-05-03T09:09:30Z</time>
      </trkpt>
      <trkpt lat="45.5592250" lon="8.7277920">
        <ele>186.6300000</ele>
        <time>2009-05-03T09:09:47Z</time>
      </trkpt>
      <trkpt lat="45.5598000" lon="8.7268630">
        <ele>186.6300000</ele>
        <time>2009-05-03T09:10:02Z</time>
      </trkpt>
      <trkpt lat="45.5603270" lon="8.7259780">
        <ele>187.1100000</ele>
        <time>2009-05-03T09:10:17Z</time>
      </trkpt>
      <trkpt lat="45.5603590" lon="8.7259320">
        <ele>186.6300000</ele>
        <time>2009-05-03T09:10:18Z</time>
      </trkpt>
      <trkpt lat="45.5603980" lon="8.7258810">
        <ele>186.6300000</ele>
        <time>2009-05-03T09:10:19Z</time>
      </trkpt>
      <trkpt lat="45.5610560" lon="8.7248780">
        <ele>186.1500000</ele>
        <time>2009-05-03T09:10:36Z</time>
      </trkpt>
      <trkpt lat="45.5616540" lon="8.7239340">
        <ele>186.6300000</ele>
        <time>2009-05-03T09:10:52Z</time>
      </trkpt>
      <trkpt lat="45.5622960" lon="8.7229220">
        <ele>186.6300000</ele>
        <time>2009-05-03T09:11:08Z</time>
      </trkpt>
      <trkpt lat="45.5630520" lon="8.7218180">
        <ele>186.6300000</ele>
        <time>2009-05-03T09:11:26Z</time>
      </trkpt>
      <trkpt lat="45.5636580" lon="8.7211160">
        <ele>186.6300000</ele>
        <time>2009-05-03T09:11:40Z</time>
      </trkpt>
      <trkpt lat="45.5644970" lon="8.7203760">
        <ele>186.6300000</ele>
        <time>2009-05-03T09:11:57Z</time>
      </trkpt>
      <trkpt lat="45.5653500" lon="8.7197760">
        <ele>187.1100000</ele>
        <time>2009-05-03T09:12:13Z</time>
      </trkpt>
      <trkpt lat="45.5656300" lon="8.7195850">
        <ele>186.6300000</ele>
        <time>2009-05-03T09:12:18Z</time>
      </trkpt>
      <trkpt lat="45.5657680" lon="8.7194660">
        <ele>188.0800000</ele>
        <time>2009-05-03T09:12:21Z</time>
      </trkpt>
      <trkpt lat="45.5657960" lon="8.7194330">
        <ele>189.0400000</ele>
        <time>2009-05-03T09:12:22Z</time>
      </trkpt>
      <trkpt lat="45.5657960" lon="8.7194030">
        <ele>189.5200000</ele>
        <time>2009-05-03T09:12:23Z</time>
      </trkpt>
      <trkpt lat="45.5657820" lon="8.7193910">
        <ele>189.5200000</ele>
        <time>2009-05-03T09:12:24Z</time>
      </trkpt>
      <trkpt lat="45.5657670" lon="8.7193800">
        <ele>189.5200000</ele>
        <time>2009-05-03T09:12:25Z</time>
      </trkpt>
      <trkpt lat="45.5657650" lon="8.7193620">
        <ele>189.5200000</ele>
        <time>2009-05-03T09:12:26Z</time>
      </trkpt>
      <trkpt lat="45.5657690" lon="8.7193430">
        <ele>189.5200000</ele>
        <time>2009-05-03T09:12:27Z</time>
      </trkpt>
      <trkpt lat="45.5657830" lon="8.7193330">
        <ele>190.0000000</ele>
        <time>2009-05-03T09:12:28Z</time>
      </trkpt>
      <trkpt lat="45.5658100" lon="8.7193320">
        <ele>189.5200000</ele>
        <time>2009-05-03T09:12:29Z</time>
      </trkpt>
      <trkpt lat="45.5658400" lon="8.7193380">
        <ele>189.5200000</ele>
        <time>2009-05-03T09:12:30Z</time>
      </trkpt>
      <trkpt lat="45.5662690" lon="8.7191550">
        <ele>189.5200000</ele>
        <time>2009-05-03T09:12:42Z</time>
      </trkpt>
      <trkpt lat="45.5667420" lon="8.7189880">
        <ele>189.0400000</ele>
        <time>2009-05-03T09:12:56Z</time>
      </trkpt>
      <trkpt lat="45.5668510" lon="8.7189660">
        <ele>188.0800000</ele>
        <time>2009-05-03T09:12:59Z</time>
      </trkpt>
      <trkpt lat="45.5669050" lon="8.7189680">
        <ele>187.5900000</ele>
        <time>2009-05-03T09:13:00Z</time>
      </trkpt>
      <trkpt lat="45.5671780" lon="8.7189620">
        <ele>185.6700000</ele>
        <time>2009-05-03T09:13:04Z</time>
      </trkpt>
      <trkpt lat="45.5674710" lon="8.7188810">
        <ele>185.6700000</ele>
        <time>2009-05-03T09:13:09Z</time>
      </trkpt>
      <trkpt lat="45.5675190" lon="8.7188680">
        <ele>185.1900000</ele>
        <time>2009-05-03T09:13:10Z</time>
      </trkpt>
      <trkpt lat="45.5682270" lon="8.7186430">
        <ele>185.6700000</ele>
        <time>2009-05-03T09:13:23Z</time>
      </trkpt>
      <trkpt lat="45.5684270" lon="8.7186190">
        <ele>185.6700000</ele>
        <time>2009-05-03T09:13:27Z</time>
      </trkpt>
      <trkpt lat="45.5693250" lon="8.7187050">
        <ele>185.6700000</ele>
        <time>2009-05-03T09:13:41Z</time>
      </trkpt>
      <trkpt lat="45.5698200" lon="8.7187210">
        <ele>185.6700000</ele>
        <time>2009-05-03T09:13:53Z</time>
      </trkpt>
      <trkpt lat="45.5698470" lon="8.7187170">
        <ele>184.2300000</ele>
        <time>2009-05-03T09:14:19Z</time>
      </trkpt>
      <trkpt lat="45.5700950" lon="8.7186740">
        <ele>184.7100000</ele>
        <time>2009-05-03T09:17:41Z</time>
      </trkpt>
      <trkpt lat="45.5706580" lon="8.7184790">
        <ele>184.7100000</ele>
        <time>2009-05-03T09:17:54Z</time>
      </trkpt>
      <trkpt lat="45.5711800" lon="8.7182720">
        <ele>184.2300000</ele>
        <time>2009-05-03T09:18:05Z</time>
      </trkpt>
      <trkpt lat="45.5716260" lon="8.7178930">
        <ele>184.7100000</ele>
        <time>2009-05-03T09:18:16Z</time>
      </trkpt>
      <trkpt lat="45.5716690" lon="8.7178410">
        <ele>184.7100000</ele>
        <time>2009-05-03T09:18:17Z</time>
      </trkpt>
      <trkpt lat="45.5720630" lon="8.7175040">
        <ele>184.7100000</ele>
        <time>2009-05-03T09:18:25Z</time>
      </trkpt>
      <trkpt lat="45.5722890" lon="8.7172260">
        <ele>184.7100000</ele>
        <time>2009-05-03T09:18:30Z</time>
      </trkpt>
      <trkpt lat="45.5728740" lon="8.7164670">
        <ele>184.7100000</ele>
        <time>2009-05-03T09:18:44Z</time>
      </trkpt>
      <trkpt lat="45.5729200" lon="8.7164160">
        <ele>184.7100000</ele>
        <time>2009-05-03T09:18:45Z</time>
      </trkpt>
      <trkpt lat="45.5730320" lon="8.7162540">
        <ele>184.7100000</ele>
        <time>2009-05-03T09:18:48Z</time>
      </trkpt>
      <trkpt lat="45.5732410" lon="8.7159000">
        <ele>185.1900000</ele>
        <time>2009-05-03T09:18:54Z</time>
      </trkpt>
      <trkpt lat="45.5733750" lon="8.7156370">
        <ele>184.7100000</ele>
        <time>2009-05-03T09:18:58Z</time>
      </trkpt>
      <trkpt lat="45.5736050" lon="8.7151890">
        <ele>184.7100000</ele>
        <time>2009-05-03T09:19:05Z</time>
      </trkpt>
      <trkpt lat="45.5737430" lon="8.7149500">
        <ele>184.7100000</ele>
        <time>2009-05-03T09:19:09Z</time>
      </trkpt>
      <trkpt lat="45.5742900" lon="8.7142940">
        <ele>184.7100000</ele>
        <time>2009-05-03T09:19:23Z</time>
      </trkpt>
      <trkpt lat="45.5747750" lon="8.7139040">
        <ele>184.7100000</ele>
        <time>2009-05-03T09:19:34Z</time>
      </trkpt>
      <trkpt lat="45.5749190" lon="8.7138040">
        <ele>184.7100000</ele>
        <time>2009-05-03T09:19:37Z</time>
      </trkpt>
      <trkpt lat="45.5752750" lon="8.7136090">
        <ele>185.1900000</ele>
        <time>2009-05-03T09:19:44Z</time>
      </trkpt>
      <trkpt lat="45.5754290" lon="8.7135430">
        <ele>185.1900000</ele>
        <time>2009-05-03T09:19:47Z</time>
      </trkpt>
      <trkpt lat="45.5761020" lon="8.7133750">
        <ele>185.1900000</ele>
        <time>2009-05-03T09:20:01Z</time>
      </trkpt>
      <trkpt lat="45.5767170" lon="8.7133140">
        <ele>185.1900000</ele>
        <time>2009-05-03T09:20:12Z</time>
      </trkpt>
      <trkpt lat="45.5769760" lon="8.7132250">
        <ele>187.1100000</ele>
        <time>2009-05-03T09:20:18Z</time>
      </trkpt>
      <trkpt lat="45.5770870" lon="8.7132140">
        <ele>188.5600000</ele>
        <time>2009-05-03T09:20:22Z</time>
      </trkpt>
      <trkpt lat="45.5772220" lon="8.7132210">
        <ele>188.5600000</ele>
        <time>2009-05-03T09:20:47Z</time>
      </trkpt>
      <trkpt lat="45.5772430" lon="8.7132140">
        <ele>188.5600000</ele>
        <time>2009-05-03T09:20:50Z</time>
      </trkpt>
      <trkpt lat="45.5773920" lon="8.7132220">
        <ele>186.6300000</ele>
        <time>2009-05-03T09:20:55Z</time>
      </trkpt>
      <trkpt lat="45.5774500" lon="8.7132090">
        <ele>185.6700000</ele>
        <time>2009-05-03T09:20:56Z</time>
      </trkpt>
      <trkpt lat="45.5775120" lon="8.7131790">
        <ele>185.6700000</ele>
        <time>2009-05-03T09:20:57Z</time>
      </trkpt>
      <trkpt lat="45.5775720" lon="8.7131430">
        <ele>185.1900000</ele>
        <time>2009-05-03T09:20:58Z</time>
      </trkpt>
      <trkpt lat="45.5776380" lon="8.7131210">
        <ele>185.1900000</ele>
        <time>2009-05-03T09:20:59Z</time>
      </trkpt>
      <trkpt lat="45.5777150" lon="8.7131300">
        <ele>184.7100000</ele>
        <time>2009-05-03T09:21:00Z</time>
      </trkpt>
      <trkpt lat="45.5777680" lon="8.7131540">
        <ele>184.7100000</ele>
        <time>2009-05-03T09:21:01Z</time>
      </trkpt>
      <trkpt lat="45.5778690" lon="8.7131780">
        <ele>185.1900000</ele>
        <time>2009-05-03T09:21:03Z</time>
      </trkpt>
      <trkpt lat="45.5782660" lon="8.7130770">
        <ele>184.7100000</ele>
        <time>2009-05-03T09:21:12Z</time>
      </trkpt>
      <trkpt lat="45.5786930" lon="8.7128220">
        <ele>184.7100000</ele>
        <time>2009-05-03T09:21:22Z</time>
      </trkpt>
      <trkpt lat="45.5791420" lon="8.7122730">
        <ele>185.1900000</ele>
        <time>2009-05-03T09:21:35Z</time>
      </trkpt>
      <trkpt lat="45.5792700" lon="8.7120740">
        <ele>185.1900000</ele>
        <time>2009-05-03T09:21:39Z</time>
      </trkpt>
      <trkpt lat="45.5795610" lon="8.7116020">
        <ele>184.7100000</ele>
        <time>2009-05-03T09:21:47Z</time>
      </trkpt>
      <trkpt lat="45.5797170" lon="8.7112960">
        <ele>185.1900000</ele>
        <time>2009-05-03T09:21:52Z</time>
      </trkpt>
      <trkpt lat="45.5797470" lon="8.7112370">
        <ele>185.1900000</ele>
        <time>2009-05-03T09:21:53Z</time>
      </trkpt>
      <trkpt lat="45.5798600" lon="8.7109920">
        <ele>185.1900000</ele>
        <time>2009-05-03T09:21:57Z</time>
      </trkpt>
      <trkpt lat="45.5798950" lon="8.7109360">
        <ele>185.1900000</ele>
        <time>2009-05-03T09:21:58Z</time>
      </trkpt>
      <trkpt lat="45.5799300" lon="8.7108870">
        <ele>185.1900000</ele>
        <time>2009-05-03T09:21:59Z</time>
      </trkpt>
      <trkpt lat="45.5799610" lon="8.7108320">
        <ele>184.7100000</ele>
        <time>2009-05-03T09:22:00Z</time>
      </trkpt>
      <trkpt lat="45.5799840" lon="8.7107580">
        <ele>185.1900000</ele>
        <time>2009-05-03T09:22:01Z</time>
      </trkpt>
      <trkpt lat="45.5800150" lon="8.7107030">
        <ele>185.1900000</ele>
        <time>2009-05-03T09:22:02Z</time>
      </trkpt>
      <trkpt lat="45.5800790" lon="8.7105830">
        <ele>185.1900000</ele>
        <time>2009-05-03T09:22:04Z</time>
      </trkpt>
      <trkpt lat="45.5802360" lon="8.7102940">
        <ele>185.1900000</ele>
        <time>2009-05-03T09:22:09Z</time>
      </trkpt>
      <trkpt lat="45.5803650" lon="8.7101390">
        <ele>185.1900000</ele>
        <time>2009-05-03T09:22:12Z</time>
      </trkpt>
      <trkpt lat="45.5807110" lon="8.7097540">
        <ele>185.1900000</ele>
        <time>2009-05-03T09:22:20Z</time>
      </trkpt>
      <trkpt lat="45.5809840" lon="8.7094250">
        <ele>185.1900000</ele>
        <time>2009-05-03T09:22:27Z</time>
      </trkpt>
      <trkpt lat="45.5810260" lon="8.7093770">
        <ele>185.1900000</ele>
        <time>2009-05-03T09:22:28Z</time>
      </trkpt>
      <trkpt lat="45.5814900" lon="8.7087840">
        <ele>185.1900000</ele>
        <time>2009-05-03T09:22:41Z</time>
      </trkpt>
      <trkpt lat="45.5815220" lon="8.7087260">
        <ele>185.1900000</ele>
        <time>2009-05-03T09:22:42Z</time>
      </trkpt>
      <trkpt lat="45.5817900" lon="8.7081920">
        <ele>185.1900000</ele>
        <time>2009-05-03T09:22:51Z</time>
      </trkpt>
      <trkpt lat="45.5818230" lon="8.7081290">
        <ele>185.1900000</ele>
        <time>2009-05-03T09:22:52Z</time>
      </trkpt>
      <trkpt lat="45.5819960" lon="8.7078520">
        <ele>185.1900000</ele>
        <time>2009-05-03T09:22:57Z</time>
      </trkpt>
      <trkpt lat="45.5824780" lon="8.7074820">
        <ele>185.1900000</ele>
        <time>2009-05-03T09:23:08Z</time>
      </trkpt>
      <trkpt lat="45.5826810" lon="8.7074300">
        <ele>184.7100000</ele>
        <time>2009-05-03T09:23:17Z</time>
      </trkpt>
      <trkpt lat="45.5828160" lon="8.7074590">
        <ele>187.5900000</ele>
        <time>2009-05-03T09:23:39Z</time>
      </trkpt>
      <trkpt lat="45.5828620" lon="8.7074390">
        <ele>187.1100000</ele>
        <time>2009-05-03T09:24:06Z</time>
      </trkpt>
      <trkpt lat="45.5828730" lon="8.7075250">
        <ele>187.1100000</ele>
        <time>2009-05-03T09:25:11Z</time>
      </trkpt>
      <trkpt lat="45.5828900" lon="8.7077170">
        <ele>187.5900000</ele>
        <time>2009-05-03T09:25:20Z</time>
      </trkpt>
      <trkpt lat="45.5829040" lon="8.7077330">
        <ele>187.5900000</ele>
        <time>2009-05-03T09:25:21Z</time>
      </trkpt>
      <trkpt lat="45.5829180" lon="8.7077420">
        <ele>188.0800000</ele>
        <time>2009-05-03T09:25:22Z</time>
      </trkpt>
      <trkpt lat="45.5829300" lon="8.7077560">
        <ele>188.5600000</ele>
        <time>2009-05-03T09:25:23Z</time>
      </trkpt>
      <trkpt lat="45.5829510" lon="8.7077720">
        <ele>189.0400000</ele>
        <time>2009-05-03T09:25:24Z</time>
      </trkpt>
      <trkpt lat="45.5829700" lon="8.7077870">
        <ele>189.5200000</ele>
        <time>2009-05-03T09:25:25Z</time>
      </trkpt>
      <trkpt lat="45.5829900" lon="8.7077970">
        <ele>189.5200000</ele>
        <time>2009-05-03T09:25:26Z</time>
      </trkpt>
      <trkpt lat="45.5831180" lon="8.7078630">
        <ele>191.9200000</ele>
        <time>2009-05-03T09:25:34Z</time>
      </trkpt>
      <trkpt lat="45.5831350" lon="8.7079070">
        <ele>192.8800000</ele>
        <time>2009-05-03T09:25:41Z</time>
      </trkpt>
      <trkpt lat="45.5831140" lon="8.7079130">
        <ele>192.8800000</ele>
        <time>2009-05-03T09:25:42Z</time>
      </trkpt>
      <trkpt lat="45.5830920" lon="8.7079250">
        <ele>193.3600000</ele>
        <time>2009-05-03T09:25:43Z</time>
      </trkpt>
      <trkpt lat="45.5830770" lon="8.7079200">
        <ele>193.3600000</ele>
        <time>2009-05-03T09:25:44Z</time>
      </trkpt>
      <trkpt lat="45.5830600" lon="8.7079180">
        <ele>193.8400000</ele>
        <time>2009-05-03T09:25:45Z</time>
      </trkpt>
      <trkpt lat="45.5830410" lon="8.7079230">
        <ele>193.8400000</ele>
        <time>2009-05-03T09:25:46Z</time>
      </trkpt>
      <trkpt lat="45.5830260" lon="8.7079020">
        <ele>194.3200000</ele>
        <time>2009-05-03T09:25:47Z</time>
      </trkpt>
      <trkpt lat="45.5830130" lon="8.7078800">
        <ele>194.8000000</ele>
        <time>2009-05-03T09:25:48Z</time>
      </trkpt>
      <trkpt lat="45.5830150" lon="8.7079520">
        <ele>196.7300000</ele>
        <time>2009-05-03T09:26:02Z</time>
      </trkpt>
      <trkpt lat="45.5830680" lon="8.7081730">
        <ele>197.6900000</ele>
        <time>2009-05-03T09:26:18Z</time>
      </trkpt>
      <trkpt lat="45.5830680" lon="8.7081730">
        <ele>188.5600000</ele>
        <time>2009-05-03T09:56:25Z</time>
      </trkpt>
      <trkpt lat="45.5830680" lon="8.7081730">
        <ele>199.1300000</ele>
        <time>2009-05-03T09:56:26Z</time>
      </trkpt>
      <trkpt lat="45.5829030" lon="8.7078950">
        <ele>199.1300000</ele>
        <time>2009-05-03T09:56:33Z</time>
      </trkpt>
      <trkpt lat="45.5830880" lon="8.7078220">
        <ele>198.1700000</ele>
        <time>2009-05-03T09:56:48Z</time>
      </trkpt>
      <trkpt lat="45.5830850" lon="8.7078130">
        <ele>198.1700000</ele>
        <time>2009-05-03T09:56:50Z</time>
      </trkpt>
      <trkpt lat="45.5830630" lon="8.7077940">
        <ele>195.7700000</ele>
        <time>2009-05-03T09:57:03Z</time>
      </trkpt>
      <trkpt lat="45.5831370" lon="8.7078420">
        <ele>194.3200000</ele>
        <time>2009-05-03T09:57:07Z</time>
      </trkpt>
      <trkpt lat="45.5831590" lon="8.7078340">
        <ele>193.8400000</ele>
        <time>2009-05-03T09:57:09Z</time>
      </trkpt>
      <trkpt lat="45.5829430" lon="8.7077670">
        <ele>190.4800000</ele>
        <time>2009-05-03T09:57:16Z</time>
      </trkpt>
      <trkpt lat="45.5828530" lon="8.7076720">
        <ele>188.5600000</ele>
        <time>2009-05-03T09:57:24Z</time>
      </trkpt>
      <trkpt lat="45.5828550" lon="8.7076490">
        <ele>188.5600000</ele>
        <time>2009-05-03T09:57:26Z</time>
      </trkpt>
      <trkpt lat="45.5828540" lon="8.7076280">
        <ele>188.5600000</ele>
        <time>2009-05-03T09:57:27Z</time>
      </trkpt>
      <trkpt lat="45.5828570" lon="8.7076020">
        <ele>188.5600000</ele>
        <time>2009-05-03T09:57:28Z</time>
      </trkpt>
      <trkpt lat="45.5828580" lon="8.7075760">
        <ele>188.5600000</ele>
        <time>2009-05-03T09:57:29Z</time>
      </trkpt>
      <trkpt lat="45.5828590" lon="8.7075540">
        <ele>189.0400000</ele>
        <time>2009-05-03T09:57:30Z</time>
      </trkpt>
      <trkpt lat="45.5828570" lon="8.7075280">
        <ele>189.0400000</ele>
        <time>2009-05-03T09:57:31Z</time>
      </trkpt>
      <trkpt lat="45.5828550" lon="8.7075080">
        <ele>189.5200000</ele>
        <time>2009-05-03T09:57:32Z</time>
      </trkpt>
      <trkpt lat="45.5828590" lon="8.7074050">
        <ele>192.4000000</ele>
        <time>2009-05-03T09:57:44Z</time>
      </trkpt>
      <trkpt lat="45.5828650" lon="8.7073850">
        <ele>192.4000000</ele>
        <time>2009-05-03T09:58:02Z</time>
      </trkpt>
      <trkpt lat="45.5828810" lon="8.7073850">
        <ele>191.9200000</ele>
        <time>2009-05-03T09:58:06Z</time>
      </trkpt>
      <trkpt lat="45.5829530" lon="8.7073880">
        <ele>190.0000000</ele>
        <time>2009-05-03T09:58:08Z</time>
      </trkpt>
      <trkpt lat="45.5829950" lon="8.7073950">
        <ele>190.0000000</ele>
        <time>2009-05-03T09:58:09Z</time>
      </trkpt>
      <trkpt lat="45.5833860" lon="8.7074890">
        <ele>190.0000000</ele>
        <time>2009-05-03T09:58:21Z</time>
      </trkpt>
      <trkpt lat="45.5838080" lon="8.7075790">
        <ele>190.0000000</ele>
        <time>2009-05-03T09:58:35Z</time>
      </trkpt>
      <trkpt lat="45.5843150" lon="8.7077960">
        <ele>190.0000000</ele>
        <time>2009-05-03T09:58:50Z</time>
      </trkpt>
      <trkpt lat="45.5847660" lon="8.7078650">
        <ele>190.0000000</ele>
        <time>2009-05-03T09:59:04Z</time>
      </trkpt>
      <trkpt lat="45.5851250" lon="8.7079310">
        <ele>190.0000000</ele>
        <time>2009-05-03T09:59:16Z</time>
      </trkpt>
      <trkpt lat="45.5855210" lon="8.7079460">
        <ele>190.0000000</ele>
        <time>2009-05-03T09:59:28Z</time>
      </trkpt>
      <trkpt lat="45.5859500" lon="8.7079020">
        <ele>190.0000000</ele>
        <time>2009-05-03T09:59:40Z</time>
      </trkpt>
      <trkpt lat="45.5863390" lon="8.7078000">
        <ele>190.0000000</ele>
        <time>2009-05-03T09:59:56Z</time>
      </trkpt>
      <trkpt lat="45.5866800" lon="8.7075820">
        <ele>189.5200000</ele>
        <time>2009-05-03T10:00:07Z</time>
      </trkpt>
      <trkpt lat="45.5870220" lon="8.7073500">
        <ele>189.5200000</ele>
        <time>2009-05-03T10:00:17Z</time>
      </trkpt>
      <trkpt lat="45.5874910" lon="8.7072230">
        <ele>190.4800000</ele>
        <time>2009-05-03T10:00:29Z</time>
      </trkpt>
      <trkpt lat="45.5880340" lon="8.7073380">
        <ele>190.0000000</ele>
        <time>2009-05-03T10:00:43Z</time>
      </trkpt>
      <trkpt lat="45.5885000" lon="8.7075320">
        <ele>189.5200000</ele>
        <time>2009-05-03T10:00:57Z</time>
      </trkpt>
      <trkpt lat="45.5887770" lon="8.7077130">
        <ele>189.5200000</ele>
        <time>2009-05-03T10:01:26Z</time>
      </trkpt>
      <trkpt lat="45.5893890" lon="8.7082170">
        <ele>189.5200000</ele>
        <time>2009-05-03T10:01:39Z</time>
      </trkpt>
      <trkpt lat="45.5895390" lon="8.7083300">
        <ele>189.5200000</ele>
        <time>2009-05-03T10:01:42Z</time>
      </trkpt>
      <trkpt lat="45.5895900" lon="8.7083650">
        <ele>189.5200000</ele>
        <time>2009-05-03T10:01:43Z</time>
      </trkpt>
      <trkpt lat="45.5900330" lon="8.7085900">
        <ele>190.0000000</ele>
        <time>2009-05-03T10:01:54Z</time>
      </trkpt>
      <trkpt lat="45.5905460" lon="8.7086420">
        <ele>189.5200000</ele>
        <time>2009-05-03T10:02:07Z</time>
      </trkpt>
      <trkpt lat="45.5910250" lon="8.7085520">
        <ele>189.5200000</ele>
        <time>2009-05-03T10:02:18Z</time>
      </trkpt>
      <trkpt lat="45.5915720" lon="8.7083810">
        <ele>189.5200000</ele>
        <time>2009-05-03T10:02:31Z</time>
      </trkpt>
      <trkpt lat="45.5920410" lon="8.7082070">
        <ele>192.4000000</ele>
        <time>2009-05-03T10:02:42Z</time>
      </trkpt>
      <trkpt lat="45.5921780" lon="8.7081980">
        <ele>191.4400000</ele>
        <time>2009-05-03T10:02:53Z</time>
      </trkpt>
      <trkpt lat="45.5924930" lon="8.7082080">
        <ele>189.5200000</ele>
        <time>2009-05-03T10:03:07Z</time>
      </trkpt>
      <trkpt lat="45.5928490" lon="8.7081350">
        <ele>189.0400000</ele>
        <time>2009-05-03T10:03:19Z</time>
      </trkpt>
      <trkpt lat="45.5932430" lon="8.7081180">
        <ele>189.0400000</ele>
        <time>2009-05-03T10:03:31Z</time>
      </trkpt>
      <trkpt lat="45.5936250" lon="8.7080970">
        <ele>189.0400000</ele>
        <time>2009-05-03T10:03:41Z</time>
      </trkpt>
      <trkpt lat="45.5941370" lon="8.7080920">
        <ele>189.5200000</ele>
        <time>2009-05-03T10:03:53Z</time>
      </trkpt>
      <trkpt lat="45.5945230" lon="8.7081720">
        <ele>189.5200000</ele>
        <time>2009-05-03T10:04:03Z</time>
      </trkpt>
      <trkpt lat="45.5950090" lon="8.7083080">
        <ele>189.5200000</ele>
        <time>2009-05-03T10:04:13Z</time>
      </trkpt>
      <trkpt lat="45.5955200" lon="8.7084460">
        <ele>189.5200000</ele>
        <time>2009-05-03T10:04:24Z</time>
      </trkpt>
      <trkpt lat="45.5958390" lon="8.7084950">
        <ele>189.5200000</ele>
        <time>2009-05-03T10:04:30Z</time>
      </trkpt>
      <trkpt lat="45.5965920" lon="8.7085630">
        <ele>189.5200000</ele>
        <time>2009-05-03T10:04:43Z</time>
      </trkpt>
      <trkpt lat="45.5972080" lon="8.7084940">
        <ele>190.0000000</ele>
        <time>2009-05-03T10:04:54Z</time>
      </trkpt>
      <trkpt lat="45.5979340" lon="8.7081490">
        <ele>190.0000000</ele>
        <time>2009-05-03T10:05:08Z</time>
      </trkpt>
      <trkpt lat="45.5979820" lon="8.7081140">
        <ele>190.0000000</ele>
        <time>2009-05-03T10:05:09Z</time>
      </trkpt>
      <trkpt lat="45.5984410" lon="8.7079450">
        <ele>190.0000000</ele>
        <time>2009-05-03T10:05:18Z</time>
      </trkpt>
      <trkpt lat="45.5990940" lon="8.7079450">
        <ele>190.0000000</ele>
        <time>2009-05-03T10:05:30Z</time>
      </trkpt>
      <trkpt lat="45.5998300" lon="8.7078770">
        <ele>189.5200000</ele>
        <time>2009-05-03T10:05:43Z</time>
      </trkpt>
      <trkpt lat="45.5999560" lon="8.7078560">
        <ele>190.0000000</ele>
        <time>2009-05-03T10:05:45Z</time>
      </trkpt>
      <trkpt lat="45.6003840" lon="8.7077050">
        <ele>189.5200000</ele>
        <time>2009-05-03T10:05:52Z</time>
      </trkpt>
      <trkpt lat="45.6009840" lon="8.7074110">
        <ele>189.5200000</ele>
        <time>2009-05-03T10:06:03Z</time>
      </trkpt>
      <trkpt lat="45.6016920" lon="8.7070170">
        <ele>189.5200000</ele>
        <time>2009-05-03T10:06:16Z</time>
      </trkpt>
      <trkpt lat="45.6019840" lon="8.7067980">
        <ele>189.5200000</ele>
        <time>2009-05-03T10:06:22Z</time>
      </trkpt>
      <trkpt lat="45.6022790" lon="8.7066920">
        <ele>189.5200000</ele>
        <time>2009-05-03T10:06:27Z</time>
      </trkpt>
      <trkpt lat="45.6026200" lon="8.7066370">
        <ele>189.5200000</ele>
        <time>2009-05-03T10:06:33Z</time>
      </trkpt>
      <trkpt lat="45.6030890" lon="8.7066820">
        <ele>189.5200000</ele>
        <time>2009-05-03T10:06:41Z</time>
      </trkpt>
      <trkpt lat="45.6034160" lon="8.7066860">
        <ele>189.5200000</ele>
        <time>2009-05-03T10:06:47Z</time>
      </trkpt>
      <trkpt lat="45.6038390" lon="8.7066160">
        <ele>189.0400000</ele>
        <time>2009-05-03T10:06:54Z</time>
      </trkpt>
      <trkpt lat="45.6041030" lon="8.7065090">
        <ele>190.0000000</ele>
        <time>2009-05-03T10:06:59Z</time>
      </trkpt>
      <trkpt lat="45.6044380" lon="8.7063910">
        <ele>192.4000000</ele>
        <time>2009-05-03T10:07:09Z</time>
      </trkpt>
      <trkpt lat="45.6047400" lon="8.7063150">
        <ele>190.0000000</ele>
        <time>2009-05-03T10:07:16Z</time>
      </trkpt>
      <trkpt lat="45.6047940" lon="8.7062890">
        <ele>189.5200000</ele>
        <time>2009-05-03T10:07:17Z</time>
      </trkpt>
      <trkpt lat="45.6048420" lon="8.7062510">
        <ele>189.5200000</ele>
        <time>2009-05-03T10:07:18Z</time>
      </trkpt>
      <trkpt lat="45.6053230" lon="8.7057810">
        <ele>189.0400000</ele>
        <time>2009-05-03T10:07:29Z</time>
      </trkpt>
      <trkpt lat="45.6054170" lon="8.7057040">
        <ele>189.0400000</ele>
        <time>2009-05-03T10:07:31Z</time>
      </trkpt>
      <trkpt lat="45.6054650" lon="8.7056590">
        <ele>189.0400000</ele>
        <time>2009-05-03T10:07:32Z</time>
      </trkpt>
      <trkpt lat="45.6055140" lon="8.7056310">
        <ele>189.0400000</ele>
        <time>2009-05-03T10:07:33Z</time>
      </trkpt>
      <trkpt lat="45.6061700" lon="8.7053200">
        <ele>189.0400000</ele>
        <time>2009-05-03T10:07:46Z</time>
      </trkpt>
      <trkpt lat="45.6069950" lon="8.7050120">
        <ele>189.0400000</ele>
        <time>2009-05-03T10:08:01Z</time>
      </trkpt>
      <trkpt lat="45.6070480" lon="8.7049840">
        <ele>189.0400000</ele>
        <time>2009-05-03T10:08:02Z</time>
      </trkpt>
      <trkpt lat="45.6075780" lon="8.7047900">
        <ele>189.0400000</ele>
        <time>2009-05-03T10:08:11Z</time>
      </trkpt>
      <trkpt lat="45.6077070" lon="8.7047520">
        <ele>189.0400000</ele>
        <time>2009-05-03T10:08:13Z</time>
      </trkpt>
      <trkpt lat="45.6083900" lon="8.7047090">
        <ele>189.0400000</ele>
        <time>2009-05-03T10:08:25Z</time>
      </trkpt>
      <trkpt lat="45.6084450" lon="8.7047050">
        <ele>189.0400000</ele>
        <time>2009-05-03T10:08:26Z</time>
      </trkpt>
      <trkpt lat="45.6087640" lon="8.7047130">
        <ele>189.0400000</ele>
        <time>2009-05-03T10:08:32Z</time>
      </trkpt>
      <trkpt lat="45.6091770" lon="8.7047110">
        <ele>189.0400000</ele>
        <time>2009-05-03T10:08:39Z</time>
      </trkpt>
      <trkpt lat="45.6096000" lon="8.7046420">
        <ele>189.0400000</ele>
        <time>2009-05-03T10:08:44Z</time>
      </trkpt>
      <trkpt lat="45.6097970" lon="8.7045840">
        <ele>189.0400000</ele>
        <time>2009-05-03T10:08:48Z</time>
      </trkpt>
      <trkpt lat="45.6101530" lon="8.7044870">
        <ele>189.0400000</ele>
        <time>2009-05-03T10:08:54Z</time>
      </trkpt>
      <trkpt lat="45.6103120" lon="8.7044190">
        <ele>189.0400000</ele>
        <time>2009-05-03T10:08:57Z</time>
      </trkpt>
      <trkpt lat="45.6105350" lon="8.7043090">
        <ele>189.0400000</ele>
        <time>2009-05-03T10:09:01Z</time>
      </trkpt>
      <trkpt lat="45.6107620" lon="8.7041720">
        <ele>189.5200000</ele>
        <time>2009-05-03T10:09:05Z</time>
      </trkpt>
      <trkpt lat="45.6113490" lon="8.7036870">
        <ele>189.0400000</ele>
        <time>2009-05-03T10:09:17Z</time>
      </trkpt>
      <trkpt lat="45.6114390" lon="8.7036190">
        <ele>189.0400000</ele>
        <time>2009-05-03T10:09:19Z</time>
      </trkpt>
      <trkpt lat="45.6116400" lon="8.7034840">
        <ele>189.0400000</ele>
        <time>2009-05-03T10:09:23Z</time>
      </trkpt>
      <trkpt lat="45.6117670" lon="8.7033810">
        <ele>189.0400000</ele>
        <time>2009-05-03T10:09:25Z</time>
      </trkpt>
      <trkpt lat="45.6119730" lon="8.7032570">
        <ele>189.0400000</ele>
        <time>2009-05-03T10:09:29Z</time>
      </trkpt>
      <trkpt lat="45.6122270" lon="8.7030230">
        <ele>188.5600000</ele>
        <time>2009-05-03T10:09:34Z</time>
      </trkpt>
      <trkpt lat="45.6124210" lon="8.7027330">
        <ele>189.0400000</ele>
        <time>2009-05-03T10:09:39Z</time>
      </trkpt>
      <trkpt lat="45.6126610" lon="8.7023140">
        <ele>189.0400000</ele>
        <time>2009-05-03T10:09:44Z</time>
      </trkpt>
      <trkpt lat="45.6128260" lon="8.7020130">
        <ele>189.0400000</ele>
        <time>2009-05-03T10:09:48Z</time>
      </trkpt>
      <trkpt lat="45.6131930" lon="8.7014060">
        <ele>188.5600000</ele>
        <time>2009-05-03T10:09:57Z</time>
      </trkpt>
      <trkpt lat="45.6135580" lon="8.7007000">
        <ele>188.5600000</ele>
        <time>2009-05-03T10:10:07Z</time>
      </trkpt>
      <trkpt lat="45.6139320" lon="8.6999500">
        <ele>188.5600000</ele>
        <time>2009-05-03T10:10:18Z</time>
      </trkpt>
      <trkpt lat="45.6140910" lon="8.6997060">
        <ele>188.5600000</ele>
        <time>2009-05-03T10:10:22Z</time>
      </trkpt>
      <trkpt lat="45.6142900" lon="8.6994230">
        <ele>188.5600000</ele>
        <time>2009-05-03T10:10:27Z</time>
      </trkpt>
      <trkpt lat="45.6145220" lon="8.6990990">
        <ele>188.5600000</ele>
        <time>2009-05-03T10:10:33Z</time>
      </trkpt>
      <trkpt lat="45.6149540" lon="8.6985670">
        <ele>189.0400000</ele>
        <time>2009-05-03T10:10:44Z</time>
      </trkpt>
      <trkpt lat="45.6150560" lon="8.6984500">
        <ele>189.0400000</ele>
        <time>2009-05-03T10:10:46Z</time>
      </trkpt>
      <trkpt lat="45.6152720" lon="8.6982210">
        <ele>189.0400000</ele>
        <time>2009-05-03T10:10:50Z</time>
      </trkpt>
      <trkpt lat="45.6156400" lon="8.6978390">
        <ele>189.0400000</ele>
        <time>2009-05-03T10:10:57Z</time>
      </trkpt>
      <trkpt lat="45.6163720" lon="8.6974760">
        <ele>188.5600000</ele>
        <time>2009-05-03T10:11:09Z</time>
      </trkpt>
      <trkpt lat="45.6170750" lon="8.6974720">
        <ele>188.5600000</ele>
        <time>2009-05-03T10:11:21Z</time>
      </trkpt>
      <trkpt lat="45.6175480" lon="8.6975920">
        <ele>188.5600000</ele>
        <time>2009-05-03T10:11:28Z</time>
      </trkpt>
      <trkpt lat="45.6179680" lon="8.6976550">
        <ele>189.0400000</ele>
        <time>2009-05-03T10:11:34Z</time>
      </trkpt>
      <trkpt lat="45.6185470" lon="8.6976760">
        <ele>189.0400000</ele>
        <time>2009-05-03T10:11:43Z</time>
      </trkpt>
      <trkpt lat="45.6193950" lon="8.6974520">
        <ele>189.0400000</ele>
        <time>2009-05-03T10:11:57Z</time>
      </trkpt>
      <trkpt lat="45.6195290" lon="8.6974160">
        <ele>188.5600000</ele>
        <time>2009-05-03T10:11:59Z</time>
      </trkpt>
      <trkpt lat="45.6202510" lon="8.6971140">
        <ele>189.0400000</ele>
        <time>2009-05-03T10:12:12Z</time>
      </trkpt>
      <trkpt lat="45.6204200" lon="8.6970230">
        <ele>189.0400000</ele>
        <time>2009-05-03T10:12:15Z</time>
      </trkpt>
      <trkpt lat="45.6209520" lon="8.6967370">
        <ele>189.0400000</ele>
        <time>2009-05-03T10:12:24Z</time>
      </trkpt>
      <trkpt lat="45.6211850" lon="8.6966190">
        <ele>189.0400000</ele>
        <time>2009-05-03T10:12:28Z</time>
      </trkpt>
      <trkpt lat="45.6215990" lon="8.6963990">
        <ele>189.0400000</ele>
        <time>2009-05-03T10:12:35Z</time>
      </trkpt>
      <trkpt lat="45.6220250" lon="8.6962670">
        <ele>189.0400000</ele>
        <time>2009-05-03T10:12:42Z</time>
      </trkpt>
      <trkpt lat="45.6228150" lon="8.6959770">
        <ele>189.0400000</ele>
        <time>2009-05-03T10:12:56Z</time>
      </trkpt>
      <trkpt lat="45.6230980" lon="8.6958370">
        <ele>189.0400000</ele>
        <time>2009-05-03T10:13:01Z</time>
      </trkpt>
      <trkpt lat="45.6231680" lon="8.6958140">
        <ele>189.0400000</ele>
        <time>2009-05-03T10:13:02Z</time>
      </trkpt>
      <trkpt lat="45.6232230" lon="8.6957900">
        <ele>189.0400000</ele>
        <time>2009-05-03T10:13:03Z</time>
      </trkpt>
      <trkpt lat="45.6232770" lon="8.6957630">
        <ele>189.0400000</ele>
        <time>2009-05-03T10:13:04Z</time>
      </trkpt>
      <trkpt lat="45.6233260" lon="8.6957430">
        <ele>189.0400000</ele>
        <time>2009-05-03T10:13:05Z</time>
      </trkpt>
      <trkpt lat="45.6233760" lon="8.6957230">
        <ele>189.0400000</ele>
        <time>2009-05-03T10:13:06Z</time>
      </trkpt>
      <trkpt lat="45.6234170" lon="8.6957040">
        <ele>189.0400000</ele>
        <time>2009-05-03T10:13:07Z</time>
      </trkpt>
      <trkpt lat="45.6234600" lon="8.6956790">
        <ele>188.5600000</ele>
        <time>2009-05-03T10:13:08Z</time>
      </trkpt>
      <trkpt lat="45.6235070" lon="8.6956450">
        <ele>189.0400000</ele>
        <time>2009-05-03T10:13:09Z</time>
      </trkpt>
      <trkpt lat="45.6235410" lon="8.6956250">
        <ele>189.5200000</ele>
        <time>2009-05-03T10:13:10Z</time>
      </trkpt>
      <trkpt lat="45.6238080" lon="8.6953690">
        <ele>191.9200000</ele>
        <time>2009-05-03T10:13:19Z</time>
      </trkpt>
      <trkpt lat="45.6240580" lon="8.6952640">
        <ele>190.0000000</ele>
        <time>2009-05-03T10:13:27Z</time>
      </trkpt>
      <trkpt lat="45.6242670" lon="8.6951710">
        <ele>189.5200000</ele>
        <time>2009-05-03T10:13:31Z</time>
      </trkpt>
      <trkpt lat="45.6245570" lon="8.6949950">
        <ele>189.5200000</ele>
        <time>2009-05-03T10:13:35Z</time>
      </trkpt>
      <trkpt lat="45.6248110" lon="8.6948030">
        <ele>189.5200000</ele>
        <time>2009-05-03T10:13:39Z</time>
      </trkpt>
      <trkpt lat="45.6254740" lon="8.6938350">
        <ele>189.0400000</ele>
        <time>2009-05-03T10:13:53Z</time>
      </trkpt>
      <trkpt lat="45.6255110" lon="8.6937850">
        <ele>189.0400000</ele>
        <time>2009-05-03T10:13:54Z</time>
      </trkpt>
      <trkpt lat="45.6257550" lon="8.6933720">
        <ele>189.0400000</ele>
        <time>2009-05-03T10:14:00Z</time>
      </trkpt>
      <trkpt lat="45.6258770" lon="8.6930830">
        <ele>189.0400000</ele>
        <time>2009-05-03T10:14:04Z</time>
      </trkpt>
      <trkpt lat="45.6260420" lon="8.6922000">
        <ele>189.0400000</ele>
        <time>2009-05-03T10:14:14Z</time>
      </trkpt>
      <trkpt lat="45.6260890" lon="8.6912250">
        <ele>189.0400000</ele>
        <time>2009-05-03T10:14:25Z</time>
      </trkpt>
      <trkpt lat="45.6261450" lon="8.6903640">
        <ele>189.0400000</ele>
        <time>2009-05-03T10:14:37Z</time>
      </trkpt>
      <trkpt lat="45.6262700" lon="8.6893720">
        <ele>189.0400000</ele>
        <time>2009-05-03T10:14:51Z</time>
      </trkpt>
      <trkpt lat="45.6263790" lon="8.6889020">
        <ele>189.0400000</ele>
        <time>2009-05-03T10:14:58Z</time>
      </trkpt>
      <trkpt lat="45.6265310" lon="8.6881620">
        <ele>189.0400000</ele>
        <time>2009-05-03T10:15:08Z</time>
      </trkpt>
      <trkpt lat="45.6268500" lon="8.6873070">
        <ele>189.0400000</ele>
        <time>2009-05-03T10:15:20Z</time>
      </trkpt>
      <trkpt lat="45.6272070" lon="8.6867810">
        <ele>188.5600000</ele>
        <time>2009-05-03T10:15:30Z</time>
      </trkpt>
      <trkpt lat="45.6274550" lon="8.6865490">
        <ele>188.5600000</ele>
        <time>2009-05-03T10:15:35Z</time>
      </trkpt>
      <trkpt lat="45.6276270" lon="8.6862710">
        <ele>188.5600000</ele>
        <time>2009-05-03T10:15:40Z</time>
      </trkpt>
      <trkpt lat="45.6277070" lon="8.6859040">
        <ele>188.5600000</ele>
        <time>2009-05-03T10:15:45Z</time>
      </trkpt>
      <trkpt lat="45.6277210" lon="8.6857420">
        <ele>188.5600000</ele>
        <time>2009-05-03T10:15:47Z</time>
      </trkpt>
      <trkpt lat="45.6278810" lon="8.6852880">
        <ele>188.5600000</ele>
        <time>2009-05-03T10:15:54Z</time>
      </trkpt>
      <trkpt lat="45.6280480" lon="8.6849370">
        <ele>188.5600000</ele>
        <time>2009-05-03T10:15:59Z</time>
      </trkpt>
      <trkpt lat="45.6282600" lon="8.6846880">
        <ele>189.0400000</ele>
        <time>2009-05-03T10:16:05Z</time>
      </trkpt>
      <trkpt lat="45.6284440" lon="8.6845070">
        <ele>189.0400000</ele>
        <time>2009-05-03T10:16:10Z</time>
      </trkpt>
      <trkpt lat="45.6287510" lon="8.6843580">
        <ele>189.0400000</ele>
        <time>2009-05-03T10:16:17Z</time>
      </trkpt>
      <trkpt lat="45.6291560" lon="8.6843220">
        <ele>189.0400000</ele>
        <time>2009-05-03T10:16:27Z</time>
      </trkpt>
      <trkpt lat="45.6296470" lon="8.6842470">
        <ele>189.0400000</ele>
        <time>2009-05-03T10:16:39Z</time>
      </trkpt>
      <trkpt lat="45.6300810" lon="8.6841960">
        <ele>189.5200000</ele>
        <time>2009-05-03T10:16:49Z</time>
      </trkpt>
      <trkpt lat="45.6307080" lon="8.6841410">
        <ele>189.0400000</ele>
        <time>2009-05-03T10:17:02Z</time>
      </trkpt>
      <trkpt lat="45.6314530" lon="8.6841810">
        <ele>189.0400000</ele>
        <time>2009-05-03T10:17:14Z</time>
      </trkpt>
      <trkpt lat="45.6318580" lon="8.6842630">
        <ele>189.0400000</ele>
        <time>2009-05-03T10:17:22Z</time>
      </trkpt>
      <trkpt lat="45.6319800" lon="8.6843310">
        <ele>189.0400000</ele>
        <time>2009-05-03T10:17:24Z</time>
      </trkpt>
      <trkpt lat="45.6321030" lon="8.6844090">
        <ele>189.0400000</ele>
        <time>2009-05-03T10:17:26Z</time>
      </trkpt>
      <trkpt lat="45.6323790" lon="8.6846250">
        <ele>189.0400000</ele>
        <time>2009-05-03T10:17:31Z</time>
      </trkpt>
      <trkpt lat="45.6327410" lon="8.6851190">
        <ele>189.0400000</ele>
        <time>2009-05-03T10:17:39Z</time>
      </trkpt>
      <trkpt lat="45.6330820" lon="8.6859770">
        <ele>189.0400000</ele>
        <time>2009-05-03T10:17:52Z</time>
      </trkpt>
      <trkpt lat="45.6331050" lon="8.6860430">
        <ele>189.0400000</ele>
        <time>2009-05-03T10:17:53Z</time>
      </trkpt>
      <trkpt lat="45.6331920" lon="8.6864340">
        <ele>189.5200000</ele>
        <time>2009-05-03T10:18:00Z</time>
      </trkpt>
      <trkpt lat="45.6332190" lon="8.6865050">
        <ele>189.5200000</ele>
        <time>2009-05-03T10:18:01Z</time>
      </trkpt>
      <trkpt lat="45.6332690" lon="8.6866320">
        <ele>189.5200000</ele>
        <time>2009-05-03T10:18:03Z</time>
      </trkpt>
      <trkpt lat="45.6332930" lon="8.6866910">
        <ele>189.5200000</ele>
        <time>2009-05-03T10:18:04Z</time>
      </trkpt>
      <trkpt lat="45.6333100" lon="8.6867470">
        <ele>189.0400000</ele>
        <time>2009-05-03T10:18:05Z</time>
      </trkpt>
      <trkpt lat="45.6334840" lon="8.6873080">
        <ele>189.5200000</ele>
        <time>2009-05-03T10:18:13Z</time>
      </trkpt>
      <trkpt lat="45.6335040" lon="8.6873680">
        <ele>189.5200000</ele>
        <time>2009-05-03T10:18:14Z</time>
      </trkpt>
      <trkpt lat="45.6335240" lon="8.6874260">
        <ele>189.5200000</ele>
        <time>2009-05-03T10:18:15Z</time>
      </trkpt>
      <trkpt lat="45.6335330" lon="8.6874940">
        <ele>189.5200000</ele>
        <time>2009-05-03T10:18:16Z</time>
      </trkpt>
      <trkpt lat="45.6335620" lon="8.6875620">
        <ele>189.0400000</ele>
        <time>2009-05-03T10:18:17Z</time>
      </trkpt>
      <trkpt lat="45.6338860" lon="8.6882850">
        <ele>189.0400000</ele>
        <time>2009-05-03T10:18:27Z</time>
      </trkpt>
      <trkpt lat="45.6339520" lon="8.6883720">
        <ele>189.0400000</ele>
        <time>2009-05-03T10:18:28Z</time>
      </trkpt>
      <trkpt lat="45.6340120" lon="8.6884400">
        <ele>189.0400000</ele>
        <time>2009-05-03T10:18:29Z</time>
      </trkpt>
      <trkpt lat="45.6340610" lon="8.6885070">
        <ele>189.0400000</ele>
        <time>2009-05-03T10:18:30Z</time>
      </trkpt>
      <trkpt lat="45.6341050" lon="8.6885620">
        <ele>189.5200000</ele>
        <time>2009-05-03T10:18:31Z</time>
      </trkpt>
      <trkpt lat="45.6343100" lon="8.6887830">
        <ele>189.5200000</ele>
        <time>2009-05-03T10:18:34Z</time>
      </trkpt>
      <trkpt lat="45.6347600" lon="8.6893510">
        <ele>189.0400000</ele>
        <time>2009-05-03T10:18:43Z</time>
      </trkpt>
      <trkpt lat="45.6348180" lon="8.6893990">
        <ele>189.0400000</ele>
        <time>2009-05-03T10:18:44Z</time>
      </trkpt>
      <trkpt lat="45.6354010" lon="8.6899350">
        <ele>189.0400000</ele>
        <time>2009-05-03T10:18:55Z</time>
      </trkpt>
      <trkpt lat="45.6359300" lon="8.6902110">
        <ele>188.5600000</ele>
        <time>2009-05-03T10:19:06Z</time>
      </trkpt>
      <trkpt lat="45.6366020" lon="8.6903440">
        <ele>188.5600000</ele>
        <time>2009-05-03T10:19:18Z</time>
      </trkpt>
      <trkpt lat="45.6372490" lon="8.6903680">
        <ele>189.0400000</ele>
        <time>2009-05-03T10:19:28Z</time>
      </trkpt>
      <trkpt lat="45.6374410" lon="8.6903730">
        <ele>189.0400000</ele>
        <time>2009-05-03T10:19:31Z</time>
      </trkpt>
      <trkpt lat="45.6375420" lon="8.6903820">
        <ele>189.0400000</ele>
        <time>2009-05-03T10:19:33Z</time>
      </trkpt>
      <trkpt lat="45.6376230" lon="8.6903700">
        <ele>189.0400000</ele>
        <time>2009-05-03T10:19:35Z</time>
      </trkpt>
      <trkpt lat="45.6376970" lon="8.6904000">
        <ele>189.0400000</ele>
        <time>2009-05-03T10:19:36Z</time>
      </trkpt>
      <trkpt lat="45.6380970" lon="8.6905180">
        <ele>189.0400000</ele>
        <time>2009-05-03T10:19:40Z</time>
      </trkpt>
      <trkpt lat="45.6386200" lon="8.6907400">
        <ele>189.0400000</ele>
        <time>2009-05-03T10:19:49Z</time>
      </trkpt>
      <trkpt lat="45.6386850" lon="8.6907640">
        <ele>189.0400000</ele>
        <time>2009-05-03T10:19:50Z</time>
      </trkpt>
      <trkpt lat="45.6387470" lon="8.6907750">
        <ele>189.0400000</ele>
        <time>2009-05-03T10:19:51Z</time>
      </trkpt>
      <trkpt lat="45.6388100" lon="8.6907940">
        <ele>189.0400000</ele>
        <time>2009-05-03T10:19:52Z</time>
      </trkpt>
      <trkpt lat="45.6393720" lon="8.6909480">
        <ele>189.0400000</ele>
        <time>2009-05-03T10:20:01Z</time>
      </trkpt>
      <trkpt lat="45.6399360" lon="8.6911270">
        <ele>189.0400000</ele>
        <time>2009-05-03T10:20:10Z</time>
      </trkpt>
      <trkpt lat="45.6404350" lon="8.6912920">
        <ele>189.0400000</ele>
        <time>2009-05-03T10:20:19Z</time>
      </trkpt>
      <trkpt lat="45.6410050" lon="8.6914430">
        <ele>189.0400000</ele>
        <time>2009-05-03T10:20:30Z</time>
      </trkpt>
      <trkpt lat="45.6411980" lon="8.6914680">
        <ele>189.0400000</ele>
        <time>2009-05-03T10:20:34Z</time>
      </trkpt>
      <trkpt lat="45.6412680" lon="8.6914780">
        <ele>189.0400000</ele>
        <time>2009-05-03T10:20:35Z</time>
      </trkpt>
      <trkpt lat="45.6413210" lon="8.6914860">
        <ele>189.0400000</ele>
        <time>2009-05-03T10:20:36Z</time>
      </trkpt>
      <trkpt lat="45.6415370" lon="8.6915080">
        <ele>189.0400000</ele>
        <time>2009-05-03T10:20:40Z</time>
      </trkpt>
      <trkpt lat="45.6415840" lon="8.6915080">
        <ele>189.0400000</ele>
        <time>2009-05-03T10:20:41Z</time>
      </trkpt>
      <trkpt lat="45.6422420" lon="8.6914870">
        <ele>189.0400000</ele>
        <time>2009-05-03T10:20:54Z</time>
      </trkpt>
      <trkpt lat="45.6424710" lon="8.6915120">
        <ele>188.5600000</ele>
        <time>2009-05-03T10:20:57Z</time>
      </trkpt>
      <trkpt lat="45.6433140" lon="8.6916080">
        <ele>189.0400000</ele>
        <time>2009-05-03T10:21:08Z</time>
      </trkpt>
      <trkpt lat="45.6436120" lon="8.6916630">
        <ele>189.0400000</ele>
        <time>2009-05-03T10:21:12Z</time>
      </trkpt>
      <trkpt lat="45.6443930" lon="8.6917800">
        <ele>188.5600000</ele>
        <time>2009-05-03T10:21:23Z</time>
      </trkpt>
      <trkpt lat="45.6448450" lon="8.6918270">
        <ele>188.5600000</ele>
        <time>2009-05-03T10:21:31Z</time>
      </trkpt>
      <trkpt lat="45.6453620" lon="8.6918810">
        <ele>188.5600000</ele>
        <time>2009-05-03T10:21:42Z</time>
      </trkpt>
      <trkpt lat="45.6459410" lon="8.6918590">
        <ele>188.5600000</ele>
        <time>2009-05-03T10:21:55Z</time>
      </trkpt>
      <trkpt lat="45.6462270" lon="8.6918310">
        <ele>188.0800000</ele>
        <time>2009-05-03T10:22:01Z</time>
      </trkpt>
      <trkpt lat="45.6463650" lon="8.6918430">
        <ele>188.0800000</ele>
        <time>2009-05-03T10:22:03Z</time>
      </trkpt>
      <trkpt lat="45.6471250" lon="8.6917810">
        <ele>188.5600000</ele>
        <time>2009-05-03T10:22:14Z</time>
      </trkpt>
      <trkpt lat="45.6477020" lon="8.6915470">
        <ele>188.0800000</ele>
        <time>2009-05-03T10:22:25Z</time>
      </trkpt>
      <trkpt lat="45.6484050" lon="8.6910780">
        <ele>188.0800000</ele>
        <time>2009-05-03T10:22:40Z</time>
      </trkpt>
      <trkpt lat="45.6488400" lon="8.6907420">
        <ele>188.0800000</ele>
        <time>2009-05-03T10:22:50Z</time>
      </trkpt>
      <trkpt lat="45.6493170" lon="8.6902520">
        <ele>188.0800000</ele>
        <time>2009-05-03T10:23:02Z</time>
      </trkpt>
      <trkpt lat="45.6493560" lon="8.6902200">
        <ele>188.0800000</ele>
        <time>2009-05-03T10:23:03Z</time>
      </trkpt>
      <trkpt lat="45.6493990" lon="8.6901770">
        <ele>188.0800000</ele>
        <time>2009-05-03T10:23:04Z</time>
      </trkpt>
      <trkpt lat="45.6494430" lon="8.6901430">
        <ele>188.0800000</ele>
        <time>2009-05-03T10:23:05Z</time>
      </trkpt>
      <trkpt lat="45.6500420" lon="8.6896240">
        <ele>188.0800000</ele>
        <time>2009-05-03T10:23:19Z</time>
      </trkpt>
      <trkpt lat="45.6500790" lon="8.6895920">
        <ele>188.0800000</ele>
        <time>2009-05-03T10:23:20Z</time>
      </trkpt>
      <trkpt lat="45.6503710" lon="8.6893400">
        <ele>188.0800000</ele>
        <time>2009-05-03T10:23:27Z</time>
      </trkpt>
      <trkpt lat="45.6504140" lon="8.6892930">
        <ele>188.0800000</ele>
        <time>2009-05-03T10:23:28Z</time>
      </trkpt>
      <trkpt lat="45.6505490" lon="8.6891930">
        <ele>188.0800000</ele>
        <time>2009-05-03T10:23:31Z</time>
      </trkpt>
      <trkpt lat="45.6505930" lon="8.6891500">
        <ele>188.0800000</ele>
        <time>2009-05-03T10:23:32Z</time>
      </trkpt>
      <trkpt lat="45.6507210" lon="8.6890310">
        <ele>188.0800000</ele>
        <time>2009-05-03T10:23:35Z</time>
      </trkpt>
      <trkpt lat="45.6512920" lon="8.6885760">
        <ele>188.0800000</ele>
        <time>2009-05-03T10:23:49Z</time>
      </trkpt>
      <trkpt lat="45.6515500" lon="8.6883830">
        <ele>188.0800000</ele>
        <time>2009-05-03T10:23:55Z</time>
      </trkpt>
      <trkpt lat="45.6515870" lon="8.6883460">
        <ele>188.0800000</ele>
        <time>2009-05-03T10:23:56Z</time>
      </trkpt>
      <trkpt lat="45.6516720" lon="8.6882070">
        <ele>188.0800000</ele>
        <time>2009-05-03T10:23:58Z</time>
      </trkpt>
      <trkpt lat="45.6518820" lon="8.6879800">
        <ele>188.0800000</ele>
        <time>2009-05-03T10:24:03Z</time>
      </trkpt>
      <trkpt lat="45.6519210" lon="8.6879470">
        <ele>188.0800000</ele>
        <time>2009-05-03T10:24:04Z</time>
      </trkpt>
      <trkpt lat="45.6523010" lon="8.6875650">
        <ele>187.5900000</ele>
        <time>2009-05-03T10:24:13Z</time>
      </trkpt>
      <trkpt lat="45.6529920" lon="8.6870280">
        <ele>187.5900000</ele>
        <time>2009-05-03T10:24:28Z</time>
      </trkpt>
      <trkpt lat="45.6531760" lon="8.6869050">
        <ele>187.5900000</ele>
        <time>2009-05-03T10:24:32Z</time>
      </trkpt>
      <trkpt lat="45.6538730" lon="8.6864740">
        <ele>187.5900000</ele>
        <time>2009-05-03T10:24:46Z</time>
      </trkpt>
      <trkpt lat="45.6546480" lon="8.6860660">
        <ele>187.5900000</ele>
        <time>2009-05-03T10:25:00Z</time>
      </trkpt>
      <trkpt lat="45.6553920" lon="8.6857480">
        <ele>187.5900000</ele>
        <time>2009-05-03T10:25:13Z</time>
      </trkpt>
      <trkpt lat="45.6563430" lon="8.6851470">
        <ele>187.5900000</ele>
        <time>2009-05-03T10:25:30Z</time>
      </trkpt>
      <trkpt lat="45.6569920" lon="8.6845670">
        <ele>187.5900000</ele>
        <time>2009-05-03T10:25:43Z</time>
      </trkpt>
      <trkpt lat="45.6577410" lon="8.6835140">
        <ele>187.5900000</ele>
        <time>2009-05-03T10:26:00Z</time>
      </trkpt>
      <trkpt lat="45.6584190" lon="8.6821950">
        <ele>187.5900000</ele>
        <time>2009-05-03T10:26:18Z</time>
      </trkpt>
      <trkpt lat="45.6588060" lon="8.6808580">
        <ele>187.5900000</ele>
        <time>2009-05-03T10:26:34Z</time>
      </trkpt>
      <trkpt lat="45.6591090" lon="8.6796960">
        <ele>187.5900000</ele>
        <time>2009-05-03T10:26:48Z</time>
      </trkpt>
      <trkpt lat="45.6592770" lon="8.6793080">
        <ele>187.5900000</ele>
        <time>2009-05-03T10:26:53Z</time>
      </trkpt>
      <trkpt lat="45.6598820" lon="8.6786420">
        <ele>187.5900000</ele>
        <time>2009-05-03T10:27:08Z</time>
      </trkpt>
      <trkpt lat="45.6604490" lon="8.6781300">
        <ele>187.5900000</ele>
        <time>2009-05-03T10:27:22Z</time>
      </trkpt>
      <trkpt lat="45.6607380" lon="8.6778830">
        <ele>187.5900000</ele>
        <time>2009-05-03T10:27:29Z</time>
      </trkpt>
      <trkpt lat="45.6611680" lon="8.6774210">
        <ele>187.5900000</ele>
        <time>2009-05-03T10:27:40Z</time>
      </trkpt>
      <trkpt lat="45.6616610" lon="8.6769610">
        <ele>187.5900000</ele>
        <time>2009-05-03T10:27:52Z</time>
      </trkpt>
      <trkpt lat="45.6623890" lon="8.6764360">
        <ele>187.5900000</ele>
        <time>2009-05-03T10:28:08Z</time>
      </trkpt>
      <trkpt lat="45.6630470" lon="8.6763010">
        <ele>187.5900000</ele>
        <time>2009-05-03T10:28:22Z</time>
      </trkpt>
      <trkpt lat="45.6637640" lon="8.6765650">
        <ele>187.5900000</ele>
        <time>2009-05-03T10:28:36Z</time>
      </trkpt>
      <trkpt lat="45.6644300" lon="8.6771040">
        <ele>187.5900000</ele>
        <time>2009-05-03T10:28:52Z</time>
      </trkpt>
      <trkpt lat="45.6651820" lon="8.6774910">
        <ele>187.5900000</ele>
        <time>2009-05-03T10:29:08Z</time>
      </trkpt>
      <trkpt lat="45.6659170" lon="8.6777240">
        <ele>187.5900000</ele>
        <time>2009-05-03T10:29:23Z</time>
      </trkpt>
      <trkpt lat="45.6666250" lon="8.6779430">
        <ele>189.0400000</ele>
        <time>2009-05-03T10:29:38Z</time>
      </trkpt>
      <trkpt lat="45.6668400" lon="8.6779990">
        <ele>191.4400000</ele>
        <time>2009-05-03T10:29:46Z</time>
      </trkpt>
      <trkpt lat="45.6668750" lon="8.6779850">
        <ele>191.4400000</ele>
        <time>2009-05-03T10:30:07Z</time>
      </trkpt>
      <trkpt lat="45.6668280" lon="8.6780010">
        <ele>190.9600000</ele>
        <time>2009-05-03T10:40:33Z</time>
      </trkpt>
      <trkpt lat="45.6667850" lon="8.6784250">
        <ele>190.9600000</ele>
        <time>2009-05-03T10:40:48Z</time>
      </trkpt>
      <trkpt lat="45.6667810" lon="8.6785620">
        <ele>190.4800000</ele>
        <time>2009-05-03T10:40:53Z</time>
      </trkpt>
      <trkpt lat="45.6670260" lon="8.6787520">
        <ele>188.5600000</ele>
        <time>2009-05-03T10:41:01Z</time>
      </trkpt>
      <trkpt lat="45.6670660" lon="8.6788140">
        <ele>188.5600000</ele>
        <time>2009-05-03T10:41:02Z</time>
      </trkpt>
      <trkpt lat="45.6672940" lon="8.6791080">
        <ele>188.5600000</ele>
        <time>2009-05-03T10:41:07Z</time>
      </trkpt>
      <trkpt lat="45.6673390" lon="8.6792260">
        <ele>188.5600000</ele>
        <time>2009-05-03T10:41:09Z</time>
      </trkpt>
      <trkpt lat="45.6676570" lon="8.6800090">
        <ele>188.5600000</ele>
        <time>2009-05-03T10:41:22Z</time>
      </trkpt>
      <trkpt lat="45.6678510" lon="8.6806280">
        <ele>188.0800000</ele>
        <time>2009-05-03T10:41:34Z</time>
      </trkpt>
      <trkpt lat="45.6681910" lon="8.6811770">
        <ele>188.0800000</ele>
        <time>2009-05-03T10:41:46Z</time>
      </trkpt>
      <trkpt lat="45.6686920" lon="8.6817250">
        <ele>188.0800000</ele>
        <time>2009-05-03T10:41:58Z</time>
      </trkpt>
      <trkpt lat="45.6687730" lon="8.6818040">
        <ele>188.0800000</ele>
        <time>2009-05-03T10:41:59Z</time>
      </trkpt>
      <trkpt lat="45.6692610" lon="8.6822290">
        <ele>188.5600000</ele>
        <time>2009-05-03T10:42:10Z</time>
      </trkpt>
      <trkpt lat="45.6695570" lon="8.6824510">
        <ele>188.0800000</ele>
        <time>2009-05-03T10:42:18Z</time>
      </trkpt>
      <trkpt lat="45.6698170" lon="8.6826170">
        <ele>188.0800000</ele>
        <time>2009-05-03T10:42:23Z</time>
      </trkpt>
      <trkpt lat="45.6698670" lon="8.6826420">
        <ele>188.0800000</ele>
        <time>2009-05-03T10:42:24Z</time>
      </trkpt>
      <trkpt lat="45.6699210" lon="8.6826740">
        <ele>188.5600000</ele>
        <time>2009-05-03T10:42:25Z</time>
      </trkpt>
      <trkpt lat="45.6700890" lon="8.6827590">
        <ele>188.5600000</ele>
        <time>2009-05-03T10:42:28Z</time>
      </trkpt>
      <trkpt lat="45.6701360" lon="8.6827850">
        <ele>188.0800000</ele>
        <time>2009-05-03T10:42:29Z</time>
      </trkpt>
      <trkpt lat="45.6701870" lon="8.6828170">
        <ele>188.0800000</ele>
        <time>2009-05-03T10:42:30Z</time>
      </trkpt>
      <trkpt lat="45.6702380" lon="8.6828480">
        <ele>188.5600000</ele>
        <time>2009-05-03T10:42:31Z</time>
      </trkpt>
      <trkpt lat="45.6702900" lon="8.6828770">
        <ele>188.5600000</ele>
        <time>2009-05-03T10:42:32Z</time>
      </trkpt>
      <trkpt lat="45.6705060" lon="8.6829660">
        <ele>188.0800000</ele>
        <time>2009-05-03T10:42:36Z</time>
      </trkpt>
      <trkpt lat="45.6705570" lon="8.6829840">
        <ele>188.0800000</ele>
        <time>2009-05-03T10:42:37Z</time>
      </trkpt>
      <trkpt lat="45.6711110" lon="8.6831720">
        <ele>188.5600000</ele>
        <time>2009-05-03T10:42:49Z</time>
      </trkpt>
      <trkpt lat="45.6714430" lon="8.6833920">
        <ele>190.9600000</ele>
        <time>2009-05-03T10:42:59Z</time>
      </trkpt>
      <trkpt lat="45.6715290" lon="8.6833990">
        <ele>190.9600000</ele>
        <time>2009-05-03T10:43:11Z</time>
      </trkpt>
      <trkpt lat="45.6718440" lon="8.6835320">
        <ele>190.4800000</ele>
        <time>2009-05-03T10:44:30Z</time>
      </trkpt>
      <trkpt lat="45.6722150" lon="8.6836850">
        <ele>190.4800000</ele>
        <time>2009-05-03T10:44:40Z</time>
      </trkpt>
      <trkpt lat="45.6726570" lon="8.6838390">
        <ele>190.4800000</ele>
        <time>2009-05-03T10:44:50Z</time>
      </trkpt>
      <trkpt lat="45.6729500" lon="8.6839040">
        <ele>190.4800000</ele>
        <time>2009-05-03T10:44:56Z</time>
      </trkpt>
      <trkpt lat="45.6730010" lon="8.6839080">
        <ele>190.9600000</ele>
        <time>2009-05-03T10:44:57Z</time>
      </trkpt>
      <trkpt lat="45.6732310" lon="8.6839880">
        <ele>190.9600000</ele>
        <time>2009-05-03T10:45:01Z</time>
      </trkpt>
      <trkpt lat="45.6735450" lon="8.6840880">
        <ele>190.4800000</ele>
        <time>2009-05-03T10:45:07Z</time>
      </trkpt>
      <trkpt lat="45.6735940" lon="8.6840910">
        <ele>190.9600000</ele>
        <time>2009-05-03T10:45:08Z</time>
      </trkpt>
      <trkpt lat="45.6736480" lon="8.6841030">
        <ele>190.4800000</ele>
        <time>2009-05-03T10:45:09Z</time>
      </trkpt>
      <trkpt lat="45.6736940" lon="8.6841110">
        <ele>190.9600000</ele>
        <time>2009-05-03T10:45:10Z</time>
      </trkpt>
      <trkpt lat="45.6737280" lon="8.6841170">
        <ele>190.9600000</ele>
        <time>2009-05-03T10:45:11Z</time>
      </trkpt>
      <trkpt lat="45.6737570" lon="8.6841170">
        <ele>190.9600000</ele>
        <time>2009-05-03T10:45:12Z</time>
      </trkpt>
      <trkpt lat="45.6737890" lon="8.6841120">
        <ele>190.9600000</ele>
        <time>2009-05-03T10:45:13Z</time>
      </trkpt>
      <trkpt lat="45.6740660" lon="8.6840980">
        <ele>190.9600000</ele>
        <time>2009-05-03T10:45:20Z</time>
      </trkpt>
      <trkpt lat="45.6744200" lon="8.6841100">
        <ele>190.9600000</ele>
        <time>2009-05-03T10:45:29Z</time>
      </trkpt>
      <trkpt lat="45.6748350" lon="8.6841170">
        <ele>190.9600000</ele>
        <time>2009-05-03T10:45:38Z</time>
      </trkpt>
      <trkpt lat="45.6752740" lon="8.6841890">
        <ele>190.9600000</ele>
        <time>2009-05-03T10:45:47Z</time>
      </trkpt>
      <trkpt lat="45.6753760" lon="8.6842050">
        <ele>190.4800000</ele>
        <time>2009-05-03T10:45:49Z</time>
      </trkpt>
      <trkpt lat="45.6754350" lon="8.6842160">
        <ele>190.9600000</ele>
        <time>2009-05-03T10:45:50Z</time>
      </trkpt>
      <trkpt lat="45.6754850" lon="8.6842220">
        <ele>190.9600000</ele>
        <time>2009-05-03T10:45:51Z</time>
      </trkpt>
      <trkpt lat="45.6756860" lon="8.6842050">
        <ele>190.9600000</ele>
        <time>2009-05-03T10:45:55Z</time>
      </trkpt>
      <trkpt lat="45.6757380" lon="8.6841810">
        <ele>191.4400000</ele>
        <time>2009-05-03T10:45:56Z</time>
      </trkpt>
      <trkpt lat="45.6759620" lon="8.6841480">
        <ele>190.9600000</ele>
        <time>2009-05-03T10:46:01Z</time>
      </trkpt>
      <trkpt lat="45.6760200" lon="8.6841330">
        <ele>190.9600000</ele>
        <time>2009-05-03T10:46:02Z</time>
      </trkpt>
      <trkpt lat="45.6760730" lon="8.6841320">
        <ele>190.9600000</ele>
        <time>2009-05-03T10:46:03Z</time>
      </trkpt>
      <trkpt lat="45.6761180" lon="8.6841210">
        <ele>190.9600000</ele>
        <time>2009-05-03T10:46:04Z</time>
      </trkpt>
      <trkpt lat="45.6761640" lon="8.6841060">
        <ele>190.9600000</ele>
        <time>2009-05-03T10:46:05Z</time>
      </trkpt>
      <trkpt lat="45.6762050" lon="8.6840910">
        <ele>190.9600000</ele>
        <time>2009-05-03T10:46:06Z</time>
      </trkpt>
      <trkpt lat="45.6762500" lon="8.6840640">
        <ele>191.4400000</ele>
        <time>2009-05-03T10:46:07Z</time>
      </trkpt>
      <trkpt lat="45.6767020" lon="8.6839320">
        <ele>191.9200000</ele>
        <time>2009-05-03T10:46:18Z</time>
      </trkpt>
      <trkpt lat="45.6770030" lon="8.6840450">
        <ele>191.9200000</ele>
        <time>2009-05-03T10:46:27Z</time>
      </trkpt>
      <trkpt lat="45.6771160" lon="8.6840510">
        <ele>191.9200000</ele>
        <time>2009-05-03T10:46:30Z</time>
      </trkpt>
      <trkpt lat="45.6771780" lon="8.6840510">
        <ele>191.9200000</ele>
        <time>2009-05-03T10:46:31Z</time>
      </trkpt>
      <trkpt lat="45.6772200" lon="8.6840230">
        <ele>191.9200000</ele>
        <time>2009-05-03T10:46:32Z</time>
      </trkpt>
      <trkpt lat="45.6772620" lon="8.6839830">
        <ele>191.4400000</ele>
        <time>2009-05-03T10:46:33Z</time>
      </trkpt>
      <trkpt lat="45.6773020" lon="8.6839460">
        <ele>191.9200000</ele>
        <time>2009-05-03T10:46:34Z</time>
      </trkpt>
      <trkpt lat="45.6775570" lon="8.6834290">
        <ele>191.4400000</ele>
        <time>2009-05-03T10:46:46Z</time>
      </trkpt>
      <trkpt lat="45.6776130" lon="8.6833520">
        <ele>191.9200000</ele>
        <time>2009-05-03T10:46:48Z</time>
      </trkpt>
      <trkpt lat="45.6776390" lon="8.6833050">
        <ele>191.9200000</ele>
        <time>2009-05-03T10:46:49Z</time>
      </trkpt>
      <trkpt lat="45.6778350" lon="8.6828780">
        <ele>191.9200000</ele>
        <time>2009-05-03T10:46:58Z</time>
      </trkpt>
      <trkpt lat="45.6779400" lon="8.6824210">
        <ele>191.4400000</ele>
        <time>2009-05-03T10:47:06Z</time>
      </trkpt>
      <trkpt lat="45.6780110" lon="8.6818250">
        <ele>190.9600000</ele>
        <time>2009-05-03T10:47:15Z</time>
      </trkpt>
      <trkpt lat="45.6780240" lon="8.6817450">
        <ele>190.9600000</ele>
        <time>2009-05-03T10:47:16Z</time>
      </trkpt>
      <trkpt lat="45.6780440" lon="8.6816210">
        <ele>190.9600000</ele>
        <time>2009-05-03T10:47:18Z</time>
      </trkpt>
      <trkpt lat="45.6783410" lon="8.6807910">
        <ele>190.4800000</ele>
        <time>2009-05-03T10:47:30Z</time>
      </trkpt>
      <trkpt lat="45.6786050" lon="8.6797380">
        <ele>190.0000000</ele>
        <time>2009-05-03T10:47:43Z</time>
      </trkpt>
      <trkpt lat="45.6787460" lon="8.6786470">
        <ele>190.0000000</ele>
        <time>2009-05-03T10:47:56Z</time>
      </trkpt>
      <trkpt lat="45.6787600" lon="8.6774980">
        <ele>190.0000000</ele>
        <time>2009-05-03T10:48:09Z</time>
      </trkpt>
      <trkpt lat="45.6786340" lon="8.6762220">
        <ele>190.4800000</ele>
        <time>2009-05-03T10:48:23Z</time>
      </trkpt>
      <trkpt lat="45.6782810" lon="8.6746800">
        <ele>189.0400000</ele>
        <time>2009-05-03T10:48:40Z</time>
      </trkpt>
      <trkpt lat="45.6780610" lon="8.6736350">
        <ele>189.0400000</ele>
        <time>2009-05-03T10:48:52Z</time>
      </trkpt>
      <trkpt lat="45.6780080" lon="8.6732980">
        <ele>189.0400000</ele>
        <time>2009-05-03T10:48:56Z</time>
      </trkpt>
      <trkpt lat="45.6779870" lon="8.6732190">
        <ele>189.0400000</ele>
        <time>2009-05-03T10:48:57Z</time>
      </trkpt>
      <trkpt lat="45.6777980" lon="8.6722860">
        <ele>190.4800000</ele>
        <time>2009-05-03T10:49:09Z</time>
      </trkpt>
      <trkpt lat="45.6778110" lon="8.6719340">
        <ele>191.4400000</ele>
        <time>2009-05-03T10:49:14Z</time>
      </trkpt>
      <trkpt lat="45.6778320" lon="8.6718740">
        <ele>191.9200000</ele>
        <time>2009-05-03T10:49:15Z</time>
      </trkpt>
      <trkpt lat="45.6778800" lon="8.6717430">
        <ele>192.4000000</ele>
        <time>2009-05-03T10:49:17Z</time>
      </trkpt>
      <trkpt lat="45.6779220" lon="8.6715330">
        <ele>193.3600000</ele>
        <time>2009-05-03T10:49:20Z</time>
      </trkpt>
      <trkpt lat="45.6779560" lon="8.6713640">
        <ele>193.8400000</ele>
        <time>2009-05-03T10:49:22Z</time>
      </trkpt>
      <trkpt lat="45.6781380" lon="8.6708410">
        <ele>195.2800000</ele>
        <time>2009-05-03T10:49:28Z</time>
      </trkpt>
      <trkpt lat="45.6781830" lon="8.6705900">
        <ele>196.2500000</ele>
        <time>2009-05-03T10:49:31Z</time>
      </trkpt>
      <trkpt lat="45.6781860" lon="8.6705060">
        <ele>196.2500000</ele>
        <time>2009-05-03T10:49:32Z</time>
      </trkpt>
      <trkpt lat="45.6781830" lon="8.6704020">
        <ele>196.7300000</ele>
        <time>2009-05-03T10:49:33Z</time>
      </trkpt>
      <trkpt lat="45.6781720" lon="8.6703240">
        <ele>196.7300000</ele>
        <time>2009-05-03T10:49:34Z</time>
      </trkpt>
      <trkpt lat="45.6781550" lon="8.6702480">
        <ele>197.2100000</ele>
        <time>2009-05-03T10:49:35Z</time>
      </trkpt>
      <trkpt lat="45.6781160" lon="8.6701550">
        <ele>197.6900000</ele>
        <time>2009-05-03T10:49:36Z</time>
      </trkpt>
      <trkpt lat="45.6780870" lon="8.6700880">
        <ele>197.6900000</ele>
        <time>2009-05-03T10:49:37Z</time>
      </trkpt>
      <trkpt lat="45.6780610" lon="8.6700340">
        <ele>198.1700000</ele>
        <time>2009-05-03T10:49:38Z</time>
      </trkpt>
      <trkpt lat="45.6778250" lon="8.6698020">
        <ele>198.6500000</ele>
        <time>2009-05-03T10:49:44Z</time>
      </trkpt>
      <trkpt lat="45.6776910" lon="8.6697670">
        <ele>198.6500000</ele>
        <time>2009-05-03T10:49:47Z</time>
      </trkpt>
      <trkpt lat="45.6776450" lon="8.6697690">
        <ele>198.6500000</ele>
        <time>2009-05-03T10:49:48Z</time>
      </trkpt>
      <trkpt lat="45.6775970" lon="8.6697680">
        <ele>198.6500000</ele>
        <time>2009-05-03T10:49:49Z</time>
      </trkpt>
      <trkpt lat="45.6775570" lon="8.6697780">
        <ele>198.6500000</ele>
        <time>2009-05-03T10:49:50Z</time>
      </trkpt>
      <trkpt lat="45.6775120" lon="8.6697990">
        <ele>198.6500000</ele>
        <time>2009-05-03T10:49:51Z</time>
      </trkpt>
      <trkpt lat="45.6769060" lon="8.6701340">
        <ele>198.6500000</ele>
        <time>2009-05-03T10:50:05Z</time>
      </trkpt>
      <trkpt lat="45.6761850" lon="8.6704700">
        <ele>199.1300000</ele>
        <time>2009-05-03T10:50:21Z</time>
      </trkpt>
      <trkpt lat="45.6754540" lon="8.6708500">
        <ele>198.6500000</ele>
        <time>2009-05-03T10:50:38Z</time>
      </trkpt>
      <trkpt lat="45.6751020" lon="8.6710500">
        <ele>198.6500000</ele>
        <time>2009-05-03T10:50:46Z</time>
      </trkpt>
      <trkpt lat="45.6749640" lon="8.6711420">
        <ele>198.6500000</ele>
        <time>2009-05-03T10:50:49Z</time>
      </trkpt>
      <trkpt lat="45.6749240" lon="8.6711760">
        <ele>198.6500000</ele>
        <time>2009-05-03T10:50:50Z</time>
      </trkpt>
      <trkpt lat="45.6748880" lon="8.6712090">
        <ele>198.6500000</ele>
        <time>2009-05-03T10:50:51Z</time>
      </trkpt>
      <trkpt lat="45.6748410" lon="8.6712470">
        <ele>198.6500000</ele>
        <time>2009-05-03T10:50:52Z</time>
      </trkpt>
      <trkpt lat="45.6747790" lon="8.6713020">
        <ele>198.6500000</ele>
        <time>2009-05-03T10:50:53Z</time>
      </trkpt>
      <trkpt lat="45.6746030" lon="8.6713950">
        <ele>199.1300000</ele>
        <time>2009-05-03T10:50:57Z</time>
      </trkpt>
      <trkpt lat="45.6744010" lon="8.6715550">
        <ele>199.1300000</ele>
        <time>2009-05-03T10:51:04Z</time>
      </trkpt>
      <trkpt lat="45.6744040" lon="8.6715870">
        <ele>199.1300000</ele>
        <time>2009-05-03T10:51:05Z</time>
      </trkpt>
      <trkpt lat="45.6744090" lon="8.6716300">
        <ele>199.1300000</ele>
        <time>2009-05-03T10:51:06Z</time>
      </trkpt>
      <trkpt lat="45.6744290" lon="8.6716660">
        <ele>198.6500000</ele>
        <time>2009-05-03T10:51:07Z</time>
      </trkpt>
      <trkpt lat="45.6744520" lon="8.6717120">
        <ele>198.1700000</ele>
        <time>2009-05-03T10:51:08Z</time>
      </trkpt>
      <trkpt lat="45.6744800" lon="8.6717650">
        <ele>198.1700000</ele>
        <time>2009-05-03T10:51:09Z</time>
      </trkpt>
      <trkpt lat="45.6745040" lon="8.6718200">
        <ele>198.1700000</ele>
        <time>2009-05-03T10:51:10Z</time>
      </trkpt>
      <trkpt lat="45.6745320" lon="8.6718660">
        <ele>198.1700000</ele>
        <time>2009-05-03T10:51:11Z</time>
      </trkpt>
      <trkpt lat="45.6750250" lon="8.6726760">
        <ele>196.7300000</ele>
        <time>2009-05-03T10:51:25Z</time>
      </trkpt>
      <trkpt lat="45.6754010" lon="8.6733000">
        <ele>195.7700000</ele>
        <time>2009-05-03T10:51:36Z</time>
      </trkpt>
      <trkpt lat="45.6754980" lon="8.6734640">
        <ele>195.7700000</ele>
        <time>2009-05-03T10:51:39Z</time>
      </trkpt>
      <trkpt lat="45.6755350" lon="8.6735170">
        <ele>195.2800000</ele>
        <time>2009-05-03T10:51:40Z</time>
      </trkpt>
      <trkpt lat="45.6755890" lon="8.6736300">
        <ele>195.2800000</ele>
        <time>2009-05-03T10:51:42Z</time>
      </trkpt>
      <trkpt lat="45.6760170" lon="8.6743880">
        <ele>192.8800000</ele>
        <time>2009-05-03T10:51:57Z</time>
      </trkpt>
      <trkpt lat="45.6762440" lon="8.6747080">
        <ele>190.4800000</ele>
        <time>2009-05-03T10:52:06Z</time>
      </trkpt>
      <trkpt lat="45.6764940" lon="8.6752990">
        <ele>189.5200000</ele>
        <time>2009-05-03T10:52:15Z</time>
      </trkpt>
      <trkpt lat="45.6765610" lon="8.6755480">
        <ele>191.4400000</ele>
        <time>2009-05-03T10:52:24Z</time>
      </trkpt>
      <trkpt lat="45.6766640" lon="8.6758230">
        <ele>190.9600000</ele>
        <time>2009-05-03T10:52:33Z</time>
      </trkpt>
      <trkpt lat="45.6767490" lon="8.6761910">
        <ele>190.9600000</ele>
        <time>2009-05-03T10:52:42Z</time>
      </trkpt>
      <trkpt lat="45.6767950" lon="8.6763030">
        <ele>190.4800000</ele>
        <time>2009-05-03T10:52:46Z</time>
      </trkpt>
      <trkpt lat="45.6768230" lon="8.6764420">
        <ele>190.4800000</ele>
        <time>2009-05-03T10:53:01Z</time>
      </trkpt>
      <trkpt lat="45.6768250" lon="8.6766840">
        <ele>190.4800000</ele>
        <time>2009-05-03T10:53:13Z</time>
      </trkpt>
      <trkpt lat="45.6767450" lon="8.6767800">
        <ele>190.4800000</ele>
        <time>2009-05-03T10:53:17Z</time>
      </trkpt>
      <trkpt lat="45.6766320" lon="8.6769300">
        <ele>190.9600000</ele>
        <time>2009-05-03T10:53:26Z</time>
      </trkpt>
      <trkpt lat="45.6766140" lon="8.6770930">
        <ele>190.9600000</ele>
        <time>2009-05-03T10:53:31Z</time>
      </trkpt>
      <trkpt lat="45.6766270" lon="8.6772520">
        <ele>190.4800000</ele>
        <time>2009-05-03T10:53:37Z</time>
      </trkpt>
      <trkpt lat="45.6765650" lon="8.6775540">
        <ele>190.4800000</ele>
        <time>2009-05-03T10:53:49Z</time>
      </trkpt>
      <trkpt lat="45.6765350" lon="8.6777170">
        <ele>189.0400000</ele>
        <time>2009-05-03T10:53:54Z</time>
      </trkpt>
      <trkpt lat="45.6763220" lon="8.6779570">
        <ele>189.0400000</ele>
        <time>2009-05-03T10:54:05Z</time>
      </trkpt>
      <trkpt lat="45.6761480" lon="8.6781410">
        <ele>189.0400000</ele>
        <time>2009-05-03T10:54:15Z</time>
      </trkpt>
      <trkpt lat="45.6760530" lon="8.6781950">
        <ele>189.0400000</ele>
        <time>2009-05-03T10:54:20Z</time>
      </trkpt>
      <trkpt lat="45.6759350" lon="8.6783470">
        <ele>189.0400000</ele>
        <time>2009-05-03T10:54:37Z</time>
      </trkpt>
      <trkpt lat="45.6757870" lon="8.6785160">
        <ele>189.0400000</ele>
        <time>2009-05-03T10:54:53Z</time>
      </trkpt>
      <trkpt lat="45.6755400" lon="8.6787560">
        <ele>190.4800000</ele>
        <time>2009-05-03T10:55:12Z</time>
      </trkpt>
      <trkpt lat="45.6754270" lon="8.6787720">
        <ele>191.4400000</ele>
        <time>2009-05-03T10:55:21Z</time>
      </trkpt>
      <trkpt lat="45.6753920" lon="8.6787920">
        <ele>191.4400000</ele>
        <time>2009-05-03T10:55:23Z</time>
      </trkpt>
      <trkpt lat="45.6753580" lon="8.6788630">
        <ele>191.4400000</ele>
        <time>2009-05-03T10:55:28Z</time>
      </trkpt>
      <trkpt lat="45.6752060" lon="8.6789390">
        <ele>190.9600000</ele>
        <time>2009-05-03T10:55:35Z</time>
      </trkpt>
      <trkpt lat="45.6750790" lon="8.6790520">
        <ele>190.9600000</ele>
        <time>2009-05-03T10:55:39Z</time>
      </trkpt>
      <trkpt lat="45.6749900" lon="8.6791030">
        <ele>190.9600000</ele>
        <time>2009-05-03T10:55:43Z</time>
      </trkpt>
      <trkpt lat="45.6748100" lon="8.6791750">
        <ele>190.9600000</ele>
        <time>2009-05-03T10:55:50Z</time>
      </trkpt>
      <trkpt lat="45.6747490" lon="8.6791660">
        <ele>190.9600000</ele>
        <time>2009-05-03T10:55:53Z</time>
      </trkpt>
      <trkpt lat="45.6744100" lon="8.6792670">
        <ele>190.9600000</ele>
        <time>2009-05-03T10:56:05Z</time>
      </trkpt>
      <trkpt lat="45.6740970" lon="8.6793350">
        <ele>190.4800000</ele>
        <time>2009-05-03T10:56:16Z</time>
      </trkpt>
      <trkpt lat="45.6737560" lon="8.6794020">
        <ele>190.4800000</ele>
        <time>2009-05-03T10:56:28Z</time>
      </trkpt>
      <trkpt lat="45.6736700" lon="8.6793960">
        <ele>190.9600000</ele>
        <time>2009-05-03T10:56:31Z</time>
      </trkpt>
      <trkpt lat="45.6734880" lon="8.6793700">
        <ele>190.4800000</ele>
        <time>2009-05-03T10:56:38Z</time>
      </trkpt>
      <trkpt lat="45.6733230" lon="8.6792610">
        <ele>190.4800000</ele>
        <time>2009-05-03T10:56:51Z</time>
      </trkpt>
      <trkpt lat="45.6734560" lon="8.6793130">
        <ele>193.3600000</ele>
        <time>2009-05-03T11:02:23Z</time>
      </trkpt>
      <trkpt lat="45.6733680" lon="8.6792600">
        <ele>193.8400000</ele>
        <time>2009-05-03T11:02:53Z</time>
      </trkpt>
      <trkpt lat="45.6733630" lon="8.6792960">
        <ele>196.2500000</ele>
        <time>2009-05-03T11:03:45Z</time>
      </trkpt>
      <trkpt lat="45.6734420" lon="8.6793290">
        <ele>194.8000000</ele>
        <time>2009-05-03T11:04:59Z</time>
      </trkpt>
      <trkpt lat="45.6735280" lon="8.6793660">
        <ele>194.8000000</ele>
        <time>2009-05-03T11:05:59Z</time>
      </trkpt>
      <trkpt lat="45.6736070" lon="8.6793710">
        <ele>194.8000000</ele>
        <time>2009-05-03T11:06:04Z</time>
      </trkpt>
      <trkpt lat="45.6736980" lon="8.6794230">
        <ele>194.8000000</ele>
        <time>2009-05-03T11:06:09Z</time>
      </trkpt>
      <trkpt lat="45.6740410" lon="8.6793400">
        <ele>194.3200000</ele>
        <time>2009-05-03T11:06:22Z</time>
      </trkpt>
      <trkpt lat="45.6742350" lon="8.6793240">
        <ele>194.8000000</ele>
        <time>2009-05-03T11:06:29Z</time>
      </trkpt>
      <trkpt lat="45.6745480" lon="8.6792670">
        <ele>194.8000000</ele>
        <time>2009-05-03T11:06:42Z</time>
      </trkpt>
      <trkpt lat="45.6745780" lon="8.6792500">
        <ele>194.8000000</ele>
        <time>2009-05-03T11:06:43Z</time>
      </trkpt>
      <trkpt lat="45.6746620" lon="8.6792210">
        <ele>194.8000000</ele>
        <time>2009-05-03T11:06:47Z</time>
      </trkpt>
      <trkpt lat="45.6747190" lon="8.6791940">
        <ele>194.8000000</ele>
        <time>2009-05-03T11:06:50Z</time>
      </trkpt>
      <trkpt lat="45.6750500" lon="8.6790900">
        <ele>194.8000000</ele>
        <time>2009-05-03T11:07:03Z</time>
      </trkpt>
      <trkpt lat="45.6752710" lon="8.6789830">
        <ele>194.8000000</ele>
        <time>2009-05-03T11:07:14Z</time>
      </trkpt>
      <trkpt lat="45.6753810" lon="8.6788560">
        <ele>193.8400000</ele>
        <time>2009-05-03T11:07:28Z</time>
      </trkpt>
      <trkpt lat="45.6755170" lon="8.6787380">
        <ele>191.9200000</ele>
        <time>2009-05-03T11:07:38Z</time>
      </trkpt>
      <trkpt lat="45.6755610" lon="8.6787470">
        <ele>191.4400000</ele>
        <time>2009-05-03T11:07:40Z</time>
      </trkpt>
      <trkpt lat="45.6758600" lon="8.6786570">
        <ele>190.9600000</ele>
        <time>2009-05-03T11:07:56Z</time>
      </trkpt>
      <trkpt lat="45.6759440" lon="8.6785570">
        <ele>190.9600000</ele>
        <time>2009-05-03T11:08:08Z</time>
      </trkpt>
      <trkpt lat="45.6760330" lon="8.6783800">
        <ele>190.9600000</ele>
        <time>2009-05-03T11:08:18Z</time>
      </trkpt>
      <trkpt lat="45.6762120" lon="8.6781640">
        <ele>190.4800000</ele>
        <time>2009-05-03T11:08:28Z</time>
      </trkpt>
      <trkpt lat="45.6762240" lon="8.6781530">
        <ele>190.4800000</ele>
        <time>2009-05-03T11:08:29Z</time>
      </trkpt>
      <trkpt lat="45.6762960" lon="8.6781080">
        <ele>190.4800000</ele>
        <time>2009-05-03T11:08:33Z</time>
      </trkpt>
      <trkpt lat="45.6763770" lon="8.6779180">
        <ele>191.4400000</ele>
        <time>2009-05-03T11:08:40Z</time>
      </trkpt>
      <trkpt lat="45.6763830" lon="8.6778780">
        <ele>191.4400000</ele>
        <time>2009-05-03T11:08:42Z</time>
      </trkpt>
      <trkpt lat="45.6764620" lon="8.6777520">
        <ele>191.4400000</ele>
        <time>2009-05-03T11:08:48Z</time>
      </trkpt>
      <trkpt lat="45.6765050" lon="8.6776240">
        <ele>191.4400000</ele>
        <time>2009-05-03T11:08:54Z</time>
      </trkpt>
      <trkpt lat="45.6765000" lon="8.6775630">
        <ele>191.9200000</ele>
        <time>2009-05-03T11:08:57Z</time>
      </trkpt>
      <trkpt lat="45.6765450" lon="8.6774100">
        <ele>191.9200000</ele>
        <time>2009-05-03T11:09:05Z</time>
      </trkpt>
      <trkpt lat="45.6765810" lon="8.6772460">
        <ele>191.4400000</ele>
        <time>2009-05-03T11:09:21Z</time>
      </trkpt>
      <trkpt lat="45.6766050" lon="8.6770740">
        <ele>190.9600000</ele>
        <time>2009-05-03T11:09:35Z</time>
      </trkpt>
      <trkpt lat="45.6766560" lon="8.6767830">
        <ele>190.4800000</ele>
        <time>2009-05-03T11:09:46Z</time>
      </trkpt>
      <trkpt lat="45.6766240" lon="8.6767500">
        <ele>190.9600000</ele>
        <time>2009-05-03T11:09:49Z</time>
      </trkpt>
      <trkpt lat="45.6765860" lon="8.6764920">
        <ele>190.9600000</ele>
        <time>2009-05-03T11:10:00Z</time>
      </trkpt>
      <trkpt lat="45.6765000" lon="8.6763320">
        <ele>190.0000000</ele>
        <time>2009-05-03T11:10:08Z</time>
      </trkpt>
      <trkpt lat="45.6764130" lon="8.6760950">
        <ele>187.5900000</ele>
        <time>2009-05-03T11:10:15Z</time>
      </trkpt>
      <trkpt lat="45.6762230" lon="8.6757750">
        <ele>190.4800000</ele>
        <time>2009-05-03T11:10:30Z</time>
      </trkpt>
      <trkpt lat="45.6758600" lon="8.6752410">
        <ele>191.9200000</ele>
        <time>2009-05-03T11:10:42Z</time>
      </trkpt>
      <trkpt lat="45.6755700" lon="8.6746860">
        <ele>192.8800000</ele>
        <time>2009-05-03T11:10:56Z</time>
      </trkpt>
      <trkpt lat="45.6758680" lon="8.6743720">
        <ele>192.8800000</ele>
        <time>2009-05-03T11:11:07Z</time>
      </trkpt>
      <trkpt lat="45.6755940" lon="8.6738920">
        <ele>193.8400000</ele>
        <time>2009-05-03T11:11:22Z</time>
      </trkpt>
      <trkpt lat="45.6753670" lon="8.6734890">
        <ele>194.3200000</ele>
        <time>2009-05-03T11:11:33Z</time>
      </trkpt>
      <trkpt lat="45.6751430" lon="8.6732080">
        <ele>194.3200000</ele>
        <time>2009-05-03T11:11:44Z</time>
      </trkpt>
      <trkpt lat="45.6749180" lon="8.6727170">
        <ele>194.8000000</ele>
        <time>2009-05-03T11:11:59Z</time>
      </trkpt>
      <trkpt lat="45.6748170" lon="8.6725460">
        <ele>195.7700000</ele>
        <time>2009-05-03T11:12:07Z</time>
      </trkpt>
      <trkpt lat="45.6747570" lon="8.6718640">
        <ele>195.2800000</ele>
        <time>2009-05-03T11:12:18Z</time>
      </trkpt>
      <trkpt lat="45.6750770" lon="8.6713090">
        <ele>194.3200000</ele>
        <time>2009-05-03T11:12:29Z</time>
      </trkpt>
      <trkpt lat="45.6758400" lon="8.6708390">
        <ele>193.8400000</ele>
        <time>2009-05-03T11:12:44Z</time>
      </trkpt>
      <trkpt lat="45.6768700" lon="8.6703100">
        <ele>193.3600000</ele>
        <time>2009-05-03T11:13:03Z</time>
      </trkpt>
      <trkpt lat="45.6770760" lon="8.6701990">
        <ele>193.3600000</ele>
        <time>2009-05-03T11:13:09Z</time>
      </trkpt>
      <trkpt lat="45.6771100" lon="8.6701630">
        <ele>193.8400000</ele>
        <time>2009-05-03T11:13:10Z</time>
      </trkpt>
      <trkpt lat="45.6771430" lon="8.6701260">
        <ele>193.8400000</ele>
        <time>2009-05-03T11:13:11Z</time>
      </trkpt>
      <trkpt lat="45.6772160" lon="8.6700720">
        <ele>193.8400000</ele>
        <time>2009-05-03T11:13:13Z</time>
      </trkpt>
      <trkpt lat="45.6772880" lon="8.6700160">
        <ele>193.8400000</ele>
        <time>2009-05-03T11:13:14Z</time>
      </trkpt>
      <trkpt lat="45.6775190" lon="8.6698980">
        <ele>193.8400000</ele>
        <time>2009-05-03T11:13:18Z</time>
      </trkpt>
      <trkpt lat="45.6775590" lon="8.6698600">
        <ele>193.8400000</ele>
        <time>2009-05-03T11:13:19Z</time>
      </trkpt>
      <trkpt lat="45.6775790" lon="8.6698010">
        <ele>193.8400000</ele>
        <time>2009-05-03T11:13:20Z</time>
      </trkpt>
      <trkpt lat="45.6775850" lon="8.6697430">
        <ele>193.8400000</ele>
        <time>2009-05-03T11:13:21Z</time>
      </trkpt>
      <trkpt lat="45.6775800" lon="8.6696850">
        <ele>193.8400000</ele>
        <time>2009-05-03T11:13:22Z</time>
      </trkpt>
      <trkpt lat="45.6775630" lon="8.6696200">
        <ele>193.8400000</ele>
        <time>2009-05-03T11:13:23Z</time>
      </trkpt>
      <trkpt lat="45.6775380" lon="8.6695600">
        <ele>193.3600000</ele>
        <time>2009-05-03T11:13:24Z</time>
      </trkpt>
      <trkpt lat="45.6775050" lon="8.6694930">
        <ele>192.8800000</ele>
        <time>2009-05-03T11:13:25Z</time>
      </trkpt>
      <trkpt lat="45.6770830" lon="8.6686460">
        <ele>190.9600000</ele>
        <time>2009-05-03T11:13:36Z</time>
      </trkpt>
      <trkpt lat="45.6766790" lon="8.6679170">
        <ele>190.0000000</ele>
        <time>2009-05-03T11:13:46Z</time>
      </trkpt>
      <trkpt lat="45.6766520" lon="8.6678320">
        <ele>190.0000000</ele>
        <time>2009-05-03T11:13:47Z</time>
      </trkpt>
      <trkpt lat="45.6766340" lon="8.6677520">
        <ele>190.0000000</ele>
        <time>2009-05-03T11:13:48Z</time>
      </trkpt>
      <trkpt lat="45.6766210" lon="8.6676760">
        <ele>190.0000000</ele>
        <time>2009-05-03T11:13:49Z</time>
      </trkpt>
      <trkpt lat="45.6766140" lon="8.6675940">
        <ele>190.0000000</ele>
        <time>2009-05-03T11:13:50Z</time>
      </trkpt>
      <trkpt lat="45.6765820" lon="8.6666660">
        <ele>190.4800000</ele>
        <time>2009-05-03T11:14:03Z</time>
      </trkpt>
      <trkpt lat="45.6766070" lon="8.6660800">
        <ele>190.4800000</ele>
        <time>2009-05-03T11:14:14Z</time>
      </trkpt>
      <trkpt lat="45.6765950" lon="8.6654690">
        <ele>191.9200000</ele>
        <time>2009-05-03T11:14:26Z</time>
      </trkpt>
      <trkpt lat="45.6765400" lon="8.6652810">
        <ele>191.9200000</ele>
        <time>2009-05-03T11:14:29Z</time>
      </trkpt>
      <trkpt lat="45.6765230" lon="8.6652460">
        <ele>191.9200000</ele>
        <time>2009-05-03T11:14:30Z</time>
      </trkpt>
      <trkpt lat="45.6765140" lon="8.6652230">
        <ele>191.9200000</ele>
        <time>2009-05-03T11:14:31Z</time>
      </trkpt>
      <trkpt lat="45.6764680" lon="8.6651380">
        <ele>191.9200000</ele>
        <time>2009-05-03T11:14:37Z</time>
      </trkpt>
      <trkpt lat="45.6764680" lon="8.6651380">
        <ele>182.3100000</ele>
        <time>2009-05-03T13:00:52Z</time>
      </trkpt>
      <trkpt lat="45.6764680" lon="8.6651380">
        <ele>193.3600000</ele>
        <time>2009-05-03T13:00:53Z</time>
      </trkpt>
      <trkpt lat="45.6764240" lon="8.6650380">
        <ele>194.3200000</ele>
        <time>2009-05-03T13:01:19Z</time>
      </trkpt>
      <trkpt lat="45.6765190" lon="8.6651670">
        <ele>197.6900000</ele>
        <time>2009-05-03T13:02:00Z</time>
      </trkpt>
      <trkpt lat="45.6765220" lon="8.6651900">
        <ele>199.6100000</ele>
        <time>2009-05-03T13:02:20Z</time>
      </trkpt>
      <trkpt lat="45.6765310" lon="8.6656430">
        <ele>199.1300000</ele>
        <time>2009-05-03T13:02:31Z</time>
      </trkpt>
      <trkpt lat="45.6765430" lon="8.6660490">
        <ele>198.6500000</ele>
        <time>2009-05-03T13:02:38Z</time>
      </trkpt>
      <trkpt lat="45.6765270" lon="8.6661270">
        <ele>198.6500000</ele>
        <time>2009-05-03T13:02:39Z</time>
      </trkpt>
      <trkpt lat="45.6765260" lon="8.6661870">
        <ele>198.1700000</ele>
        <time>2009-05-03T13:02:40Z</time>
      </trkpt>
      <trkpt lat="45.6765370" lon="8.6670540">
        <ele>198.1700000</ele>
        <time>2009-05-03T13:02:55Z</time>
      </trkpt>
      <trkpt lat="45.6765950" lon="8.6678770">
        <ele>198.1700000</ele>
        <time>2009-05-03T13:03:09Z</time>
      </trkpt>
      <trkpt lat="45.6766100" lon="8.6679330">
        <ele>198.1700000</ele>
        <time>2009-05-03T13:03:10Z</time>
      </trkpt>
      <trkpt lat="45.6766310" lon="8.6679840">
        <ele>198.1700000</ele>
        <time>2009-05-03T13:03:11Z</time>
      </trkpt>
      <trkpt lat="45.6768990" lon="8.6685000">
        <ele>198.1700000</ele>
        <time>2009-05-03T13:03:22Z</time>
      </trkpt>
      <trkpt lat="45.6769210" lon="8.6685500">
        <ele>198.1700000</ele>
        <time>2009-05-03T13:03:23Z</time>
      </trkpt>
      <trkpt lat="45.6769420" lon="8.6685990">
        <ele>198.6500000</ele>
        <time>2009-05-03T13:03:24Z</time>
      </trkpt>
      <trkpt lat="45.6772600" lon="8.6693300">
        <ele>199.1300000</ele>
        <time>2009-05-03T13:03:40Z</time>
      </trkpt>
      <trkpt lat="45.6774980" lon="8.6697680">
        <ele>201.5300000</ele>
        <time>2009-05-03T13:03:51Z</time>
      </trkpt>
      <trkpt lat="45.6775370" lon="8.6698430">
        <ele>201.5300000</ele>
        <time>2009-05-03T13:03:54Z</time>
      </trkpt>
      <trkpt lat="45.6775380" lon="8.6698690">
        <ele>201.5300000</ele>
        <time>2009-05-03T13:03:56Z</time>
      </trkpt>
      <trkpt lat="45.6775500" lon="8.6698710">
        <ele>201.5300000</ele>
        <time>2009-05-03T13:03:57Z</time>
      </trkpt>
      <trkpt lat="45.6775690" lon="8.6698750">
        <ele>202.0100000</ele>
        <time>2009-05-03T13:03:58Z</time>
      </trkpt>
      <trkpt lat="45.6775940" lon="8.6698720">
        <ele>201.5300000</ele>
        <time>2009-05-03T13:03:59Z</time>
      </trkpt>
      <trkpt lat="45.6776200" lon="8.6698630">
        <ele>202.0100000</ele>
        <time>2009-05-03T13:04:00Z</time>
      </trkpt>
      <trkpt lat="45.6776500" lon="8.6698590">
        <ele>201.5300000</ele>
        <time>2009-05-03T13:04:01Z</time>
      </trkpt>
      <trkpt lat="45.6778610" lon="8.6699960">
        <ele>201.5300000</ele>
        <time>2009-05-03T13:04:12Z</time>
      </trkpt>
      <trkpt lat="45.6780050" lon="8.6702340">
        <ele>200.5700000</ele>
        <time>2009-05-03T13:04:17Z</time>
      </trkpt>
      <trkpt lat="45.6780260" lon="8.6702920">
        <ele>200.0900000</ele>
        <time>2009-05-03T13:04:18Z</time>
      </trkpt>
      <trkpt lat="45.6780370" lon="8.6703540">
        <ele>200.0900000</ele>
        <time>2009-05-03T13:04:19Z</time>
      </trkpt>
      <trkpt lat="45.6780470" lon="8.6704160">
        <ele>200.0900000</ele>
        <time>2009-05-03T13:04:20Z</time>
      </trkpt>
      <trkpt lat="45.6780540" lon="8.6704870">
        <ele>199.6100000</ele>
        <time>2009-05-03T13:04:21Z</time>
      </trkpt>
      <trkpt lat="45.6780520" lon="8.6705610">
        <ele>199.1300000</ele>
        <time>2009-05-03T13:04:22Z</time>
      </trkpt>
      <trkpt lat="45.6780730" lon="8.6706330">
        <ele>199.1300000</ele>
        <time>2009-05-03T13:04:23Z</time>
      </trkpt>
      <trkpt lat="45.6780600" lon="8.6707030">
        <ele>198.6500000</ele>
        <time>2009-05-03T13:04:24Z</time>
      </trkpt>
      <trkpt lat="45.6780560" lon="8.6707750">
        <ele>198.6500000</ele>
        <time>2009-05-03T13:04:25Z</time>
      </trkpt>
      <trkpt lat="45.6779740" lon="8.6711030">
        <ele>197.2100000</ele>
        <time>2009-05-03T13:04:30Z</time>
      </trkpt>
      <trkpt lat="45.6779100" lon="8.6713370">
        <ele>196.7300000</ele>
        <time>2009-05-03T13:04:33Z</time>
      </trkpt>
      <trkpt lat="45.6778870" lon="8.6714160">
        <ele>196.7300000</ele>
        <time>2009-05-03T13:04:34Z</time>
      </trkpt>
      <trkpt lat="45.6778230" lon="8.6717130">
        <ele>195.7700000</ele>
        <time>2009-05-03T13:04:37Z</time>
      </trkpt>
      <trkpt lat="45.6778050" lon="8.6718150">
        <ele>195.2800000</ele>
        <time>2009-05-03T13:04:38Z</time>
      </trkpt>
      <trkpt lat="45.6777830" lon="8.6719240">
        <ele>194.8000000</ele>
        <time>2009-05-03T13:04:39Z</time>
      </trkpt>
      <trkpt lat="45.6777770" lon="8.6720270">
        <ele>194.8000000</ele>
        <time>2009-05-03T13:04:40Z</time>
      </trkpt>
      <trkpt lat="45.6777690" lon="8.6721460">
        <ele>194.3200000</ele>
        <time>2009-05-03T13:04:41Z</time>
      </trkpt>
      <trkpt lat="45.6777640" lon="8.6723760">
        <ele>193.8400000</ele>
        <time>2009-05-03T13:04:43Z</time>
      </trkpt>
      <trkpt lat="45.6777700" lon="8.6724880">
        <ele>193.3600000</ele>
        <time>2009-05-03T13:04:44Z</time>
      </trkpt>
      <trkpt lat="45.6777850" lon="8.6725980">
        <ele>192.8800000</ele>
        <time>2009-05-03T13:04:45Z</time>
      </trkpt>
      <trkpt lat="45.6778060" lon="8.6727140">
        <ele>192.8800000</ele>
        <time>2009-05-03T13:04:46Z</time>
      </trkpt>
      <trkpt lat="45.6778300" lon="8.6728170">
        <ele>192.4000000</ele>
        <time>2009-05-03T13:04:47Z</time>
      </trkpt>
      <trkpt lat="45.6779970" lon="8.6734570">
        <ele>192.4000000</ele>
        <time>2009-05-03T13:04:54Z</time>
      </trkpt>
      <trkpt lat="45.6780630" lon="8.6738940">
        <ele>192.4000000</ele>
        <time>2009-05-03T13:04:59Z</time>
      </trkpt>
      <trkpt lat="45.6780840" lon="8.6740550">
        <ele>192.4000000</ele>
        <time>2009-05-03T13:05:01Z</time>
      </trkpt>
      <trkpt lat="45.6780920" lon="8.6741360">
        <ele>192.4000000</ele>
        <time>2009-05-03T13:05:02Z</time>
      </trkpt>
      <trkpt lat="45.6781100" lon="8.6742160">
        <ele>192.4000000</ele>
        <time>2009-05-03T13:05:03Z</time>
      </trkpt>
      <trkpt lat="45.6781260" lon="8.6742980">
        <ele>192.4000000</ele>
        <time>2009-05-03T13:05:04Z</time>
      </trkpt>
      <trkpt lat="45.6781400" lon="8.6743750">
        <ele>192.4000000</ele>
        <time>2009-05-03T13:05:05Z</time>
      </trkpt>
      <trkpt lat="45.6781710" lon="8.6744470">
        <ele>192.4000000</ele>
        <time>2009-05-03T13:05:06Z</time>
      </trkpt>
      <trkpt lat="45.6784150" lon="8.6754620">
        <ele>192.4000000</ele>
        <time>2009-05-03T13:05:20Z</time>
      </trkpt>
      <trkpt lat="45.6785270" lon="8.6759580">
        <ele>192.8800000</ele>
        <time>2009-05-03T13:05:27Z</time>
      </trkpt>
      <trkpt lat="45.6785670" lon="8.6762550">
        <ele>192.8800000</ele>
        <time>2009-05-03T13:05:31Z</time>
      </trkpt>
      <trkpt lat="45.6786610" lon="8.6774400">
        <ele>192.8800000</ele>
        <time>2009-05-03T13:05:47Z</time>
      </trkpt>
      <trkpt lat="45.6786500" lon="8.6786000">
        <ele>192.8800000</ele>
        <time>2009-05-03T13:06:02Z</time>
      </trkpt>
      <trkpt lat="45.6785320" lon="8.6796190">
        <ele>192.8800000</ele>
        <time>2009-05-03T13:06:16Z</time>
      </trkpt>
      <trkpt lat="45.6782320" lon="8.6807500">
        <ele>193.3600000</ele>
        <time>2009-05-03T13:06:31Z</time>
      </trkpt>
      <trkpt lat="45.6779860" lon="8.6815810">
        <ele>193.8400000</ele>
        <time>2009-05-03T13:06:43Z</time>
      </trkpt>
      <trkpt lat="45.6779440" lon="8.6819860">
        <ele>193.8400000</ele>
        <time>2009-05-03T13:06:49Z</time>
      </trkpt>
      <trkpt lat="45.6779000" lon="8.6825860">
        <ele>193.8400000</ele>
        <time>2009-05-03T13:06:58Z</time>
      </trkpt>
      <trkpt lat="45.6778730" lon="8.6826710">
        <ele>193.8400000</ele>
        <time>2009-05-03T13:06:59Z</time>
      </trkpt>
      <trkpt lat="45.6778390" lon="8.6827500">
        <ele>193.8400000</ele>
        <time>2009-05-03T13:07:00Z</time>
      </trkpt>
      <trkpt lat="45.6774040" lon="8.6837210">
        <ele>193.8400000</ele>
        <time>2009-05-03T13:07:14Z</time>
      </trkpt>
      <trkpt lat="45.6773220" lon="8.6839740">
        <ele>193.8400000</ele>
        <time>2009-05-03T13:07:18Z</time>
      </trkpt>
      <trkpt lat="45.6773120" lon="8.6840300">
        <ele>193.8400000</ele>
        <time>2009-05-03T13:07:19Z</time>
      </trkpt>
      <trkpt lat="45.6772890" lon="8.6840680">
        <ele>194.3200000</ele>
        <time>2009-05-03T13:07:20Z</time>
      </trkpt>
      <trkpt lat="45.6772570" lon="8.6840690">
        <ele>194.3200000</ele>
        <time>2009-05-03T13:07:21Z</time>
      </trkpt>
      <trkpt lat="45.6772150" lon="8.6840610">
        <ele>193.8400000</ele>
        <time>2009-05-03T13:07:22Z</time>
      </trkpt>
      <trkpt lat="45.6771520" lon="8.6840700">
        <ele>194.3200000</ele>
        <time>2009-05-03T13:07:23Z</time>
      </trkpt>
      <trkpt lat="45.6768040" lon="8.6839580">
        <ele>194.3200000</ele>
        <time>2009-05-03T13:07:32Z</time>
      </trkpt>
      <trkpt lat="45.6767660" lon="8.6839540">
        <ele>194.3200000</ele>
        <time>2009-05-03T13:07:33Z</time>
      </trkpt>
      <trkpt lat="45.6767280" lon="8.6839590">
        <ele>194.3200000</ele>
        <time>2009-05-03T13:07:34Z</time>
      </trkpt>
      <trkpt lat="45.6766870" lon="8.6839530">
        <ele>194.3200000</ele>
        <time>2009-05-03T13:07:35Z</time>
      </trkpt>
      <trkpt lat="45.6766440" lon="8.6839660">
        <ele>193.8400000</ele>
        <time>2009-05-03T13:07:36Z</time>
      </trkpt>
      <trkpt lat="45.6766130" lon="8.6839740">
        <ele>193.8400000</ele>
        <time>2009-05-03T13:07:37Z</time>
      </trkpt>
      <trkpt lat="45.6765080" lon="8.6839650">
        <ele>193.8400000</ele>
        <time>2009-05-03T13:07:40Z</time>
      </trkpt>
      <trkpt lat="45.6764710" lon="8.6839800">
        <ele>193.3600000</ele>
        <time>2009-05-03T13:07:41Z</time>
      </trkpt>
      <trkpt lat="45.6762960" lon="8.6840510">
        <ele>192.8800000</ele>
        <time>2009-05-03T13:07:45Z</time>
      </trkpt>
      <trkpt lat="45.6762410" lon="8.6840670">
        <ele>192.8800000</ele>
        <time>2009-05-03T13:07:46Z</time>
      </trkpt>
      <trkpt lat="45.6761820" lon="8.6840740">
        <ele>192.8800000</ele>
        <time>2009-05-03T13:07:47Z</time>
      </trkpt>
      <trkpt lat="45.6758600" lon="8.6841210">
        <ele>193.3600000</ele>
        <time>2009-05-03T13:07:53Z</time>
      </trkpt>
      <trkpt lat="45.6758100" lon="8.6841270">
        <ele>192.8800000</ele>
        <time>2009-05-03T13:07:54Z</time>
      </trkpt>
      <trkpt lat="45.6751800" lon="8.6842160">
        <ele>192.4000000</ele>
        <time>2009-05-03T13:08:06Z</time>
      </trkpt>
      <trkpt lat="45.6751270" lon="8.6842200">
        <ele>192.4000000</ele>
        <time>2009-05-03T13:08:07Z</time>
      </trkpt>
      <trkpt lat="45.6750460" lon="8.6841920">
        <ele>192.4000000</ele>
        <time>2009-05-03T13:08:08Z</time>
      </trkpt>
      <trkpt lat="45.6750050" lon="8.6841870">
        <ele>192.8800000</ele>
        <time>2009-05-03T13:08:09Z</time>
      </trkpt>
      <trkpt lat="45.6749640" lon="8.6841790">
        <ele>192.8800000</ele>
        <time>2009-05-03T13:08:10Z</time>
      </trkpt>
      <trkpt lat="45.6749090" lon="8.6841800">
        <ele>192.4000000</ele>
        <time>2009-05-03T13:08:11Z</time>
      </trkpt>
      <trkpt lat="45.6748430" lon="8.6841920">
        <ele>192.8800000</ele>
        <time>2009-05-03T13:08:12Z</time>
      </trkpt>
      <trkpt lat="45.6747960" lon="8.6841910">
        <ele>192.4000000</ele>
        <time>2009-05-03T13:08:13Z</time>
      </trkpt>
      <trkpt lat="45.6747400" lon="8.6841880">
        <ele>192.4000000</ele>
        <time>2009-05-03T13:08:14Z</time>
      </trkpt>
      <trkpt lat="45.6746900" lon="8.6841820">
        <ele>192.4000000</ele>
        <time>2009-05-03T13:08:15Z</time>
      </trkpt>
      <trkpt lat="45.6744440" lon="8.6841570">
        <ele>192.8800000</ele>
        <time>2009-05-03T13:08:20Z</time>
      </trkpt>
      <trkpt lat="45.6742180" lon="8.6841380">
        <ele>192.4000000</ele>
        <time>2009-05-03T13:08:25Z</time>
      </trkpt>
      <trkpt lat="45.6738560" lon="8.6841630">
        <ele>192.4000000</ele>
        <time>2009-05-03T13:08:32Z</time>
      </trkpt>
      <trkpt lat="45.6738130" lon="8.6841560">
        <ele>192.4000000</ele>
        <time>2009-05-03T13:08:33Z</time>
      </trkpt>
      <trkpt lat="45.6731430" lon="8.6840180">
        <ele>192.4000000</ele>
        <time>2009-05-03T13:08:46Z</time>
      </trkpt>
      <trkpt lat="45.6724550" lon="8.6838130">
        <ele>191.9200000</ele>
        <time>2009-05-03T13:09:00Z</time>
      </trkpt>
      <trkpt lat="45.6724020" lon="8.6838040">
        <ele>191.9200000</ele>
        <time>2009-05-03T13:09:01Z</time>
      </trkpt>
      <trkpt lat="45.6723100" lon="8.6837610">
        <ele>192.4000000</ele>
        <time>2009-05-03T13:09:03Z</time>
      </trkpt>
      <trkpt lat="45.6722110" lon="8.6837340">
        <ele>191.9200000</ele>
        <time>2009-05-03T13:09:05Z</time>
      </trkpt>
      <trkpt lat="45.6721070" lon="8.6836990">
        <ele>192.4000000</ele>
        <time>2009-05-03T13:09:07Z</time>
      </trkpt>
      <trkpt lat="45.6720610" lon="8.6836900">
        <ele>191.9200000</ele>
        <time>2009-05-03T13:09:08Z</time>
      </trkpt>
      <trkpt lat="45.6720120" lon="8.6836690">
        <ele>191.9200000</ele>
        <time>2009-05-03T13:09:09Z</time>
      </trkpt>
      <trkpt lat="45.6719640" lon="8.6836540">
        <ele>191.9200000</ele>
        <time>2009-05-03T13:09:10Z</time>
      </trkpt>
      <trkpt lat="45.6719200" lon="8.6836360">
        <ele>191.9200000</ele>
        <time>2009-05-03T13:09:11Z</time>
      </trkpt>
      <trkpt lat="45.6718800" lon="8.6836190">
        <ele>191.9200000</ele>
        <time>2009-05-03T13:09:12Z</time>
      </trkpt>
      <trkpt lat="45.6718350" lon="8.6836070">
        <ele>191.9200000</ele>
        <time>2009-05-03T13:09:13Z</time>
      </trkpt>
      <trkpt lat="45.6715130" lon="8.6834700">
        <ele>192.4000000</ele>
        <time>2009-05-03T13:09:20Z</time>
      </trkpt>
      <trkpt lat="45.6714730" lon="8.6834450">
        <ele>192.4000000</ele>
        <time>2009-05-03T13:09:21Z</time>
      </trkpt>
      <trkpt lat="45.6714350" lon="8.6834180">
        <ele>192.4000000</ele>
        <time>2009-05-03T13:09:22Z</time>
      </trkpt>
      <trkpt lat="45.6713210" lon="8.6833410">
        <ele>192.4000000</ele>
        <time>2009-05-03T13:09:25Z</time>
      </trkpt>
      <trkpt lat="45.6709300" lon="8.6831570">
        <ele>189.5200000</ele>
        <time>2009-05-03T13:09:32Z</time>
      </trkpt>
      <trkpt lat="45.6701840" lon="8.6827880">
        <ele>189.5200000</ele>
        <time>2009-05-03T13:09:46Z</time>
      </trkpt>
      <trkpt lat="45.6699050" lon="8.6826550">
        <ele>189.5200000</ele>
        <time>2009-05-03T13:09:52Z</time>
      </trkpt>
      <trkpt lat="45.6695050" lon="8.6823960">
        <ele>189.5200000</ele>
        <time>2009-05-03T13:10:01Z</time>
      </trkpt>
      <trkpt lat="45.6694600" lon="8.6823630">
        <ele>189.5200000</ele>
        <time>2009-05-03T13:10:02Z</time>
      </trkpt>
      <trkpt lat="45.6686670" lon="8.6817260">
        <ele>189.5200000</ele>
        <time>2009-05-03T13:10:20Z</time>
      </trkpt>
      <trkpt lat="45.6686270" lon="8.6816890">
        <ele>189.5200000</ele>
        <time>2009-05-03T13:10:21Z</time>
      </trkpt>
      <trkpt lat="45.6685880" lon="8.6816500">
        <ele>189.5200000</ele>
        <time>2009-05-03T13:10:22Z</time>
      </trkpt>
      <trkpt lat="45.6685500" lon="8.6816070">
        <ele>189.5200000</ele>
        <time>2009-05-03T13:10:23Z</time>
      </trkpt>
      <trkpt lat="45.6681900" lon="8.6812110">
        <ele>189.0400000</ele>
        <time>2009-05-03T13:10:33Z</time>
      </trkpt>
      <trkpt lat="45.6677020" lon="8.6803150">
        <ele>189.5200000</ele>
        <time>2009-05-03T13:10:49Z</time>
      </trkpt>
      <trkpt lat="45.6674540" lon="8.6796740">
        <ele>189.5200000</ele>
        <time>2009-05-03T13:10:59Z</time>
      </trkpt>
      <trkpt lat="45.6670790" lon="8.6787100">
        <ele>189.5200000</ele>
        <time>2009-05-03T13:11:14Z</time>
      </trkpt>
      <trkpt lat="45.6668940" lon="8.6785340">
        <ele>190.0000000</ele>
        <time>2009-05-03T13:11:19Z</time>
      </trkpt>
      <trkpt lat="45.6668580" lon="8.6785130">
        <ele>190.4800000</ele>
        <time>2009-05-03T13:11:20Z</time>
      </trkpt>
      <trkpt lat="45.6667090" lon="8.6783900">
        <ele>191.4400000</ele>
        <time>2009-05-03T13:11:25Z</time>
      </trkpt>
      <trkpt lat="45.6667030" lon="8.6783570">
        <ele>191.4400000</ele>
        <time>2009-05-03T13:11:26Z</time>
      </trkpt>
      <trkpt lat="45.6667050" lon="8.6783230">
        <ele>191.9200000</ele>
        <time>2009-05-03T13:11:27Z</time>
      </trkpt>
      <trkpt lat="45.6668090" lon="8.6777040">
        <ele>191.9200000</ele>
        <time>2009-05-03T13:11:40Z</time>
      </trkpt>
      <trkpt lat="45.6668240" lon="8.6776620">
        <ele>191.9200000</ele>
        <time>2009-05-03T13:11:41Z</time>
      </trkpt>
      <trkpt lat="45.6669160" lon="8.6769950">
        <ele>189.0400000</ele>
        <time>2009-05-03T13:11:53Z</time>
      </trkpt>
      <trkpt lat="45.6669080" lon="8.6769800">
        <ele>189.0400000</ele>
        <time>2009-05-03T13:11:54Z</time>
      </trkpt>
      <trkpt lat="45.6668900" lon="8.6770680">
        <ele>189.0400000</ele>
        <time>2009-05-03T13:11:57Z</time>
      </trkpt>
      <trkpt lat="45.6668880" lon="8.6770900">
        <ele>189.0400000</ele>
        <time>2009-05-03T13:11:58Z</time>
      </trkpt>
      <trkpt lat="45.6668870" lon="8.6771260">
        <ele>188.5600000</ele>
        <time>2009-05-03T13:11:59Z</time>
      </trkpt>
      <trkpt lat="45.6668890" lon="8.6771730">
        <ele>188.0800000</ele>
        <time>2009-05-03T13:12:00Z</time>
      </trkpt>
      <trkpt lat="45.6668930" lon="8.6772260">
        <ele>188.0800000</ele>
        <time>2009-05-03T13:12:01Z</time>
      </trkpt>
      <trkpt lat="45.6669050" lon="8.6773660">
        <ele>188.0800000</ele>
        <time>2009-05-03T13:12:04Z</time>
      </trkpt>
      <trkpt lat="45.6667000" lon="8.6774130">
        <ele>188.0800000</ele>
        <time>2009-05-03T13:12:09Z</time>
      </trkpt>
      <trkpt lat="45.6664870" lon="8.6774270">
        <ele>188.0800000</ele>
        <time>2009-05-03T13:12:14Z</time>
      </trkpt>
      <trkpt lat="45.6664050" lon="8.6774510">
        <ele>188.0800000</ele>
        <time>2009-05-03T13:12:16Z</time>
      </trkpt>
      <trkpt lat="45.6663630" lon="8.6774610">
        <ele>188.0800000</ele>
        <time>2009-05-03T13:12:17Z</time>
      </trkpt>
      <trkpt lat="45.6663190" lon="8.6774630">
        <ele>188.0800000</ele>
        <time>2009-05-03T13:12:18Z</time>
      </trkpt>
      <trkpt lat="45.6662820" lon="8.6774550">
        <ele>188.0800000</ele>
        <time>2009-05-03T13:12:19Z</time>
      </trkpt>
      <trkpt lat="45.6662400" lon="8.6774400">
        <ele>188.0800000</ele>
        <time>2009-05-03T13:12:20Z</time>
      </trkpt>
      <trkpt lat="45.6661950" lon="8.6774300">
        <ele>188.0800000</ele>
        <time>2009-05-03T13:12:21Z</time>
      </trkpt>
      <trkpt lat="45.6654550" lon="8.6772570">
        <ele>188.0800000</ele>
        <time>2009-05-03T13:12:36Z</time>
      </trkpt>
      <trkpt lat="45.6646880" lon="8.6769550">
        <ele>188.0800000</ele>
        <time>2009-05-03T13:12:51Z</time>
      </trkpt>
      <trkpt lat="45.6645490" lon="8.6768680">
        <ele>188.5600000</ele>
        <time>2009-05-03T13:12:54Z</time>
      </trkpt>
      <trkpt lat="45.6643740" lon="8.6767240">
        <ele>188.0800000</ele>
        <time>2009-05-03T13:12:58Z</time>
      </trkpt>
      <trkpt lat="45.6643340" lon="8.6766930">
        <ele>188.0800000</ele>
        <time>2009-05-03T13:12:59Z</time>
      </trkpt>
      <trkpt lat="45.6638460" lon="8.6763140">
        <ele>188.0800000</ele>
        <time>2009-05-03T13:13:10Z</time>
      </trkpt>
      <trkpt lat="45.6638020" lon="8.6762750">
        <ele>188.0800000</ele>
        <time>2009-05-03T13:13:11Z</time>
      </trkpt>
      <trkpt lat="45.6637560" lon="8.6762450">
        <ele>188.0800000</ele>
        <time>2009-05-03T13:13:12Z</time>
      </trkpt>
      <trkpt lat="45.6634230" lon="8.6761020">
        <ele>188.5600000</ele>
        <time>2009-05-03T13:13:19Z</time>
      </trkpt>
      <trkpt lat="45.6630330" lon="8.6760080">
        <ele>188.0800000</ele>
        <time>2009-05-03T13:13:27Z</time>
      </trkpt>
      <trkpt lat="45.6622290" lon="8.6761470">
        <ele>188.0800000</ele>
        <time>2009-05-03T13:13:43Z</time>
      </trkpt>
      <trkpt lat="45.6617950" lon="8.6764310">
        <ele>188.0800000</ele>
        <time>2009-05-03T13:13:54Z</time>
      </trkpt>
      <trkpt lat="45.6611610" lon="8.6769380">
        <ele>190.4800000</ele>
        <time>2009-05-03T13:14:08Z</time>
      </trkpt>
      <trkpt lat="45.6611260" lon="8.6769570">
        <ele>190.4800000</ele>
        <time>2009-05-03T13:14:09Z</time>
      </trkpt>
      <trkpt lat="45.6607330" lon="8.6772610">
        <ele>190.4800000</ele>
        <time>2009-05-03T13:14:21Z</time>
      </trkpt>
      <trkpt lat="45.6602230" lon="8.6777250">
        <ele>188.0800000</ele>
        <time>2009-05-03T13:14:32Z</time>
      </trkpt>
      <trkpt lat="45.6601740" lon="8.6777910">
        <ele>188.0800000</ele>
        <time>2009-05-03T13:14:33Z</time>
      </trkpt>
      <trkpt lat="45.6599920" lon="8.6780620">
        <ele>188.0800000</ele>
        <time>2009-05-03T13:14:37Z</time>
      </trkpt>
      <trkpt lat="45.6593830" lon="8.6786930">
        <ele>188.0800000</ele>
        <time>2009-05-03T13:14:50Z</time>
      </trkpt>
      <trkpt lat="45.6592400" lon="8.6788740">
        <ele>188.0800000</ele>
        <time>2009-05-03T13:14:53Z</time>
      </trkpt>
      <trkpt lat="45.6589400" lon="8.6794000">
        <ele>188.0800000</ele>
        <time>2009-05-03T13:15:03Z</time>
      </trkpt>
      <trkpt lat="45.6588460" lon="8.6796170">
        <ele>188.0800000</ele>
        <time>2009-05-03T13:15:06Z</time>
      </trkpt>
      <trkpt lat="45.6587920" lon="8.6797740">
        <ele>188.0800000</ele>
        <time>2009-05-03T13:15:08Z</time>
      </trkpt>
      <trkpt lat="45.6587690" lon="8.6798470">
        <ele>188.0800000</ele>
        <time>2009-05-03T13:15:09Z</time>
      </trkpt>
      <trkpt lat="45.6587400" lon="8.6799260">
        <ele>188.0800000</ele>
        <time>2009-05-03T13:15:10Z</time>
      </trkpt>
      <trkpt lat="45.6585730" lon="8.6806390">
        <ele>188.0800000</ele>
        <time>2009-05-03T13:15:19Z</time>
      </trkpt>
      <trkpt lat="45.6583100" lon="8.6817320">
        <ele>188.0800000</ele>
        <time>2009-05-03T13:15:34Z</time>
      </trkpt>
      <trkpt lat="45.6580760" lon="8.6823060">
        <ele>188.0800000</ele>
        <time>2009-05-03T13:15:44Z</time>
      </trkpt>
      <trkpt lat="45.6579870" lon="8.6824720">
        <ele>188.0800000</ele>
        <time>2009-05-03T13:15:47Z</time>
      </trkpt>
      <trkpt lat="45.6574970" lon="8.6832860">
        <ele>188.0800000</ele>
        <time>2009-05-03T13:15:59Z</time>
      </trkpt>
      <trkpt lat="45.6571620" lon="8.6838280">
        <ele>188.5600000</ele>
        <time>2009-05-03T13:16:09Z</time>
      </trkpt>
      <trkpt lat="45.6571200" lon="8.6838810">
        <ele>188.0800000</ele>
        <time>2009-05-03T13:16:10Z</time>
      </trkpt>
      <trkpt lat="45.6569420" lon="8.6841110">
        <ele>188.0800000</ele>
        <time>2009-05-03T13:16:15Z</time>
      </trkpt>
      <trkpt lat="45.6563240" lon="8.6847520">
        <ele>188.0800000</ele>
        <time>2009-05-03T13:16:29Z</time>
      </trkpt>
      <trkpt lat="45.6554920" lon="8.6853530">
        <ele>188.0800000</ele>
        <time>2009-05-03T13:16:43Z</time>
      </trkpt>
      <trkpt lat="45.6546250" lon="8.6856630">
        <ele>189.5200000</ele>
        <time>2009-05-03T13:16:58Z</time>
      </trkpt>
      <trkpt lat="45.6544230" lon="8.6857000">
        <ele>190.4800000</ele>
        <time>2009-05-03T13:17:02Z</time>
      </trkpt>
      <trkpt lat="45.6541050" lon="8.6858570">
        <ele>191.4400000</ele>
        <time>2009-05-03T13:17:09Z</time>
      </trkpt>
      <trkpt lat="45.6536830" lon="8.6861740">
        <ele>188.5600000</ele>
        <time>2009-05-03T13:17:17Z</time>
      </trkpt>
      <trkpt lat="45.6530550" lon="8.6866230">
        <ele>188.5600000</ele>
        <time>2009-05-03T13:17:27Z</time>
      </trkpt>
      <trkpt lat="45.6521620" lon="8.6872480">
        <ele>187.5900000</ele>
        <time>2009-05-03T13:17:43Z</time>
      </trkpt>
      <trkpt lat="45.6519650" lon="8.6874310">
        <ele>187.5900000</ele>
        <time>2009-05-03T13:17:47Z</time>
      </trkpt>
      <trkpt lat="45.6513970" lon="8.6879610">
        <ele>187.5900000</ele>
        <time>2009-05-03T13:17:58Z</time>
      </trkpt>
      <trkpt lat="45.6507480" lon="8.6885710">
        <ele>187.5900000</ele>
        <time>2009-05-03T13:18:10Z</time>
      </trkpt>
      <trkpt lat="45.6501130" lon="8.6891740">
        <ele>187.5900000</ele>
        <time>2009-05-03T13:18:22Z</time>
      </trkpt>
      <trkpt lat="45.6495500" lon="8.6896880">
        <ele>188.0800000</ele>
        <time>2009-05-03T13:18:34Z</time>
      </trkpt>
      <trkpt lat="45.6489760" lon="8.6902340">
        <ele>187.5900000</ele>
        <time>2009-05-03T13:18:45Z</time>
      </trkpt>
      <trkpt lat="45.6483020" lon="8.6908400">
        <ele>187.5900000</ele>
        <time>2009-05-03T13:18:58Z</time>
      </trkpt>
      <trkpt lat="45.6478170" lon="8.6911830">
        <ele>187.5900000</ele>
        <time>2009-05-03T13:19:06Z</time>
      </trkpt>
      <trkpt lat="45.6471140" lon="8.6915100">
        <ele>188.0800000</ele>
        <time>2009-05-03T13:19:18Z</time>
      </trkpt>
      <trkpt lat="45.6462540" lon="8.6916480">
        <ele>187.5900000</ele>
        <time>2009-05-03T13:19:32Z</time>
      </trkpt>
      <trkpt lat="45.6451980" lon="8.6915750">
        <ele>187.5900000</ele>
        <time>2009-05-03T13:19:49Z</time>
      </trkpt>
      <trkpt lat="45.6441930" lon="8.6914860">
        <ele>187.5900000</ele>
        <time>2009-05-03T13:20:05Z</time>
      </trkpt>
      <trkpt lat="45.6435830" lon="8.6914350">
        <ele>187.5900000</ele>
        <time>2009-05-03T13:20:15Z</time>
      </trkpt>
      <trkpt lat="45.6435210" lon="8.6914280">
        <ele>187.5900000</ele>
        <time>2009-05-03T13:20:16Z</time>
      </trkpt>
      <trkpt lat="45.6425970" lon="8.6913410">
        <ele>187.5900000</ele>
        <time>2009-05-03T13:20:31Z</time>
      </trkpt>
      <trkpt lat="45.6417520" lon="8.6912560">
        <ele>187.1100000</ele>
        <time>2009-05-03T13:20:45Z</time>
      </trkpt>
      <trkpt lat="45.6408210" lon="8.6910640">
        <ele>187.5900000</ele>
        <time>2009-05-03T13:21:00Z</time>
      </trkpt>
      <trkpt lat="45.6399720" lon="8.6908070">
        <ele>187.1100000</ele>
        <time>2009-05-03T13:21:14Z</time>
      </trkpt>
      <trkpt lat="45.6392350" lon="8.6905070">
        <ele>187.1100000</ele>
        <time>2009-05-03T13:21:26Z</time>
      </trkpt>
      <trkpt lat="45.6391830" lon="8.6904740">
        <ele>187.1100000</ele>
        <time>2009-05-03T13:21:27Z</time>
      </trkpt>
      <trkpt lat="45.6391220" lon="8.6904510">
        <ele>187.1100000</ele>
        <time>2009-05-03T13:21:28Z</time>
      </trkpt>
      <trkpt lat="45.6388830" lon="8.6903790">
        <ele>187.1100000</ele>
        <time>2009-05-03T13:21:32Z</time>
      </trkpt>
      <trkpt lat="45.6380890" lon="8.6901600">
        <ele>187.1100000</ele>
        <time>2009-05-03T13:21:45Z</time>
      </trkpt>
      <trkpt lat="45.6371410" lon="8.6900830">
        <ele>186.6300000</ele>
        <time>2009-05-03T13:22:00Z</time>
      </trkpt>
      <trkpt lat="45.6363210" lon="8.6899800">
        <ele>187.1100000</ele>
        <time>2009-05-03T13:22:13Z</time>
      </trkpt>
      <trkpt lat="45.6356530" lon="8.6896490">
        <ele>186.6300000</ele>
        <time>2009-05-03T13:22:24Z</time>
      </trkpt>
      <trkpt lat="45.6348560" lon="8.6889950">
        <ele>186.6300000</ele>
        <time>2009-05-03T13:22:38Z</time>
      </trkpt>
      <trkpt lat="45.6341890" lon="8.6880000">
        <ele>186.6300000</ele>
        <time>2009-05-03T13:22:53Z</time>
      </trkpt>
      <trkpt lat="45.6341160" lon="8.6878490">
        <ele>186.6300000</ele>
        <time>2009-05-03T13:22:55Z</time>
      </trkpt>
      <trkpt lat="45.6336640" lon="8.6867560">
        <ele>186.6300000</ele>
        <time>2009-05-03T13:23:09Z</time>
      </trkpt>
      <trkpt lat="45.6332190" lon="8.6856920">
        <ele>187.1100000</ele>
        <time>2009-05-03T13:23:23Z</time>
      </trkpt>
      <trkpt lat="45.6329610" lon="8.6850550">
        <ele>187.1100000</ele>
        <time>2009-05-03T13:23:35Z</time>
      </trkpt>
      <trkpt lat="45.6328550" lon="8.6847500">
        <ele>187.5900000</ele>
        <time>2009-05-03T13:23:48Z</time>
      </trkpt>
      <trkpt lat="45.6328270" lon="8.6847350">
        <ele>187.5900000</ele>
        <time>2009-05-03T13:23:50Z</time>
      </trkpt>
      <trkpt lat="45.6328120" lon="8.6847130">
        <ele>187.5900000</ele>
        <time>2009-05-03T13:23:51Z</time>
      </trkpt>
      <trkpt lat="45.6327980" lon="8.6846950">
        <ele>187.5900000</ele>
        <time>2009-05-03T13:23:52Z</time>
      </trkpt>
      <trkpt lat="45.6327820" lon="8.6846790">
        <ele>187.5900000</ele>
        <time>2009-05-03T13:23:53Z</time>
      </trkpt>
      <trkpt lat="45.6327700" lon="8.6846550">
        <ele>187.5900000</ele>
        <time>2009-05-03T13:23:54Z</time>
      </trkpt>
      <trkpt lat="45.6327060" lon="8.6845260">
        <ele>188.0800000</ele>
        <time>2009-05-03T13:24:05Z</time>
      </trkpt>
      <trkpt lat="45.6326800" lon="8.6845200">
        <ele>188.0800000</ele>
        <time>2009-05-03T13:24:08Z</time>
      </trkpt>
      <trkpt lat="45.6326470" lon="8.6845140">
        <ele>187.5900000</ele>
        <time>2009-05-03T13:24:09Z</time>
      </trkpt>
      <trkpt lat="45.6326100" lon="8.6844830">
        <ele>187.1100000</ele>
        <time>2009-05-03T13:24:10Z</time>
      </trkpt>
      <trkpt lat="45.6320750" lon="8.6840940">
        <ele>187.1100000</ele>
        <time>2009-05-03T13:24:25Z</time>
      </trkpt>
      <trkpt lat="45.6317870" lon="8.6839540">
        <ele>187.1100000</ele>
        <time>2009-05-03T13:24:32Z</time>
      </trkpt>
      <trkpt lat="45.6317510" lon="8.6839540">
        <ele>187.1100000</ele>
        <time>2009-05-03T13:24:33Z</time>
      </trkpt>
      <trkpt lat="45.6317160" lon="8.6839580">
        <ele>187.1100000</ele>
        <time>2009-05-03T13:24:34Z</time>
      </trkpt>
      <trkpt lat="45.6316760" lon="8.6839630">
        <ele>187.1100000</ele>
        <time>2009-05-03T13:24:35Z</time>
      </trkpt>
      <trkpt lat="45.6316280" lon="8.6839430">
        <ele>187.1100000</ele>
        <time>2009-05-03T13:24:36Z</time>
      </trkpt>
      <trkpt lat="45.6315810" lon="8.6839220">
        <ele>187.1100000</ele>
        <time>2009-05-03T13:24:37Z</time>
      </trkpt>
      <trkpt lat="45.6314010" lon="8.6839100">
        <ele>187.1100000</ele>
        <time>2009-05-03T13:24:41Z</time>
      </trkpt>
      <trkpt lat="45.6306180" lon="8.6839380">
        <ele>187.1100000</ele>
        <time>2009-05-03T13:24:58Z</time>
      </trkpt>
      <trkpt lat="45.6298010" lon="8.6839520">
        <ele>187.1100000</ele>
        <time>2009-05-03T13:25:15Z</time>
      </trkpt>
      <trkpt lat="45.6290770" lon="8.6838090">
        <ele>187.1100000</ele>
        <time>2009-05-03T13:25:31Z</time>
      </trkpt>
      <trkpt lat="45.6286790" lon="8.6834940">
        <ele>187.1100000</ele>
        <time>2009-05-03T13:25:41Z</time>
      </trkpt>
      <trkpt lat="45.6286500" lon="8.6834360">
        <ele>187.1100000</ele>
        <time>2009-05-03T13:25:42Z</time>
      </trkpt>
      <trkpt lat="45.6286280" lon="8.6833890">
        <ele>187.1100000</ele>
        <time>2009-05-03T13:25:43Z</time>
      </trkpt>
      <trkpt lat="45.6286190" lon="8.6833530">
        <ele>187.1100000</ele>
        <time>2009-05-03T13:25:44Z</time>
      </trkpt>
      <trkpt lat="45.6286020" lon="8.6833530">
        <ele>186.1500000</ele>
        <time>2009-05-03T13:25:58Z</time>
      </trkpt>
      <trkpt lat="45.6284720" lon="8.6831330">
        <ele>187.1100000</ele>
        <time>2009-05-03T13:28:43Z</time>
      </trkpt>
      <trkpt lat="45.6284820" lon="8.6830160">
        <ele>186.1500000</ele>
        <time>2009-05-03T13:28:45Z</time>
      </trkpt>
      <trkpt lat="45.6284970" lon="8.6829560">
        <ele>185.6700000</ele>
        <time>2009-05-03T13:28:46Z</time>
      </trkpt>
      <trkpt lat="45.6285650" lon="8.6827180">
        <ele>184.7100000</ele>
        <time>2009-05-03T13:28:49Z</time>
      </trkpt>
      <trkpt lat="45.6285540" lon="8.6826680">
        <ele>183.7500000</ele>
        <time>2009-05-03T13:28:50Z</time>
      </trkpt>
      <trkpt lat="45.6285230" lon="8.6826230">
        <ele>182.7900000</ele>
        <time>2009-05-03T13:28:51Z</time>
      </trkpt>
      <trkpt lat="45.6284720" lon="8.6826180">
        <ele>182.3100000</ele>
        <time>2009-05-03T13:28:52Z</time>
      </trkpt>
      <trkpt lat="45.6284220" lon="8.6826490">
        <ele>181.8300000</ele>
        <time>2009-05-03T13:28:53Z</time>
      </trkpt>
      <trkpt lat="45.6283760" lon="8.6826990">
        <ele>181.3500000</ele>
        <time>2009-05-03T13:28:54Z</time>
      </trkpt>
      <trkpt lat="45.6283190" lon="8.6827660">
        <ele>181.3500000</ele>
        <time>2009-05-03T13:28:55Z</time>
      </trkpt>
      <trkpt lat="45.6282590" lon="8.6828320">
        <ele>180.3800000</ele>
        <time>2009-05-03T13:28:56Z</time>
      </trkpt>
      <trkpt lat="45.6281880" lon="8.6828710">
        <ele>179.4200000</ele>
        <time>2009-05-03T13:28:57Z</time>
      </trkpt>
      <trkpt lat="45.6281100" lon="8.6828810">
        <ele>178.9400000</ele>
        <time>2009-05-03T13:28:58Z</time>
      </trkpt>
      <trkpt lat="45.6280350" lon="8.6828650">
        <ele>178.4600000</ele>
        <time>2009-05-03T13:28:59Z</time>
      </trkpt>
      <trkpt lat="45.6279620" lon="8.6828370">
        <ele>178.4600000</ele>
        <time>2009-05-03T13:29:00Z</time>
      </trkpt>
      <trkpt lat="45.6278820" lon="8.6828120">
        <ele>177.9800000</ele>
        <time>2009-05-03T13:29:01Z</time>
      </trkpt>
      <trkpt lat="45.6278210" lon="8.6827710">
        <ele>177.5000000</ele>
        <time>2009-05-03T13:29:02Z</time>
      </trkpt>
      <trkpt lat="45.6277600" lon="8.6827300">
        <ele>177.5000000</ele>
        <time>2009-05-03T13:29:03Z</time>
      </trkpt>
      <trkpt lat="45.6275970" lon="8.6826290">
        <ele>176.0600000</ele>
        <time>2009-05-03T13:29:06Z</time>
      </trkpt>
      <trkpt lat="45.6275420" lon="8.6826100">
        <ele>176.0600000</ele>
        <time>2009-05-03T13:29:07Z</time>
      </trkpt>
      <trkpt lat="45.6273870" lon="8.6826190">
        <ele>175.5800000</ele>
        <time>2009-05-03T13:29:11Z</time>
      </trkpt>
      <trkpt lat="45.6273530" lon="8.6826480">
        <ele>175.5800000</ele>
        <time>2009-05-03T13:29:12Z</time>
      </trkpt>
      <trkpt lat="45.6273030" lon="8.6827270">
        <ele>175.5800000</ele>
        <time>2009-05-03T13:29:13Z</time>
      </trkpt>
      <trkpt lat="45.6272870" lon="8.6828420">
        <ele>175.5800000</ele>
        <time>2009-05-03T13:29:14Z</time>
      </trkpt>
      <trkpt lat="45.6272470" lon="8.6829140">
        <ele>176.0600000</ele>
        <time>2009-05-03T13:29:15Z</time>
      </trkpt>
      <trkpt lat="45.6272080" lon="8.6830070">
        <ele>176.0600000</ele>
        <time>2009-05-03T13:29:16Z</time>
      </trkpt>
      <trkpt lat="45.6271710" lon="8.6830410">
        <ele>175.5800000</ele>
        <time>2009-05-03T13:29:17Z</time>
      </trkpt>
      <trkpt lat="45.6271330" lon="8.6830800">
        <ele>176.0600000</ele>
        <time>2009-05-03T13:29:18Z</time>
      </trkpt>
      <trkpt lat="45.6270900" lon="8.6831460">
        <ele>176.0600000</ele>
        <time>2009-05-03T13:29:20Z</time>
      </trkpt>
      <trkpt lat="45.6270750" lon="8.6831920">
        <ele>176.5400000</ele>
        <time>2009-05-03T13:29:21Z</time>
      </trkpt>
      <trkpt lat="45.6270220" lon="8.6833580">
        <ele>176.0600000</ele>
        <time>2009-05-03T13:29:23Z</time>
      </trkpt>
      <trkpt lat="45.6269860" lon="8.6834480">
        <ele>176.5400000</ele>
        <time>2009-05-03T13:29:24Z</time>
      </trkpt>
      <trkpt lat="45.6269450" lon="8.6835730">
        <ele>177.0200000</ele>
        <time>2009-05-03T13:29:26Z</time>
      </trkpt>
      <trkpt lat="45.6269260" lon="8.6836320">
        <ele>177.0200000</ele>
        <time>2009-05-03T13:29:27Z</time>
      </trkpt>
      <trkpt lat="45.6269140" lon="8.6836930">
        <ele>177.0200000</ele>
        <time>2009-05-03T13:29:28Z</time>
      </trkpt>
      <trkpt lat="45.6268910" lon="8.6838140">
        <ele>177.5000000</ele>
        <time>2009-05-03T13:29:30Z</time>
      </trkpt>
      <trkpt lat="45.6268840" lon="8.6838800">
        <ele>177.5000000</ele>
        <time>2009-05-03T13:29:31Z</time>
      </trkpt>
      <trkpt lat="45.6268770" lon="8.6839500">
        <ele>177.9800000</ele>
        <time>2009-05-03T13:29:32Z</time>
      </trkpt>
      <trkpt lat="45.6268700" lon="8.6845450">
        <ele>178.4600000</ele>
        <time>2009-05-03T13:29:41Z</time>
      </trkpt>
      <trkpt lat="45.6268630" lon="8.6846020">
        <ele>178.4600000</ele>
        <time>2009-05-03T13:29:42Z</time>
      </trkpt>
      <trkpt lat="45.6268360" lon="8.6846490">
        <ele>177.9800000</ele>
        <time>2009-05-03T13:29:43Z</time>
      </trkpt>
      <trkpt lat="45.6267910" lon="8.6846740">
        <ele>177.5000000</ele>
        <time>2009-05-03T13:29:44Z</time>
      </trkpt>
      <trkpt lat="45.6267360" lon="8.6846840">
        <ele>177.5000000</ele>
        <time>2009-05-03T13:29:45Z</time>
      </trkpt>
      <trkpt lat="45.6266890" lon="8.6846770">
        <ele>177.0200000</ele>
        <time>2009-05-03T13:29:46Z</time>
      </trkpt>
      <trkpt lat="45.6266300" lon="8.6846790">
        <ele>176.5400000</ele>
        <time>2009-05-03T13:29:47Z</time>
      </trkpt>
      <trkpt lat="45.6260760" lon="8.6847020">
        <ele>175.5800000</ele>
        <time>2009-05-03T13:29:55Z</time>
      </trkpt>
      <trkpt lat="45.6260120" lon="8.6846860">
        <ele>175.5800000</ele>
        <time>2009-05-03T13:29:56Z</time>
      </trkpt>
      <trkpt lat="45.6259520" lon="8.6846570">
        <ele>175.5800000</ele>
        <time>2009-05-03T13:29:57Z</time>
      </trkpt>
      <trkpt lat="45.6258860" lon="8.6846240">
        <ele>175.1000000</ele>
        <time>2009-05-03T13:29:58Z</time>
      </trkpt>
      <trkpt lat="45.6258200" lon="8.6845800">
        <ele>174.6200000</ele>
        <time>2009-05-03T13:29:59Z</time>
      </trkpt>
      <trkpt lat="45.6257500" lon="8.6845460">
        <ele>174.1400000</ele>
        <time>2009-05-03T13:30:00Z</time>
      </trkpt>
      <trkpt lat="45.6256750" lon="8.6845230">
        <ele>173.6600000</ele>
        <time>2009-05-03T13:30:01Z</time>
      </trkpt>
      <trkpt lat="45.6255990" lon="8.6845160">
        <ele>173.1700000</ele>
        <time>2009-05-03T13:30:02Z</time>
      </trkpt>
      <trkpt lat="45.6253590" lon="8.6845250">
        <ele>172.2100000</ele>
        <time>2009-05-03T13:30:05Z</time>
      </trkpt>
      <trkpt lat="45.6250880" lon="8.6845460">
        <ele>168.8500000</ele>
        <time>2009-05-03T13:30:08Z</time>
      </trkpt>
      <trkpt lat="45.6246690" lon="8.6845500">
        <ele>165.4800000</ele>
        <time>2009-05-03T13:30:12Z</time>
      </trkpt>
      <trkpt lat="45.6243060" lon="8.6845510">
        <ele>163.0800000</ele>
        <time>2009-05-03T13:30:15Z</time>
      </trkpt>
      <trkpt lat="45.6233420" lon="8.6846170">
        <ele>161.1600000</ele>
        <time>2009-05-03T13:30:25Z</time>
      </trkpt>
      <trkpt lat="45.6229330" lon="8.6846340">
        <ele>160.6800000</ele>
        <time>2009-05-03T13:30:31Z</time>
      </trkpt>
      <trkpt lat="45.6228700" lon="8.6846530">
        <ele>161.1600000</ele>
        <time>2009-05-03T13:30:32Z</time>
      </trkpt>
      <trkpt lat="45.6228080" lon="8.6846790">
        <ele>161.1600000</ele>
        <time>2009-05-03T13:30:33Z</time>
      </trkpt>
      <trkpt lat="45.6227480" lon="8.6847180">
        <ele>161.1600000</ele>
        <time>2009-05-03T13:30:34Z</time>
      </trkpt>
      <trkpt lat="45.6226890" lon="8.6847590">
        <ele>161.1600000</ele>
        <time>2009-05-03T13:30:35Z</time>
      </trkpt>
      <trkpt lat="45.6218210" lon="8.6853740">
        <ele>160.6800000</ele>
        <time>2009-05-03T13:30:51Z</time>
      </trkpt>
      <trkpt lat="45.6215570" lon="8.6855380">
        <ele>159.2400000</ele>
        <time>2009-05-03T13:30:55Z</time>
      </trkpt>
      <trkpt lat="45.6207310" lon="8.6861720">
        <ele>159.2400000</ele>
        <time>2009-05-03T13:31:09Z</time>
      </trkpt>
      <trkpt lat="45.6199270" lon="8.6870160">
        <ele>158.7500000</ele>
        <time>2009-05-03T13:31:25Z</time>
      </trkpt>
      <trkpt lat="45.6191420" lon="8.6878420">
        <ele>158.7500000</ele>
        <time>2009-05-03T13:31:40Z</time>
      </trkpt>
      <trkpt lat="45.6184180" lon="8.6886060">
        <ele>159.2400000</ele>
        <time>2009-05-03T13:31:54Z</time>
      </trkpt>
      <trkpt lat="45.6175450" lon="8.6895050">
        <ele>159.2400000</ele>
        <time>2009-05-03T13:32:10Z</time>
      </trkpt>
      <trkpt lat="45.6165520" lon="8.6905510">
        <ele>159.2400000</ele>
        <time>2009-05-03T13:32:28Z</time>
      </trkpt>
      <trkpt lat="45.6157650" lon="8.6914120">
        <ele>159.2400000</ele>
        <time>2009-05-03T13:32:43Z</time>
      </trkpt>
      <trkpt lat="45.6149260" lon="8.6923080">
        <ele>159.2400000</ele>
        <time>2009-05-03T13:32:59Z</time>
      </trkpt>
      <trkpt lat="45.6141460" lon="8.6932570">
        <ele>159.2400000</ele>
        <time>2009-05-03T13:33:14Z</time>
      </trkpt>
      <trkpt lat="45.6138040" lon="8.6936920">
        <ele>158.7500000</ele>
        <time>2009-05-03T13:33:21Z</time>
      </trkpt>
      <trkpt lat="45.6137180" lon="8.6937790">
        <ele>159.2400000</ele>
        <time>2009-05-03T13:33:23Z</time>
      </trkpt>
      <trkpt lat="45.6130590" lon="8.6946480">
        <ele>158.7500000</ele>
        <time>2009-05-03T13:33:39Z</time>
      </trkpt>
      <trkpt lat="45.6123070" lon="8.6956590">
        <ele>158.7500000</ele>
        <time>2009-05-03T13:33:57Z</time>
      </trkpt>
      <trkpt lat="45.6115420" lon="8.6966860">
        <ele>158.7500000</ele>
        <time>2009-05-03T13:34:15Z</time>
      </trkpt>
      <trkpt lat="45.6107670" lon="8.6977330">
        <ele>158.7500000</ele>
        <time>2009-05-03T13:34:33Z</time>
      </trkpt>
      <trkpt lat="45.6099880" lon="8.6987870">
        <ele>158.7500000</ele>
        <time>2009-05-03T13:34:52Z</time>
      </trkpt>
      <trkpt lat="45.6092530" lon="8.6997870">
        <ele>159.7200000</ele>
        <time>2009-05-03T13:35:10Z</time>
      </trkpt>
      <trkpt lat="45.6086710" lon="8.7005510">
        <ele>158.7500000</ele>
        <time>2009-05-03T13:35:24Z</time>
      </trkpt>
      <trkpt lat="45.6079050" lon="8.7015620">
        <ele>159.2400000</ele>
        <time>2009-05-03T13:35:42Z</time>
      </trkpt>
      <trkpt lat="45.6072250" lon="8.7024810">
        <ele>159.2400000</ele>
        <time>2009-05-03T13:35:58Z</time>
      </trkpt>
      <trkpt lat="45.6064990" lon="8.7034630">
        <ele>157.7900000</ele>
        <time>2009-05-03T13:36:15Z</time>
      </trkpt>
      <trkpt lat="45.6058500" lon="8.7043210">
        <ele>159.2400000</ele>
        <time>2009-05-03T13:36:30Z</time>
      </trkpt>
      <trkpt lat="45.6051540" lon="8.7050900">
        <ele>158.7500000</ele>
        <time>2009-05-03T13:36:46Z</time>
      </trkpt>
      <trkpt lat="45.6043240" lon="8.7054330">
        <ele>159.2400000</ele>
        <time>2009-05-03T13:37:01Z</time>
      </trkpt>
      <trkpt lat="45.6033360" lon="8.7057410">
        <ele>159.2400000</ele>
        <time>2009-05-03T13:37:19Z</time>
      </trkpt>
      <trkpt lat="45.6024520" lon="8.7060450">
        <ele>159.7200000</ele>
        <time>2009-05-03T13:37:36Z</time>
      </trkpt>
      <trkpt lat="45.6015750" lon="8.7063300">
        <ele>159.2400000</ele>
        <time>2009-05-03T13:37:52Z</time>
      </trkpt>
      <trkpt lat="45.6005720" lon="8.7066590">
        <ele>159.2400000</ele>
        <time>2009-05-03T13:38:09Z</time>
      </trkpt>
      <trkpt lat="45.5994780" lon="8.7070220">
        <ele>159.2400000</ele>
        <time>2009-05-03T13:38:27Z</time>
      </trkpt>
      <trkpt lat="45.5985680" lon="8.7071780">
        <ele>159.2400000</ele>
        <time>2009-05-03T13:38:42Z</time>
      </trkpt>
      <trkpt lat="45.5974000" lon="8.7072440">
        <ele>159.7200000</ele>
        <time>2009-05-03T13:39:01Z</time>
      </trkpt>
      <trkpt lat="45.5964080" lon="8.7072960">
        <ele>159.2400000</ele>
        <time>2009-05-03T13:39:17Z</time>
      </trkpt>
      <trkpt lat="45.5954680" lon="8.7073570">
        <ele>159.2400000</ele>
        <time>2009-05-03T13:39:32Z</time>
      </trkpt>
      <trkpt lat="45.5945830" lon="8.7073980">
        <ele>159.7200000</ele>
        <time>2009-05-03T13:39:46Z</time>
      </trkpt>
      <trkpt lat="45.5935440" lon="8.7074180">
        <ele>159.2400000</ele>
        <time>2009-05-03T13:40:03Z</time>
      </trkpt>
      <trkpt lat="45.5923990" lon="8.7074760">
        <ele>158.7500000</ele>
        <time>2009-05-03T13:40:21Z</time>
      </trkpt>
      <trkpt lat="45.5913040" lon="8.7075330">
        <ele>159.2400000</ele>
        <time>2009-05-03T13:40:38Z</time>
      </trkpt>
      <trkpt lat="45.5903980" lon="8.7075830">
        <ele>159.2400000</ele>
        <time>2009-05-03T13:40:52Z</time>
      </trkpt>
      <trkpt lat="45.5902020" lon="8.7075830">
        <ele>159.2400000</ele>
        <time>2009-05-03T13:40:55Z</time>
      </trkpt>
      <trkpt lat="45.5891600" lon="8.7071920">
        <ele>158.7500000</ele>
        <time>2009-05-03T13:41:11Z</time>
      </trkpt>
      <trkpt lat="45.5882360" lon="8.7067310">
        <ele>159.2400000</ele>
        <time>2009-05-03T13:41:26Z</time>
      </trkpt>
      <trkpt lat="45.5873870" lon="8.7065310">
        <ele>159.2400000</ele>
        <time>2009-05-03T13:41:39Z</time>
      </trkpt>
      <trkpt lat="45.5873240" lon="8.7065450">
        <ele>159.2400000</ele>
        <time>2009-05-03T13:41:40Z</time>
      </trkpt>
      <trkpt lat="45.5872630" lon="8.7065580">
        <ele>159.2400000</ele>
        <time>2009-05-03T13:41:41Z</time>
      </trkpt>
      <trkpt lat="45.5865150" lon="8.7069470">
        <ele>159.2400000</ele>
        <time>2009-05-03T13:41:54Z</time>
      </trkpt>
      <trkpt lat="45.5863420" lon="8.7070060">
        <ele>159.2400000</ele>
        <time>2009-05-03T13:41:57Z</time>
      </trkpt>
      <trkpt lat="45.5862900" lon="8.7070090">
        <ele>159.2400000</ele>
        <time>2009-05-03T13:41:58Z</time>
      </trkpt>
      <trkpt lat="45.5861490" lon="8.7070510">
        <ele>159.2400000</ele>
        <time>2009-05-03T13:42:00Z</time>
      </trkpt>
      <trkpt lat="45.5860890" lon="8.7070670">
        <ele>158.7500000</ele>
        <time>2009-05-03T13:42:01Z</time>
      </trkpt>
      <trkpt lat="45.5852170" lon="8.7072670">
        <ele>159.2400000</ele>
        <time>2009-05-03T13:42:15Z</time>
      </trkpt>
      <trkpt lat="45.5849560" lon="8.7072380">
        <ele>158.7500000</ele>
        <time>2009-05-03T13:42:19Z</time>
      </trkpt>
      <trkpt lat="45.5839980" lon="8.7069790">
        <ele>159.7200000</ele>
        <time>2009-05-03T13:42:34Z</time>
      </trkpt>
      <trkpt lat="45.5831620" lon="8.7067400">
        <ele>159.2400000</ele>
        <time>2009-05-03T13:42:47Z</time>
      </trkpt>
      <trkpt lat="45.5824430" lon="8.7064940">
        <ele>155.3900000</ele>
        <time>2009-05-03T13:42:57Z</time>
      </trkpt>
      <trkpt lat="45.5816320" lon="8.7062990">
        <ele>153.9500000</ele>
        <time>2009-05-03T13:43:07Z</time>
      </trkpt>
      <trkpt lat="45.5815710" lon="8.7063160">
        <ele>153.9500000</ele>
        <time>2009-05-03T13:43:08Z</time>
      </trkpt>
      <trkpt lat="45.5815060" lon="8.7063210">
        <ele>153.9500000</ele>
        <time>2009-05-03T13:43:09Z</time>
      </trkpt>
      <trkpt lat="45.5814440" lon="8.7063350">
        <ele>153.9500000</ele>
        <time>2009-05-03T13:43:10Z</time>
      </trkpt>
      <trkpt lat="45.5813860" lon="8.7063560">
        <ele>153.9500000</ele>
        <time>2009-05-03T13:43:11Z</time>
      </trkpt>
      <trkpt lat="45.5807120" lon="8.7066280">
        <ele>152.5100000</ele>
        <time>2009-05-03T13:43:24Z</time>
      </trkpt>
      <trkpt lat="45.5805630" lon="8.7066640">
        <ele>152.5100000</ele>
        <time>2009-05-03T13:43:27Z</time>
      </trkpt>
      <trkpt lat="45.5805250" lon="8.7066820">
        <ele>152.5100000</ele>
        <time>2009-05-03T13:43:28Z</time>
      </trkpt>
      <trkpt lat="45.5804620" lon="8.7067330">
        <ele>152.9900000</ele>
        <time>2009-05-03T13:43:30Z</time>
      </trkpt>
      <trkpt lat="45.5804620" lon="8.7067760">
        <ele>152.9900000</ele>
        <time>2009-05-03T13:43:31Z</time>
      </trkpt>
      <trkpt lat="45.5804930" lon="8.7067940">
        <ele>152.9900000</ele>
        <time>2009-05-03T13:43:32Z</time>
      </trkpt>
      <trkpt lat="45.5805230" lon="8.7067990">
        <ele>152.9900000</ele>
        <time>2009-05-03T13:43:33Z</time>
      </trkpt>
      <trkpt lat="45.5805550" lon="8.7067940">
        <ele>152.9900000</ele>
        <time>2009-05-03T13:43:34Z</time>
      </trkpt>
      <trkpt lat="45.5805860" lon="8.7067850">
        <ele>152.9900000</ele>
        <time>2009-05-03T13:43:35Z</time>
      </trkpt>
      <trkpt lat="45.5810090" lon="8.7067240">
        <ele>155.3900000</ele>
        <time>2009-05-03T13:43:47Z</time>
      </trkpt>
      <trkpt lat="45.5813930" lon="8.7065690">
        <ele>157.3100000</ele>
        <time>2009-05-03T13:43:59Z</time>
      </trkpt>
      <trkpt lat="45.5815250" lon="8.7065010">
        <ele>156.3500000</ele>
        <time>2009-05-03T13:44:02Z</time>
      </trkpt>
      <trkpt lat="45.5815770" lon="8.7065030">
        <ele>156.3500000</ele>
        <time>2009-05-03T13:44:03Z</time>
      </trkpt>
      <trkpt lat="45.5816230" lon="8.7065370">
        <ele>156.3500000</ele>
        <time>2009-05-03T13:44:04Z</time>
      </trkpt>
      <trkpt lat="45.5816580" lon="8.7065980">
        <ele>155.8700000</ele>
        <time>2009-05-03T13:44:05Z</time>
      </trkpt>
      <trkpt lat="45.5816920" lon="8.7066690">
        <ele>156.3500000</ele>
        <time>2009-05-03T13:44:06Z</time>
      </trkpt>
      <trkpt lat="45.5817150" lon="8.7067480">
        <ele>155.8700000</ele>
        <time>2009-05-03T13:44:07Z</time>
      </trkpt>
      <trkpt lat="45.5817290" lon="8.7068260">
        <ele>155.8700000</ele>
        <time>2009-05-03T13:44:08Z</time>
      </trkpt>
      <trkpt lat="45.5817330" lon="8.7069020">
        <ele>155.8700000</ele>
        <time>2009-05-03T13:44:09Z</time>
      </trkpt>
      <trkpt lat="45.5817330" lon="8.7069760">
        <ele>155.8700000</ele>
        <time>2009-05-03T13:44:10Z</time>
      </trkpt>
      <trkpt lat="45.5817280" lon="8.7070390">
        <ele>155.8700000</ele>
        <time>2009-05-03T13:44:11Z</time>
      </trkpt>
      <trkpt lat="45.5817220" lon="8.7071070">
        <ele>155.8700000</ele>
        <time>2009-05-03T13:44:12Z</time>
      </trkpt>
      <trkpt lat="45.5817120" lon="8.7071550">
        <ele>156.3500000</ele>
        <time>2009-05-03T13:44:13Z</time>
      </trkpt>
      <trkpt lat="45.5816880" lon="8.7072260">
        <ele>156.3500000</ele>
        <time>2009-05-03T13:44:14Z</time>
      </trkpt>
      <trkpt lat="45.5816700" lon="8.7072730">
        <ele>156.3500000</ele>
        <time>2009-05-03T13:44:15Z</time>
      </trkpt>
      <trkpt lat="45.5816560" lon="8.7073360">
        <ele>156.3500000</ele>
        <time>2009-05-03T13:44:16Z</time>
      </trkpt>
      <trkpt lat="45.5816260" lon="8.7073750">
        <ele>156.3500000</ele>
        <time>2009-05-03T13:44:17Z</time>
      </trkpt>
      <trkpt lat="45.5816050" lon="8.7074170">
        <ele>156.3500000</ele>
        <time>2009-05-03T13:44:18Z</time>
      </trkpt>
      <trkpt lat="45.5815830" lon="8.7074580">
        <ele>156.8300000</ele>
        <time>2009-05-03T13:44:19Z</time>
      </trkpt>
      <trkpt lat="45.5814170" lon="8.7078830">
        <ele>158.2700000</ele>
        <time>2009-05-03T13:44:29Z</time>
      </trkpt>
      <trkpt lat="45.5812640" lon="8.7082500">
        <ele>160.2000000</ele>
        <time>2009-05-03T13:44:40Z</time>
      </trkpt>
      <trkpt lat="45.5812520" lon="8.7082790">
        <ele>160.2000000</ele>
        <time>2009-05-03T13:44:41Z</time>
      </trkpt>
      <trkpt lat="45.5809440" lon="8.7088420">
        <ele>163.0800000</ele>
        <time>2009-05-03T13:44:57Z</time>
      </trkpt>
      <trkpt lat="45.5806300" lon="8.7092130">
        <ele>165.4800000</ele>
        <time>2009-05-03T13:45:12Z</time>
      </trkpt>
      <trkpt lat="45.5804330" lon="8.7094500">
        <ele>166.9300000</ele>
        <time>2009-05-03T13:45:21Z</time>
      </trkpt>
      <trkpt lat="45.5802240" lon="8.7097360">
        <ele>168.8500000</ele>
        <time>2009-05-03T13:45:32Z</time>
      </trkpt>
      <trkpt lat="45.5799840" lon="8.7100840">
        <ele>170.2900000</ele>
        <time>2009-05-03T13:45:44Z</time>
      </trkpt>
      <trkpt lat="45.5798700" lon="8.7102530">
        <ele>171.7300000</ele>
        <time>2009-05-03T13:45:50Z</time>
      </trkpt>
      <trkpt lat="45.5798520" lon="8.7102860">
        <ele>171.7300000</ele>
        <time>2009-05-03T13:45:51Z</time>
      </trkpt>
      <trkpt lat="45.5795890" lon="8.7106660">
        <ele>173.6600000</ele>
        <time>2009-05-03T13:46:05Z</time>
      </trkpt>
      <trkpt lat="45.5792900" lon="8.7109780">
        <ele>175.5800000</ele>
        <time>2009-05-03T13:46:19Z</time>
      </trkpt>
      <trkpt lat="45.5790060" lon="8.7112690">
        <ele>177.5000000</ele>
        <time>2009-05-03T13:46:33Z</time>
      </trkpt>
      <trkpt lat="45.5787050" lon="8.7115250">
        <ele>179.4200000</ele>
        <time>2009-05-03T13:46:47Z</time>
      </trkpt>
      <trkpt lat="45.5784240" lon="8.7117410">
        <ele>181.3500000</ele>
        <time>2009-05-03T13:47:00Z</time>
      </trkpt>
      <trkpt lat="45.5781470" lon="8.7119110">
        <ele>183.2700000</ele>
        <time>2009-05-03T13:47:13Z</time>
      </trkpt>
      <trkpt lat="45.5778820" lon="8.7120330">
        <ele>185.1900000</ele>
        <time>2009-05-03T13:47:24Z</time>
      </trkpt>
      <trkpt lat="45.5775670" lon="8.7122110">
        <ele>186.6300000</ele>
        <time>2009-05-03T13:47:36Z</time>
      </trkpt>
      <trkpt lat="45.5773070" lon="8.7125460">
        <ele>188.5600000</ele>
        <time>2009-05-03T13:47:50Z</time>
      </trkpt>
      <trkpt lat="45.5771960" lon="8.7130010">
        <ele>189.5200000</ele>
        <time>2009-05-03T13:48:02Z</time>
      </trkpt>
      <trkpt lat="45.5771410" lon="8.7132140">
        <ele>189.0400000</ele>
        <time>2009-05-03T13:48:10Z</time>
      </trkpt>
      <trkpt lat="45.5771260" lon="8.7132130">
        <ele>189.0400000</ele>
        <time>2009-05-03T13:48:11Z</time>
      </trkpt>
      <trkpt lat="45.5770040" lon="8.7132340">
        <ele>187.1100000</ele>
        <time>2009-05-03T13:48:15Z</time>
      </trkpt>
      <trkpt lat="45.5769020" lon="8.7132580">
        <ele>186.6300000</ele>
        <time>2009-05-03T13:48:17Z</time>
      </trkpt>
      <trkpt lat="45.5767890" lon="8.7132920">
        <ele>186.1500000</ele>
        <time>2009-05-03T13:48:19Z</time>
      </trkpt>
      <trkpt lat="45.5766280" lon="8.7133070">
        <ele>185.6700000</ele>
        <time>2009-05-03T13:48:22Z</time>
      </trkpt>
      <trkpt lat="45.5762960" lon="8.7133350">
        <ele>185.6700000</ele>
        <time>2009-05-03T13:48:29Z</time>
      </trkpt>
      <trkpt lat="45.5761310" lon="8.7133510">
        <ele>185.6700000</ele>
        <time>2009-05-03T13:48:33Z</time>
      </trkpt>
      <trkpt lat="45.5756010" lon="8.7135140">
        <ele>186.1500000</ele>
        <time>2009-05-03T13:48:46Z</time>
      </trkpt>
      <trkpt lat="45.5751500" lon="8.7137380">
        <ele>185.6700000</ele>
        <time>2009-05-03T13:48:58Z</time>
      </trkpt>
      <trkpt lat="45.5746850" lon="8.7140230">
        <ele>185.6700000</ele>
        <time>2009-05-03T13:49:10Z</time>
      </trkpt>
      <trkpt lat="45.5743430" lon="8.7142960">
        <ele>185.1900000</ele>
        <time>2009-05-03T13:49:19Z</time>
      </trkpt>
      <trkpt lat="45.5739110" lon="8.7147870">
        <ele>185.6700000</ele>
        <time>2009-05-03T13:49:32Z</time>
      </trkpt>
      <trkpt lat="45.5735770" lon="8.7154190">
        <ele>185.1900000</ele>
        <time>2009-05-03T13:49:45Z</time>
      </trkpt>
      <trkpt lat="45.5732470" lon="8.7160160">
        <ele>185.1900000</ele>
        <time>2009-05-03T13:49:58Z</time>
      </trkpt>
      <trkpt lat="45.5729260" lon="8.7165190">
        <ele>185.1900000</ele>
        <time>2009-05-03T13:50:09Z</time>
      </trkpt>
      <trkpt lat="45.5725350" lon="8.7169800">
        <ele>185.1900000</ele>
        <time>2009-05-03T13:50:21Z</time>
      </trkpt>
      <trkpt lat="45.5722720" lon="8.7173630">
        <ele>185.1900000</ele>
        <time>2009-05-03T13:50:30Z</time>
      </trkpt>
      <trkpt lat="45.5716870" lon="8.7179230">
        <ele>185.1900000</ele>
        <time>2009-05-03T13:50:45Z</time>
      </trkpt>
      <trkpt lat="45.5711290" lon="8.7183380">
        <ele>185.1900000</ele>
        <time>2009-05-03T13:51:00Z</time>
      </trkpt>
      <trkpt lat="45.5706420" lon="8.7185150">
        <ele>185.1900000</ele>
        <time>2009-05-03T13:51:12Z</time>
      </trkpt>
      <trkpt lat="45.5704250" lon="8.7185810">
        <ele>185.1900000</ele>
        <time>2009-05-03T13:51:17Z</time>
      </trkpt>
      <trkpt lat="45.5701690" lon="8.7186640">
        <ele>185.6700000</ele>
        <time>2009-05-03T13:51:23Z</time>
      </trkpt>
      <trkpt lat="45.5698460" lon="8.7187180">
        <ele>185.1900000</ele>
        <time>2009-05-03T13:51:31Z</time>
      </trkpt>
      <trkpt lat="45.5692080" lon="8.7187000">
        <ele>185.1900000</ele>
        <time>2009-05-03T13:51:46Z</time>
      </trkpt>
      <trkpt lat="45.5686760" lon="8.7186220">
        <ele>185.1900000</ele>
        <time>2009-05-03T13:51:58Z</time>
      </trkpt>
      <trkpt lat="45.5681660" lon="8.7186900">
        <ele>185.1900000</ele>
        <time>2009-05-03T13:52:10Z</time>
      </trkpt>
      <trkpt lat="45.5675580" lon="8.7188440">
        <ele>184.7100000</ele>
        <time>2009-05-03T13:52:24Z</time>
      </trkpt>
      <trkpt lat="45.5669670" lon="8.7189720">
        <ele>185.6700000</ele>
        <time>2009-05-03T13:52:38Z</time>
      </trkpt>
      <trkpt lat="45.5667060" lon="8.7189880">
        <ele>188.5600000</ele>
        <time>2009-05-03T13:52:49Z</time>
      </trkpt>
      <trkpt lat="45.5663150" lon="8.7191080">
        <ele>189.0400000</ele>
        <time>2009-05-03T13:53:01Z</time>
      </trkpt>
      <trkpt lat="45.5657520" lon="8.7193610">
        <ele>189.0400000</ele>
        <time>2009-05-03T13:53:16Z</time>
      </trkpt>
      <trkpt lat="45.5656440" lon="8.7194380">
        <ele>189.0400000</ele>
        <time>2009-05-03T13:53:20Z</time>
      </trkpt>
      <trkpt lat="45.5656810" lon="8.7193870">
        <ele>189.0400000</ele>
        <time>2009-05-03T13:53:24Z</time>
      </trkpt>
      <trkpt lat="45.5657750" lon="8.7194120">
        <ele>189.0400000</ele>
        <time>2009-05-03T13:53:28Z</time>
      </trkpt>
      <trkpt lat="45.5657730" lon="8.7194390">
        <ele>188.5600000</ele>
        <time>2009-05-03T13:53:29Z</time>
      </trkpt>
      <trkpt lat="45.5657600" lon="8.7194680">
        <ele>188.0800000</ele>
        <time>2009-05-03T13:53:30Z</time>
      </trkpt>
      <trkpt lat="45.5657340" lon="8.7194930">
        <ele>187.5900000</ele>
        <time>2009-05-03T13:53:31Z</time>
      </trkpt>
      <trkpt lat="45.5657030" lon="8.7195240">
        <ele>187.1100000</ele>
        <time>2009-05-03T13:53:32Z</time>
      </trkpt>
      <trkpt lat="45.5656610" lon="8.7195630">
        <ele>186.1500000</ele>
        <time>2009-05-03T13:53:33Z</time>
      </trkpt>
      <trkpt lat="45.5656070" lon="8.7196010">
        <ele>185.6700000</ele>
        <time>2009-05-03T13:53:34Z</time>
      </trkpt>
      <trkpt lat="45.5655510" lon="8.7196340">
        <ele>185.6700000</ele>
        <time>2009-05-03T13:53:35Z</time>
      </trkpt>
      <trkpt lat="45.5648860" lon="8.7201010">
        <ele>186.1500000</ele>
        <time>2009-05-03T13:53:48Z</time>
      </trkpt>
      <trkpt lat="45.5641230" lon="8.7207350">
        <ele>186.1500000</ele>
        <time>2009-05-03T13:54:04Z</time>
      </trkpt>
      <trkpt lat="45.5638940" lon="8.7209430">
        <ele>185.6700000</ele>
        <time>2009-05-03T13:54:09Z</time>
      </trkpt>
      <trkpt lat="45.5635740" lon="8.7212670">
        <ele>186.1500000</ele>
        <time>2009-05-03T13:54:16Z</time>
      </trkpt>
      <trkpt lat="45.5632630" lon="8.7216090">
        <ele>185.6700000</ele>
        <time>2009-05-03T13:54:24Z</time>
      </trkpt>
      <trkpt lat="45.5630010" lon="8.7219630">
        <ele>185.6700000</ele>
        <time>2009-05-03T13:54:33Z</time>
      </trkpt>
      <trkpt lat="45.5628990" lon="8.7220990">
        <ele>185.6700000</ele>
        <time>2009-05-03T13:54:36Z</time>
      </trkpt>
      <trkpt lat="45.5626850" lon="8.7223560">
        <ele>185.6700000</ele>
        <time>2009-05-03T13:54:42Z</time>
      </trkpt>
      <trkpt lat="45.5624750" lon="8.7226500">
        <ele>185.6700000</ele>
        <time>2009-05-03T13:54:48Z</time>
      </trkpt>
      <trkpt lat="45.5624420" lon="8.7226970">
        <ele>185.1900000</ele>
        <time>2009-05-03T13:54:49Z</time>
      </trkpt>
      <trkpt lat="45.5621670" lon="8.7231350">
        <ele>185.1900000</ele>
        <time>2009-05-03T13:54:57Z</time>
      </trkpt>
      <trkpt lat="45.5620980" lon="8.7232190">
        <ele>185.1900000</ele>
        <time>2009-05-03T13:54:59Z</time>
      </trkpt>
      <trkpt lat="45.5618170" lon="8.7236620">
        <ele>185.1900000</ele>
        <time>2009-05-03T13:55:07Z</time>
      </trkpt>
      <trkpt lat="45.5617830" lon="8.7237200">
        <ele>185.1900000</ele>
        <time>2009-05-03T13:55:08Z</time>
      </trkpt>
      <trkpt lat="45.5613250" lon="8.7244660">
        <ele>184.7100000</ele>
        <time>2009-05-03T13:55:22Z</time>
      </trkpt>
      <trkpt lat="45.5609210" lon="8.7251030">
        <ele>184.7100000</ele>
        <time>2009-05-03T13:55:34Z</time>
      </trkpt>
      <trkpt lat="45.5608860" lon="8.7251610">
        <ele>184.7100000</ele>
        <time>2009-05-03T13:55:35Z</time>
      </trkpt>
      <trkpt lat="45.5603950" lon="8.7259000">
        <ele>184.7100000</ele>
        <time>2009-05-03T13:55:50Z</time>
      </trkpt>
      <trkpt lat="45.5601600" lon="8.7262750">
        <ele>184.7100000</ele>
        <time>2009-05-03T13:55:58Z</time>
      </trkpt>
      <trkpt lat="45.5596170" lon="8.7271430">
        <ele>184.7100000</ele>
        <time>2009-05-03T13:56:13Z</time>
      </trkpt>
      <trkpt lat="45.5591140" lon="8.7279650">
        <ele>184.2300000</ele>
        <time>2009-05-03T13:56:26Z</time>
      </trkpt>
      <trkpt lat="45.5587050" lon="8.7286060">
        <ele>184.2300000</ele>
        <time>2009-05-03T13:56:38Z</time>
      </trkpt>
      <trkpt lat="45.5582700" lon="8.7292820">
        <ele>184.7100000</ele>
        <time>2009-05-03T13:56:50Z</time>
      </trkpt>
      <trkpt lat="45.5578560" lon="8.7300000">
        <ele>184.7100000</ele>
        <time>2009-05-03T13:57:02Z</time>
      </trkpt>
      <trkpt lat="45.5574080" lon="8.7307010">
        <ele>184.2300000</ele>
        <time>2009-05-03T13:57:14Z</time>
      </trkpt>
      <trkpt lat="45.5569280" lon="8.7314640">
        <ele>184.2300000</ele>
        <time>2009-05-03T13:57:27Z</time>
      </trkpt>
      <trkpt lat="45.5568520" lon="8.7315950">
        <ele>184.2300000</ele>
        <time>2009-05-03T13:57:29Z</time>
      </trkpt>
      <trkpt lat="45.5568110" lon="8.7316460">
        <ele>184.2300000</ele>
        <time>2009-05-03T13:57:30Z</time>
      </trkpt>
      <trkpt lat="45.5567350" lon="8.7317550">
        <ele>184.2300000</ele>
        <time>2009-05-03T13:57:32Z</time>
      </trkpt>
      <trkpt lat="45.5567000" lon="8.7318130">
        <ele>184.2300000</ele>
        <time>2009-05-03T13:57:33Z</time>
      </trkpt>
      <trkpt lat="45.5563940" lon="8.7322400">
        <ele>185.1900000</ele>
        <time>2009-05-03T13:57:42Z</time>
      </trkpt>
      <trkpt lat="45.5563610" lon="8.7322760">
        <ele>185.1900000</ele>
        <time>2009-05-03T13:57:43Z</time>
      </trkpt>
      <trkpt lat="45.5563390" lon="8.7323080">
        <ele>185.1900000</ele>
        <time>2009-05-03T13:57:44Z</time>
      </trkpt>
      <trkpt lat="45.5563240" lon="8.7323440">
        <ele>185.1900000</ele>
        <time>2009-05-03T13:57:45Z</time>
      </trkpt>
      <trkpt lat="45.5563070" lon="8.7323810">
        <ele>185.1900000</ele>
        <time>2009-05-03T13:57:46Z</time>
      </trkpt>
      <trkpt lat="45.5562860" lon="8.7324250">
        <ele>184.7100000</ele>
        <time>2009-05-03T13:57:47Z</time>
      </trkpt>
      <trkpt lat="45.5562600" lon="8.7324730">
        <ele>184.7100000</ele>
        <time>2009-05-03T13:57:48Z</time>
      </trkpt>
      <trkpt lat="45.5558540" lon="8.7331960">
        <ele>183.7500000</ele>
        <time>2009-05-03T13:57:59Z</time>
      </trkpt>
      <trkpt lat="45.5553760" lon="8.7339590">
        <ele>183.7500000</ele>
        <time>2009-05-03T13:58:11Z</time>
      </trkpt>
      <trkpt lat="45.5548030" lon="8.7348700">
        <ele>183.7500000</ele>
        <time>2009-05-03T13:58:28Z</time>
      </trkpt>
      <trkpt lat="45.5543070" lon="8.7356480">
        <ele>183.7500000</ele>
        <time>2009-05-03T13:58:44Z</time>
      </trkpt>
      <trkpt lat="45.5541540" lon="8.7358900">
        <ele>183.7500000</ele>
        <time>2009-05-03T13:58:49Z</time>
      </trkpt>
      <trkpt lat="45.5538250" lon="8.7363690">
        <ele>183.7500000</ele>
        <time>2009-05-03T13:58:59Z</time>
      </trkpt>
      <trkpt lat="45.5536090" lon="8.7366910">
        <ele>183.7500000</ele>
        <time>2009-05-03T13:59:08Z</time>
      </trkpt>
      <trkpt lat="45.5535300" lon="8.7368750">
        <ele>183.7500000</ele>
        <time>2009-05-03T13:59:11Z</time>
      </trkpt>
      <trkpt lat="45.5530850" lon="8.7376130">
        <ele>183.2700000</ele>
        <time>2009-05-03T13:59:24Z</time>
      </trkpt>
      <trkpt lat="45.5528920" lon="8.7379260">
        <ele>183.2700000</ele>
        <time>2009-05-03T13:59:29Z</time>
      </trkpt>
      <trkpt lat="45.5525240" lon="8.7385810">
        <ele>183.7500000</ele>
        <time>2009-05-03T13:59:41Z</time>
      </trkpt>
      <trkpt lat="45.5521290" lon="8.7394510">
        <ele>183.2700000</ele>
        <time>2009-05-03T13:59:55Z</time>
      </trkpt>
      <trkpt lat="45.5518590" lon="8.7402200">
        <ele>183.2700000</ele>
        <time>2009-05-03T14:00:07Z</time>
      </trkpt>
      <trkpt lat="45.5516460" lon="8.7410090">
        <ele>183.7500000</ele>
        <time>2009-05-03T14:00:18Z</time>
      </trkpt>
      <trkpt lat="45.5514780" lon="8.7419030">
        <ele>183.7500000</ele>
        <time>2009-05-03T14:00:30Z</time>
      </trkpt>
      <trkpt lat="45.5513650" lon="8.7426280">
        <ele>183.2700000</ele>
        <time>2009-05-03T14:00:39Z</time>
      </trkpt>
      <trkpt lat="45.5513350" lon="8.7427780">
        <ele>183.2700000</ele>
        <time>2009-05-03T14:00:41Z</time>
      </trkpt>
      <trkpt lat="45.5512570" lon="8.7437380">
        <ele>183.2700000</ele>
        <time>2009-05-03T14:00:54Z</time>
      </trkpt>
      <trkpt lat="45.5512290" lon="8.7443920">
        <ele>183.2700000</ele>
        <time>2009-05-03T14:01:03Z</time>
      </trkpt>
      <trkpt lat="45.5511650" lon="8.7453030">
        <ele>183.7500000</ele>
        <time>2009-05-03T14:01:15Z</time>
      </trkpt>
      <trkpt lat="45.5511590" lon="8.7453770">
        <ele>183.7500000</ele>
        <time>2009-05-03T14:01:16Z</time>
      </trkpt>
      <trkpt lat="45.5510630" lon="8.7462280">
        <ele>184.2300000</ele>
        <time>2009-05-03T14:01:28Z</time>
      </trkpt>
      <trkpt lat="45.5510440" lon="8.7463590">
        <ele>184.7100000</ele>
        <time>2009-05-03T14:01:30Z</time>
      </trkpt>
      <trkpt lat="45.5510290" lon="8.7465310">
        <ele>184.7100000</ele>
        <time>2009-05-03T14:01:33Z</time>
      </trkpt>
      <trkpt lat="45.5510910" lon="8.7469760">
        <ele>183.2700000</ele>
        <time>2009-05-03T14:01:39Z</time>
      </trkpt>
      <trkpt lat="45.5510470" lon="8.7476970">
        <ele>183.2700000</ele>
        <time>2009-05-03T14:01:48Z</time>
      </trkpt>
      <trkpt lat="45.5509940" lon="8.7485820">
        <ele>183.2700000</ele>
        <time>2009-05-03T14:02:00Z</time>
      </trkpt>
      <trkpt lat="45.5509500" lon="8.7496270">
        <ele>183.2700000</ele>
        <time>2009-05-03T14:02:14Z</time>
      </trkpt>
      <trkpt lat="45.5509040" lon="8.7504050">
        <ele>182.7900000</ele>
        <time>2009-05-03T14:02:27Z</time>
      </trkpt>
      <trkpt lat="45.5508670" lon="8.7512860">
        <ele>183.2700000</ele>
        <time>2009-05-03T14:02:42Z</time>
      </trkpt>
      <trkpt lat="45.5508550" lon="8.7514730">
        <ele>183.7500000</ele>
        <time>2009-05-03T14:02:45Z</time>
      </trkpt>
      <trkpt lat="45.5507990" lon="8.7525020">
        <ele>183.2700000</ele>
        <time>2009-05-03T14:03:01Z</time>
      </trkpt>
      <trkpt lat="45.5507410" lon="8.7535640">
        <ele>183.2700000</ele>
        <time>2009-05-03T14:03:17Z</time>
      </trkpt>
      <trkpt lat="45.5507240" lon="8.7538500">
        <ele>183.2700000</ele>
        <time>2009-05-03T14:03:21Z</time>
      </trkpt>
      <trkpt lat="45.5506580" lon="8.7550100">
        <ele>182.7900000</ele>
        <time>2009-05-03T14:03:38Z</time>
      </trkpt>
      <trkpt lat="45.5506210" lon="8.7557690">
        <ele>183.2700000</ele>
        <time>2009-05-03T14:03:49Z</time>
      </trkpt>
      <trkpt lat="45.5506170" lon="8.7559800">
        <ele>183.2700000</ele>
        <time>2009-05-03T14:03:52Z</time>
      </trkpt>
      <trkpt lat="45.5505970" lon="8.7562540">
        <ele>183.2700000</ele>
        <time>2009-05-03T14:03:56Z</time>
      </trkpt>
      <trkpt lat="45.5505720" lon="8.7565370">
        <ele>183.2700000</ele>
        <time>2009-05-03T14:04:00Z</time>
      </trkpt>
      <trkpt lat="45.5505600" lon="8.7569710">
        <ele>183.2700000</ele>
        <time>2009-05-03T14:04:06Z</time>
      </trkpt>
      <trkpt lat="45.5505510" lon="8.7571130">
        <ele>183.2700000</ele>
        <time>2009-05-03T14:04:08Z</time>
      </trkpt>
      <trkpt lat="45.5505380" lon="8.7573110">
        <ele>183.2700000</ele>
        <time>2009-05-03T14:04:11Z</time>
      </trkpt>
      <trkpt lat="45.5505170" lon="8.7579270">
        <ele>182.7900000</ele>
        <time>2009-05-03T14:04:20Z</time>
      </trkpt>
      <trkpt lat="45.5504630" lon="8.7588660">
        <ele>183.2700000</ele>
        <time>2009-05-03T14:04:33Z</time>
      </trkpt>
      <trkpt lat="45.5504430" lon="8.7590880">
        <ele>182.7900000</ele>
        <time>2009-05-03T14:04:36Z</time>
      </trkpt>
      <trkpt lat="45.5503980" lon="8.7598050">
        <ele>182.7900000</ele>
        <time>2009-05-03T14:04:46Z</time>
      </trkpt>
      <trkpt lat="45.5503580" lon="8.7604400">
        <ele>182.3100000</ele>
        <time>2009-05-03T14:04:56Z</time>
      </trkpt>
      <trkpt lat="45.5503300" lon="8.7611930">
        <ele>182.7900000</ele>
        <time>2009-05-03T14:05:07Z</time>
      </trkpt>
      <trkpt lat="45.5503090" lon="8.7621470">
        <ele>182.3100000</ele>
        <time>2009-05-03T14:05:20Z</time>
      </trkpt>
      <trkpt lat="45.5503990" lon="8.7632330">
        <ele>182.3100000</ele>
        <time>2009-05-03T14:05:34Z</time>
      </trkpt>
      <trkpt lat="45.5504070" lon="8.7633040">
        <ele>182.3100000</ele>
        <time>2009-05-03T14:05:35Z</time>
      </trkpt>
      <trkpt lat="45.5506220" lon="8.7643730">
        <ele>182.7900000</ele>
        <time>2009-05-03T14:05:49Z</time>
      </trkpt>
      <trkpt lat="45.5509470" lon="8.7654410">
        <ele>182.3100000</ele>
        <time>2009-05-03T14:06:04Z</time>
      </trkpt>
      <trkpt lat="45.5510250" lon="8.7656910">
        <ele>182.7900000</ele>
        <time>2009-05-03T14:06:08Z</time>
      </trkpt>
      <trkpt lat="45.5510500" lon="8.7657570">
        <ele>182.7900000</ele>
        <time>2009-05-03T14:06:09Z</time>
      </trkpt>
      <trkpt lat="45.5513560" lon="8.7668180">
        <ele>183.2700000</ele>
        <time>2009-05-03T14:06:24Z</time>
      </trkpt>
      <trkpt lat="45.5514120" lon="8.7670120">
        <ele>182.7900000</ele>
        <time>2009-05-03T14:06:27Z</time>
      </trkpt>
      <trkpt lat="45.5516110" lon="8.7676900">
        <ele>182.7900000</ele>
        <time>2009-05-03T14:06:37Z</time>
      </trkpt>
      <trkpt lat="45.5516310" lon="8.7677600">
        <ele>182.7900000</ele>
        <time>2009-05-03T14:06:38Z</time>
      </trkpt>
      <trkpt lat="45.5519080" lon="8.7687090">
        <ele>182.7900000</ele>
        <time>2009-05-03T14:06:51Z</time>
      </trkpt>
      <trkpt lat="45.5521670" lon="8.7695920">
        <ele>182.7900000</ele>
        <time>2009-05-03T14:07:03Z</time>
      </trkpt>
      <trkpt lat="45.5524630" lon="8.7705050">
        <ele>182.7900000</ele>
        <time>2009-05-03T14:07:16Z</time>
      </trkpt>
      <trkpt lat="45.5525010" lon="8.7706330">
        <ele>182.3100000</ele>
        <time>2009-05-03T14:07:18Z</time>
      </trkpt>
      <trkpt lat="45.5525210" lon="8.7706940">
        <ele>183.2700000</ele>
        <time>2009-05-03T14:07:19Z</time>
      </trkpt>
      <trkpt lat="45.5525510" lon="8.7707520">
        <ele>182.3100000</ele>
        <time>2009-05-03T14:07:20Z</time>
      </trkpt>
      <trkpt lat="45.5525910" lon="8.7707990">
        <ele>182.7900000</ele>
        <time>2009-05-03T14:07:21Z</time>
      </trkpt>
      <trkpt lat="45.5526040" lon="8.7708690">
        <ele>182.7900000</ele>
        <time>2009-05-03T14:07:22Z</time>
      </trkpt>
      <trkpt lat="45.5526220" lon="8.7709320">
        <ele>182.7900000</ele>
        <time>2009-05-03T14:07:23Z</time>
      </trkpt>
      <trkpt lat="45.5527110" lon="8.7713390">
        <ele>183.2700000</ele>
        <time>2009-05-03T14:07:29Z</time>
      </trkpt>
      <trkpt lat="45.5527280" lon="8.7714130">
        <ele>182.7900000</ele>
        <time>2009-05-03T14:07:30Z</time>
      </trkpt>
      <trkpt lat="45.5529670" lon="8.7722460">
        <ele>183.2700000</ele>
        <time>2009-05-03T14:07:42Z</time>
      </trkpt>
      <trkpt lat="45.5530290" lon="8.7724360">
        <ele>183.2700000</ele>
        <time>2009-05-03T14:07:45Z</time>
      </trkpt>
      <trkpt lat="45.5530800" lon="8.7726350">
        <ele>183.2700000</ele>
        <time>2009-05-03T14:07:48Z</time>
      </trkpt>
      <trkpt lat="45.5531080" lon="8.7728030">
        <ele>182.7900000</ele>
        <time>2009-05-03T14:07:50Z</time>
      </trkpt>
      <trkpt lat="45.5532460" lon="8.7732490">
        <ele>183.2700000</ele>
        <time>2009-05-03T14:07:57Z</time>
      </trkpt>
      <trkpt lat="45.5532610" lon="8.7733160">
        <ele>183.2700000</ele>
        <time>2009-05-03T14:07:58Z</time>
      </trkpt>
      <trkpt lat="45.5533120" lon="8.7735850">
        <ele>183.2700000</ele>
        <time>2009-05-03T14:08:02Z</time>
      </trkpt>
      <trkpt lat="45.5533640" lon="8.7738110">
        <ele>183.7500000</ele>
        <time>2009-05-03T14:08:05Z</time>
      </trkpt>
      <trkpt lat="45.5535870" lon="8.7744390">
        <ele>185.1900000</ele>
        <time>2009-05-03T14:08:19Z</time>
      </trkpt>
      <trkpt lat="45.5535580" lon="8.7744800">
        <ele>185.1900000</ele>
        <time>2009-05-03T14:08:23Z</time>
      </trkpt>
      <trkpt lat="45.5533620" lon="8.7748420">
        <ele>183.7500000</ele>
        <time>2009-05-03T14:08:35Z</time>
      </trkpt>
      <trkpt lat="45.5532670" lon="8.7750840">
        <ele>183.2700000</ele>
        <time>2009-05-03T14:08:40Z</time>
      </trkpt>
      <trkpt lat="45.5532390" lon="8.7751270">
        <ele>183.7500000</ele>
        <time>2009-05-03T14:08:41Z</time>
      </trkpt>
      <trkpt lat="45.5531090" lon="8.7754330">
        <ele>182.7900000</ele>
        <time>2009-05-03T14:08:46Z</time>
      </trkpt>
      <trkpt lat="45.5530420" lon="8.7756110">
        <ele>182.3100000</ele>
        <time>2009-05-03T14:08:49Z</time>
      </trkpt>
      <trkpt lat="45.5529300" lon="8.7758610">
        <ele>181.8300000</ele>
        <time>2009-05-03T14:08:58Z</time>
      </trkpt>
      <trkpt lat="45.5530440" lon="8.7758630">
        <ele>181.8300000</ele>
        <time>2009-05-03T14:15:44Z</time>
      </trkpt>
      <trkpt lat="45.5530730" lon="8.7758780">
        <ele>182.3100000</ele>
        <time>2009-05-03T14:16:01Z</time>
      </trkpt>
      <trkpt lat="45.5531400" lon="8.7759030">
        <ele>182.3100000</ele>
        <time>2009-05-03T14:16:06Z</time>
      </trkpt>
      <trkpt lat="45.5531520" lon="8.7759040">
        <ele>182.3100000</ele>
        <time>2009-05-03T14:16:07Z</time>
      </trkpt>
      <trkpt lat="45.5531630" lon="8.7759030">
        <ele>182.3100000</ele>
        <time>2009-05-03T14:16:08Z</time>
      </trkpt>
      <trkpt lat="45.5531740" lon="8.7759040">
        <ele>182.3100000</ele>
        <time>2009-05-03T14:16:09Z</time>
      </trkpt>
      <trkpt lat="45.5532260" lon="8.7759190">
        <ele>182.3100000</ele>
        <time>2009-05-03T14:16:13Z</time>
      </trkpt>
      <trkpt lat="45.5533440" lon="8.7759650">
        <ele>182.3100000</ele>
        <time>2009-05-03T14:16:18Z</time>
      </trkpt>
      <trkpt lat="45.5533610" lon="8.7759590">
        <ele>182.3100000</ele>
        <time>2009-05-03T14:16:19Z</time>
      </trkpt>
      <trkpt lat="45.5533740" lon="8.7759580">
        <ele>182.7900000</ele>
        <time>2009-05-03T14:16:20Z</time>
      </trkpt>
      <trkpt lat="45.5533930" lon="8.7759650">
        <ele>182.7900000</ele>
        <time>2009-05-03T14:16:21Z</time>
      </trkpt>
      <trkpt lat="45.5534710" lon="8.7759620">
        <ele>182.7900000</ele>
        <time>2009-05-03T14:16:25Z</time>
      </trkpt>
      <trkpt lat="45.5534740" lon="8.7759950">
        <ele>182.7900000</ele>
        <time>2009-05-03T14:16:26Z</time>
      </trkpt>
      <trkpt lat="45.5535240" lon="8.7760050">
        <ele>183.2700000</ele>
        <time>2009-05-03T14:16:27Z</time>
      </trkpt>
      <trkpt lat="45.5535620" lon="8.7760240">
        <ele>182.7900000</ele>
        <time>2009-05-03T14:16:28Z</time>
      </trkpt>
      <trkpt lat="45.5536020" lon="8.7760400">
        <ele>183.2700000</ele>
        <time>2009-05-03T14:16:29Z</time>
      </trkpt>
      <trkpt lat="45.5536320" lon="8.7760650">
        <ele>183.2700000</ele>
        <time>2009-05-03T14:16:30Z</time>
      </trkpt>
      <trkpt lat="45.5536500" lon="8.7760900">
        <ele>183.2700000</ele>
        <time>2009-05-03T14:16:31Z</time>
      </trkpt>
      <trkpt lat="45.5536680" lon="8.7761160">
        <ele>183.2700000</ele>
        <time>2009-05-03T14:16:32Z</time>
      </trkpt>
      <trkpt lat="45.5536730" lon="8.7761390">
        <ele>183.2700000</ele>
        <time>2009-05-03T14:16:33Z</time>
      </trkpt>
      <trkpt lat="45.5536820" lon="8.7761640">
        <ele>183.2700000</ele>
        <time>2009-05-03T14:16:34Z</time>
      </trkpt>
      <trkpt lat="45.5536910" lon="8.7761940">
        <ele>183.2700000</ele>
        <time>2009-05-03T14:16:35Z</time>
      </trkpt>
      <trkpt lat="45.5537260" lon="8.7762580">
        <ele>183.7500000</ele>
        <time>2009-05-03T14:16:37Z</time>
      </trkpt>
      <trkpt lat="45.5537390" lon="8.7762810">
        <ele>183.7500000</ele>
        <time>2009-05-03T14:16:38Z</time>
      </trkpt>
      <trkpt lat="45.5537480" lon="8.7767520">
        <ele>183.7500000</ele>
        <time>2009-05-03T14:16:49Z</time>
      </trkpt>
      <trkpt lat="45.5538020" lon="8.7773190">
        <ele>183.7500000</ele>
        <time>2009-05-03T14:17:02Z</time>
      </trkpt>
      <trkpt lat="45.5538750" lon="8.7774160">
        <ele>183.7500000</ele>
        <time>2009-05-03T14:17:05Z</time>
      </trkpt>
      <trkpt lat="45.5540690" lon="8.7774140">
        <ele>183.7500000</ele>
        <time>2009-05-03T14:17:13Z</time>
      </trkpt>
      <trkpt lat="45.5540930" lon="8.7774070">
        <ele>183.7500000</ele>
        <time>2009-05-03T14:17:14Z</time>
      </trkpt>
      <trkpt lat="45.5541200" lon="8.7774040">
        <ele>184.2300000</ele>
        <time>2009-05-03T14:17:15Z</time>
      </trkpt>
      <trkpt lat="45.5541310" lon="8.7774020">
        <ele>184.2300000</ele>
        <time>2009-05-03T14:17:16Z</time>
      </trkpt>
      <trkpt lat="45.5541550" lon="8.7773980">
        <ele>184.2300000</ele>
        <time>2009-05-03T14:17:17Z</time>
      </trkpt>
      <trkpt lat="45.5544310" lon="8.7773300">
        <ele>185.1900000</ele>
        <time>2009-05-03T14:17:27Z</time>
      </trkpt>
      <trkpt lat="45.5545160" lon="8.7773560">
        <ele>184.7100000</ele>
        <time>2009-05-03T14:17:30Z</time>
      </trkpt>
      <trkpt lat="45.5545390" lon="8.7773970">
        <ele>184.2300000</ele>
        <time>2009-05-03T14:17:31Z</time>
      </trkpt>
      <trkpt lat="45.5545520" lon="8.7774510">
        <ele>183.7500000</ele>
        <time>2009-05-03T14:17:32Z</time>
      </trkpt>
      <trkpt lat="45.5546300" lon="8.7782140">
        <ele>183.7500000</ele>
        <time>2009-05-03T14:17:45Z</time>
      </trkpt>
      <trkpt lat="45.5547050" lon="8.7792890">
        <ele>183.2700000</ele>
        <time>2009-05-03T14:18:01Z</time>
      </trkpt>
      <trkpt lat="45.5547130" lon="8.7794120">
        <ele>183.2700000</ele>
        <time>2009-05-03T14:18:03Z</time>
      </trkpt>
      <trkpt lat="45.5547160" lon="8.7794830">
        <ele>183.7500000</ele>
        <time>2009-05-03T14:18:04Z</time>
      </trkpt>
      <trkpt lat="45.5547180" lon="8.7795460">
        <ele>183.7500000</ele>
        <time>2009-05-03T14:18:05Z</time>
      </trkpt>
      <trkpt lat="45.5547200" lon="8.7796040">
        <ele>183.7500000</ele>
        <time>2009-05-03T14:18:06Z</time>
      </trkpt>
      <trkpt lat="45.5547220" lon="8.7796630">
        <ele>183.7500000</ele>
        <time>2009-05-03T14:18:07Z</time>
      </trkpt>
      <trkpt lat="45.5547300" lon="8.7797140">
        <ele>183.7500000</ele>
        <time>2009-05-03T14:18:08Z</time>
      </trkpt>
      <trkpt lat="45.5547520" lon="8.7803040">
        <ele>183.7500000</ele>
        <time>2009-05-03T14:18:17Z</time>
      </trkpt>
      <trkpt lat="45.5547970" lon="8.7815040">
        <ele>183.2700000</ele>
        <time>2009-05-03T14:18:34Z</time>
      </trkpt>
      <trkpt lat="45.5548040" lon="8.7817910">
        <ele>183.2700000</ele>
        <time>2009-05-03T14:18:38Z</time>
      </trkpt>
      <trkpt lat="45.5548280" lon="8.7823610">
        <ele>183.2700000</ele>
        <time>2009-05-03T14:18:46Z</time>
      </trkpt>
      <trkpt lat="45.5548320" lon="8.7824250">
        <ele>182.7900000</ele>
        <time>2009-05-03T14:18:47Z</time>
      </trkpt>
      <trkpt lat="45.5547690" lon="8.7831140">
        <ele>184.7100000</ele>
        <time>2009-05-03T14:18:59Z</time>
      </trkpt>
      <trkpt lat="45.5547480" lon="8.7831020">
        <ele>184.7100000</ele>
        <time>2009-05-03T14:19:00Z</time>
      </trkpt>
      <trkpt lat="45.5544070" lon="8.7830630">
        <ele>184.7100000</ele>
        <time>2009-05-03T14:19:12Z</time>
      </trkpt>
      <trkpt lat="45.5544010" lon="8.7831030">
        <ele>184.2300000</ele>
        <time>2009-05-03T14:19:13Z</time>
      </trkpt>
      <trkpt lat="45.5544000" lon="8.7831590">
        <ele>183.7500000</ele>
        <time>2009-05-03T14:19:14Z</time>
      </trkpt>
      <trkpt lat="45.5543980" lon="8.7832240">
        <ele>183.7500000</ele>
        <time>2009-05-03T14:19:15Z</time>
      </trkpt>
      <trkpt lat="45.5544020" lon="8.7832920">
        <ele>183.2700000</ele>
        <time>2009-05-03T14:19:16Z</time>
      </trkpt>
      <trkpt lat="45.5544020" lon="8.7833660">
        <ele>183.2700000</ele>
        <time>2009-05-03T14:19:17Z</time>
      </trkpt>
      <trkpt lat="45.5543940" lon="8.7834360">
        <ele>183.2700000</ele>
        <time>2009-05-03T14:19:18Z</time>
      </trkpt>
      <trkpt lat="45.5543800" lon="8.7835050">
        <ele>182.7900000</ele>
        <time>2009-05-03T14:19:19Z</time>
      </trkpt>
      <trkpt lat="45.5543620" lon="8.7835720">
        <ele>182.7900000</ele>
        <time>2009-05-03T14:19:20Z</time>
      </trkpt>
      <trkpt lat="45.5543430" lon="8.7836370">
        <ele>182.7900000</ele>
        <time>2009-05-03T14:19:21Z</time>
      </trkpt>
      <trkpt lat="45.5539820" lon="8.7845560">
        <ele>182.7900000</ele>
        <time>2009-05-03T14:19:35Z</time>
      </trkpt>
      <trkpt lat="45.5538580" lon="8.7847660">
        <ele>183.2700000</ele>
        <time>2009-05-03T14:19:40Z</time>
      </trkpt>
      <trkpt lat="45.5537150" lon="8.7849470">
        <ele>182.7900000</ele>
        <time>2009-05-03T14:19:49Z</time>
      </trkpt>
      <trkpt lat="45.5531930" lon="8.7855220">
        <ele>182.7900000</ele>
        <time>2009-05-03T14:20:04Z</time>
      </trkpt>
      <trkpt lat="45.5531190" lon="8.7856280">
        <ele>183.2700000</ele>
        <time>2009-05-03T14:20:06Z</time>
      </trkpt>
      <trkpt lat="45.5527360" lon="8.7860880">
        <ele>182.7900000</ele>
        <time>2009-05-03T14:20:18Z</time>
      </trkpt>
      <trkpt lat="45.5527020" lon="8.7861340">
        <ele>182.7900000</ele>
        <time>2009-05-03T14:20:19Z</time>
      </trkpt>
      <trkpt lat="45.5526690" lon="8.7861730">
        <ele>182.7900000</ele>
        <time>2009-05-03T14:20:20Z</time>
      </trkpt>
      <trkpt lat="45.5521380" lon="8.7868820">
        <ele>182.3100000</ele>
        <time>2009-05-03T14:20:35Z</time>
      </trkpt>
      <trkpt lat="45.5517820" lon="8.7877870">
        <ele>182.3100000</ele>
        <time>2009-05-03T14:20:49Z</time>
      </trkpt>
      <trkpt lat="45.5515000" lon="8.7888820">
        <ele>182.3100000</ele>
        <time>2009-05-03T14:21:06Z</time>
      </trkpt>
      <trkpt lat="45.5514310" lon="8.7891150">
        <ele>182.3100000</ele>
        <time>2009-05-03T14:21:10Z</time>
      </trkpt>
      <trkpt lat="45.5511280" lon="8.7902190">
        <ele>182.3100000</ele>
        <time>2009-05-03T14:21:26Z</time>
      </trkpt>
      <trkpt lat="45.5507690" lon="8.7915160">
        <ele>182.3100000</ele>
        <time>2009-05-03T14:21:44Z</time>
      </trkpt>
      <trkpt lat="45.5504680" lon="8.7926060">
        <ele>182.3100000</ele>
        <time>2009-05-03T14:21:59Z</time>
      </trkpt>
      <trkpt lat="45.5501390" lon="8.7937820">
        <ele>182.7900000</ele>
        <time>2009-05-03T14:22:15Z</time>
      </trkpt>
      <trkpt lat="45.5498260" lon="8.7948630">
        <ele>183.2700000</ele>
        <time>2009-05-03T14:22:30Z</time>
      </trkpt>
      <trkpt lat="45.5495190" lon="8.7960230">
        <ele>181.8300000</ele>
        <time>2009-05-03T14:22:46Z</time>
      </trkpt>
      <trkpt lat="45.5492070" lon="8.7971640">
        <ele>182.3100000</ele>
        <time>2009-05-03T14:23:02Z</time>
      </trkpt>
      <trkpt lat="45.5489190" lon="8.7981610">
        <ele>182.3100000</ele>
        <time>2009-05-03T14:23:16Z</time>
      </trkpt>
      <trkpt lat="45.5486230" lon="8.7992590">
        <ele>182.3100000</ele>
        <time>2009-05-03T14:23:31Z</time>
      </trkpt>
      <trkpt lat="45.5482750" lon="8.8005610">
        <ele>181.8300000</ele>
        <time>2009-05-03T14:23:49Z</time>
      </trkpt>
      <trkpt lat="45.5480390" lon="8.8017120">
        <ele>181.8300000</ele>
        <time>2009-05-03T14:24:04Z</time>
      </trkpt>
      <trkpt lat="45.5478700" lon="8.8027700">
        <ele>181.8300000</ele>
        <time>2009-05-03T14:24:18Z</time>
      </trkpt>
      <trkpt lat="45.5477170" lon="8.8040160">
        <ele>182.3100000</ele>
        <time>2009-05-03T14:24:34Z</time>
      </trkpt>
      <trkpt lat="45.5476360" lon="8.8052090">
        <ele>182.3100000</ele>
        <time>2009-05-03T14:24:49Z</time>
      </trkpt>
      <trkpt lat="45.5476020" lon="8.8063100">
        <ele>181.8300000</ele>
        <time>2009-05-03T14:25:03Z</time>
      </trkpt>
      <trkpt lat="45.5476250" lon="8.8072760">
        <ele>182.3100000</ele>
        <time>2009-05-03T14:25:15Z</time>
      </trkpt>
      <trkpt lat="45.5476780" lon="8.8082070">
        <ele>181.8300000</ele>
        <time>2009-05-03T14:25:27Z</time>
      </trkpt>
      <trkpt lat="45.5477850" lon="8.8093910">
        <ele>181.8300000</ele>
        <time>2009-05-03T14:25:42Z</time>
      </trkpt>
      <trkpt lat="45.5479600" lon="8.8105900">
        <ele>182.3100000</ele>
        <time>2009-05-03T14:25:58Z</time>
      </trkpt>
      <trkpt lat="45.5481480" lon="8.8118360">
        <ele>182.3100000</ele>
        <time>2009-05-03T14:26:14Z</time>
      </trkpt>
      <trkpt lat="45.5483350" lon="8.8129700">
        <ele>181.8300000</ele>
        <time>2009-05-03T14:26:29Z</time>
      </trkpt>
      <trkpt lat="45.5485160" lon="8.8141610">
        <ele>181.8300000</ele>
        <time>2009-05-03T14:26:44Z</time>
      </trkpt>
      <trkpt lat="45.5485170" lon="8.8142430">
        <ele>181.8300000</ele>
        <time>2009-05-03T14:26:45Z</time>
      </trkpt>
      <trkpt lat="45.5485210" lon="8.8143940">
        <ele>181.8300000</ele>
        <time>2009-05-03T14:26:47Z</time>
      </trkpt>
      <trkpt lat="45.5485060" lon="8.8145400">
        <ele>182.3100000</ele>
        <time>2009-05-03T14:26:49Z</time>
      </trkpt>
      <trkpt lat="45.5484670" lon="8.8148160">
        <ele>183.2700000</ele>
        <time>2009-05-03T14:26:57Z</time>
      </trkpt>
      <trkpt lat="45.5484770" lon="8.8149000">
        <ele>182.7900000</ele>
        <time>2009-05-03T14:26:59Z</time>
      </trkpt>
      <trkpt lat="45.5484880" lon="8.8149730">
        <ele>182.3100000</ele>
        <time>2009-05-03T14:27:00Z</time>
      </trkpt>
      <trkpt lat="45.5484910" lon="8.8150530">
        <ele>182.3100000</ele>
        <time>2009-05-03T14:27:01Z</time>
      </trkpt>
      <trkpt lat="45.5484890" lon="8.8151310">
        <ele>182.3100000</ele>
        <time>2009-05-03T14:27:02Z</time>
      </trkpt>
      <trkpt lat="45.5484850" lon="8.8152100">
        <ele>182.3100000</ele>
        <time>2009-05-03T14:27:03Z</time>
      </trkpt>
      <trkpt lat="45.5484720" lon="8.8152900">
        <ele>181.8300000</ele>
        <time>2009-05-03T14:27:04Z</time>
      </trkpt>
      <trkpt lat="45.5483710" lon="8.8157450">
        <ele>181.8300000</ele>
        <time>2009-05-03T14:27:10Z</time>
      </trkpt>
      <trkpt lat="45.5480900" lon="8.8167640">
        <ele>182.3100000</ele>
        <time>2009-05-03T14:27:24Z</time>
      </trkpt>
      <trkpt lat="45.5477880" lon="8.8178270">
        <ele>182.3100000</ele>
        <time>2009-05-03T14:27:39Z</time>
      </trkpt>
      <trkpt lat="45.5476660" lon="8.8182160">
        <ele>182.7900000</ele>
        <time>2009-05-03T14:27:45Z</time>
      </trkpt>
      <trkpt lat="45.5476470" lon="8.8182820">
        <ele>182.3100000</ele>
        <time>2009-05-03T14:27:46Z</time>
      </trkpt>
      <trkpt lat="45.5476300" lon="8.8183440">
        <ele>182.3100000</ele>
        <time>2009-05-03T14:27:47Z</time>
      </trkpt>
      <trkpt lat="45.5475690" lon="8.8186050">
        <ele>182.3100000</ele>
        <time>2009-05-03T14:27:51Z</time>
      </trkpt>
      <trkpt lat="45.5472760" lon="8.8196080">
        <ele>182.3100000</ele>
        <time>2009-05-03T14:28:05Z</time>
      </trkpt>
      <trkpt lat="45.5469510" lon="8.8207630">
        <ele>181.8300000</ele>
        <time>2009-05-03T14:28:20Z</time>
      </trkpt>
      <trkpt lat="45.5466090" lon="8.8220110">
        <ele>181.8300000</ele>
        <time>2009-05-03T14:28:37Z</time>
      </trkpt>
      <trkpt lat="45.5464830" lon="8.8223990">
        <ele>181.8300000</ele>
        <time>2009-05-03T14:28:43Z</time>
      </trkpt>
      <trkpt lat="45.5464070" lon="8.8225240">
        <ele>180.8700000</ele>
        <time>2009-05-03T14:28:45Z</time>
      </trkpt>
      <trkpt lat="45.5463530" lon="8.8227050">
        <ele>180.3800000</ele>
        <time>2009-05-03T14:28:47Z</time>
      </trkpt>
      <trkpt lat="45.5461780" lon="8.8235160">
        <ele>181.8300000</ele>
        <time>2009-05-03T14:28:58Z</time>
      </trkpt>
      <trkpt lat="45.5458480" lon="8.8246970">
        <ele>181.8300000</ele>
        <time>2009-05-03T14:29:14Z</time>
      </trkpt>
      <trkpt lat="45.5455300" lon="8.8258050">
        <ele>181.8300000</ele>
        <time>2009-05-03T14:29:29Z</time>
      </trkpt>
      <trkpt lat="45.5452400" lon="8.8268700">
        <ele>181.3500000</ele>
        <time>2009-05-03T14:29:43Z</time>
      </trkpt>
      <trkpt lat="45.5448800" lon="8.8281490">
        <ele>181.3500000</ele>
        <time>2009-05-03T14:30:00Z</time>
      </trkpt>
      <trkpt lat="45.5445360" lon="8.8292770">
        <ele>181.3500000</ele>
        <time>2009-05-03T14:30:16Z</time>
      </trkpt>
      <trkpt lat="45.5441140" lon="8.8303860">
        <ele>181.3500000</ele>
        <time>2009-05-03T14:30:32Z</time>
      </trkpt>
      <trkpt lat="45.5436050" lon="8.8314410">
        <ele>181.8300000</ele>
        <time>2009-05-03T14:30:48Z</time>
      </trkpt>
      <trkpt lat="45.5430980" lon="8.8323410">
        <ele>181.8300000</ele>
        <time>2009-05-03T14:31:03Z</time>
      </trkpt>
      <trkpt lat="45.5430330" lon="8.8324650">
        <ele>182.3100000</ele>
        <time>2009-05-03T14:31:05Z</time>
      </trkpt>
      <trkpt lat="45.5426180" lon="8.8332750">
        <ele>181.8300000</ele>
        <time>2009-05-03T14:31:18Z</time>
      </trkpt>
      <trkpt lat="45.5422500" lon="8.8341820">
        <ele>181.8300000</ele>
        <time>2009-05-03T14:31:32Z</time>
      </trkpt>
      <trkpt lat="45.5422270" lon="8.8342480">
        <ele>181.8300000</ele>
        <time>2009-05-03T14:31:33Z</time>
      </trkpt>
      <trkpt lat="45.5422060" lon="8.8343140">
        <ele>181.8300000</ele>
        <time>2009-05-03T14:31:34Z</time>
      </trkpt>
      <trkpt lat="45.5419600" lon="8.8351410">
        <ele>181.8300000</ele>
        <time>2009-05-03T14:31:46Z</time>
      </trkpt>
      <trkpt lat="45.5419330" lon="8.8352830">
        <ele>181.8300000</ele>
        <time>2009-05-03T14:31:48Z</time>
      </trkpt>
      <trkpt lat="45.5417540" lon="8.8361190">
        <ele>181.8300000</ele>
        <time>2009-05-03T14:32:00Z</time>
      </trkpt>
      <trkpt lat="45.5416810" lon="8.8366090">
        <ele>181.8300000</ele>
        <time>2009-05-03T14:32:07Z</time>
      </trkpt>
      <trkpt lat="45.5415870" lon="8.8376280">
        <ele>181.8300000</ele>
        <time>2009-05-03T14:32:21Z</time>
      </trkpt>
      <trkpt lat="45.5414960" lon="8.8387890">
        <ele>181.8300000</ele>
        <time>2009-05-03T14:32:36Z</time>
      </trkpt>
      <trkpt lat="45.5414570" lon="8.8394070">
        <ele>181.8300000</ele>
        <time>2009-05-03T14:32:44Z</time>
      </trkpt>
      <trkpt lat="45.5415240" lon="8.8402910">
        <ele>181.8300000</ele>
        <time>2009-05-03T14:32:56Z</time>
      </trkpt>
      <trkpt lat="45.5418280" lon="8.8413230">
        <ele>181.8300000</ele>
        <time>2009-05-03T14:33:11Z</time>
      </trkpt>
      <trkpt lat="45.5422100" lon="8.8422580">
        <ele>181.8300000</ele>
        <time>2009-05-03T14:33:26Z</time>
      </trkpt>
      <trkpt lat="45.5422860" lon="8.8424340">
        <ele>181.8300000</ele>
        <time>2009-05-03T14:33:29Z</time>
      </trkpt>
      <trkpt lat="45.5424650" lon="8.8428540">
        <ele>181.8300000</ele>
        <time>2009-05-03T14:33:36Z</time>
      </trkpt>
      <trkpt lat="45.5424840" lon="8.8429190">
        <ele>181.8300000</ele>
        <time>2009-05-03T14:33:37Z</time>
      </trkpt>
      <trkpt lat="45.5427040" lon="8.8435400">
        <ele>182.3100000</ele>
        <time>2009-05-03T14:33:48Z</time>
      </trkpt>
      <trkpt lat="45.5427760" lon="8.8437090">
        <ele>182.3100000</ele>
        <time>2009-05-03T14:33:51Z</time>
      </trkpt>
      <trkpt lat="45.5428040" lon="8.8437690">
        <ele>182.3100000</ele>
        <time>2009-05-03T14:33:52Z</time>
      </trkpt>
      <trkpt lat="45.5428740" lon="8.8439470">
        <ele>182.3100000</ele>
        <time>2009-05-03T14:33:55Z</time>
      </trkpt>
      <trkpt lat="45.5428980" lon="8.8440090">
        <ele>182.3100000</ele>
        <time>2009-05-03T14:33:56Z</time>
      </trkpt>
      <trkpt lat="45.5429240" lon="8.8440670">
        <ele>182.3100000</ele>
        <time>2009-05-03T14:33:57Z</time>
      </trkpt>
      <trkpt lat="45.5430210" lon="8.8443260">
        <ele>182.3100000</ele>
        <time>2009-05-03T14:34:01Z</time>
      </trkpt>
      <trkpt lat="45.5430640" lon="8.8444600">
        <ele>182.3100000</ele>
        <time>2009-05-03T14:34:03Z</time>
      </trkpt>
      <trkpt lat="45.5430850" lon="8.8445400">
        <ele>182.3100000</ele>
        <time>2009-05-03T14:34:04Z</time>
      </trkpt>
      <trkpt lat="45.5431080" lon="8.8446090">
        <ele>182.3100000</ele>
        <time>2009-05-03T14:34:05Z</time>
      </trkpt>
      <trkpt lat="45.5431270" lon="8.8446860">
        <ele>182.3100000</ele>
        <time>2009-05-03T14:34:06Z</time>
      </trkpt>
      <trkpt lat="45.5431520" lon="8.8447540">
        <ele>182.3100000</ele>
        <time>2009-05-03T14:34:07Z</time>
      </trkpt>
      <trkpt lat="45.5431790" lon="8.8448160">
        <ele>182.3100000</ele>
        <time>2009-05-03T14:34:08Z</time>
      </trkpt>
      <trkpt lat="45.5432090" lon="8.8448730">
        <ele>182.3100000</ele>
        <time>2009-05-03T14:34:09Z</time>
      </trkpt>
      <trkpt lat="45.5432330" lon="8.8449370">
        <ele>182.3100000</ele>
        <time>2009-05-03T14:34:10Z</time>
      </trkpt>
      <trkpt lat="45.5432500" lon="8.8450230">
        <ele>182.3100000</ele>
        <time>2009-05-03T14:34:11Z</time>
      </trkpt>
      <trkpt lat="45.5433020" lon="8.8452370">
        <ele>182.3100000</ele>
        <time>2009-05-03T14:34:14Z</time>
      </trkpt>
      <trkpt lat="45.5433860" lon="8.8456370">
        <ele>182.3100000</ele>
        <time>2009-05-03T14:34:20Z</time>
      </trkpt>
      <trkpt lat="45.5433130" lon="8.8459250">
        <ele>183.7500000</ele>
        <time>2009-05-03T14:34:28Z</time>
      </trkpt>
      <trkpt lat="45.5433680" lon="8.8459600">
        <ele>184.2300000</ele>
        <time>2009-05-03T14:34:35Z</time>
      </trkpt>
      <trkpt lat="45.5433930" lon="8.8459530">
        <ele>184.2300000</ele>
        <time>2009-05-03T14:34:36Z</time>
      </trkpt>
      <trkpt lat="45.5434220" lon="8.8459420">
        <ele>183.7500000</ele>
        <time>2009-05-03T14:34:38Z</time>
      </trkpt>
      <trkpt lat="45.5434500" lon="8.8459270">
        <ele>183.7500000</ele>
        <time>2009-05-03T14:34:39Z</time>
      </trkpt>
      <trkpt lat="45.5434820" lon="8.8459100">
        <ele>183.7500000</ele>
        <time>2009-05-03T14:34:40Z</time>
      </trkpt>
      <trkpt lat="45.5436290" lon="8.8458830">
        <ele>183.7500000</ele>
        <time>2009-05-03T14:34:47Z</time>
      </trkpt>
      <trkpt lat="45.5436470" lon="8.8459100">
        <ele>183.7500000</ele>
        <time>2009-05-03T14:34:48Z</time>
      </trkpt>
      <trkpt lat="45.5436560" lon="8.8459600">
        <ele>183.7500000</ele>
        <time>2009-05-03T14:34:49Z</time>
      </trkpt>
      <trkpt lat="45.5436500" lon="8.8460010">
        <ele>183.2700000</ele>
        <time>2009-05-03T14:34:50Z</time>
      </trkpt>
      <trkpt lat="45.5436490" lon="8.8460430">
        <ele>183.2700000</ele>
        <time>2009-05-03T14:34:51Z</time>
      </trkpt>
      <trkpt lat="45.5436860" lon="8.8465920">
        <ele>182.3100000</ele>
        <time>2009-05-03T14:35:01Z</time>
      </trkpt>
      <trkpt lat="45.5436320" lon="8.8467150">
        <ele>182.3100000</ele>
        <time>2009-05-03T14:35:07Z</time>
      </trkpt>
      <trkpt lat="45.5436220" lon="8.8467390">
        <ele>182.3100000</ele>
        <time>2009-05-03T14:35:08Z</time>
      </trkpt>
      <trkpt lat="45.5436110" lon="8.8468130">
        <ele>182.3100000</ele>
        <time>2009-05-03T14:35:19Z</time>
      </trkpt>
      <trkpt lat="45.5436200" lon="8.8468820">
        <ele>182.3100000</ele>
        <time>2009-05-03T14:35:34Z</time>
      </trkpt>
      <trkpt lat="45.5436190" lon="8.8468920">
        <ele>182.3100000</ele>
        <time>2009-05-03T14:36:01Z</time>
      </trkpt>
      <trkpt lat="45.5435900" lon="8.8471020">
        <ele>182.3100000</ele>
        <time>2009-05-03T14:36:23Z</time>
      </trkpt>
      <trkpt lat="45.5435850" lon="8.8473740">
        <ele>182.3100000</ele>
        <time>2009-05-03T14:36:42Z</time>
      </trkpt>
      <trkpt lat="45.5435110" lon="8.8479300">
        <ele>182.7900000</ele>
        <time>2009-05-03T14:36:56Z</time>
      </trkpt>
      <trkpt lat="45.5434640" lon="8.8485880">
        <ele>182.3100000</ele>
        <time>2009-05-03T14:37:08Z</time>
      </trkpt>
      <trkpt lat="45.5434510" lon="8.8487750">
        <ele>182.3100000</ele>
        <time>2009-05-03T14:37:11Z</time>
      </trkpt>
      <trkpt lat="45.5434550" lon="8.8488320">
        <ele>182.7900000</ele>
        <time>2009-05-03T14:37:12Z</time>
      </trkpt>
      <trkpt lat="45.5434550" lon="8.8488870">
        <ele>182.7900000</ele>
        <time>2009-05-03T14:37:13Z</time>
      </trkpt>
      <trkpt lat="45.5434040" lon="8.8494030">
        <ele>182.7900000</ele>
        <time>2009-05-03T14:37:21Z</time>
      </trkpt>
      <trkpt lat="45.5433920" lon="8.8494770">
        <ele>182.7900000</ele>
        <time>2009-05-03T14:37:22Z</time>
      </trkpt>
      <trkpt lat="45.5432480" lon="8.8501010">
        <ele>182.7900000</ele>
        <time>2009-05-03T14:37:33Z</time>
      </trkpt>
      <trkpt lat="45.5430040" lon="8.8508530">
        <ele>182.3100000</ele>
        <time>2009-05-03T14:37:47Z</time>
      </trkpt>
      <trkpt lat="45.5429370" lon="8.8510180">
        <ele>182.3100000</ele>
        <time>2009-05-03T14:37:56Z</time>
      </trkpt>
      <trkpt lat="45.5428570" lon="8.8513030">
        <ele>181.8300000</ele>
        <time>2009-05-03T14:38:03Z</time>
      </trkpt>
      <trkpt lat="45.5428330" lon="8.8513690">
        <ele>182.3100000</ele>
        <time>2009-05-03T14:38:04Z</time>
      </trkpt>
      <trkpt lat="45.5428120" lon="8.8514390">
        <ele>181.8300000</ele>
        <time>2009-05-03T14:38:05Z</time>
      </trkpt>
      <trkpt lat="45.5426480" lon="8.8518670">
        <ele>181.3500000</ele>
        <time>2009-05-03T14:38:13Z</time>
      </trkpt>
      <trkpt lat="45.5423510" lon="8.8526440">
        <ele>182.3100000</ele>
        <time>2009-05-03T14:38:27Z</time>
      </trkpt>
      <trkpt lat="45.5421840" lon="8.8532740">
        <ele>183.7500000</ele>
        <time>2009-05-03T14:38:37Z</time>
      </trkpt>
      <trkpt lat="45.5421490" lon="8.8533060">
        <ele>183.7500000</ele>
        <time>2009-05-03T14:38:38Z</time>
      </trkpt>
      <trkpt lat="45.5421040" lon="8.8533140">
        <ele>183.2700000</ele>
        <time>2009-05-03T14:38:39Z</time>
      </trkpt>
      <trkpt lat="45.5420540" lon="8.8532990">
        <ele>183.2700000</ele>
        <time>2009-05-03T14:38:40Z</time>
      </trkpt>
      <trkpt lat="45.5420080" lon="8.8532720">
        <ele>183.2700000</ele>
        <time>2009-05-03T14:38:41Z</time>
      </trkpt>
      <trkpt lat="45.5419650" lon="8.8532420">
        <ele>183.7500000</ele>
        <time>2009-05-03T14:38:42Z</time>
      </trkpt>
      <trkpt lat="45.5418770" lon="8.8531810">
        <ele>183.2700000</ele>
        <time>2009-05-03T14:38:44Z</time>
      </trkpt>
      <trkpt lat="45.5418290" lon="8.8531650">
        <ele>183.2700000</ele>
        <time>2009-05-03T14:38:45Z</time>
      </trkpt>
      <trkpt lat="45.5417860" lon="8.8531920">
        <ele>183.2700000</ele>
        <time>2009-05-03T14:38:46Z</time>
      </trkpt>
      <trkpt lat="45.5417600" lon="8.8532460">
        <ele>183.7500000</ele>
        <time>2009-05-03T14:38:47Z</time>
      </trkpt>
      <trkpt lat="45.5417420" lon="8.8533160">
        <ele>183.7500000</ele>
        <time>2009-05-03T14:38:48Z</time>
      </trkpt>
      <trkpt lat="45.5417320" lon="8.8533880">
        <ele>183.7500000</ele>
        <time>2009-05-03T14:38:49Z</time>
      </trkpt>
      <trkpt lat="45.5417140" lon="8.8534480">
        <ele>183.2700000</ele>
        <time>2009-05-03T14:38:50Z</time>
      </trkpt>
      <trkpt lat="45.5416860" lon="8.8535060">
        <ele>183.2700000</ele>
        <time>2009-05-03T14:38:51Z</time>
      </trkpt>
      <trkpt lat="45.5416650" lon="8.8535760">
        <ele>182.7900000</ele>
        <time>2009-05-03T14:38:52Z</time>
      </trkpt>
      <trkpt lat="45.5416580" lon="8.8536440">
        <ele>182.3100000</ele>
        <time>2009-05-03T14:38:53Z</time>
      </trkpt>
      <trkpt lat="45.5416390" lon="8.8538040">
        <ele>181.8300000</ele>
        <time>2009-05-03T14:38:55Z</time>
      </trkpt>
      <trkpt lat="45.5416110" lon="8.8538900">
        <ele>181.8300000</ele>
        <time>2009-05-03T14:38:56Z</time>
      </trkpt>
      <trkpt lat="45.5414370" lon="8.8544210">
        <ele>181.8300000</ele>
        <time>2009-05-03T14:39:03Z</time>
      </trkpt>
      <trkpt lat="45.5413610" lon="8.8546140">
        <ele>181.8300000</ele>
        <time>2009-05-03T14:39:06Z</time>
      </trkpt>
      <trkpt lat="45.5412680" lon="8.8548620">
        <ele>181.8300000</ele>
        <time>2009-05-03T14:39:10Z</time>
      </trkpt>
      <trkpt lat="45.5410330" lon="8.8556760">
        <ele>181.8300000</ele>
        <time>2009-05-03T14:39:22Z</time>
      </trkpt>
      <trkpt lat="45.5408510" lon="8.8565750">
        <ele>181.8300000</ele>
        <time>2009-05-03T14:39:34Z</time>
      </trkpt>
      <trkpt lat="45.5407660" lon="8.8570220">
        <ele>181.8300000</ele>
        <time>2009-05-03T14:39:40Z</time>
      </trkpt>
      <trkpt lat="45.5407320" lon="8.8571810">
        <ele>181.8300000</ele>
        <time>2009-05-03T14:39:42Z</time>
      </trkpt>
      <trkpt lat="45.5406500" lon="8.8577220">
        <ele>181.3500000</ele>
        <time>2009-05-03T14:39:49Z</time>
      </trkpt>
      <trkpt lat="45.5405750" lon="8.8587880">
        <ele>181.3500000</ele>
        <time>2009-05-03T14:40:04Z</time>
      </trkpt>
      <trkpt lat="45.5405300" lon="8.8592820">
        <ele>181.3500000</ele>
        <time>2009-05-03T14:40:10Z</time>
      </trkpt>
      <trkpt lat="45.5405190" lon="8.8595440">
        <ele>181.3500000</ele>
        <time>2009-05-03T14:40:13Z</time>
      </trkpt>
      <trkpt lat="45.5405290" lon="8.8596930">
        <ele>181.3500000</ele>
        <time>2009-05-03T14:40:15Z</time>
      </trkpt>
      <trkpt lat="45.5405080" lon="8.8599840">
        <ele>180.8700000</ele>
        <time>2009-05-03T14:40:19Z</time>
      </trkpt>
      <trkpt lat="45.5405140" lon="8.8602000">
        <ele>181.3500000</ele>
        <time>2009-05-03T14:40:22Z</time>
      </trkpt>
      <trkpt lat="45.5405200" lon="8.8602760">
        <ele>180.8700000</ele>
        <time>2009-05-03T14:40:23Z</time>
      </trkpt>
      <trkpt lat="45.5405280" lon="8.8603450">
        <ele>180.8700000</ele>
        <time>2009-05-03T14:40:24Z</time>
      </trkpt>
      <trkpt lat="45.5405300" lon="8.8604090">
        <ele>180.8700000</ele>
        <time>2009-05-03T14:40:25Z</time>
      </trkpt>
      <trkpt lat="45.5405260" lon="8.8604880">
        <ele>180.8700000</ele>
        <time>2009-05-03T14:40:26Z</time>
      </trkpt>
      <trkpt lat="45.5405400" lon="8.8607160">
        <ele>180.8700000</ele>
        <time>2009-05-03T14:40:29Z</time>
      </trkpt>
      <trkpt lat="45.5405530" lon="8.8607920">
        <ele>180.8700000</ele>
        <time>2009-05-03T14:40:30Z</time>
      </trkpt>
      <trkpt lat="45.5405830" lon="8.8613350">
        <ele>180.8700000</ele>
        <time>2009-05-03T14:40:37Z</time>
      </trkpt>
      <trkpt lat="45.5405940" lon="8.8614050">
        <ele>180.8700000</ele>
        <time>2009-05-03T14:40:38Z</time>
      </trkpt>
      <trkpt lat="45.5406170" lon="8.8616350">
        <ele>181.3500000</ele>
        <time>2009-05-03T14:40:41Z</time>
      </trkpt>
      <trkpt lat="45.5406230" lon="8.8617280">
        <ele>180.8700000</ele>
        <time>2009-05-03T14:40:42Z</time>
      </trkpt>
      <trkpt lat="45.5407190" lon="8.8627280">
        <ele>180.8700000</ele>
        <time>2009-05-03T14:40:55Z</time>
      </trkpt>
      <trkpt lat="45.5408330" lon="8.8637740">
        <ele>180.8700000</ele>
        <time>2009-05-03T14:41:08Z</time>
      </trkpt>
      <trkpt lat="45.5408440" lon="8.8638460">
        <ele>180.8700000</ele>
        <time>2009-05-03T14:41:09Z</time>
      </trkpt>
      <trkpt lat="45.5409110" lon="8.8645510">
        <ele>180.8700000</ele>
        <time>2009-05-03T14:41:17Z</time>
      </trkpt>
      <trkpt lat="45.5410050" lon="8.8652720">
        <ele>180.3800000</ele>
        <time>2009-05-03T14:41:26Z</time>
      </trkpt>
      <trkpt lat="45.5410160" lon="8.8654290">
        <ele>180.3800000</ele>
        <time>2009-05-03T14:41:28Z</time>
      </trkpt>
      <trkpt lat="45.5411580" lon="8.8668460">
        <ele>180.3800000</ele>
        <time>2009-05-03T14:41:45Z</time>
      </trkpt>
      <trkpt lat="45.5412770" lon="8.8680020">
        <ele>180.3800000</ele>
        <time>2009-05-03T14:41:59Z</time>
      </trkpt>
      <trkpt lat="45.5413040" lon="8.8681620">
        <ele>180.3800000</ele>
        <time>2009-05-03T14:42:01Z</time>
      </trkpt>
      <trkpt lat="45.5413160" lon="8.8682310">
        <ele>180.3800000</ele>
        <time>2009-05-03T14:42:02Z</time>
      </trkpt>
      <trkpt lat="45.5413410" lon="8.8684000">
        <ele>180.3800000</ele>
        <time>2009-05-03T14:42:04Z</time>
      </trkpt>
      <trkpt lat="45.5413440" lon="8.8684790">
        <ele>180.3800000</ele>
        <time>2009-05-03T14:42:05Z</time>
      </trkpt>
      <trkpt lat="45.5413480" lon="8.8685560">
        <ele>180.8700000</ele>
        <time>2009-05-03T14:42:06Z</time>
      </trkpt>
      <trkpt lat="45.5413570" lon="8.8686310">
        <ele>180.3800000</ele>
        <time>2009-05-03T14:42:07Z</time>
      </trkpt>
      <trkpt lat="45.5413660" lon="8.8687040">
        <ele>180.3800000</ele>
        <time>2009-05-03T14:42:08Z</time>
      </trkpt>
      <trkpt lat="45.5413890" lon="8.8688580">
        <ele>180.3800000</ele>
        <time>2009-05-03T14:42:10Z</time>
      </trkpt>
      <trkpt lat="45.5414350" lon="8.8697120">
        <ele>179.9000000</ele>
        <time>2009-05-03T14:42:22Z</time>
      </trkpt>
      <trkpt lat="45.5414540" lon="8.8698070">
        <ele>179.4200000</ele>
        <time>2009-05-03T14:42:23Z</time>
      </trkpt>
      <trkpt lat="45.5414630" lon="8.8698950">
        <ele>179.4200000</ele>
        <time>2009-05-03T14:42:24Z</time>
      </trkpt>
      <trkpt lat="45.5414750" lon="8.8699910">
        <ele>180.3800000</ele>
        <time>2009-05-03T14:42:25Z</time>
      </trkpt>
      <trkpt lat="45.5414860" lon="8.8700670">
        <ele>180.8700000</ele>
        <time>2009-05-03T14:42:26Z</time>
      </trkpt>
      <trkpt lat="45.5415380" lon="8.8706140">
        <ele>180.3800000</ele>
        <time>2009-05-03T14:42:33Z</time>
      </trkpt>
      <trkpt lat="45.5415760" lon="8.8710960">
        <ele>180.3800000</ele>
        <time>2009-05-03T14:42:39Z</time>
      </trkpt>
      <trkpt lat="45.5416040" lon="8.8719150">
        <ele>180.3800000</ele>
        <time>2009-05-03T14:42:49Z</time>
      </trkpt>
      <trkpt lat="45.5416220" lon="8.8720840">
        <ele>180.3800000</ele>
        <time>2009-05-03T14:42:51Z</time>
      </trkpt>
      <trkpt lat="45.5416270" lon="8.8723450">
        <ele>180.3800000</ele>
        <time>2009-05-03T14:42:54Z</time>
      </trkpt>
      <trkpt lat="45.5416460" lon="8.8725910">
        <ele>179.9000000</ele>
        <time>2009-05-03T14:42:57Z</time>
      </trkpt>
      <trkpt lat="45.5416530" lon="8.8726630">
        <ele>179.9000000</ele>
        <time>2009-05-03T14:42:58Z</time>
      </trkpt>
      <trkpt lat="45.5416580" lon="8.8727390">
        <ele>179.9000000</ele>
        <time>2009-05-03T14:42:59Z</time>
      </trkpt>
      <trkpt lat="45.5416620" lon="8.8728180">
        <ele>180.3800000</ele>
        <time>2009-05-03T14:43:00Z</time>
      </trkpt>
      <trkpt lat="45.5416610" lon="8.8728980">
        <ele>180.3800000</ele>
        <time>2009-05-03T14:43:01Z</time>
      </trkpt>
      <trkpt lat="45.5416660" lon="8.8734680">
        <ele>180.3800000</ele>
        <time>2009-05-03T14:43:07Z</time>
      </trkpt>
      <trkpt lat="45.5416780" lon="8.8735490">
        <ele>179.9000000</ele>
        <time>2009-05-03T14:43:08Z</time>
      </trkpt>
      <trkpt lat="45.5416810" lon="8.8736350">
        <ele>179.9000000</ele>
        <time>2009-05-03T14:43:09Z</time>
      </trkpt>
      <trkpt lat="45.5416860" lon="8.8739040">
        <ele>179.9000000</ele>
        <time>2009-05-03T14:43:12Z</time>
      </trkpt>
      <trkpt lat="45.5416880" lon="8.8740730">
        <ele>179.9000000</ele>
        <time>2009-05-03T14:43:14Z</time>
      </trkpt>
      <trkpt lat="45.5416910" lon="8.8741600">
        <ele>180.3800000</ele>
        <time>2009-05-03T14:43:15Z</time>
      </trkpt>
      <trkpt lat="45.5416830" lon="8.8744990">
        <ele>180.3800000</ele>
        <time>2009-05-03T14:43:19Z</time>
      </trkpt>
      <trkpt lat="45.5416690" lon="8.8745890">
        <ele>179.9000000</ele>
        <time>2009-05-03T14:43:20Z</time>
      </trkpt>
      <trkpt lat="45.5416620" lon="8.8746760">
        <ele>179.9000000</ele>
        <time>2009-05-03T14:43:21Z</time>
      </trkpt>
      <trkpt lat="45.5416710" lon="8.8751140">
        <ele>180.3800000</ele>
        <time>2009-05-03T14:43:26Z</time>
      </trkpt>
      <trkpt lat="45.5416670" lon="8.8752060">
        <ele>179.9000000</ele>
        <time>2009-05-03T14:43:27Z</time>
      </trkpt>
      <trkpt lat="45.5416380" lon="8.8763150">
        <ele>179.9000000</ele>
        <time>2009-05-03T14:43:39Z</time>
      </trkpt>
      <trkpt lat="45.5416250" lon="8.8767940">
        <ele>179.9000000</ele>
        <time>2009-05-03T14:43:45Z</time>
      </trkpt>
      <trkpt lat="45.5416180" lon="8.8768780">
        <ele>180.3800000</ele>
        <time>2009-05-03T14:43:46Z</time>
      </trkpt>
      <trkpt lat="45.5415700" lon="8.8776400">
        <ele>180.3800000</ele>
        <time>2009-05-03T14:43:54Z</time>
      </trkpt>
      <trkpt lat="45.5415450" lon="8.8777190">
        <ele>180.8700000</ele>
        <time>2009-05-03T14:43:55Z</time>
      </trkpt>
      <trkpt lat="45.5415180" lon="8.8777760">
        <ele>180.8700000</ele>
        <time>2009-05-03T14:43:56Z</time>
      </trkpt>
      <trkpt lat="45.5415020" lon="8.8778280">
        <ele>181.3500000</ele>
        <time>2009-05-03T14:43:57Z</time>
      </trkpt>
      <trkpt lat="45.5414860" lon="8.8778700">
        <ele>181.8300000</ele>
        <time>2009-05-03T14:43:58Z</time>
      </trkpt>
      <trkpt lat="45.5414770" lon="8.8779190">
        <ele>181.8300000</ele>
        <time>2009-05-03T14:43:59Z</time>
      </trkpt>
      <trkpt lat="45.5414690" lon="8.8779670">
        <ele>182.3100000</ele>
        <time>2009-05-03T14:44:00Z</time>
      </trkpt>
      <trkpt lat="45.5414650" lon="8.8780150">
        <ele>182.3100000</ele>
        <time>2009-05-03T14:44:01Z</time>
      </trkpt>
      <trkpt lat="45.5414630" lon="8.8780460">
        <ele>182.3100000</ele>
        <time>2009-05-03T14:44:02Z</time>
      </trkpt>
      <trkpt lat="45.5414680" lon="8.8780660">
        <ele>182.3100000</ele>
        <time>2009-05-03T14:44:03Z</time>
      </trkpt>
      <trkpt lat="45.5415160" lon="8.8781670">
        <ele>181.8300000</ele>
        <time>2009-05-03T14:44:08Z</time>
      </trkpt>
      <trkpt lat="45.5415190" lon="8.8781840">
        <ele>181.3500000</ele>
        <time>2009-05-03T14:44:09Z</time>
      </trkpt>
      <trkpt lat="45.5415260" lon="8.8782080">
        <ele>181.3500000</ele>
        <time>2009-05-03T14:44:10Z</time>
      </trkpt>
      <trkpt lat="45.5415300" lon="8.8782380">
        <ele>180.8700000</ele>
        <time>2009-05-03T14:44:11Z</time>
      </trkpt>
      <trkpt lat="45.5415360" lon="8.8782750">
        <ele>180.8700000</ele>
        <time>2009-05-03T14:44:12Z</time>
      </trkpt>
      <trkpt lat="45.5415360" lon="8.8783260">
        <ele>180.3800000</ele>
        <time>2009-05-03T14:44:13Z</time>
      </trkpt>
      <trkpt lat="45.5415190" lon="8.8783800">
        <ele>180.3800000</ele>
        <time>2009-05-03T14:44:14Z</time>
      </trkpt>
      <trkpt lat="45.5415010" lon="8.8784430">
        <ele>180.3800000</ele>
        <time>2009-05-03T14:44:15Z</time>
      </trkpt>
      <trkpt lat="45.5415120" lon="8.8790090">
        <ele>180.3800000</ele>
        <time>2009-05-03T14:44:26Z</time>
      </trkpt>
      <trkpt lat="45.5414840" lon="8.8796000">
        <ele>179.9000000</ele>
        <time>2009-05-03T14:44:36Z</time>
      </trkpt>
      <trkpt lat="45.5414670" lon="8.8801870">
        <ele>179.9000000</ele>
        <time>2009-05-03T14:44:44Z</time>
      </trkpt>
      <trkpt lat="45.5414440" lon="8.8802490">
        <ele>179.9000000</ele>
        <time>2009-05-03T14:44:45Z</time>
      </trkpt>
      <trkpt lat="45.5413580" lon="8.8808370">
        <ele>179.9000000</ele>
        <time>2009-05-03T14:44:51Z</time>
      </trkpt>
      <trkpt lat="45.5413220" lon="8.8810610">
        <ele>179.9000000</ele>
        <time>2009-05-03T14:44:54Z</time>
      </trkpt>
      <trkpt lat="45.5413020" lon="8.8811470">
        <ele>179.9000000</ele>
        <time>2009-05-03T14:44:55Z</time>
      </trkpt>
      <trkpt lat="45.5413280" lon="8.8811950">
        <ele>179.4200000</ele>
        <time>2009-05-03T14:44:56Z</time>
      </trkpt>
      <trkpt lat="45.5413100" lon="8.8813030">
        <ele>179.4200000</ele>
        <time>2009-05-03T14:44:57Z</time>
      </trkpt>
      <trkpt lat="45.5413070" lon="8.8813820">
        <ele>179.4200000</ele>
        <time>2009-05-03T14:44:58Z</time>
      </trkpt>
      <trkpt lat="45.5413020" lon="8.8814440">
        <ele>179.4200000</ele>
        <time>2009-05-03T14:44:59Z</time>
      </trkpt>
      <trkpt lat="45.5412940" lon="8.8815040">
        <ele>179.4200000</ele>
        <time>2009-05-03T14:45:00Z</time>
      </trkpt>
      <trkpt lat="45.5412940" lon="8.8815570">
        <ele>179.4200000</ele>
        <time>2009-05-03T14:45:01Z</time>
      </trkpt>
      <trkpt lat="45.5412620" lon="8.8818520">
        <ele>178.9400000</ele>
        <time>2009-05-03T14:45:04Z</time>
      </trkpt>
      <trkpt lat="45.5412510" lon="8.8819340">
        <ele>179.9000000</ele>
        <time>2009-05-03T14:45:05Z</time>
      </trkpt>
      <trkpt lat="45.5412150" lon="8.8821650">
        <ele>180.3800000</ele>
        <time>2009-05-03T14:45:07Z</time>
      </trkpt>
      <trkpt lat="45.5411950" lon="8.8822610">
        <ele>179.9000000</ele>
        <time>2009-05-03T14:45:08Z</time>
      </trkpt>
      <trkpt lat="45.5411780" lon="8.8823790">
        <ele>179.4200000</ele>
        <time>2009-05-03T14:45:09Z</time>
      </trkpt>
      <trkpt lat="45.5411860" lon="8.8824690">
        <ele>179.9000000</ele>
        <time>2009-05-03T14:45:10Z</time>
      </trkpt>
      <trkpt lat="45.5411840" lon="8.8825680">
        <ele>179.9000000</ele>
        <time>2009-05-03T14:45:11Z</time>
      </trkpt>
      <trkpt lat="45.5411190" lon="8.8832670">
        <ele>179.9000000</ele>
        <time>2009-05-03T14:45:19Z</time>
      </trkpt>
      <trkpt lat="45.5410890" lon="8.8839730">
        <ele>179.4200000</ele>
        <time>2009-05-03T14:45:29Z</time>
      </trkpt>
      <trkpt lat="45.5410860" lon="8.8840490">
        <ele>179.4200000</ele>
        <time>2009-05-03T14:45:30Z</time>
      </trkpt>
      <trkpt lat="45.5410950" lon="8.8841160">
        <ele>179.4200000</ele>
        <time>2009-05-03T14:45:31Z</time>
      </trkpt>
      <trkpt lat="45.5411020" lon="8.8841880">
        <ele>179.4200000</ele>
        <time>2009-05-03T14:45:32Z</time>
      </trkpt>
      <trkpt lat="45.5411060" lon="8.8842550">
        <ele>179.4200000</ele>
        <time>2009-05-03T14:45:33Z</time>
      </trkpt>
      <trkpt lat="45.5411130" lon="8.8843260">
        <ele>179.4200000</ele>
        <time>2009-05-03T14:45:34Z</time>
      </trkpt>
      <trkpt lat="45.5411310" lon="8.8845380">
        <ele>179.4200000</ele>
        <time>2009-05-03T14:45:37Z</time>
      </trkpt>
      <trkpt lat="45.5411260" lon="8.8846140">
        <ele>179.4200000</ele>
        <time>2009-05-03T14:45:38Z</time>
      </trkpt>
      <trkpt lat="45.5411330" lon="8.8846980">
        <ele>179.4200000</ele>
        <time>2009-05-03T14:45:39Z</time>
      </trkpt>
      <trkpt lat="45.5411320" lon="8.8847690">
        <ele>179.4200000</ele>
        <time>2009-05-03T14:45:40Z</time>
      </trkpt>
      <trkpt lat="45.5411360" lon="8.8848450">
        <ele>179.4200000</ele>
        <time>2009-05-03T14:45:41Z</time>
      </trkpt>
      <trkpt lat="45.5411390" lon="8.8849340">
        <ele>179.4200000</ele>
        <time>2009-05-03T14:45:42Z</time>
      </trkpt>
      <trkpt lat="45.5411670" lon="8.8851000">
        <ele>179.4200000</ele>
        <time>2009-05-03T14:45:44Z</time>
      </trkpt>
      <trkpt lat="45.5411720" lon="8.8851770">
        <ele>179.4200000</ele>
        <time>2009-05-03T14:45:45Z</time>
      </trkpt>
      <trkpt lat="45.5412250" lon="8.8858040">
        <ele>178.9400000</ele>
        <time>2009-05-03T14:45:53Z</time>
      </trkpt>
      <trkpt lat="45.5412610" lon="8.8859580">
        <ele>179.4200000</ele>
        <time>2009-05-03T14:45:55Z</time>
      </trkpt>
      <trkpt lat="45.5413470" lon="8.8865470">
        <ele>178.9400000</ele>
        <time>2009-05-03T14:46:03Z</time>
      </trkpt>
      <trkpt lat="45.5413580" lon="8.8866120">
        <ele>179.4200000</ele>
        <time>2009-05-03T14:46:04Z</time>
      </trkpt>
      <trkpt lat="45.5413710" lon="8.8866750">
        <ele>179.4200000</ele>
        <time>2009-05-03T14:46:05Z</time>
      </trkpt>
      <trkpt lat="45.5413780" lon="8.8867520">
        <ele>179.4200000</ele>
        <time>2009-05-03T14:46:06Z</time>
      </trkpt>
      <trkpt lat="45.5413840" lon="8.8868320">
        <ele>179.4200000</ele>
        <time>2009-05-03T14:46:07Z</time>
      </trkpt>
      <trkpt lat="45.5414000" lon="8.8869040">
        <ele>179.4200000</ele>
        <time>2009-05-03T14:46:08Z</time>
      </trkpt>
      <trkpt lat="45.5414080" lon="8.8869880">
        <ele>179.4200000</ele>
        <time>2009-05-03T14:46:09Z</time>
      </trkpt>
      <trkpt lat="45.5415550" lon="8.8877830">
        <ele>178.9400000</ele>
        <time>2009-05-03T14:46:19Z</time>
      </trkpt>
      <trkpt lat="45.5416070" lon="8.8881560">
        <ele>178.9400000</ele>
        <time>2009-05-03T14:46:24Z</time>
      </trkpt>
      <trkpt lat="45.5418290" lon="8.8892810">
        <ele>178.9400000</ele>
        <time>2009-05-03T14:46:39Z</time>
      </trkpt>
      <trkpt lat="45.5418710" lon="8.8899000">
        <ele>180.3800000</ele>
        <time>2009-05-03T14:46:49Z</time>
      </trkpt>
      <trkpt lat="45.5418770" lon="8.8899190">
        <ele>180.3800000</ele>
        <time>2009-05-03T14:46:50Z</time>
      </trkpt>
      <trkpt lat="45.5418890" lon="8.8900190">
        <ele>180.8700000</ele>
        <time>2009-05-03T14:46:56Z</time>
      </trkpt>
      <trkpt lat="45.5418920" lon="8.8900430">
        <ele>180.3800000</ele>
        <time>2009-05-03T14:46:57Z</time>
      </trkpt>
      <trkpt lat="45.5418970" lon="8.8900670">
        <ele>180.3800000</ele>
        <time>2009-05-03T14:46:58Z</time>
      </trkpt>
      <trkpt lat="45.5419990" lon="8.8902910">
        <ele>179.4200000</ele>
        <time>2009-05-03T14:47:03Z</time>
      </trkpt>
      <trkpt lat="45.5420450" lon="8.8904180">
        <ele>178.9400000</ele>
        <time>2009-05-03T14:47:05Z</time>
      </trkpt>
      <trkpt lat="45.5420560" lon="8.8905010">
        <ele>178.9400000</ele>
        <time>2009-05-03T14:47:06Z</time>
      </trkpt>
      <trkpt lat="45.5420800" lon="8.8906590">
        <ele>178.4600000</ele>
        <time>2009-05-03T14:47:08Z</time>
      </trkpt>
      <trkpt lat="45.5420870" lon="8.8907530">
        <ele>178.4600000</ele>
        <time>2009-05-03T14:47:09Z</time>
      </trkpt>
      <trkpt lat="45.5420990" lon="8.8909210">
        <ele>178.4600000</ele>
        <time>2009-05-03T14:47:11Z</time>
      </trkpt>
      <trkpt lat="45.5420980" lon="8.8910150">
        <ele>178.9400000</ele>
        <time>2009-05-03T14:47:12Z</time>
      </trkpt>
      <trkpt lat="45.5421000" lon="8.8910870">
        <ele>178.9400000</ele>
        <time>2009-05-03T14:47:13Z</time>
      </trkpt>
      <trkpt lat="45.5420970" lon="8.8911760">
        <ele>179.4200000</ele>
        <time>2009-05-03T14:47:14Z</time>
      </trkpt>
      <trkpt lat="45.5420990" lon="8.8912640">
        <ele>178.9400000</ele>
        <time>2009-05-03T14:47:15Z</time>
      </trkpt>
      <trkpt lat="45.5421020" lon="8.8913330">
        <ele>178.9400000</ele>
        <time>2009-05-03T14:47:16Z</time>
      </trkpt>
      <trkpt lat="45.5421070" lon="8.8914040">
        <ele>178.9400000</ele>
        <time>2009-05-03T14:47:17Z</time>
      </trkpt>
      <trkpt lat="45.5421220" lon="8.8918950">
        <ele>178.4600000</ele>
        <time>2009-05-03T14:47:23Z</time>
      </trkpt>
      <trkpt lat="45.5420120" lon="8.8928120">
        <ele>178.4600000</ele>
        <time>2009-05-03T14:47:34Z</time>
      </trkpt>
      <trkpt lat="45.5419080" lon="8.8933570">
        <ele>178.4600000</ele>
        <time>2009-05-03T14:47:41Z</time>
      </trkpt>
      <trkpt lat="45.5419030" lon="8.8934380">
        <ele>178.4600000</ele>
        <time>2009-05-03T14:47:42Z</time>
      </trkpt>
      <trkpt lat="45.5418890" lon="8.8935260">
        <ele>178.9400000</ele>
        <time>2009-05-03T14:47:43Z</time>
      </trkpt>
      <trkpt lat="45.5418680" lon="8.8936090">
        <ele>178.9400000</ele>
        <time>2009-05-03T14:47:44Z</time>
      </trkpt>
      <trkpt lat="45.5418500" lon="8.8936970">
        <ele>178.9400000</ele>
        <time>2009-05-03T14:47:45Z</time>
      </trkpt>
      <trkpt lat="45.5418070" lon="8.8938650">
        <ele>178.4600000</ele>
        <time>2009-05-03T14:47:47Z</time>
      </trkpt>
      <trkpt lat="45.5416090" lon="8.8949040">
        <ele>177.9800000</ele>
        <time>2009-05-03T14:48:00Z</time>
      </trkpt>
      <trkpt lat="45.5414650" lon="8.8956330">
        <ele>177.9800000</ele>
        <time>2009-05-03T14:48:09Z</time>
      </trkpt>
      <trkpt lat="45.5414100" lon="8.8959450">
        <ele>177.9800000</ele>
        <time>2009-05-03T14:48:13Z</time>
      </trkpt>
      <trkpt lat="45.5413780" lon="8.8960380">
        <ele>177.9800000</ele>
        <time>2009-05-03T14:48:14Z</time>
      </trkpt>
      <trkpt lat="45.5413230" lon="8.8964290">
        <ele>177.9800000</ele>
        <time>2009-05-03T14:48:19Z</time>
      </trkpt>
      <trkpt lat="45.5412400" lon="8.8967820">
        <ele>177.9800000</ele>
        <time>2009-05-03T14:48:25Z</time>
      </trkpt>
      <trkpt lat="45.5411600" lon="8.8971080">
        <ele>177.9800000</ele>
        <time>2009-05-03T14:48:30Z</time>
      </trkpt>
      <trkpt lat="45.5411540" lon="8.8971760">
        <ele>177.9800000</ele>
        <time>2009-05-03T14:48:31Z</time>
      </trkpt>
      <trkpt lat="45.5411590" lon="8.8972310">
        <ele>177.9800000</ele>
        <time>2009-05-03T14:48:32Z</time>
      </trkpt>
      <trkpt lat="45.5411440" lon="8.8974360">
        <ele>176.5400000</ele>
        <time>2009-05-03T14:48:38Z</time>
      </trkpt>
      <trkpt lat="45.5411530" lon="8.8974890">
        <ele>176.5400000</ele>
        <time>2009-05-03T14:48:39Z</time>
      </trkpt>
      <trkpt lat="45.5411950" lon="8.8975340">
        <ele>176.0600000</ele>
        <time>2009-05-03T14:48:40Z</time>
      </trkpt>
      <trkpt lat="45.5412330" lon="8.8975800">
        <ele>176.0600000</ele>
        <time>2009-05-03T14:48:41Z</time>
      </trkpt>
      <trkpt lat="45.5411660" lon="8.8976720">
        <ele>176.5400000</ele>
        <time>2009-05-03T14:48:42Z</time>
      </trkpt>
      <trkpt lat="45.5410660" lon="8.8978150">
        <ele>176.5400000</ele>
        <time>2009-05-03T14:48:43Z</time>
      </trkpt>
      <trkpt lat="45.5410120" lon="8.8979250">
        <ele>176.5400000</ele>
        <time>2009-05-03T14:48:44Z</time>
      </trkpt>
      <trkpt lat="45.5410110" lon="8.8979860">
        <ele>177.0200000</ele>
        <time>2009-05-03T14:48:45Z</time>
      </trkpt>
      <trkpt lat="45.5409550" lon="8.8984470">
        <ele>177.9800000</ele>
        <time>2009-05-03T14:48:53Z</time>
      </trkpt>
      <trkpt lat="45.5408930" lon="8.8990430">
        <ele>177.5000000</ele>
        <time>2009-05-03T14:49:03Z</time>
      </trkpt>
      <trkpt lat="45.5408500" lon="8.8995330">
        <ele>177.5000000</ele>
        <time>2009-05-03T14:49:11Z</time>
      </trkpt>
      <trkpt lat="45.5408400" lon="8.8995950">
        <ele>177.5000000</ele>
        <time>2009-05-03T14:49:12Z</time>
      </trkpt>
      <trkpt lat="45.5408270" lon="8.8997820">
        <ele>177.5000000</ele>
        <time>2009-05-03T14:49:15Z</time>
      </trkpt>
      <trkpt lat="45.5408250" lon="8.8998450">
        <ele>177.5000000</ele>
        <time>2009-05-03T14:49:16Z</time>
      </trkpt>
      <trkpt lat="45.5408220" lon="8.8999140">
        <ele>177.9800000</ele>
        <time>2009-05-03T14:49:17Z</time>
      </trkpt>
      <trkpt lat="45.5408210" lon="8.8999810">
        <ele>177.9800000</ele>
        <time>2009-05-03T14:49:18Z</time>
      </trkpt>
      <trkpt lat="45.5408200" lon="8.9000440">
        <ele>177.5000000</ele>
        <time>2009-05-03T14:49:19Z</time>
      </trkpt>
      <trkpt lat="45.5408090" lon="8.9001140">
        <ele>177.5000000</ele>
        <time>2009-05-03T14:49:20Z</time>
      </trkpt>
      <trkpt lat="45.5407980" lon="8.9001900">
        <ele>177.9800000</ele>
        <time>2009-05-03T14:49:21Z</time>
      </trkpt>
      <trkpt lat="45.5407890" lon="8.9002680">
        <ele>177.5000000</ele>
        <time>2009-05-03T14:49:22Z</time>
      </trkpt>
      <trkpt lat="45.5407860" lon="8.9003370">
        <ele>177.9800000</ele>
        <time>2009-05-03T14:49:23Z</time>
      </trkpt>
      <trkpt lat="45.5407730" lon="8.9004870">
        <ele>177.9800000</ele>
        <time>2009-05-03T14:49:25Z</time>
      </trkpt>
      <trkpt lat="45.5407640" lon="8.9006410">
        <ele>177.5000000</ele>
        <time>2009-05-03T14:49:27Z</time>
      </trkpt>
      <trkpt lat="45.5407490" lon="8.9007270">
        <ele>177.9800000</ele>
        <time>2009-05-03T14:49:28Z</time>
      </trkpt>
      <trkpt lat="45.5407370" lon="8.9008700">
        <ele>177.9800000</ele>
        <time>2009-05-03T14:49:30Z</time>
      </trkpt>
      <trkpt lat="45.5407320" lon="8.9009440">
        <ele>177.9800000</ele>
        <time>2009-05-03T14:49:31Z</time>
      </trkpt>
      <trkpt lat="45.5407280" lon="8.9010240">
        <ele>177.5000000</ele>
        <time>2009-05-03T14:49:32Z</time>
      </trkpt>
      <trkpt lat="45.5407000" lon="8.9012420">
        <ele>177.9800000</ele>
        <time>2009-05-03T14:49:35Z</time>
      </trkpt>
      <trkpt lat="45.5406820" lon="8.9013190">
        <ele>177.9800000</ele>
        <time>2009-05-03T14:49:36Z</time>
      </trkpt>
      <trkpt lat="45.5406680" lon="8.9014010">
        <ele>177.9800000</ele>
        <time>2009-05-03T14:49:37Z</time>
      </trkpt>
      <trkpt lat="45.5406360" lon="8.9015820">
        <ele>177.9800000</ele>
        <time>2009-05-03T14:49:39Z</time>
      </trkpt>
      <trkpt lat="45.5406260" lon="8.9016640">
        <ele>177.9800000</ele>
        <time>2009-05-03T14:49:40Z</time>
      </trkpt>
      <trkpt lat="45.5406210" lon="8.9018160">
        <ele>177.9800000</ele>
        <time>2009-05-03T14:49:42Z</time>
      </trkpt>
      <trkpt lat="45.5406280" lon="8.9018860">
        <ele>177.9800000</ele>
        <time>2009-05-03T14:49:43Z</time>
      </trkpt>
      <trkpt lat="45.5406210" lon="8.9019650">
        <ele>177.9800000</ele>
        <time>2009-05-03T14:49:44Z</time>
      </trkpt>
      <trkpt lat="45.5406150" lon="8.9020450">
        <ele>177.9800000</ele>
        <time>2009-05-03T14:49:45Z</time>
      </trkpt>
      <trkpt lat="45.5406120" lon="8.9021150">
        <ele>177.9800000</ele>
        <time>2009-05-03T14:49:46Z</time>
      </trkpt>
      <trkpt lat="45.5405370" lon="8.9029170">
        <ele>177.5000000</ele>
        <time>2009-05-03T14:49:57Z</time>
      </trkpt>
      <trkpt lat="45.5405400" lon="8.9029860">
        <ele>177.5000000</ele>
        <time>2009-05-03T14:49:58Z</time>
      </trkpt>
      <trkpt lat="45.5405210" lon="8.9030710">
        <ele>177.5000000</ele>
        <time>2009-05-03T14:49:59Z</time>
      </trkpt>
      <trkpt lat="45.5404610" lon="8.9034700">
        <ele>177.5000000</ele>
        <time>2009-05-03T14:50:04Z</time>
      </trkpt>
      <trkpt lat="45.5404910" lon="8.9037800">
        <ele>177.0200000</ele>
        <time>2009-05-03T14:50:08Z</time>
      </trkpt>
      <trkpt lat="45.5404710" lon="8.9040310">
        <ele>177.5000000</ele>
        <time>2009-05-03T14:50:11Z</time>
      </trkpt>
      <trkpt lat="45.5404780" lon="8.9041100">
        <ele>177.5000000</ele>
        <time>2009-05-03T14:50:12Z</time>
      </trkpt>
      <trkpt lat="45.5405650" lon="8.9051640">
        <ele>177.5000000</ele>
        <time>2009-05-03T14:50:25Z</time>
      </trkpt>
      <trkpt lat="45.5407460" lon="8.9061010">
        <ele>177.0200000</ele>
        <time>2009-05-03T14:50:37Z</time>
      </trkpt>
      <trkpt lat="45.5409730" lon="8.9068410">
        <ele>177.5000000</ele>
        <time>2009-05-03T14:50:47Z</time>
      </trkpt>
      <trkpt lat="45.5413180" lon="8.9079360">
        <ele>177.0200000</ele>
        <time>2009-05-03T14:51:02Z</time>
      </trkpt>
      <trkpt lat="45.5414820" lon="8.9084850">
        <ele>177.0200000</ele>
        <time>2009-05-03T14:51:09Z</time>
      </trkpt>
      <trkpt lat="45.5415060" lon="8.9085770">
        <ele>177.0200000</ele>
        <time>2009-05-03T14:51:10Z</time>
      </trkpt>
      <trkpt lat="45.5415260" lon="8.9086470">
        <ele>177.0200000</ele>
        <time>2009-05-03T14:51:11Z</time>
      </trkpt>
      <trkpt lat="45.5416040" lon="8.9088660">
        <ele>177.5000000</ele>
        <time>2009-05-03T14:51:14Z</time>
      </trkpt>
      <trkpt lat="45.5416400" lon="8.9090040">
        <ele>177.0200000</ele>
        <time>2009-05-03T14:51:16Z</time>
      </trkpt>
      <trkpt lat="45.5416740" lon="8.9090660">
        <ele>177.0200000</ele>
        <time>2009-05-03T14:51:17Z</time>
      </trkpt>
      <trkpt lat="45.5416980" lon="8.9091360">
        <ele>177.0200000</ele>
        <time>2009-05-03T14:51:18Z</time>
      </trkpt>
      <trkpt lat="45.5417220" lon="8.9092020">
        <ele>177.0200000</ele>
        <time>2009-05-03T14:51:19Z</time>
      </trkpt>
      <trkpt lat="45.5417490" lon="8.9092730">
        <ele>177.0200000</ele>
        <time>2009-05-03T14:51:20Z</time>
      </trkpt>
      <trkpt lat="45.5417720" lon="8.9093510">
        <ele>177.0200000</ele>
        <time>2009-05-03T14:51:21Z</time>
      </trkpt>
      <trkpt lat="45.5417880" lon="8.9094420">
        <ele>177.0200000</ele>
        <time>2009-05-03T14:51:22Z</time>
      </trkpt>
      <trkpt lat="45.5418070" lon="8.9095110">
        <ele>177.0200000</ele>
        <time>2009-05-03T14:51:23Z</time>
      </trkpt>
      <trkpt lat="45.5419610" lon="8.9100460">
        <ele>177.0200000</ele>
        <time>2009-05-03T14:51:30Z</time>
      </trkpt>
      <trkpt lat="45.5419800" lon="8.9101250">
        <ele>177.0200000</ele>
        <time>2009-05-03T14:51:31Z</time>
      </trkpt>
      <trkpt lat="45.5420020" lon="8.9101950">
        <ele>177.0200000</ele>
        <time>2009-05-03T14:51:32Z</time>
      </trkpt>
      <trkpt lat="45.5420320" lon="8.9102640">
        <ele>176.5400000</ele>
        <time>2009-05-03T14:51:33Z</time>
      </trkpt>
      <trkpt lat="45.5420580" lon="8.9103370">
        <ele>177.0200000</ele>
        <time>2009-05-03T14:51:34Z</time>
      </trkpt>
      <trkpt lat="45.5420970" lon="8.9104040">
        <ele>176.5400000</ele>
        <time>2009-05-03T14:51:35Z</time>
      </trkpt>
      <trkpt lat="45.5421220" lon="8.9104780">
        <ele>176.5400000</ele>
        <time>2009-05-03T14:51:36Z</time>
      </trkpt>
      <trkpt lat="45.5421390" lon="8.9105630">
        <ele>176.5400000</ele>
        <time>2009-05-03T14:51:37Z</time>
      </trkpt>
      <trkpt lat="45.5421700" lon="8.9107250">
        <ele>177.0200000</ele>
        <time>2009-05-03T14:51:39Z</time>
      </trkpt>
      <trkpt lat="45.5422120" lon="8.9108720">
        <ele>177.0200000</ele>
        <time>2009-05-03T14:51:41Z</time>
      </trkpt>
      <trkpt lat="45.5422500" lon="8.9109440">
        <ele>176.5400000</ele>
        <time>2009-05-03T14:51:42Z</time>
      </trkpt>
      <trkpt lat="45.5425540" lon="8.9120070">
        <ele>177.0200000</ele>
        <time>2009-05-03T14:51:55Z</time>
      </trkpt>
      <trkpt lat="45.5426220" lon="8.9123460">
        <ele>176.5400000</ele>
        <time>2009-05-03T14:52:01Z</time>
      </trkpt>
      <trkpt lat="45.5426350" lon="8.9124070">
        <ele>176.5400000</ele>
        <time>2009-05-03T14:52:02Z</time>
      </trkpt>
      <trkpt lat="45.5426530" lon="8.9124760">
        <ele>176.5400000</ele>
        <time>2009-05-03T14:52:03Z</time>
      </trkpt>
      <trkpt lat="45.5426800" lon="8.9126070">
        <ele>177.0200000</ele>
        <time>2009-05-03T14:52:05Z</time>
      </trkpt>
      <trkpt lat="45.5427060" lon="8.9127320">
        <ele>177.0200000</ele>
        <time>2009-05-03T14:52:07Z</time>
      </trkpt>
      <trkpt lat="45.5427100" lon="8.9128100">
        <ele>177.0200000</ele>
        <time>2009-05-03T14:52:08Z</time>
      </trkpt>
      <trkpt lat="45.5427130" lon="8.9129560">
        <ele>177.0200000</ele>
        <time>2009-05-03T14:52:10Z</time>
      </trkpt>
      <trkpt lat="45.5427120" lon="8.9131090">
        <ele>176.5400000</ele>
        <time>2009-05-03T14:52:12Z</time>
      </trkpt>
      <trkpt lat="45.5427090" lon="8.9132730">
        <ele>176.5400000</ele>
        <time>2009-05-03T14:52:14Z</time>
      </trkpt>
      <trkpt lat="45.5426990" lon="8.9133660">
        <ele>176.5400000</ele>
        <time>2009-05-03T14:52:15Z</time>
      </trkpt>
      <trkpt lat="45.5426670" lon="8.9137500">
        <ele>176.5400000</ele>
        <time>2009-05-03T14:52:20Z</time>
      </trkpt>
      <trkpt lat="45.5426280" lon="8.9139700">
        <ele>176.5400000</ele>
        <time>2009-05-03T14:52:23Z</time>
      </trkpt>
      <trkpt lat="45.5426090" lon="8.9140510">
        <ele>176.5400000</ele>
        <time>2009-05-03T14:52:24Z</time>
      </trkpt>
      <trkpt lat="45.5424150" lon="8.9149270">
        <ele>176.5400000</ele>
        <time>2009-05-03T14:52:35Z</time>
      </trkpt>
      <trkpt lat="45.5424040" lon="8.9150020">
        <ele>176.5400000</ele>
        <time>2009-05-03T14:52:36Z</time>
      </trkpt>
      <trkpt lat="45.5423540" lon="8.9153640">
        <ele>176.5400000</ele>
        <time>2009-05-03T14:52:40Z</time>
      </trkpt>
      <trkpt lat="45.5423370" lon="8.9154530">
        <ele>176.0600000</ele>
        <time>2009-05-03T14:52:41Z</time>
      </trkpt>
      <trkpt lat="45.5420520" lon="8.9167220">
        <ele>176.0600000</ele>
        <time>2009-05-03T14:52:56Z</time>
      </trkpt>
      <trkpt lat="45.5420230" lon="8.9168940">
        <ele>176.0600000</ele>
        <time>2009-05-03T14:52:58Z</time>
      </trkpt>
      <trkpt lat="45.5419470" lon="8.9171720">
        <ele>176.0600000</ele>
        <time>2009-05-03T14:53:02Z</time>
      </trkpt>
      <trkpt lat="45.5419350" lon="8.9172460">
        <ele>176.0600000</ele>
        <time>2009-05-03T14:53:03Z</time>
      </trkpt>
      <trkpt lat="45.5419250" lon="8.9173290">
        <ele>176.0600000</ele>
        <time>2009-05-03T14:53:04Z</time>
      </trkpt>
      <trkpt lat="45.5419120" lon="8.9174060">
        <ele>176.0600000</ele>
        <time>2009-05-03T14:53:05Z</time>
      </trkpt>
      <trkpt lat="45.5418940" lon="8.9174910">
        <ele>176.0600000</ele>
        <time>2009-05-03T14:53:06Z</time>
      </trkpt>
      <trkpt lat="45.5418240" lon="8.9180140">
        <ele>176.0600000</ele>
        <time>2009-05-03T14:53:12Z</time>
      </trkpt>
      <trkpt lat="45.5418180" lon="8.9180990">
        <ele>176.0600000</ele>
        <time>2009-05-03T14:53:13Z</time>
      </trkpt>
      <trkpt lat="45.5418070" lon="8.9181840">
        <ele>176.0600000</ele>
        <time>2009-05-03T14:53:14Z</time>
      </trkpt>
      <trkpt lat="45.5417660" lon="8.9185400">
        <ele>176.0600000</ele>
        <time>2009-05-03T14:53:18Z</time>
      </trkpt>
      <trkpt lat="45.5417510" lon="8.9187200">
        <ele>175.5800000</ele>
        <time>2009-05-03T14:53:20Z</time>
      </trkpt>
      <trkpt lat="45.5417540" lon="8.9188050">
        <ele>175.5800000</ele>
        <time>2009-05-03T14:53:21Z</time>
      </trkpt>
      <trkpt lat="45.5417460" lon="8.9189540">
        <ele>176.0600000</ele>
        <time>2009-05-03T14:53:23Z</time>
      </trkpt>
      <trkpt lat="45.5417290" lon="8.9197370">
        <ele>176.0600000</ele>
        <time>2009-05-03T14:53:32Z</time>
      </trkpt>
      <trkpt lat="45.5417340" lon="8.9198200">
        <ele>175.5800000</ele>
        <time>2009-05-03T14:53:33Z</time>
      </trkpt>
      <trkpt lat="45.5417650" lon="8.9205170">
        <ele>176.0600000</ele>
        <time>2009-05-03T14:53:42Z</time>
      </trkpt>
      <trkpt lat="45.5417480" lon="8.9208340">
        <ele>176.0600000</ele>
        <time>2009-05-03T14:53:46Z</time>
      </trkpt>
      <trkpt lat="45.5417900" lon="8.9219880">
        <ele>176.0600000</ele>
        <time>2009-05-03T14:54:00Z</time>
      </trkpt>
      <trkpt lat="45.5417850" lon="8.9223280">
        <ele>175.5800000</ele>
        <time>2009-05-03T14:54:04Z</time>
      </trkpt>
      <trkpt lat="45.5417790" lon="8.9224090">
        <ele>175.5800000</ele>
        <time>2009-05-03T14:54:05Z</time>
      </trkpt>
      <trkpt lat="45.5418180" lon="8.9234800">
        <ele>175.5800000</ele>
        <time>2009-05-03T14:54:19Z</time>
      </trkpt>
      <trkpt lat="45.5418230" lon="8.9243680">
        <ele>175.5800000</ele>
        <time>2009-05-03T14:54:30Z</time>
      </trkpt>
      <trkpt lat="45.5418070" lon="8.9244390">
        <ele>175.5800000</ele>
        <time>2009-05-03T14:54:31Z</time>
      </trkpt>
      <trkpt lat="45.5417900" lon="8.9245010">
        <ele>176.0600000</ele>
        <time>2009-05-03T14:54:32Z</time>
      </trkpt>
      <trkpt lat="45.5417730" lon="8.9245510">
        <ele>176.5400000</ele>
        <time>2009-05-03T14:54:33Z</time>
      </trkpt>
      <trkpt lat="45.5417450" lon="8.9245940">
        <ele>176.5400000</ele>
        <time>2009-05-03T14:54:34Z</time>
      </trkpt>
      <trkpt lat="45.5417290" lon="8.9246210">
        <ele>176.5400000</ele>
        <time>2009-05-03T14:54:35Z</time>
      </trkpt>
      <trkpt lat="45.5417260" lon="8.9246440">
        <ele>177.0200000</ele>
        <time>2009-05-03T14:54:36Z</time>
      </trkpt>
      <trkpt lat="45.5417240" lon="8.9246690">
        <ele>177.0200000</ele>
        <time>2009-05-03T14:54:37Z</time>
      </trkpt>
      <trkpt lat="45.5417360" lon="8.9246950">
        <ele>177.0200000</ele>
        <time>2009-05-03T14:54:38Z</time>
      </trkpt>
      <trkpt lat="45.5417580" lon="8.9247220">
        <ele>176.5400000</ele>
        <time>2009-05-03T14:54:39Z</time>
      </trkpt>
      <trkpt lat="45.5417930" lon="8.9247600">
        <ele>176.5400000</ele>
        <time>2009-05-03T14:54:40Z</time>
      </trkpt>
      <trkpt lat="45.5418140" lon="8.9248200">
        <ele>176.0600000</ele>
        <time>2009-05-03T14:54:41Z</time>
      </trkpt>
      <trkpt lat="45.5418300" lon="8.9248830">
        <ele>175.5800000</ele>
        <time>2009-05-03T14:54:42Z</time>
      </trkpt>
      <trkpt lat="45.5418440" lon="8.9249490">
        <ele>175.5800000</ele>
        <time>2009-05-03T14:54:43Z</time>
      </trkpt>
      <trkpt lat="45.5418780" lon="8.9256510">
        <ele>175.1000000</ele>
        <time>2009-05-03T14:54:55Z</time>
      </trkpt>
      <trkpt lat="45.5418860" lon="8.9259680">
        <ele>175.5800000</ele>
        <time>2009-05-03T14:55:00Z</time>
      </trkpt>
      <trkpt lat="45.5418980" lon="8.9260320">
        <ele>175.5800000</ele>
        <time>2009-05-03T14:55:01Z</time>
      </trkpt>
      <trkpt lat="45.5419080" lon="8.9260950">
        <ele>175.5800000</ele>
        <time>2009-05-03T14:55:02Z</time>
      </trkpt>
      <trkpt lat="45.5419530" lon="8.9264270">
        <ele>175.5800000</ele>
        <time>2009-05-03T14:55:07Z</time>
      </trkpt>
      <trkpt lat="45.5419600" lon="8.9264950">
        <ele>175.5800000</ele>
        <time>2009-05-03T14:55:08Z</time>
      </trkpt>
      <trkpt lat="45.5419710" lon="8.9265670">
        <ele>175.5800000</ele>
        <time>2009-05-03T14:55:09Z</time>
      </trkpt>
      <trkpt lat="45.5419310" lon="8.9276600">
        <ele>175.1000000</ele>
        <time>2009-05-03T14:55:23Z</time>
      </trkpt>
      <trkpt lat="45.5419220" lon="8.9287260">
        <ele>175.1000000</ele>
        <time>2009-05-03T14:55:36Z</time>
      </trkpt>
      <trkpt lat="45.5419350" lon="8.9287830">
        <ele>175.1000000</ele>
        <time>2009-05-03T14:55:37Z</time>
      </trkpt>
      <trkpt lat="45.5419500" lon="8.9288410">
        <ele>175.1000000</ele>
        <time>2009-05-03T14:55:38Z</time>
      </trkpt>
      <trkpt lat="45.5419480" lon="8.9289130">
        <ele>175.1000000</ele>
        <time>2009-05-03T14:55:39Z</time>
      </trkpt>
      <trkpt lat="45.5419250" lon="8.9289890">
        <ele>175.1000000</ele>
        <time>2009-05-03T14:55:40Z</time>
      </trkpt>
      <trkpt lat="45.5419190" lon="8.9290580">
        <ele>175.1000000</ele>
        <time>2009-05-03T14:55:41Z</time>
      </trkpt>
      <trkpt lat="45.5419140" lon="8.9291320">
        <ele>175.1000000</ele>
        <time>2009-05-03T14:55:42Z</time>
      </trkpt>
      <trkpt lat="45.5418790" lon="8.9296950">
        <ele>175.1000000</ele>
        <time>2009-05-03T14:55:49Z</time>
      </trkpt>
      <trkpt lat="45.5418570" lon="8.9309130">
        <ele>175.1000000</ele>
        <time>2009-05-03T14:56:04Z</time>
      </trkpt>
      <trkpt lat="45.5418460" lon="8.9319790">
        <ele>175.1000000</ele>
        <time>2009-05-03T14:56:17Z</time>
      </trkpt>
      <trkpt lat="45.5418440" lon="8.9320550">
        <ele>174.6200000</ele>
        <time>2009-05-03T14:56:18Z</time>
      </trkpt>
      <trkpt lat="45.5418400" lon="8.9324940">
        <ele>174.6200000</ele>
        <time>2009-05-03T14:56:23Z</time>
      </trkpt>
      <trkpt lat="45.5418450" lon="8.9325760">
        <ele>175.1000000</ele>
        <time>2009-05-03T14:56:24Z</time>
      </trkpt>
      <trkpt lat="45.5419160" lon="8.9338350">
        <ele>174.6200000</ele>
        <time>2009-05-03T14:56:39Z</time>
      </trkpt>
      <trkpt lat="45.5419660" lon="8.9343030">
        <ele>174.6200000</ele>
        <time>2009-05-03T14:56:44Z</time>
      </trkpt>
      <trkpt lat="45.5419670" lon="8.9343850">
        <ele>174.6200000</ele>
        <time>2009-05-03T14:56:45Z</time>
      </trkpt>
      <trkpt lat="45.5419740" lon="8.9344610">
        <ele>175.1000000</ele>
        <time>2009-05-03T14:56:46Z</time>
      </trkpt>
      <trkpt lat="45.5419880" lon="8.9345440">
        <ele>174.6200000</ele>
        <time>2009-05-03T14:56:47Z</time>
      </trkpt>
      <trkpt lat="45.5419970" lon="8.9346190">
        <ele>174.6200000</ele>
        <time>2009-05-03T14:56:48Z</time>
      </trkpt>
      <trkpt lat="45.5420130" lon="8.9346970">
        <ele>174.6200000</ele>
        <time>2009-05-03T14:56:49Z</time>
      </trkpt>
      <trkpt lat="45.5420270" lon="8.9347710">
        <ele>174.6200000</ele>
        <time>2009-05-03T14:56:50Z</time>
      </trkpt>
      <trkpt lat="45.5420400" lon="8.9348420">
        <ele>174.6200000</ele>
        <time>2009-05-03T14:56:51Z</time>
      </trkpt>
      <trkpt lat="45.5420510" lon="8.9349120">
        <ele>174.6200000</ele>
        <time>2009-05-03T14:56:52Z</time>
      </trkpt>
      <trkpt lat="45.5421260" lon="8.9354280">
        <ele>174.6200000</ele>
        <time>2009-05-03T14:56:59Z</time>
      </trkpt>
      <trkpt lat="45.5421290" lon="8.9355000">
        <ele>174.6200000</ele>
        <time>2009-05-03T14:57:00Z</time>
      </trkpt>
      <trkpt lat="45.5421400" lon="8.9355700">
        <ele>174.6200000</ele>
        <time>2009-05-03T14:57:01Z</time>
      </trkpt>
      <trkpt lat="45.5421490" lon="8.9356410">
        <ele>174.6200000</ele>
        <time>2009-05-03T14:57:02Z</time>
      </trkpt>
      <trkpt lat="45.5421690" lon="8.9357140">
        <ele>174.6200000</ele>
        <time>2009-05-03T14:57:03Z</time>
      </trkpt>
      <trkpt lat="45.5421880" lon="8.9357870">
        <ele>174.6200000</ele>
        <time>2009-05-03T14:57:04Z</time>
      </trkpt>
      <trkpt lat="45.5421980" lon="8.9358500">
        <ele>174.6200000</ele>
        <time>2009-05-03T14:57:05Z</time>
      </trkpt>
      <trkpt lat="45.5422200" lon="8.9359760">
        <ele>174.6200000</ele>
        <time>2009-05-03T14:57:07Z</time>
      </trkpt>
      <trkpt lat="45.5422580" lon="8.9361270">
        <ele>174.6200000</ele>
        <time>2009-05-03T14:57:09Z</time>
      </trkpt>
      <trkpt lat="45.5422960" lon="8.9362640">
        <ele>174.6200000</ele>
        <time>2009-05-03T14:57:11Z</time>
      </trkpt>
      <trkpt lat="45.5423150" lon="8.9363450">
        <ele>174.6200000</ele>
        <time>2009-05-03T14:57:12Z</time>
      </trkpt>
      <trkpt lat="45.5423240" lon="8.9364250">
        <ele>174.6200000</ele>
        <time>2009-05-03T14:57:13Z</time>
      </trkpt>
      <trkpt lat="45.5423320" lon="8.9364980">
        <ele>174.6200000</ele>
        <time>2009-05-03T14:57:14Z</time>
      </trkpt>
      <trkpt lat="45.5423340" lon="8.9365780">
        <ele>174.6200000</ele>
        <time>2009-05-03T14:57:15Z</time>
      </trkpt>
      <trkpt lat="45.5423690" lon="8.9368110">
        <ele>174.6200000</ele>
        <time>2009-05-03T14:57:18Z</time>
      </trkpt>
      <trkpt lat="45.5423790" lon="8.9368880">
        <ele>174.6200000</ele>
        <time>2009-05-03T14:57:19Z</time>
      </trkpt>
      <trkpt lat="45.5423850" lon="8.9370390">
        <ele>174.6200000</ele>
        <time>2009-05-03T14:57:21Z</time>
      </trkpt>
      <trkpt lat="45.5424030" lon="8.9371120">
        <ele>174.6200000</ele>
        <time>2009-05-03T14:57:22Z</time>
      </trkpt>
      <trkpt lat="45.5424180" lon="8.9371800">
        <ele>174.6200000</ele>
        <time>2009-05-03T14:57:23Z</time>
      </trkpt>
      <trkpt lat="45.5424310" lon="8.9372480">
        <ele>174.6200000</ele>
        <time>2009-05-03T14:57:24Z</time>
      </trkpt>
      <trkpt lat="45.5424400" lon="8.9373180">
        <ele>174.6200000</ele>
        <time>2009-05-03T14:57:25Z</time>
      </trkpt>
      <trkpt lat="45.5424520" lon="8.9373820">
        <ele>174.6200000</ele>
        <time>2009-05-03T14:57:26Z</time>
      </trkpt>
      <trkpt lat="45.5424160" lon="8.9377240">
        <ele>175.5800000</ele>
        <time>2009-05-03T14:57:31Z</time>
      </trkpt>
      <trkpt lat="45.5424080" lon="8.9377710">
        <ele>176.0600000</ele>
        <time>2009-05-03T14:57:32Z</time>
      </trkpt>
      <trkpt lat="45.5424060" lon="8.9378070">
        <ele>176.0600000</ele>
        <time>2009-05-03T14:57:33Z</time>
      </trkpt>
      <trkpt lat="45.5423990" lon="8.9379900">
        <ele>176.5400000</ele>
        <time>2009-05-03T14:57:38Z</time>
      </trkpt>
      <trkpt lat="45.5424100" lon="8.9380380">
        <ele>177.0200000</ele>
        <time>2009-05-03T14:57:40Z</time>
      </trkpt>
      <trkpt lat="45.5424450" lon="8.9381380">
        <ele>175.5800000</ele>
        <time>2009-05-03T14:57:44Z</time>
      </trkpt>
      <trkpt lat="45.5424520" lon="8.9381610">
        <ele>175.5800000</ele>
        <time>2009-05-03T14:57:45Z</time>
      </trkpt>
      <trkpt lat="45.5424520" lon="8.9381870">
        <ele>175.1000000</ele>
        <time>2009-05-03T14:57:46Z</time>
      </trkpt>
      <trkpt lat="45.5424500" lon="8.9382130">
        <ele>175.1000000</ele>
        <time>2009-05-03T14:57:47Z</time>
      </trkpt>
      <trkpt lat="45.5424610" lon="8.9382520">
        <ele>174.6200000</ele>
        <time>2009-05-03T14:57:48Z</time>
      </trkpt>
      <trkpt lat="45.5424820" lon="8.9382980">
        <ele>174.1400000</ele>
        <time>2009-05-03T14:57:49Z</time>
      </trkpt>
      <trkpt lat="45.5425250" lon="8.9384620">
        <ele>174.6200000</ele>
        <time>2009-05-03T14:57:52Z</time>
      </trkpt>
      <trkpt lat="45.5425290" lon="8.9385190">
        <ele>174.6200000</ele>
        <time>2009-05-03T14:57:53Z</time>
      </trkpt>
      <trkpt lat="45.5425310" lon="8.9385770">
        <ele>174.6200000</ele>
        <time>2009-05-03T14:57:54Z</time>
      </trkpt>
      <trkpt lat="45.5425430" lon="8.9386380">
        <ele>174.1400000</ele>
        <time>2009-05-03T14:57:55Z</time>
      </trkpt>
      <trkpt lat="45.5425530" lon="8.9387160">
        <ele>174.1400000</ele>
        <time>2009-05-03T14:57:56Z</time>
      </trkpt>
      <trkpt lat="45.5425540" lon="8.9387840">
        <ele>174.1400000</ele>
        <time>2009-05-03T14:57:57Z</time>
      </trkpt>
      <trkpt lat="45.5426350" lon="8.9392760">
        <ele>174.1400000</ele>
        <time>2009-05-03T14:58:04Z</time>
      </trkpt>
      <trkpt lat="45.5426890" lon="8.9395550">
        <ele>174.1400000</ele>
        <time>2009-05-03T14:58:08Z</time>
      </trkpt>
      <trkpt lat="45.5426990" lon="8.9396380">
        <ele>174.1400000</ele>
        <time>2009-05-03T14:58:09Z</time>
      </trkpt>
      <trkpt lat="45.5428200" lon="8.9407360">
        <ele>174.1400000</ele>
        <time>2009-05-03T14:58:23Z</time>
      </trkpt>
      <trkpt lat="45.5428920" lon="8.9413180">
        <ele>174.1400000</ele>
        <time>2009-05-03T14:58:30Z</time>
      </trkpt>
      <trkpt lat="45.5429040" lon="8.9413980">
        <ele>174.1400000</ele>
        <time>2009-05-03T14:58:31Z</time>
      </trkpt>
      <trkpt lat="45.5429340" lon="8.9415400">
        <ele>174.1400000</ele>
        <time>2009-05-03T14:58:33Z</time>
      </trkpt>
      <trkpt lat="45.5429700" lon="8.9417520">
        <ele>174.1400000</ele>
        <time>2009-05-03T14:58:36Z</time>
      </trkpt>
      <trkpt lat="45.5430610" lon="8.9423660">
        <ele>174.1400000</ele>
        <time>2009-05-03T14:58:44Z</time>
      </trkpt>
      <trkpt lat="45.5430340" lon="8.9424640">
        <ele>174.1400000</ele>
        <time>2009-05-03T14:58:45Z</time>
      </trkpt>
      <trkpt lat="45.5430500" lon="8.9425410">
        <ele>174.1400000</ele>
        <time>2009-05-03T14:58:46Z</time>
      </trkpt>
      <trkpt lat="45.5431650" lon="8.9435280">
        <ele>174.1400000</ele>
        <time>2009-05-03T14:58:58Z</time>
      </trkpt>
      <trkpt lat="45.5431730" lon="8.9436150">
        <ele>174.1400000</ele>
        <time>2009-05-03T14:58:59Z</time>
      </trkpt>
      <trkpt lat="45.5432530" lon="8.9441070">
        <ele>174.1400000</ele>
        <time>2009-05-03T14:59:05Z</time>
      </trkpt>
      <trkpt lat="45.5432680" lon="8.9441880">
        <ele>174.6200000</ele>
        <time>2009-05-03T14:59:06Z</time>
      </trkpt>
      <trkpt lat="45.5432780" lon="8.9442750">
        <ele>174.1400000</ele>
        <time>2009-05-03T14:59:07Z</time>
      </trkpt>
      <trkpt lat="45.5432880" lon="8.9443540">
        <ele>174.1400000</ele>
        <time>2009-05-03T14:59:08Z</time>
      </trkpt>
      <trkpt lat="45.5433000" lon="8.9444340">
        <ele>174.6200000</ele>
        <time>2009-05-03T14:59:09Z</time>
      </trkpt>
      <trkpt lat="45.5433120" lon="8.9445170">
        <ele>174.1400000</ele>
        <time>2009-05-03T14:59:10Z</time>
      </trkpt>
      <trkpt lat="45.5433300" lon="8.9445960">
        <ele>174.1400000</ele>
        <time>2009-05-03T14:59:11Z</time>
      </trkpt>
      <trkpt lat="45.5433420" lon="8.9446760">
        <ele>174.1400000</ele>
        <time>2009-05-03T14:59:12Z</time>
      </trkpt>
      <trkpt lat="45.5434030" lon="8.9450870">
        <ele>174.1400000</ele>
        <time>2009-05-03T14:59:17Z</time>
      </trkpt>
      <trkpt lat="45.5434680" lon="8.9454920">
        <ele>174.1400000</ele>
        <time>2009-05-03T14:59:22Z</time>
      </trkpt>
      <trkpt lat="45.5434860" lon="8.9455700">
        <ele>174.1400000</ele>
        <time>2009-05-03T14:59:23Z</time>
      </trkpt>
      <trkpt lat="45.5435450" lon="8.9460590">
        <ele>174.1400000</ele>
        <time>2009-05-03T14:59:29Z</time>
      </trkpt>
      <trkpt lat="45.5435800" lon="8.9462980">
        <ele>174.1400000</ele>
        <time>2009-05-03T14:59:32Z</time>
      </trkpt>
      <trkpt lat="45.5435950" lon="8.9463820">
        <ele>174.1400000</ele>
        <time>2009-05-03T14:59:33Z</time>
      </trkpt>
      <trkpt lat="45.5436390" lon="8.9467970">
        <ele>173.6600000</ele>
        <time>2009-05-03T14:59:38Z</time>
      </trkpt>
      <trkpt lat="45.5436450" lon="8.9468850">
        <ele>174.1400000</ele>
        <time>2009-05-03T14:59:39Z</time>
      </trkpt>
      <trkpt lat="45.5438860" lon="8.9476570">
        <ele>173.6600000</ele>
        <time>2009-05-03T14:59:49Z</time>
      </trkpt>
      <trkpt lat="45.5439260" lon="8.9477140">
        <ele>173.6600000</ele>
        <time>2009-05-03T14:59:50Z</time>
      </trkpt>
      <trkpt lat="45.5439520" lon="8.9477760">
        <ele>174.1400000</ele>
        <time>2009-05-03T14:59:51Z</time>
      </trkpt>
      <trkpt lat="45.5440390" lon="8.9479630">
        <ele>174.1400000</ele>
        <time>2009-05-03T14:59:54Z</time>
      </trkpt>
      <trkpt lat="45.5443420" lon="8.9486030">
        <ele>173.6600000</ele>
        <time>2009-05-03T15:00:06Z</time>
      </trkpt>
      <trkpt lat="45.5448120" lon="8.9491070">
        <ele>173.6600000</ele>
        <time>2009-05-03T15:00:21Z</time>
      </trkpt>
      <trkpt lat="45.5452190" lon="8.9494130">
        <ele>174.1400000</ele>
        <time>2009-05-03T15:00:32Z</time>
      </trkpt>
      <trkpt lat="45.5455360" lon="8.9496180">
        <ele>173.6600000</ele>
        <time>2009-05-03T15:00:39Z</time>
      </trkpt>
      <trkpt lat="45.5455630" lon="8.9496640">
        <ele>173.1700000</ele>
        <time>2009-05-03T15:00:40Z</time>
      </trkpt>
      <trkpt lat="45.5455880" lon="8.9497180">
        <ele>173.1700000</ele>
        <time>2009-05-03T15:00:41Z</time>
      </trkpt>
      <trkpt lat="45.5456200" lon="8.9497760">
        <ele>173.1700000</ele>
        <time>2009-05-03T15:00:42Z</time>
      </trkpt>
      <trkpt lat="45.5456560" lon="8.9498090">
        <ele>173.1700000</ele>
        <time>2009-05-03T15:00:43Z</time>
      </trkpt>
      <trkpt lat="45.5456940" lon="8.9498320">
        <ele>173.1700000</ele>
        <time>2009-05-03T15:00:44Z</time>
      </trkpt>
      <trkpt lat="45.5457450" lon="8.9498540">
        <ele>173.1700000</ele>
        <time>2009-05-03T15:00:45Z</time>
      </trkpt>
      <trkpt lat="45.5457840" lon="8.9498770">
        <ele>173.1700000</ele>
        <time>2009-05-03T15:00:46Z</time>
      </trkpt>
      <trkpt lat="45.5458270" lon="8.9498940">
        <ele>173.1700000</ele>
        <time>2009-05-03T15:00:47Z</time>
      </trkpt>
      <trkpt lat="45.5459590" lon="8.9499260">
        <ele>173.1700000</ele>
        <time>2009-05-03T15:00:50Z</time>
      </trkpt>
      <trkpt lat="45.5462980" lon="8.9499700">
        <ele>173.1700000</ele>
        <time>2009-05-03T15:00:57Z</time>
      </trkpt>
      <trkpt lat="45.5463430" lon="8.9499650">
        <ele>173.6600000</ele>
        <time>2009-05-03T15:00:58Z</time>
      </trkpt>
      <trkpt lat="45.5463870" lon="8.9499560">
        <ele>173.6600000</ele>
        <time>2009-05-03T15:00:59Z</time>
      </trkpt>
      <trkpt lat="45.5464440" lon="8.9499380">
        <ele>173.6600000</ele>
        <time>2009-05-03T15:01:00Z</time>
      </trkpt>
      <trkpt lat="45.5464910" lon="8.9499180">
        <ele>173.6600000</ele>
        <time>2009-05-03T15:01:01Z</time>
      </trkpt>
      <trkpt lat="45.5465370" lon="8.9498990">
        <ele>173.6600000</ele>
        <time>2009-05-03T15:01:02Z</time>
      </trkpt>
      <trkpt lat="45.5470060" lon="8.9498220">
        <ele>174.1400000</ele>
        <time>2009-05-03T15:01:12Z</time>
      </trkpt>
      <trkpt lat="45.5472220" lon="8.9498370">
        <ele>174.6200000</ele>
        <time>2009-05-03T15:01:17Z</time>
      </trkpt>
      <trkpt lat="45.5477520" lon="8.9498660">
        <ele>174.6200000</ele>
        <time>2009-05-03T15:01:30Z</time>
      </trkpt>
      <trkpt lat="45.5477990" lon="8.9498810">
        <ele>174.6200000</ele>
        <time>2009-05-03T15:01:31Z</time>
      </trkpt>
      <trkpt lat="45.5478340" lon="8.9499090">
        <ele>174.6200000</ele>
        <time>2009-05-03T15:01:32Z</time>
      </trkpt>
      <trkpt lat="45.5478660" lon="8.9499540">
        <ele>174.6200000</ele>
        <time>2009-05-03T15:01:33Z</time>
      </trkpt>
      <trkpt lat="45.5479330" lon="8.9501010">
        <ele>174.6200000</ele>
        <time>2009-05-03T15:01:36Z</time>
      </trkpt>
      <trkpt lat="45.5479390" lon="8.9501630">
        <ele>174.6200000</ele>
        <time>2009-05-03T15:01:37Z</time>
      </trkpt>
      <trkpt lat="45.5479430" lon="8.9502250">
        <ele>174.6200000</ele>
        <time>2009-05-03T15:01:38Z</time>
      </trkpt>
      <trkpt lat="45.5479480" lon="8.9502950">
        <ele>175.1000000</ele>
        <time>2009-05-03T15:01:39Z</time>
      </trkpt>
      <trkpt lat="45.5479520" lon="8.9503610">
        <ele>174.6200000</ele>
        <time>2009-05-03T15:01:40Z</time>
      </trkpt>
      <trkpt lat="45.5479600" lon="8.9504300">
        <ele>175.1000000</ele>
        <time>2009-05-03T15:01:41Z</time>
      </trkpt>
      <trkpt lat="45.5479560" lon="8.9508130">
        <ele>175.1000000</ele>
        <time>2009-05-03T15:01:47Z</time>
      </trkpt>
      <trkpt lat="45.5478880" lon="8.9512370">
        <ele>174.6200000</ele>
        <time>2009-05-03T15:01:53Z</time>
      </trkpt>
      <trkpt lat="45.5478620" lon="8.9513270">
        <ele>174.6200000</ele>
        <time>2009-05-03T15:01:54Z</time>
      </trkpt>
      <trkpt lat="45.5478870" lon="8.9513960">
        <ele>174.6200000</ele>
        <time>2009-05-03T15:01:55Z</time>
      </trkpt>
      <trkpt lat="45.5479220" lon="8.9514550">
        <ele>174.6200000</ele>
        <time>2009-05-03T15:01:56Z</time>
      </trkpt>
      <trkpt lat="45.5479700" lon="8.9514950">
        <ele>174.6200000</ele>
        <time>2009-05-03T15:01:57Z</time>
      </trkpt>
      <trkpt lat="45.5480200" lon="8.9515180">
        <ele>174.6200000</ele>
        <time>2009-05-03T15:01:58Z</time>
      </trkpt>
      <trkpt lat="45.5480680" lon="8.9515370">
        <ele>174.1400000</ele>
        <time>2009-05-03T15:01:59Z</time>
      </trkpt>
      <trkpt lat="45.5481160" lon="8.9515530">
        <ele>174.1400000</ele>
        <time>2009-05-03T15:02:00Z</time>
      </trkpt>
      <trkpt lat="45.5482170" lon="8.9515840">
        <ele>174.1400000</ele>
        <time>2009-05-03T15:02:02Z</time>
      </trkpt>
      <trkpt lat="45.5482720" lon="8.9516170">
        <ele>174.1400000</ele>
        <time>2009-05-03T15:02:03Z</time>
      </trkpt>
      <trkpt lat="45.5483230" lon="8.9516550">
        <ele>174.1400000</ele>
        <time>2009-05-03T15:02:04Z</time>
      </trkpt>
      <trkpt lat="45.5487010" lon="8.9519550">
        <ele>173.1700000</ele>
        <time>2009-05-03T15:02:11Z</time>
      </trkpt>
      <trkpt lat="45.5487490" lon="8.9520250">
        <ele>172.6900000</ele>
        <time>2009-05-03T15:02:12Z</time>
      </trkpt>
      <trkpt lat="45.5488420" lon="8.9521590">
        <ele>172.2100000</ele>
        <time>2009-05-03T15:02:14Z</time>
      </trkpt>
      <trkpt lat="45.5492730" lon="8.9527890">
        <ele>171.2500000</ele>
        <time>2009-05-03T15:02:24Z</time>
      </trkpt>
      <trkpt lat="45.5497260" lon="8.9536310">
        <ele>171.2500000</ele>
        <time>2009-05-03T15:02:39Z</time>
      </trkpt>
      <trkpt lat="45.5498450" lon="8.9538360">
        <ele>171.2500000</ele>
        <time>2009-05-03T15:02:43Z</time>
      </trkpt>
      <trkpt lat="45.5498750" lon="8.9538620">
        <ele>171.2500000</ele>
        <time>2009-05-03T15:02:44Z</time>
      </trkpt>
      <trkpt lat="45.5499150" lon="8.9538700">
        <ele>171.2500000</ele>
        <time>2009-05-03T15:02:45Z</time>
      </trkpt>
      <trkpt lat="45.5499510" lon="8.9538540">
        <ele>171.2500000</ele>
        <time>2009-05-03T15:02:46Z</time>
      </trkpt>
      <trkpt lat="45.5499870" lon="8.9538200">
        <ele>171.2500000</ele>
        <time>2009-05-03T15:02:47Z</time>
      </trkpt>
      <trkpt lat="45.5500220" lon="8.9537750">
        <ele>171.7300000</ele>
        <time>2009-05-03T15:02:48Z</time>
      </trkpt>
      <trkpt lat="45.5500530" lon="8.9537420">
        <ele>171.7300000</ele>
        <time>2009-05-03T15:02:49Z</time>
      </trkpt>
      <trkpt lat="45.5506910" lon="8.9530900">
        <ele>172.2100000</ele>
        <time>2009-05-03T15:03:05Z</time>
      </trkpt>
      <trkpt lat="45.5512400" lon="8.9524270">
        <ele>172.2100000</ele>
        <time>2009-05-03T15:03:20Z</time>
      </trkpt>
      <trkpt lat="45.5517640" lon="8.9518710">
        <ele>172.6900000</ele>
        <time>2009-05-03T15:03:34Z</time>
      </trkpt>
      <trkpt lat="45.5519470" lon="8.9516770">
        <ele>173.6600000</ele>
        <time>2009-05-03T15:03:40Z</time>
      </trkpt>
      <trkpt lat="45.5519850" lon="8.9516570">
        <ele>173.1700000</ele>
        <time>2009-05-03T15:03:41Z</time>
      </trkpt>
      <trkpt lat="45.5520330" lon="8.9516520">
        <ele>173.6600000</ele>
        <time>2009-05-03T15:03:42Z</time>
      </trkpt>
      <trkpt lat="45.5520860" lon="8.9516660">
        <ele>173.1700000</ele>
        <time>2009-05-03T15:03:43Z</time>
      </trkpt>
      <trkpt lat="45.5521390" lon="8.9517030">
        <ele>173.1700000</ele>
        <time>2009-05-03T15:03:44Z</time>
      </trkpt>
      <trkpt lat="45.5521730" lon="8.9517410">
        <ele>173.1700000</ele>
        <time>2009-05-03T15:03:45Z</time>
      </trkpt>
      <trkpt lat="45.5522080" lon="8.9517900">
        <ele>173.1700000</ele>
        <time>2009-05-03T15:03:46Z</time>
      </trkpt>
      <trkpt lat="45.5525420" lon="8.9521580">
        <ele>172.6900000</ele>
        <time>2009-05-03T15:03:54Z</time>
      </trkpt>
      <trkpt lat="45.5525950" lon="8.9521960">
        <ele>173.1700000</ele>
        <time>2009-05-03T15:03:55Z</time>
      </trkpt>
      <trkpt lat="45.5532750" lon="8.9529690">
        <ele>173.1700000</ele>
        <time>2009-05-03T15:04:12Z</time>
      </trkpt>
      <trkpt lat="45.5536900" lon="8.9534650">
        <ele>174.6200000</ele>
        <time>2009-05-03T15:04:26Z</time>
      </trkpt>
      <trkpt lat="45.5537180" lon="8.9535010">
        <ele>175.1000000</ele>
        <time>2009-05-03T15:04:28Z</time>
      </trkpt>
      <trkpt lat="45.5537440" lon="8.9535120">
        <ele>174.6200000</ele>
        <time>2009-05-03T15:04:29Z</time>
      </trkpt>
      <trkpt lat="45.5537770" lon="8.9535170">
        <ele>174.6200000</ele>
        <time>2009-05-03T15:04:30Z</time>
      </trkpt>
      <trkpt lat="45.5538020" lon="8.9535410">
        <ele>175.1000000</ele>
        <time>2009-05-03T15:04:31Z</time>
      </trkpt>
      <trkpt lat="45.5538270" lon="8.9535690">
        <ele>174.6200000</ele>
        <time>2009-05-03T15:04:32Z</time>
      </trkpt>
      <trkpt lat="45.5538550" lon="8.9535990">
        <ele>174.6200000</ele>
        <time>2009-05-03T15:04:33Z</time>
      </trkpt>
      <trkpt lat="45.5544750" lon="8.9542440">
        <ele>174.1400000</ele>
        <time>2009-05-03T15:04:48Z</time>
      </trkpt>
      <trkpt lat="45.5551200" lon="8.9549290">
        <ele>174.1400000</ele>
        <time>2009-05-03T15:05:03Z</time>
      </trkpt>
      <trkpt lat="45.5557820" lon="8.9556550">
        <ele>174.1400000</ele>
        <time>2009-05-03T15:05:18Z</time>
      </trkpt>
      <trkpt lat="45.5563500" lon="8.9563360">
        <ele>174.1400000</ele>
        <time>2009-05-03T15:05:32Z</time>
      </trkpt>
      <trkpt lat="45.5563790" lon="8.9563830">
        <ele>174.6200000</ele>
        <time>2009-05-03T15:05:33Z</time>
      </trkpt>
      <trkpt lat="45.5563960" lon="8.9564220">
        <ele>175.1000000</ele>
        <time>2009-05-03T15:05:34Z</time>
      </trkpt>
      <trkpt lat="45.5564130" lon="8.9564610">
        <ele>175.1000000</ele>
        <time>2009-05-03T15:05:35Z</time>
      </trkpt>
      <trkpt lat="45.5564250" lon="8.9564860">
        <ele>175.5800000</ele>
        <time>2009-05-03T15:05:36Z</time>
      </trkpt>
      <trkpt lat="45.5564400" lon="8.9565000">
        <ele>175.5800000</ele>
        <time>2009-05-03T15:05:37Z</time>
      </trkpt>
      <trkpt lat="45.5567500" lon="8.9568440">
        <ele>174.1400000</ele>
        <time>2009-05-03T15:05:47Z</time>
      </trkpt>
      <trkpt lat="45.5574030" lon="8.9577340">
        <ele>174.1400000</ele>
        <time>2009-05-03T15:06:03Z</time>
      </trkpt>
      <trkpt lat="45.5579690" lon="8.9586550">
        <ele>174.1400000</ele>
        <time>2009-05-03T15:06:18Z</time>
      </trkpt>
      <trkpt lat="45.5583100" lon="8.9592700">
        <ele>174.1400000</ele>
        <time>2009-05-03T15:06:28Z</time>
      </trkpt>
      <trkpt lat="45.5587380" lon="8.9601340">
        <ele>174.1400000</ele>
        <time>2009-05-03T15:06:42Z</time>
      </trkpt>
      <trkpt lat="45.5592050" lon="8.9611900">
        <ele>174.1400000</ele>
        <time>2009-05-03T15:06:59Z</time>
      </trkpt>
      <trkpt lat="45.5596220" lon="8.9622780">
        <ele>174.1400000</ele>
        <time>2009-05-03T15:07:16Z</time>
      </trkpt>
      <trkpt lat="45.5597860" lon="8.9629200">
        <ele>175.5800000</ele>
        <time>2009-05-03T15:07:29Z</time>
      </trkpt>
      <trkpt lat="45.5598020" lon="8.9629820">
        <ele>175.5800000</ele>
        <time>2009-05-03T15:07:33Z</time>
      </trkpt>
      <trkpt lat="45.5598270" lon="8.9630270">
        <ele>175.5800000</ele>
        <time>2009-05-03T15:07:34Z</time>
      </trkpt>
      <trkpt lat="45.5599600" lon="8.9632680">
        <ele>174.1400000</ele>
        <time>2009-05-03T15:07:40Z</time>
      </trkpt>
      <trkpt lat="45.5599900" lon="8.9633210">
        <ele>174.1400000</ele>
        <time>2009-05-03T15:07:41Z</time>
      </trkpt>
      <trkpt lat="45.5600110" lon="8.9633750">
        <ele>174.1400000</ele>
        <time>2009-05-03T15:07:42Z</time>
      </trkpt>
      <trkpt lat="45.5602190" lon="8.9638830">
        <ele>174.1400000</ele>
        <time>2009-05-03T15:07:51Z</time>
      </trkpt>
      <trkpt lat="45.5602420" lon="8.9639480">
        <ele>174.1400000</ele>
        <time>2009-05-03T15:07:52Z</time>
      </trkpt>
      <trkpt lat="45.5603220" lon="8.9641650">
        <ele>174.1400000</ele>
        <time>2009-05-03T15:07:55Z</time>
      </trkpt>
      <trkpt lat="45.5603460" lon="8.9642300">
        <ele>174.1400000</ele>
        <time>2009-05-03T15:07:56Z</time>
      </trkpt>
      <trkpt lat="45.5604170" lon="8.9645820">
        <ele>174.1400000</ele>
        <time>2009-05-03T15:08:01Z</time>
      </trkpt>
      <trkpt lat="45.5604330" lon="8.9646470">
        <ele>173.6600000</ele>
        <time>2009-05-03T15:08:02Z</time>
      </trkpt>
      <trkpt lat="45.5604480" lon="8.9647310">
        <ele>173.6600000</ele>
        <time>2009-05-03T15:08:03Z</time>
      </trkpt>
      <trkpt lat="45.5605310" lon="8.9648650">
        <ele>174.1400000</ele>
        <time>2009-05-03T15:08:05Z</time>
      </trkpt>
      <trkpt lat="45.5608040" lon="8.9656100">
        <ele>173.6600000</ele>
        <time>2009-05-03T15:08:15Z</time>
      </trkpt>
      <trkpt lat="45.5608260" lon="8.9656800">
        <ele>173.6600000</ele>
        <time>2009-05-03T15:08:16Z</time>
      </trkpt>
      <trkpt lat="45.5608500" lon="8.9657440">
        <ele>173.6600000</ele>
        <time>2009-05-03T15:08:17Z</time>
      </trkpt>
      <trkpt lat="45.5611840" lon="8.9666420">
        <ele>174.1400000</ele>
        <time>2009-05-03T15:08:30Z</time>
      </trkpt>
      <trkpt lat="45.5612350" lon="8.9667790">
        <ele>173.6600000</ele>
        <time>2009-05-03T15:08:32Z</time>
      </trkpt>
      <trkpt lat="45.5612540" lon="8.9668480">
        <ele>173.6600000</ele>
        <time>2009-05-03T15:08:33Z</time>
      </trkpt>
      <trkpt lat="45.5612990" lon="8.9669870">
        <ele>173.6600000</ele>
        <time>2009-05-03T15:08:35Z</time>
      </trkpt>
      <trkpt lat="45.5617000" lon="8.9680020">
        <ele>173.6600000</ele>
        <time>2009-05-03T15:08:49Z</time>
      </trkpt>
      <trkpt lat="45.5618210" lon="8.9683670">
        <ele>173.6600000</ele>
        <time>2009-05-03T15:08:54Z</time>
      </trkpt>
      <trkpt lat="45.5618210" lon="8.9684400">
        <ele>173.6600000</ele>
        <time>2009-05-03T15:08:55Z</time>
      </trkpt>
      <trkpt lat="45.5618050" lon="8.9685170">
        <ele>173.6600000</ele>
        <time>2009-05-03T15:08:56Z</time>
      </trkpt>
      <trkpt lat="45.5617900" lon="8.9685760">
        <ele>173.6600000</ele>
        <time>2009-05-03T15:08:57Z</time>
      </trkpt>
      <trkpt lat="45.5617690" lon="8.9686300">
        <ele>173.1700000</ele>
        <time>2009-05-03T15:08:58Z</time>
      </trkpt>
      <trkpt lat="45.5617080" lon="8.9687560">
        <ele>172.6900000</ele>
        <time>2009-05-03T15:09:00Z</time>
      </trkpt>
      <trkpt lat="45.5614570" lon="8.9694360">
        <ele>172.2100000</ele>
        <time>2009-05-03T15:09:09Z</time>
      </trkpt>
      <trkpt lat="45.5613860" lon="8.9695620">
        <ele>172.2100000</ele>
        <time>2009-05-03T15:09:11Z</time>
      </trkpt>
      <trkpt lat="45.5613390" lon="8.9696210">
        <ele>172.2100000</ele>
        <time>2009-05-03T15:09:12Z</time>
      </trkpt>
      <trkpt lat="45.5612990" lon="8.9696730">
        <ele>172.2100000</ele>
        <time>2009-05-03T15:09:13Z</time>
      </trkpt>
      <trkpt lat="45.5612570" lon="8.9697230">
        <ele>171.7300000</ele>
        <time>2009-05-03T15:09:14Z</time>
      </trkpt>
      <trkpt lat="45.5612140" lon="8.9697800">
        <ele>171.7300000</ele>
        <time>2009-05-03T15:09:15Z</time>
      </trkpt>
      <trkpt lat="45.5607770" lon="8.9703540">
        <ele>171.7300000</ele>
        <time>2009-05-03T15:09:25Z</time>
      </trkpt>
      <trkpt lat="45.5606530" lon="8.9706110">
        <ele>172.2100000</ele>
        <time>2009-05-03T15:09:31Z</time>
      </trkpt>
      <trkpt lat="45.5606600" lon="8.9706400">
        <ele>172.2100000</ele>
        <time>2009-05-03T15:09:32Z</time>
      </trkpt>
      <trkpt lat="45.5606640" lon="8.9706650">
        <ele>172.6900000</ele>
        <time>2009-05-03T15:09:33Z</time>
      </trkpt>
      <trkpt lat="45.5608170" lon="8.9708760">
        <ele>173.1700000</ele>
        <time>2009-05-03T15:09:48Z</time>
      </trkpt>
      <trkpt lat="45.5608380" lon="8.9709360">
        <ele>173.1700000</ele>
        <time>2009-05-03T15:10:03Z</time>
      </trkpt>
      <trkpt lat="45.5608350" lon="8.9709820">
        <ele>173.1700000</ele>
        <time>2009-05-03T15:11:05Z</time>
      </trkpt>
      <trkpt lat="45.5608350" lon="8.9710130">
        <ele>173.1700000</ele>
        <time>2009-05-03T15:11:06Z</time>
      </trkpt>
      <trkpt lat="45.5608360" lon="8.9710550">
        <ele>173.1700000</ele>
        <time>2009-05-03T15:11:07Z</time>
      </trkpt>
      <trkpt lat="45.5607960" lon="8.9712310">
        <ele>173.1700000</ele>
        <time>2009-05-03T15:11:11Z</time>
      </trkpt>
      <trkpt lat="45.5604670" lon="8.9717130">
        <ele>173.6600000</ele>
        <time>2009-05-03T15:11:22Z</time>
      </trkpt>
      <trkpt lat="45.5600380" lon="8.9722600">
        <ele>173.6600000</ele>
        <time>2009-05-03T15:11:36Z</time>
      </trkpt>
      <trkpt lat="45.5595970" lon="8.9729170">
        <ele>173.6600000</ele>
        <time>2009-05-03T15:11:50Z</time>
      </trkpt>
      <trkpt lat="45.5594290" lon="8.9733530">
        <ele>173.6600000</ele>
        <time>2009-05-03T15:11:58Z</time>
      </trkpt>
      <trkpt lat="45.5594060" lon="8.9734220">
        <ele>173.6600000</ele>
        <time>2009-05-03T15:11:59Z</time>
      </trkpt>
      <trkpt lat="45.5593850" lon="8.9734800">
        <ele>173.6600000</ele>
        <time>2009-05-03T15:12:00Z</time>
      </trkpt>
      <trkpt lat="45.5593640" lon="8.9735330">
        <ele>173.6600000</ele>
        <time>2009-05-03T15:12:01Z</time>
      </trkpt>
      <trkpt lat="45.5593480" lon="8.9735950">
        <ele>174.1400000</ele>
        <time>2009-05-03T15:12:02Z</time>
      </trkpt>
      <trkpt lat="45.5593210" lon="8.9737190">
        <ele>174.1400000</ele>
        <time>2009-05-03T15:12:04Z</time>
      </trkpt>
      <trkpt lat="45.5590850" lon="8.9744890">
        <ele>173.6600000</ele>
        <time>2009-05-03T15:12:16Z</time>
      </trkpt>
      <trkpt lat="45.5590730" lon="8.9745490">
        <ele>174.1400000</ele>
        <time>2009-05-03T15:12:17Z</time>
      </trkpt>
      <trkpt lat="45.5590310" lon="8.9747130">
        <ele>174.1400000</ele>
        <time>2009-05-03T15:12:20Z</time>
      </trkpt>
      <trkpt lat="45.5588220" lon="8.9754970">
        <ele>173.6600000</ele>
        <time>2009-05-03T15:12:33Z</time>
      </trkpt>
      <trkpt lat="45.5588080" lon="8.9755600">
        <ele>174.1400000</ele>
        <time>2009-05-03T15:12:34Z</time>
      </trkpt>
      <trkpt lat="45.5587880" lon="8.9756260">
        <ele>173.6600000</ele>
        <time>2009-05-03T15:12:35Z</time>
      </trkpt>
      <trkpt lat="45.5586370" lon="8.9762310">
        <ele>174.1400000</ele>
        <time>2009-05-03T15:12:45Z</time>
      </trkpt>
      <trkpt lat="45.5585910" lon="8.9763730">
        <ele>174.1400000</ele>
        <time>2009-05-03T15:12:47Z</time>
      </trkpt>
      <trkpt lat="45.5583740" lon="8.9771090">
        <ele>174.1400000</ele>
        <time>2009-05-03T15:12:58Z</time>
      </trkpt>
      <trkpt lat="45.5581380" lon="8.9779250">
        <ele>173.6600000</ele>
        <time>2009-05-03T15:13:10Z</time>
      </trkpt>
      <trkpt lat="45.5580970" lon="8.9781660">
        <ele>173.6600000</ele>
        <time>2009-05-03T15:13:14Z</time>
      </trkpt>
      <trkpt lat="45.5580610" lon="8.9784380">
        <ele>174.1400000</ele>
        <time>2009-05-03T15:13:18Z</time>
      </trkpt>
      <trkpt lat="45.5580500" lon="8.9785060">
        <ele>174.1400000</ele>
        <time>2009-05-03T15:13:19Z</time>
      </trkpt>
      <trkpt lat="45.5580060" lon="8.9790900">
        <ele>175.5800000</ele>
        <time>2009-05-03T15:13:30Z</time>
      </trkpt>
      <trkpt lat="45.5580960" lon="8.9794400">
        <ele>173.1700000</ele>
        <time>2009-05-03T15:13:38Z</time>
      </trkpt>
      <trkpt lat="45.5581310" lon="8.9795670">
        <ele>173.1700000</ele>
        <time>2009-05-03T15:13:40Z</time>
      </trkpt>
      <trkpt lat="45.5581390" lon="8.9796340">
        <ele>173.1700000</ele>
        <time>2009-05-03T15:13:41Z</time>
      </trkpt>
      <trkpt lat="45.5581420" lon="8.9797060">
        <ele>173.1700000</ele>
        <time>2009-05-03T15:13:42Z</time>
      </trkpt>
      <trkpt lat="45.5581350" lon="8.9797630">
        <ele>173.1700000</ele>
        <time>2009-05-03T15:13:43Z</time>
      </trkpt>
      <trkpt lat="45.5581380" lon="8.9798190">
        <ele>173.1700000</ele>
        <time>2009-05-03T15:13:44Z</time>
      </trkpt>
      <trkpt lat="45.5581310" lon="8.9798720">
        <ele>173.6600000</ele>
        <time>2009-05-03T15:13:45Z</time>
      </trkpt>
      <trkpt lat="45.5581290" lon="8.9799360">
        <ele>173.6600000</ele>
        <time>2009-05-03T15:13:46Z</time>
      </trkpt>
      <trkpt lat="45.5581420" lon="8.9800050">
        <ele>173.6600000</ele>
        <time>2009-05-03T15:13:47Z</time>
      </trkpt>
      <trkpt lat="45.5582740" lon="8.9807020">
        <ele>173.6600000</ele>
        <time>2009-05-03T15:13:58Z</time>
      </trkpt>
      <trkpt lat="45.5582780" lon="8.9807770">
        <ele>173.6600000</ele>
        <time>2009-05-03T15:13:59Z</time>
      </trkpt>
      <trkpt lat="45.5582960" lon="8.9808370">
        <ele>173.6600000</ele>
        <time>2009-05-03T15:14:00Z</time>
      </trkpt>
      <trkpt lat="45.5583220" lon="8.9808890">
        <ele>173.6600000</ele>
        <time>2009-05-03T15:14:01Z</time>
      </trkpt>
      <trkpt lat="45.5583240" lon="8.9809660">
        <ele>173.6600000</ele>
        <time>2009-05-03T15:14:02Z</time>
      </trkpt>
      <trkpt lat="45.5583090" lon="8.9810490">
        <ele>173.6600000</ele>
        <time>2009-05-03T15:14:03Z</time>
      </trkpt>
      <trkpt lat="45.5583050" lon="8.9811360">
        <ele>173.6600000</ele>
        <time>2009-05-03T15:14:04Z</time>
      </trkpt>
      <trkpt lat="45.5583140" lon="8.9812020">
        <ele>173.6600000</ele>
        <time>2009-05-03T15:14:05Z</time>
      </trkpt>
      <trkpt lat="45.5583240" lon="8.9812820">
        <ele>173.6600000</ele>
        <time>2009-05-03T15:14:06Z</time>
      </trkpt>
      <trkpt lat="45.5583920" lon="8.9817020">
        <ele>173.6600000</ele>
        <time>2009-05-03T15:14:12Z</time>
      </trkpt>
      <trkpt lat="45.5584010" lon="8.9817820">
        <ele>173.6600000</ele>
        <time>2009-05-03T15:14:13Z</time>
      </trkpt>
      <trkpt lat="45.5584080" lon="8.9819710">
        <ele>173.6600000</ele>
        <time>2009-05-03T15:14:15Z</time>
      </trkpt>
      <trkpt lat="45.5584060" lon="8.9820610">
        <ele>173.6600000</ele>
        <time>2009-05-03T15:14:16Z</time>
      </trkpt>
      <trkpt lat="45.5584180" lon="8.9821470">
        <ele>173.6600000</ele>
        <time>2009-05-03T15:14:17Z</time>
      </trkpt>
      <trkpt lat="45.5584830" lon="8.9824670">
        <ele>173.6600000</ele>
        <time>2009-05-03T15:14:21Z</time>
      </trkpt>
      <trkpt lat="45.5586940" lon="8.9833380">
        <ele>173.1700000</ele>
        <time>2009-05-03T15:14:33Z</time>
      </trkpt>
      <trkpt lat="45.5587950" lon="8.9837700">
        <ele>173.1700000</ele>
        <time>2009-05-03T15:14:41Z</time>
      </trkpt>
      <trkpt lat="45.5588180" lon="8.9838330">
        <ele>173.1700000</ele>
        <time>2009-05-03T15:14:42Z</time>
      </trkpt>
      <trkpt lat="45.5589410" lon="8.9843260">
        <ele>173.1700000</ele>
        <time>2009-05-03T15:14:49Z</time>
      </trkpt>
      <trkpt lat="45.5589330" lon="8.9844150">
        <ele>172.6900000</ele>
        <time>2009-05-03T15:14:50Z</time>
      </trkpt>
      <trkpt lat="45.5589150" lon="8.9845010">
        <ele>173.1700000</ele>
        <time>2009-05-03T15:14:51Z</time>
      </trkpt>
      <trkpt lat="45.5588940" lon="8.9846650">
        <ele>172.6900000</ele>
        <time>2009-05-03T15:14:53Z</time>
      </trkpt>
      <trkpt lat="45.5589030" lon="8.9847520">
        <ele>173.1700000</ele>
        <time>2009-05-03T15:14:54Z</time>
      </trkpt>
      <trkpt lat="45.5589170" lon="8.9848320">
        <ele>172.6900000</ele>
        <time>2009-05-03T15:14:55Z</time>
      </trkpt>
      <trkpt lat="45.5589580" lon="8.9851300">
        <ele>172.6900000</ele>
        <time>2009-05-03T15:14:59Z</time>
      </trkpt>
      <trkpt lat="45.5589720" lon="8.9852080">
        <ele>172.6900000</ele>
        <time>2009-05-03T15:15:00Z</time>
      </trkpt>
      <trkpt lat="45.5590740" lon="8.9856610">
        <ele>172.6900000</ele>
        <time>2009-05-03T15:15:06Z</time>
      </trkpt>
      <trkpt lat="45.5591000" lon="8.9857340">
        <ele>172.6900000</ele>
        <time>2009-05-03T15:15:07Z</time>
      </trkpt>
      <trkpt lat="45.5592040" lon="8.9862690">
        <ele>172.6900000</ele>
        <time>2009-05-03T15:15:17Z</time>
      </trkpt>
      <trkpt lat="45.5593400" lon="8.9869250">
        <ele>172.6900000</ele>
        <time>2009-05-03T15:15:28Z</time>
      </trkpt>
      <trkpt lat="45.5593660" lon="8.9870820">
        <ele>172.6900000</ele>
        <time>2009-05-03T15:15:30Z</time>
      </trkpt>
      <trkpt lat="45.5593920" lon="8.9871580">
        <ele>172.6900000</ele>
        <time>2009-05-03T15:15:31Z</time>
      </trkpt>
      <trkpt lat="45.5594380" lon="8.9874790">
        <ele>172.6900000</ele>
        <time>2009-05-03T15:15:35Z</time>
      </trkpt>
      <trkpt lat="45.5594610" lon="8.9877400">
        <ele>173.1700000</ele>
        <time>2009-05-03T15:15:38Z</time>
      </trkpt>
      <trkpt lat="45.5595150" lon="8.9879840">
        <ele>172.6900000</ele>
        <time>2009-05-03T15:15:41Z</time>
      </trkpt>
      <trkpt lat="45.5596030" lon="8.9883710">
        <ele>172.6900000</ele>
        <time>2009-05-03T15:15:46Z</time>
      </trkpt>
      <trkpt lat="45.5596040" lon="8.9885350">
        <ele>172.6900000</ele>
        <time>2009-05-03T15:15:48Z</time>
      </trkpt>
      <trkpt lat="45.5596090" lon="8.9886100">
        <ele>172.6900000</ele>
        <time>2009-05-03T15:15:49Z</time>
      </trkpt>
      <trkpt lat="45.5596210" lon="8.9886780">
        <ele>172.6900000</ele>
        <time>2009-05-03T15:15:50Z</time>
      </trkpt>
      <trkpt lat="45.5596380" lon="8.9887450">
        <ele>172.6900000</ele>
        <time>2009-05-03T15:15:51Z</time>
      </trkpt>
      <trkpt lat="45.5596460" lon="8.9888130">
        <ele>172.6900000</ele>
        <time>2009-05-03T15:15:52Z</time>
      </trkpt>
      <trkpt lat="45.5596600" lon="8.9888790">
        <ele>172.6900000</ele>
        <time>2009-05-03T15:15:53Z</time>
      </trkpt>
      <trkpt lat="45.5596570" lon="8.9889470">
        <ele>172.6900000</ele>
        <time>2009-05-03T15:15:54Z</time>
      </trkpt>
      <trkpt lat="45.5596760" lon="8.9890920">
        <ele>172.6900000</ele>
        <time>2009-05-03T15:15:56Z</time>
      </trkpt>
      <trkpt lat="45.5597160" lon="8.9893970">
        <ele>172.6900000</ele>
        <time>2009-05-03T15:16:00Z</time>
      </trkpt>
      <trkpt lat="45.5597410" lon="8.9895520">
        <ele>172.6900000</ele>
        <time>2009-05-03T15:16:02Z</time>
      </trkpt>
      <trkpt lat="45.5597750" lon="8.9897620">
        <ele>172.6900000</ele>
        <time>2009-05-03T15:16:05Z</time>
      </trkpt>
      <trkpt lat="45.5597740" lon="8.9898320">
        <ele>172.6900000</ele>
        <time>2009-05-03T15:16:06Z</time>
      </trkpt>
      <trkpt lat="45.5597980" lon="8.9899720">
        <ele>172.6900000</ele>
        <time>2009-05-03T15:16:08Z</time>
      </trkpt>
      <trkpt lat="45.5598460" lon="8.9902560">
        <ele>172.6900000</ele>
        <time>2009-05-03T15:16:12Z</time>
      </trkpt>
      <trkpt lat="45.5598530" lon="8.9903380">
        <ele>172.6900000</ele>
        <time>2009-05-03T15:16:13Z</time>
      </trkpt>
      <trkpt lat="45.5598520" lon="8.9904180">
        <ele>172.6900000</ele>
        <time>2009-05-03T15:16:14Z</time>
      </trkpt>
      <trkpt lat="45.5599520" lon="8.9909420">
        <ele>172.6900000</ele>
        <time>2009-05-03T15:16:21Z</time>
      </trkpt>
      <trkpt lat="45.5600170" lon="8.9912330">
        <ele>172.2100000</ele>
        <time>2009-05-03T15:16:25Z</time>
      </trkpt>
      <trkpt lat="45.5600210" lon="8.9913110">
        <ele>172.2100000</ele>
        <time>2009-05-03T15:16:26Z</time>
      </trkpt>
      <trkpt lat="45.5601560" lon="8.9921570">
        <ele>172.2100000</ele>
        <time>2009-05-03T15:16:37Z</time>
      </trkpt>
      <trkpt lat="45.5602170" lon="8.9924560">
        <ele>171.7300000</ele>
        <time>2009-05-03T15:16:41Z</time>
      </trkpt>
      <trkpt lat="45.5603290" lon="8.9930320">
        <ele>172.2100000</ele>
        <time>2009-05-03T15:16:48Z</time>
      </trkpt>
      <trkpt lat="45.5604220" lon="8.9935090">
        <ele>171.7300000</ele>
        <time>2009-05-03T15:16:54Z</time>
      </trkpt>
      <trkpt lat="45.5606100" lon="8.9944750">
        <ele>171.7300000</ele>
        <time>2009-05-03T15:17:08Z</time>
      </trkpt>
      <trkpt lat="45.5606510" lon="8.9947570">
        <ele>171.7300000</ele>
        <time>2009-05-03T15:17:12Z</time>
      </trkpt>
      <trkpt lat="45.5606630" lon="8.9948260">
        <ele>171.7300000</ele>
        <time>2009-05-03T15:17:13Z</time>
      </trkpt>
      <trkpt lat="45.5606700" lon="8.9948920">
        <ele>171.7300000</ele>
        <time>2009-05-03T15:17:14Z</time>
      </trkpt>
      <trkpt lat="45.5606800" lon="8.9949520">
        <ele>171.7300000</ele>
        <time>2009-05-03T15:17:15Z</time>
      </trkpt>
      <trkpt lat="45.5606940" lon="8.9950100">
        <ele>171.7300000</ele>
        <time>2009-05-03T15:17:16Z</time>
      </trkpt>
      <trkpt lat="45.5607090" lon="8.9950840">
        <ele>171.7300000</ele>
        <time>2009-05-03T15:17:17Z</time>
      </trkpt>
      <trkpt lat="45.5607970" lon="8.9958050">
        <ele>171.7300000</ele>
        <time>2009-05-03T15:17:27Z</time>
      </trkpt>
      <trkpt lat="45.5608430" lon="8.9961670">
        <ele>171.7300000</ele>
        <time>2009-05-03T15:17:32Z</time>
      </trkpt>
      <trkpt lat="45.5608580" lon="8.9962270">
        <ele>171.7300000</ele>
        <time>2009-05-03T15:17:33Z</time>
      </trkpt>
      <trkpt lat="45.5608650" lon="8.9962970">
        <ele>171.7300000</ele>
        <time>2009-05-03T15:17:34Z</time>
      </trkpt>
      <trkpt lat="45.5610090" lon="8.9971970">
        <ele>171.7300000</ele>
        <time>2009-05-03T15:17:48Z</time>
      </trkpt>
      <trkpt lat="45.5610370" lon="8.9973350">
        <ele>171.7300000</ele>
        <time>2009-05-03T15:17:50Z</time>
      </trkpt>
      <trkpt lat="45.5611080" lon="8.9980470">
        <ele>171.7300000</ele>
        <time>2009-05-03T15:18:02Z</time>
      </trkpt>
      <trkpt lat="45.5612190" lon="8.9986710">
        <ele>171.7300000</ele>
        <time>2009-05-03T15:18:12Z</time>
      </trkpt>
      <trkpt lat="45.5612820" lon="8.9990560">
        <ele>172.6900000</ele>
        <time>2009-05-03T15:18:19Z</time>
      </trkpt>
      <trkpt lat="45.5613270" lon="8.9994300">
        <ele>172.6900000</ele>
        <time>2009-05-03T15:18:28Z</time>
      </trkpt>
      <trkpt lat="45.5615250" lon="8.9999320">
        <ele>171.2500000</ele>
        <time>2009-05-03T15:18:38Z</time>
      </trkpt>
      <trkpt lat="45.5616620" lon="9.0005280">
        <ele>170.7700000</ele>
        <time>2009-05-03T15:18:52Z</time>
      </trkpt>
      <trkpt lat="45.5616900" lon="9.0012220">
        <ele>171.2500000</ele>
        <time>2009-05-03T15:19:04Z</time>
      </trkpt>
      <trkpt lat="45.5617460" lon="9.0016380">
        <ele>171.2500000</ele>
        <time>2009-05-03T15:19:10Z</time>
      </trkpt>
      <trkpt lat="45.5618800" lon="9.0023420">
        <ele>171.2500000</ele>
        <time>2009-05-03T15:19:21Z</time>
      </trkpt>
      <trkpt lat="45.5618860" lon="9.0024120">
        <ele>171.2500000</ele>
        <time>2009-05-03T15:19:22Z</time>
      </trkpt>
      <trkpt lat="45.5619330" lon="9.0027500">
        <ele>171.2500000</ele>
        <time>2009-05-03T15:19:27Z</time>
      </trkpt>
      <trkpt lat="45.5619410" lon="9.0028210">
        <ele>171.2500000</ele>
        <time>2009-05-03T15:19:28Z</time>
      </trkpt>
      <trkpt lat="45.5619770" lon="9.0029610">
        <ele>171.2500000</ele>
        <time>2009-05-03T15:19:30Z</time>
      </trkpt>
      <trkpt lat="45.5619940" lon="9.0030350">
        <ele>170.7700000</ele>
        <time>2009-05-03T15:19:31Z</time>
      </trkpt>
      <trkpt lat="45.5620970" lon="9.0035320">
        <ele>170.7700000</ele>
        <time>2009-05-03T15:19:38Z</time>
      </trkpt>
      <trkpt lat="45.5621000" lon="9.0036050">
        <ele>170.7700000</ele>
        <time>2009-05-03T15:19:39Z</time>
      </trkpt>
      <trkpt lat="45.5621790" lon="9.0042030">
        <ele>170.7700000</ele>
        <time>2009-05-03T15:19:47Z</time>
      </trkpt>
      <trkpt lat="45.5621970" lon="9.0042700">
        <ele>170.7700000</ele>
        <time>2009-05-03T15:19:48Z</time>
      </trkpt>
      <trkpt lat="45.5622160" lon="9.0044100">
        <ele>170.7700000</ele>
        <time>2009-05-03T15:19:50Z</time>
      </trkpt>
      <trkpt lat="45.5622190" lon="9.0044730">
        <ele>170.7700000</ele>
        <time>2009-05-03T15:19:51Z</time>
      </trkpt>
      <trkpt lat="45.5622690" lon="9.0046780">
        <ele>170.7700000</ele>
        <time>2009-05-03T15:19:54Z</time>
      </trkpt>
      <trkpt lat="45.5623940" lon="9.0052160">
        <ele>171.2500000</ele>
        <time>2009-05-03T15:20:01Z</time>
      </trkpt>
      <trkpt lat="45.5623920" lon="9.0052980">
        <ele>171.2500000</ele>
        <time>2009-05-03T15:20:02Z</time>
      </trkpt>
      <trkpt lat="45.5623910" lon="9.0053780">
        <ele>171.2500000</ele>
        <time>2009-05-03T15:20:03Z</time>
      </trkpt>
      <trkpt lat="45.5623860" lon="9.0055920">
        <ele>170.7700000</ele>
        <time>2009-05-03T15:20:06Z</time>
      </trkpt>
      <trkpt lat="45.5624000" lon="9.0056500">
        <ele>170.7700000</ele>
        <time>2009-05-03T15:20:07Z</time>
      </trkpt>
      <trkpt lat="45.5624300" lon="9.0058570">
        <ele>170.7700000</ele>
        <time>2009-05-03T15:20:10Z</time>
      </trkpt>
      <trkpt lat="45.5625540" lon="9.0067010">
        <ele>170.2900000</ele>
        <time>2009-05-03T15:20:21Z</time>
      </trkpt>
      <trkpt lat="45.5625670" lon="9.0067750">
        <ele>170.7700000</ele>
        <time>2009-05-03T15:20:22Z</time>
      </trkpt>
      <trkpt lat="45.5626690" lon="9.0073260">
        <ele>170.2900000</ele>
        <time>2009-05-03T15:20:29Z</time>
      </trkpt>
      <trkpt lat="45.5626890" lon="9.0073970">
        <ele>170.2900000</ele>
        <time>2009-05-03T15:20:30Z</time>
      </trkpt>
      <trkpt lat="45.5627090" lon="9.0074790">
        <ele>170.2900000</ele>
        <time>2009-05-03T15:20:31Z</time>
      </trkpt>
      <trkpt lat="45.5628360" lon="9.0079860">
        <ele>170.2900000</ele>
        <time>2009-05-03T15:20:38Z</time>
      </trkpt>
      <trkpt lat="45.5628630" lon="9.0082350">
        <ele>170.2900000</ele>
        <time>2009-05-03T15:20:41Z</time>
      </trkpt>
      <trkpt lat="45.5628840" lon="9.0083000">
        <ele>170.7700000</ele>
        <time>2009-05-03T15:20:42Z</time>
      </trkpt>
      <trkpt lat="45.5629040" lon="9.0083640">
        <ele>170.7700000</ele>
        <time>2009-05-03T15:20:43Z</time>
      </trkpt>
      <trkpt lat="45.5629100" lon="9.0084130">
        <ele>170.7700000</ele>
        <time>2009-05-03T15:20:44Z</time>
      </trkpt>
      <trkpt lat="45.5629150" lon="9.0084550">
        <ele>170.2900000</ele>
        <time>2009-05-03T15:20:45Z</time>
      </trkpt>
      <trkpt lat="45.5629370" lon="9.0085010">
        <ele>170.2900000</ele>
        <time>2009-05-03T15:20:46Z</time>
      </trkpt>
      <trkpt lat="45.5629560" lon="9.0085520">
        <ele>170.2900000</ele>
        <time>2009-05-03T15:20:47Z</time>
      </trkpt>
      <trkpt lat="45.5630310" lon="9.0088860">
        <ele>170.2900000</ele>
        <time>2009-05-03T15:20:51Z</time>
      </trkpt>
      <trkpt lat="45.5630640" lon="9.0093980">
        <ele>170.7700000</ele>
        <time>2009-05-03T15:20:57Z</time>
      </trkpt>
      <trkpt lat="45.5630610" lon="9.0095730">
        <ele>170.2900000</ele>
        <time>2009-05-03T15:20:59Z</time>
      </trkpt>
      <trkpt lat="45.5630740" lon="9.0097310">
        <ele>170.7700000</ele>
        <time>2009-05-03T15:21:01Z</time>
      </trkpt>
      <trkpt lat="45.5630750" lon="9.0098100">
        <ele>170.7700000</ele>
        <time>2009-05-03T15:21:02Z</time>
      </trkpt>
      <trkpt lat="45.5631700" lon="9.0106960">
        <ele>170.2900000</ele>
        <time>2009-05-03T15:21:13Z</time>
      </trkpt>
      <trkpt lat="45.5631780" lon="9.0108380">
        <ele>170.2900000</ele>
        <time>2009-05-03T15:21:15Z</time>
      </trkpt>
      <trkpt lat="45.5631820" lon="9.0110700">
        <ele>170.7700000</ele>
        <time>2009-05-03T15:21:18Z</time>
      </trkpt>
      <trkpt lat="45.5631680" lon="9.0111690">
        <ele>171.2500000</ele>
        <time>2009-05-03T15:21:19Z</time>
      </trkpt>
      <trkpt lat="45.5631780" lon="9.0112400">
        <ele>171.2500000</ele>
        <time>2009-05-03T15:21:20Z</time>
      </trkpt>
      <trkpt lat="45.5631870" lon="9.0112860">
        <ele>171.7300000</ele>
        <time>2009-05-03T15:21:21Z</time>
      </trkpt>
      <trkpt lat="45.5632100" lon="9.0113230">
        <ele>171.7300000</ele>
        <time>2009-05-03T15:21:22Z</time>
      </trkpt>
      <trkpt lat="45.5632390" lon="9.0113680">
        <ele>171.2500000</ele>
        <time>2009-05-03T15:21:23Z</time>
      </trkpt>
      <trkpt lat="45.5632590" lon="9.0114250">
        <ele>171.2500000</ele>
        <time>2009-05-03T15:21:24Z</time>
      </trkpt>
      <trkpt lat="45.5632900" lon="9.0114990">
        <ele>171.2500000</ele>
        <time>2009-05-03T15:21:25Z</time>
      </trkpt>
      <trkpt lat="45.5633540" lon="9.0117960">
        <ele>170.7700000</ele>
        <time>2009-05-03T15:21:28Z</time>
      </trkpt>
      <trkpt lat="45.5634020" lon="9.0119620">
        <ele>170.2900000</ele>
        <time>2009-05-03T15:21:30Z</time>
      </trkpt>
      <trkpt lat="45.5634300" lon="9.0120540">
        <ele>170.2900000</ele>
        <time>2009-05-03T15:21:31Z</time>
      </trkpt>
      <trkpt lat="45.5634440" lon="9.0121380">
        <ele>170.2900000</ele>
        <time>2009-05-03T15:21:32Z</time>
      </trkpt>
      <trkpt lat="45.5634640" lon="9.0122160">
        <ele>170.2900000</ele>
        <time>2009-05-03T15:21:33Z</time>
      </trkpt>
      <trkpt lat="45.5634850" lon="9.0123050">
        <ele>170.7700000</ele>
        <time>2009-05-03T15:21:34Z</time>
      </trkpt>
      <trkpt lat="45.5635040" lon="9.0123950">
        <ele>170.7700000</ele>
        <time>2009-05-03T15:21:35Z</time>
      </trkpt>
      <trkpt lat="45.5635630" lon="9.0128270">
        <ele>170.2900000</ele>
        <time>2009-05-03T15:21:40Z</time>
      </trkpt>
      <trkpt lat="45.5635740" lon="9.0129070">
        <ele>170.2900000</ele>
        <time>2009-05-03T15:21:41Z</time>
      </trkpt>
      <trkpt lat="45.5635750" lon="9.0130180">
        <ele>170.2900000</ele>
        <time>2009-05-03T15:21:42Z</time>
      </trkpt>
      <trkpt lat="45.5636850" lon="9.0135320">
        <ele>169.8100000</ele>
        <time>2009-05-03T15:21:48Z</time>
      </trkpt>
      <trkpt lat="45.5637000" lon="9.0136120">
        <ele>170.2900000</ele>
        <time>2009-05-03T15:21:49Z</time>
      </trkpt>
      <trkpt lat="45.5637300" lon="9.0136840">
        <ele>170.2900000</ele>
        <time>2009-05-03T15:21:50Z</time>
      </trkpt>
      <trkpt lat="45.5638090" lon="9.0140010">
        <ele>170.2900000</ele>
        <time>2009-05-03T15:21:54Z</time>
      </trkpt>
      <trkpt lat="45.5638520" lon="9.0141380">
        <ele>169.8100000</ele>
        <time>2009-05-03T15:21:56Z</time>
      </trkpt>
      <trkpt lat="45.5638690" lon="9.0142140">
        <ele>169.8100000</ele>
        <time>2009-05-03T15:21:57Z</time>
      </trkpt>
      <trkpt lat="45.5639660" lon="9.0145100">
        <ele>169.8100000</ele>
        <time>2009-05-03T15:22:00Z</time>
      </trkpt>
      <trkpt lat="45.5639920" lon="9.0145970">
        <ele>169.8100000</ele>
        <time>2009-05-03T15:22:01Z</time>
      </trkpt>
      <trkpt lat="45.5643210" lon="9.0154380">
        <ele>169.8100000</ele>
        <time>2009-05-03T15:22:12Z</time>
      </trkpt>
      <trkpt lat="45.5644250" lon="9.0156500">
        <ele>169.8100000</ele>
        <time>2009-05-03T15:22:15Z</time>
      </trkpt>
      <trkpt lat="45.5644500" lon="9.0157200">
        <ele>169.8100000</ele>
        <time>2009-05-03T15:22:16Z</time>
      </trkpt>
      <trkpt lat="45.5645030" lon="9.0158550">
        <ele>169.8100000</ele>
        <time>2009-05-03T15:22:18Z</time>
      </trkpt>
      <trkpt lat="45.5646610" lon="9.0163980">
        <ele>169.8100000</ele>
        <time>2009-05-03T15:22:27Z</time>
      </trkpt>
      <trkpt lat="45.5646860" lon="9.0164690">
        <ele>169.8100000</ele>
        <time>2009-05-03T15:22:28Z</time>
      </trkpt>
      <trkpt lat="45.5647570" lon="9.0166280">
        <ele>169.8100000</ele>
        <time>2009-05-03T15:22:30Z</time>
      </trkpt>
      <trkpt lat="45.5653610" lon="9.0178210">
        <ele>169.8100000</ele>
        <time>2009-05-03T15:22:46Z</time>
      </trkpt>
      <trkpt lat="45.5660300" lon="9.0189170">
        <ele>170.2900000</ele>
        <time>2009-05-03T15:23:03Z</time>
      </trkpt>
      <trkpt lat="45.5665840" lon="9.0196270">
        <ele>169.8100000</ele>
        <time>2009-05-03T15:23:15Z</time>
      </trkpt>
      <trkpt lat="45.5668590" lon="9.0199460">
        <ele>169.8100000</ele>
        <time>2009-05-03T15:23:21Z</time>
      </trkpt>
      <trkpt lat="45.5671860" lon="9.0203630">
        <ele>170.2900000</ele>
        <time>2009-05-03T15:23:29Z</time>
      </trkpt>
      <trkpt lat="45.5672580" lon="9.0204510">
        <ele>170.2900000</ele>
        <time>2009-05-03T15:23:31Z</time>
      </trkpt>
      <trkpt lat="45.5677220" lon="9.0208590">
        <ele>170.7700000</ele>
        <time>2009-05-03T15:23:42Z</time>
      </trkpt>
      <trkpt lat="45.5677810" lon="9.0208920">
        <ele>170.7700000</ele>
        <time>2009-05-03T15:23:45Z</time>
      </trkpt>
      <trkpt lat="45.5678000" lon="9.0209100">
        <ele>170.2900000</ele>
        <time>2009-05-03T15:23:46Z</time>
      </trkpt>
      <trkpt lat="45.5678150" lon="9.0209290">
        <ele>170.2900000</ele>
        <time>2009-05-03T15:23:47Z</time>
      </trkpt>
      <trkpt lat="45.5682110" lon="9.0212460">
        <ele>170.7700000</ele>
        <time>2009-05-03T15:23:56Z</time>
      </trkpt>
      <trkpt lat="45.5685000" lon="9.0214660">
        <ele>170.7700000</ele>
        <time>2009-05-03T15:24:02Z</time>
      </trkpt>
      <trkpt lat="45.5686580" lon="9.0216100">
        <ele>170.7700000</ele>
        <time>2009-05-03T15:24:09Z</time>
      </trkpt>
      <trkpt lat="45.5690470" lon="9.0218300">
        <ele>170.7700000</ele>
        <time>2009-05-03T15:24:16Z</time>
      </trkpt>
      <trkpt lat="45.5696940" lon="9.0222850">
        <ele>171.2500000</ele>
        <time>2009-05-03T15:24:28Z</time>
      </trkpt>
      <trkpt lat="45.5697360" lon="9.0223350">
        <ele>171.7300000</ele>
        <time>2009-05-03T15:24:30Z</time>
      </trkpt>
      <trkpt lat="45.5697860" lon="9.0223560">
        <ele>172.2100000</ele>
        <time>2009-05-03T15:24:31Z</time>
      </trkpt>
      <trkpt lat="45.5698160" lon="9.0223790">
        <ele>172.2100000</ele>
        <time>2009-05-03T15:24:32Z</time>
      </trkpt>
      <trkpt lat="45.5698460" lon="9.0224320">
        <ele>172.2100000</ele>
        <time>2009-05-03T15:24:34Z</time>
      </trkpt>
      <trkpt lat="45.5699420" lon="9.0230340">
        <ele>170.7700000</ele>
        <time>2009-05-03T15:24:44Z</time>
      </trkpt>
      <trkpt lat="45.5700390" lon="9.0232220">
        <ele>170.7700000</ele>
        <time>2009-05-03T15:24:47Z</time>
      </trkpt>
      <trkpt lat="45.5701140" lon="9.0234240">
        <ele>170.2900000</ele>
        <time>2009-05-03T15:24:50Z</time>
      </trkpt>
      <trkpt lat="45.5701320" lon="9.0234960">
        <ele>169.8100000</ele>
        <time>2009-05-03T15:24:51Z</time>
      </trkpt>
      <trkpt lat="45.5702210" lon="9.0237780">
        <ele>169.8100000</ele>
        <time>2009-05-03T15:24:55Z</time>
      </trkpt>
      <trkpt lat="45.5702880" lon="9.0240580">
        <ele>169.8100000</ele>
        <time>2009-05-03T15:24:59Z</time>
      </trkpt>
      <trkpt lat="45.5703000" lon="9.0241240">
        <ele>169.8100000</ele>
        <time>2009-05-03T15:25:00Z</time>
      </trkpt>
      <trkpt lat="45.5703230" lon="9.0241860">
        <ele>169.8100000</ele>
        <time>2009-05-03T15:25:01Z</time>
      </trkpt>
      <trkpt lat="45.5703600" lon="9.0243720">
        <ele>169.8100000</ele>
        <time>2009-05-03T15:25:04Z</time>
      </trkpt>
      <trkpt lat="45.5703950" lon="9.0245760">
        <ele>169.8100000</ele>
        <time>2009-05-03T15:25:07Z</time>
      </trkpt>
      <trkpt lat="45.5704810" lon="9.0248500">
        <ele>169.8100000</ele>
        <time>2009-05-03T15:25:11Z</time>
      </trkpt>
      <trkpt lat="45.5705070" lon="9.0249060">
        <ele>169.8100000</ele>
        <time>2009-05-03T15:25:12Z</time>
      </trkpt>
      <trkpt lat="45.5705340" lon="9.0249660">
        <ele>169.8100000</ele>
        <time>2009-05-03T15:25:13Z</time>
      </trkpt>
      <trkpt lat="45.5705990" lon="9.0252230">
        <ele>169.8100000</ele>
        <time>2009-05-03T15:25:17Z</time>
      </trkpt>
      <trkpt lat="45.5706930" lon="9.0256000">
        <ele>169.8100000</ele>
        <time>2009-05-03T15:25:25Z</time>
      </trkpt>
      <trkpt lat="45.5707120" lon="9.0256460">
        <ele>169.8100000</ele>
        <time>2009-05-03T15:25:37Z</time>
      </trkpt>
    </trkseg>
  </trk>

</gpx>
